<?xml version='1.0' encoding='UTF-8'?><gpx version="1.1" creator="JPX - https://github.com/jenetics/jpx" xmlns="http://www.topografix.com/GPX/1/1"><trk><trkseg><trkpt lat="46.28618785260911" lon="13.111808440742582"><ele>200.0</ele><time>2026-04-06T08:22:47Z</time></trkpt><trkpt lat="46.28626624750825" lon="13.111864720804267"><ele>200.0</ele><time>2026-04-06T08:22:49Z</time></trkpt><trkpt lat="46.28637447295989" lon="13.11194363218757"><ele>200.0</ele><time>2026-04-06T08:22:51Z</time></trkpt><trkpt lat="46.28645181221426" lon="13.111992692132644"><ele>200.0</ele><time>2026-04-06T08:22:53Z</time></trkpt><trkpt lat="46.28653017660262" lon="13.11198014951502"><ele>200.0</ele><time>2026-04-06T08:22:56Z</time></trkpt><trkpt lat="46.28663611123229" lon="13.111952113688428"><ele>200.0</ele><time>2026-04-06T08:22:58Z</time></trkpt><trkpt lat="46.28670226470635" lon="13.11201054645949"><ele>200.0</ele><time>2026-04-06T08:22:59Z</time></trkpt><trkpt lat="46.286768737863525" lon="13.112071238216032"><ele>200.0</ele><time>2026-04-06T08:23:00Z</time></trkpt><trkpt lat="46.28686536473525" lon="13.112148187452165"><ele>200.0</ele><time>2026-04-06T08:23:01Z</time></trkpt><trkpt lat="46.28698685450685" lon="13.112232676903314"><ele>200.0</ele><time>2026-04-06T08:23:02Z</time></trkpt><trkpt lat="46.287143597958966" lon="13.112344192248885"><ele>200.33333333333334</ele><time>2026-04-06T08:23:03Z</time></trkpt><trkpt lat="46.287344076992184" lon="13.112481190401256"><ele>200.66666666666669</ele><time>2026-04-06T08:23:04Z</time></trkpt><trkpt lat="46.287539441269075" lon="13.112625845923624"><ele>201.0</ele><time>2026-04-06T08:23:05Z</time></trkpt><trkpt lat="46.287729606421436" lon="13.11276647282495"><ele>201.0</ele><time>2026-04-06T08:23:06Z</time></trkpt><trkpt lat="46.28790704839382" lon="13.112900910363145"><ele>201.0</ele><time>2026-04-06T08:23:07Z</time></trkpt><trkpt lat="46.28807845790768" lon="13.113026640049544"><ele>201.0</ele><time>2026-04-06T08:23:08Z</time></trkpt><trkpt lat="46.288256032650885" lon="13.113157184997332"><ele>201.33333333333331</ele><time>2026-04-06T08:23:09Z</time></trkpt><trkpt lat="46.28843210815079" lon="13.113286686983646"><ele>201.66666666666666</ele><time>2026-04-06T08:23:10Z</time></trkpt><trkpt lat="46.28862362035772" lon="13.113418856296203"><ele>202.0</ele><time>2026-04-06T08:23:11Z</time></trkpt><trkpt lat="46.288826715698356" lon="13.113563135060062"><ele>201.33333333333331</ele><time>2026-04-06T08:23:12Z</time></trkpt><trkpt lat="46.28901623760297" lon="13.113702906217966"><ele>200.66666666666669</ele><time>2026-04-06T08:23:13Z</time></trkpt><trkpt lat="46.28919827299724" lon="13.113835245989762"><ele>200.0</ele><time>2026-04-06T08:23:14Z</time></trkpt><trkpt lat="46.28938702734473" lon="13.113972845718694"><ele>200.0</ele><time>2026-04-06T08:23:15Z</time></trkpt><trkpt lat="46.28957337617219" lon="13.114107406277117"><ele>200.0</ele><time>2026-04-06T08:23:16Z</time></trkpt><trkpt lat="46.28975334696803" lon="13.114236303753836"><ele>200.0</ele><time>2026-04-06T08:23:17Z</time></trkpt><trkpt lat="46.28992283656831" lon="13.114347009879697"><ele>201.0</ele><time>2026-04-06T08:23:18Z</time></trkpt><trkpt lat="46.2900933302527" lon="13.114447037224647"><ele>202.0</ele><time>2026-04-06T08:23:19Z</time></trkpt><trkpt lat="46.29027300366719" lon="13.1145403703957"><ele>203.0</ele><time>2026-04-06T08:23:20Z</time></trkpt><trkpt lat="46.29045843687602" lon="13.114622376909937"><ele>202.33333333333334</ele><time>2026-04-06T08:23:21Z</time></trkpt><trkpt lat="46.29065115027276" lon="13.114685510612663"><ele>201.66666666666669</ele><time>2026-04-06T08:23:22Z</time></trkpt><trkpt lat="46.29085433966743" lon="13.114734926991863"><ele>201.0</ele><time>2026-04-06T08:23:23Z</time></trkpt><trkpt lat="46.291272061707275" lon="13.114834505931967"><ele>201.66666666666669</ele><time>2026-04-06T08:23:25Z</time></trkpt><trkpt lat="46.29146644010028" lon="13.114885291742347"><ele>202.33333333333334</ele><time>2026-04-06T08:23:26Z</time></trkpt><trkpt lat="46.29164876699567" lon="13.114933315654806"><ele>203.0</ele><time>2026-04-06T08:23:27Z</time></trkpt><trkpt lat="46.291823155133386" lon="13.114980168657672"><ele>203.0</ele><time>2026-04-06T08:23:28Z</time></trkpt><trkpt lat="46.29198851465112" lon="13.115022805780495"><ele>203.0</ele><time>2026-04-06T08:23:29Z</time></trkpt><trkpt lat="46.29216625294478" lon="13.115063959699265"><ele>203.0</ele><time>2026-04-06T08:23:30Z</time></trkpt><trkpt lat="46.29235412895091" lon="13.11510652778726"><ele>203.33333333333334</ele><time>2026-04-06T08:23:31Z</time></trkpt><trkpt lat="46.29254782593488" lon="13.115150983554027"><ele>203.66666666666669</ele><time>2026-04-06T08:23:32Z</time></trkpt><trkpt lat="46.292744723233355" lon="13.115196648187904"><ele>204.0</ele><time>2026-04-06T08:23:33Z</time></trkpt><trkpt lat="46.29293631875804" lon="13.115239769918723"><ele>204.0</ele><time>2026-04-06T08:23:34Z</time></trkpt><trkpt lat="46.293126196997775" lon="13.115279924434242"><ele>204.0</ele><time>2026-04-06T08:23:35Z</time></trkpt><trkpt lat="46.29332021808076" lon="13.115316226548986"><ele>204.0</ele><time>2026-04-06T08:23:36Z</time></trkpt><trkpt lat="46.293518857406454" lon="13.115344867979736"><ele>204.0</ele><time>2026-04-06T08:23:37Z</time></trkpt><trkpt lat="46.29372106516493" lon="13.115364351531507"><ele>204.0</ele><time>2026-04-06T08:23:38Z</time></trkpt><trkpt lat="46.29392738788076" lon="13.115371369481862"><ele>204.0</ele><time>2026-04-06T08:23:39Z</time></trkpt><trkpt lat="46.29413511101449" lon="13.115362976589582"><ele>203.66666666666669</ele><time>2026-04-06T08:23:40Z</time></trkpt><trkpt lat="46.294341014225324" lon="13.115352329889761"><ele>203.33333333333334</ele><time>2026-04-06T08:23:41Z</time></trkpt><trkpt lat="46.294535022571786" lon="13.115344496935416"><ele>203.0</ele><time>2026-04-06T08:23:42Z</time></trkpt><trkpt lat="46.294717943150346" lon="13.1153378806901"><ele>203.66666666666669</ele><time>2026-04-06T08:23:43Z</time></trkpt><trkpt lat="46.294905575480854" lon="13.115331438392"><ele>204.33333333333331</ele><time>2026-04-06T08:23:44Z</time></trkpt><trkpt lat="46.295098195200744" lon="13.115326466188282"><ele>205.0</ele><time>2026-04-06T08:23:45Z</time></trkpt><trkpt lat="46.29529345072754" lon="13.115325055463117"><ele>205.0</ele><time>2026-04-06T08:23:46Z</time></trkpt><trkpt lat="46.29549203238731" lon="13.115324665106172"><ele>205.0</ele><time>2026-04-06T08:23:47Z</time></trkpt><trkpt lat="46.295696269274345" lon="13.11532688701865"><ele>205.0</ele><time>2026-04-06T08:23:48Z</time></trkpt><trkpt lat="46.295904580850845" lon="13.115340279934347"><ele>204.66666666666666</ele><time>2026-04-06T08:23:49Z</time></trkpt><trkpt lat="46.29611160045404" lon="13.11537869975723"><ele>204.33333333333331</ele><time>2026-04-06T08:23:50Z</time></trkpt><trkpt lat="46.29631685489459" lon="13.115446334545815"><ele>204.0</ele><time>2026-04-06T08:23:51Z</time></trkpt><trkpt lat="46.29652294460772" lon="13.115540632093438"><ele>204.66666666666669</ele><time>2026-04-06T08:23:52Z</time></trkpt><trkpt lat="46.29673099305164" lon="13.115657434185978"><ele>205.33333333333334</ele><time>2026-04-06T08:23:53Z</time></trkpt><trkpt lat="46.29693487362596" lon="13.11579666435306"><ele>206.0</ele><time>2026-04-06T08:23:54Z</time></trkpt><trkpt lat="46.29713518081644" lon="13.115949659377742"><ele>208.0</ele><time>2026-04-06T08:23:55Z</time></trkpt><trkpt lat="46.297334700985516" lon="13.116106659125505"><ele>210.0</ele><time>2026-04-06T08:23:56Z</time></trkpt><trkpt lat="46.29753533127273" lon="13.116267179304941"><ele>210.0</ele><time>2026-04-06T08:23:57Z</time></trkpt><trkpt lat="46.29773403005402" lon="13.116425407043234"><ele>210.0</ele><time>2026-04-06T08:23:58Z</time></trkpt><trkpt lat="46.297931909308296" lon="13.116580204658515"><ele>209.0</ele><time>2026-04-06T08:23:59Z</time></trkpt><trkpt lat="46.298125558229856" lon="13.116731776278085"><ele>208.0</ele><time>2026-04-06T08:24:00Z</time></trkpt><trkpt lat="46.29831565726754" lon="13.11688042394895"><ele>207.0</ele><time>2026-04-06T08:24:01Z</time></trkpt><trkpt lat="46.298507764885564" lon="13.117026931469972"><ele>207.0</ele><time>2026-04-06T08:24:02Z</time></trkpt><trkpt lat="46.29870281995975" lon="13.117178084848886"><ele>207.0</ele><time>2026-04-06T08:24:03Z</time></trkpt><trkpt lat="46.298899929305605" lon="13.117333927209652"><ele>207.0</ele><time>2026-04-06T08:24:04Z</time></trkpt><trkpt lat="46.2990988634631" lon="13.11749188062261"><ele>208.0</ele><time>2026-04-06T08:24:05Z</time></trkpt><trkpt lat="46.29930278682915" lon="13.117654395991782"><ele>209.0</ele><time>2026-04-06T08:24:06Z</time></trkpt><trkpt lat="46.29951088241591" lon="13.117821339352966"><ele>209.0</ele><time>2026-04-06T08:24:07Z</time></trkpt><trkpt lat="46.299723659928944" lon="13.117989911507348"><ele>209.0</ele><time>2026-04-06T08:24:08Z</time></trkpt><trkpt lat="46.2999379523899" lon="13.118156664635068"><ele>209.0</ele><time>2026-04-06T08:24:09Z</time></trkpt><trkpt lat="46.30015559271926" lon="13.118325349717017"><ele>209.0</ele><time>2026-04-06T08:24:10Z</time></trkpt><trkpt lat="46.300373873859954" lon="13.118493089312812"><ele>209.0</ele><time>2026-04-06T08:24:11Z</time></trkpt><trkpt lat="46.300576432722345" lon="13.118651173620226"><ele>209.0</ele><time>2026-04-06T08:24:12Z</time></trkpt><trkpt lat="46.30077980278153" lon="13.118813995052259"><ele>209.5</ele><time>2026-04-06T08:24:13Z</time></trkpt><trkpt lat="46.300988827307926" lon="13.118980286577436"><ele>210.0</ele><time>2026-04-06T08:24:14Z</time></trkpt><trkpt lat="46.301204220956684" lon="13.119150525696142"><ele>210.0</ele><time>2026-04-06T08:24:15Z</time></trkpt><trkpt lat="46.301420959341094" lon="13.119326279320791"><ele>210.0</ele><time>2026-04-06T08:24:16Z</time></trkpt><trkpt lat="46.30164354974683" lon="13.119506004331974"><ele>210.0</ele><time>2026-04-06T08:24:17Z</time></trkpt><trkpt lat="46.30186784037429" lon="13.119687852501498"><ele>210.0</ele><time>2026-04-06T08:24:18Z</time></trkpt><trkpt lat="46.30210328007628" lon="13.119873325551778"><ele>212.0</ele><time>2026-04-06T08:24:19Z</time></trkpt><trkpt lat="46.30234513436191" lon="13.120064587169956"><ele>214.0</ele><time>2026-04-06T08:24:20Z</time></trkpt><trkpt lat="46.30259290869443" lon="13.120263940117947"><ele>214.0</ele><time>2026-04-06T08:24:21Z</time></trkpt><trkpt lat="46.302832535427484" lon="13.120490297273438"><ele>214.0</ele><time>2026-04-06T08:24:22Z</time></trkpt><trkpt lat="46.30302177105205" lon="13.120659578197124"><ele>214.0</ele><time>2026-04-06T08:24:23Z</time></trkpt><trkpt lat="46.30325434428361" lon="13.120896729427672"><ele>214.0</ele><time>2026-04-06T08:24:24Z</time></trkpt><trkpt lat="46.30348008616253" lon="13.121137473419394"><ele>214.0</ele><time>2026-04-06T08:24:25Z</time></trkpt><trkpt lat="46.303681622992464" lon="13.12135240366166"><ele>214.0</ele><time>2026-04-06T08:24:26Z</time></trkpt><trkpt lat="46.303866605752404" lon="13.121543880547112"><ele>214.33333333333331</ele><time>2026-04-06T08:24:27Z</time></trkpt><trkpt lat="46.30404798673626" lon="13.121729155055384"><ele>214.66666666666669</ele><time>2026-04-06T08:24:28Z</time></trkpt><trkpt lat="46.304232984923104" lon="13.121919240306342"><ele>215.0</ele><time>2026-04-06T08:24:29Z</time></trkpt><trkpt lat="46.30442160815248" lon="13.122108079078787"><ele>215.0</ele><time>2026-04-06T08:24:30Z</time></trkpt><trkpt lat="46.30461394786855" lon="13.122312473794539"><ele>215.0</ele><time>2026-04-06T08:24:31Z</time></trkpt><trkpt lat="46.304802929591226" lon="13.122514714936845"><ele>217.5</ele><time>2026-04-06T08:24:32Z</time></trkpt><trkpt lat="46.3049892945191" lon="13.12273453909452"><ele>220.0</ele><time>2026-04-06T08:24:33Z</time></trkpt><trkpt lat="46.30516639016364" lon="13.122976165626515"><ele>229.5</ele><time>2026-04-06T08:24:34Z</time></trkpt><trkpt lat="46.30533161227673" lon="13.123246536777378"><ele>239.0</ele><time>2026-04-06T08:24:35Z</time></trkpt><trkpt lat="46.305490360029694" lon="13.123543874647856"><ele>234.0</ele><time>2026-04-06T08:24:36Z</time></trkpt><trkpt lat="46.30564880249798" lon="13.12385195826309"><ele>229.0</ele><time>2026-04-06T08:24:37Z</time></trkpt><trkpt lat="46.305798280922076" lon="13.124160982128313"><ele>229.0</ele><time>2026-04-06T08:24:38Z</time></trkpt><trkpt lat="46.305926535684975" lon="13.124436659414757"><ele>229.0</ele><time>2026-04-06T08:24:39Z</time></trkpt><trkpt lat="46.30604857056638" lon="13.124694589825562"><ele>229.0</ele><time>2026-04-06T08:24:40Z</time></trkpt><trkpt lat="46.30617774159491" lon="13.124948048452858"><ele>225.33333333333331</ele><time>2026-04-06T08:24:41Z</time></trkpt><trkpt lat="46.30630428890985" lon="13.125197600299584"><ele>221.66666666666669</ele><time>2026-04-06T08:24:42Z</time></trkpt><trkpt lat="46.30642534844544" lon="13.125428776549848"><ele>218.0</ele><time>2026-04-06T08:24:43Z</time></trkpt><trkpt lat="46.30654242776551" lon="13.12564350463949"><ele>224.0</ele><time>2026-04-06T08:24:44Z</time></trkpt><trkpt lat="46.30665764540871" lon="13.125860418938792"><ele>230.0</ele><time>2026-04-06T08:24:45Z</time></trkpt><trkpt lat="46.30677872915399" lon="13.126103623147662"><ele>236.0</ele><time>2026-04-06T08:24:46Z</time></trkpt><trkpt lat="46.306908145634495" lon="13.126353652980034"><ele>232.66666666666669</ele><time>2026-04-06T08:24:47Z</time></trkpt><trkpt lat="46.30703512937921" lon="13.126589901786057"><ele>229.33333333333331</ele><time>2026-04-06T08:24:48Z</time></trkpt><trkpt lat="46.307156773732515" lon="13.126805383582257"><ele>226.0</ele><time>2026-04-06T08:24:49Z</time></trkpt><trkpt lat="46.30726679696333" lon="13.127009880755933"><ele>226.0</ele><time>2026-04-06T08:24:50Z</time></trkpt><trkpt lat="46.30737744432151" lon="13.127207745302002"><ele>226.0</ele><time>2026-04-06T08:24:51Z</time></trkpt><trkpt lat="46.307501674986774" lon="13.127400486219939"><ele>226.0</ele><time>2026-04-06T08:24:52Z</time></trkpt><trkpt lat="46.30763952321567" lon="13.127586276659516"><ele>225.0</ele><time>2026-04-06T08:24:53Z</time></trkpt><trkpt lat="46.30778978655462" lon="13.127757186920116"><ele>224.0</ele><time>2026-04-06T08:24:54Z</time></trkpt><trkpt lat="46.307954353302385" lon="13.12790755721417"><ele>223.0</ele><time>2026-04-06T08:24:55Z</time></trkpt><trkpt lat="46.30812813187154" lon="13.128046136776923"><ele>223.0</ele><time>2026-04-06T08:24:56Z</time></trkpt><trkpt lat="46.30831507094921" lon="13.128174625067127"><ele>223.0</ele><time>2026-04-06T08:24:57Z</time></trkpt><trkpt lat="46.30849975044213" lon="13.12828506730563"><ele>223.0</ele><time>2026-04-06T08:24:58Z</time></trkpt><trkpt lat="46.30867783132553" lon="13.128374787371857"><ele>224.0</ele><time>2026-04-06T08:24:59Z</time></trkpt><trkpt lat="46.30886218647413" lon="13.128440261072376"><ele>225.0</ele><time>2026-04-06T08:25:00Z</time></trkpt><trkpt lat="46.30904837767395" lon="13.12848200836715"><ele>226.0</ele><time>2026-04-06T08:25:01Z</time></trkpt><trkpt lat="46.309235227092685" lon="13.128503663082217"><ele>226.0</ele><time>2026-04-06T08:25:02Z</time></trkpt><trkpt lat="46.30941920162777" lon="13.128512587083897"><ele>226.0</ele><time>2026-04-06T08:25:03Z</time></trkpt><trkpt lat="46.30959964205181" lon="13.128511837486275"><ele>226.0</ele><time>2026-04-06T08:25:04Z</time></trkpt><trkpt lat="46.309785108453404" lon="13.12850590583769"><ele>224.0</ele><time>2026-04-06T08:25:05Z</time></trkpt><trkpt lat="46.30997154169842" lon="13.128508901132372"><ele>222.0</ele><time>2026-04-06T08:25:06Z</time></trkpt><trkpt lat="46.31016070522056" lon="13.128516276444506"><ele>220.0</ele><time>2026-04-06T08:25:07Z</time></trkpt><trkpt lat="46.31034772273254" lon="13.12852529381734"><ele>220.0</ele><time>2026-04-06T08:25:08Z</time></trkpt><trkpt lat="46.31054757340788" lon="13.128526877276682"><ele>220.0</ele><time>2026-04-06T08:25:09Z</time></trkpt><trkpt lat="46.31077216682014" lon="13.12855476833167"><ele>220.0</ele><time>2026-04-06T08:25:10Z</time></trkpt><trkpt lat="46.311022014297514" lon="13.12856174082196"><ele>221.0</ele><time>2026-04-06T08:25:11Z</time></trkpt><trkpt lat="46.3112779980667" lon="13.128570334678521"><ele>222.0</ele><time>2026-04-06T08:25:12Z</time></trkpt><trkpt lat="46.311565790646306" lon="13.128579332744634"><ele>223.0</ele><time>2026-04-06T08:25:13Z</time></trkpt><trkpt lat="46.311819918908085" lon="13.12857060248406"><ele>224.0</ele><time>2026-04-06T08:25:14Z</time></trkpt><trkpt lat="46.31205244010635" lon="13.128581032767105"><ele>224.0</ele><time>2026-04-06T08:25:15Z</time></trkpt><trkpt lat="46.312274885243816" lon="13.128585908218644"><ele>224.0</ele><time>2026-04-06T08:25:16Z</time></trkpt><trkpt lat="46.31249039415224" lon="13.128590294688662"><ele>224.0</ele><time>2026-04-06T08:25:17Z</time></trkpt><trkpt lat="46.31271037444658" lon="13.12860022792947"><ele>224.0</ele><time>2026-04-06T08:25:18Z</time></trkpt><trkpt lat="46.31292866588242" lon="13.128609274949413"><ele>224.0</ele><time>2026-04-06T08:25:19Z</time></trkpt><trkpt lat="46.31314935376316" lon="13.128616566716069"><ele>224.0</ele><time>2026-04-06T08:25:20Z</time></trkpt><trkpt lat="46.313369765771434" lon="13.12862396435338"><ele>224.0</ele><time>2026-04-06T08:25:21Z</time></trkpt><trkpt lat="46.31358587863657" lon="13.128628703455952"><ele>224.0</ele><time>2026-04-06T08:25:22Z</time></trkpt><trkpt lat="46.313808737878475" lon="13.128636021641842"><ele>224.0</ele><time>2026-04-06T08:25:23Z</time></trkpt><trkpt lat="46.31403271636236" lon="13.12864544941482"><ele>226.0</ele><time>2026-04-06T08:25:24Z</time></trkpt><trkpt lat="46.31426157981392" lon="13.12865848664752"><ele>228.0</ele><time>2026-04-06T08:25:25Z</time></trkpt><trkpt lat="46.314490581366556" lon="13.128677683490562"><ele>228.0</ele><time>2026-04-06T08:25:26Z</time></trkpt><trkpt lat="46.31472245051698" lon="13.128708405176853"><ele>228.0</ele><time>2026-04-06T08:25:27Z</time></trkpt><trkpt lat="46.31495154380119" lon="13.128750569353501"><ele>227.33333333333331</ele><time>2026-04-06T08:25:28Z</time></trkpt><trkpt lat="46.315177468528695" lon="13.128799590313054"><ele>226.66666666666666</ele><time>2026-04-06T08:25:29Z</time></trkpt><trkpt lat="46.31539177368427" lon="13.128850720282962"><ele>226.0</ele><time>2026-04-06T08:25:30Z</time></trkpt><trkpt lat="46.31559163549266" lon="13.128913064548348"><ele>225.33333333333331</ele><time>2026-04-06T08:25:31Z</time></trkpt><trkpt lat="46.31578641201782" lon="13.128989068063497"><ele>224.66666666666669</ele><time>2026-04-06T08:25:32Z</time></trkpt><trkpt lat="46.31597788085554" lon="13.129077943174153"><ele>224.0</ele><time>2026-04-06T08:25:33Z</time></trkpt><trkpt lat="46.31616354471189" lon="13.129174667528948"><ele>224.66666666666669</ele><time>2026-04-06T08:25:34Z</time></trkpt><trkpt lat="46.31634872049301" lon="13.129274363231808"><ele>225.33333333333331</ele><time>2026-04-06T08:25:35Z</time></trkpt><trkpt lat="46.31653072897462" lon="13.12937305402574"><ele>226.0</ele><time>2026-04-06T08:25:36Z</time></trkpt><trkpt lat="46.316701159192974" lon="13.12946936273344"><ele>226.0</ele><time>2026-04-06T08:25:37Z</time></trkpt><trkpt lat="46.31686443164843" lon="13.129571736837615"><ele>226.0</ele><time>2026-04-06T08:25:38Z</time></trkpt><trkpt lat="46.31701815036036" lon="13.129674498579734"><ele>226.0</ele><time>2026-04-06T08:25:39Z</time></trkpt><trkpt lat="46.31716445013995" lon="13.129774573958857"><ele>226.33333333333331</ele><time>2026-04-06T08:25:40Z</time></trkpt><trkpt lat="46.31730927321236" lon="13.129871363944517"><ele>226.66666666666669</ele><time>2026-04-06T08:25:41Z</time></trkpt><trkpt lat="46.31745499882102" lon="13.1299648209743"><ele>227.0</ele><time>2026-04-06T08:25:42Z</time></trkpt><trkpt lat="46.31760809432021" lon="13.130062275629507"><ele>227.0</ele><time>2026-04-06T08:25:43Z</time></trkpt><trkpt lat="46.31777095704561" lon="13.130160464474606"><ele>227.0</ele><time>2026-04-06T08:25:44Z</time></trkpt><trkpt lat="46.31793624180394" lon="13.130251633303924"><ele>227.0</ele><time>2026-04-06T08:25:45Z</time></trkpt><trkpt lat="46.31810874297903" lon="13.130324075940953"><ele>225.33333333333334</ele><time>2026-04-06T08:25:46Z</time></trkpt><trkpt lat="46.31828927335965" lon="13.13038571391482"><ele>223.66666666666669</ele><time>2026-04-06T08:25:47Z</time></trkpt><trkpt lat="46.31847436345638" lon="13.130427968519388"><ele>222.0</ele><time>2026-04-06T08:25:48Z</time></trkpt><trkpt lat="46.318664043382604" lon="13.130457068310815"><ele>222.0</ele><time>2026-04-06T08:25:49Z</time></trkpt><trkpt lat="46.31885480482193" lon="13.130473901674492"><ele>222.0</ele><time>2026-04-06T08:25:50Z</time></trkpt><trkpt lat="46.31904493368282" lon="13.13048168902045"><ele>222.0</ele><time>2026-04-06T08:25:51Z</time></trkpt><trkpt lat="46.319227225828584" lon="13.130486920296244"><ele>222.0</ele><time>2026-04-06T08:25:52Z</time></trkpt><trkpt lat="46.319403249533664" lon="13.130492516368465"><ele>222.0</ele><time>2026-04-06T08:25:53Z</time></trkpt><trkpt lat="46.31958012662034" lon="13.130490826055649"><ele>222.0</ele><time>2026-04-06T08:25:54Z</time></trkpt><trkpt lat="46.319762692274324" lon="13.130490655663646"><ele>221.33333333333331</ele><time>2026-04-06T08:25:55Z</time></trkpt><trkpt lat="46.31994470367875" lon="13.130490329958405"><ele>220.66666666666666</ele><time>2026-04-06T08:25:56Z</time></trkpt><trkpt lat="46.32012615843095" lon="13.130495710695868"><ele>220.0</ele><time>2026-04-06T08:25:57Z</time></trkpt><trkpt lat="46.32030308863703" lon="13.130504668102635"><ele>220.0</ele><time>2026-04-06T08:25:58Z</time></trkpt><trkpt lat="46.320481447023646" lon="13.13052007444318"><ele>220.0</ele><time>2026-04-06T08:25:59Z</time></trkpt><trkpt lat="46.32066040720917" lon="13.130547067099048"><ele>220.0</ele><time>2026-04-06T08:26:00Z</time></trkpt><trkpt lat="46.320842442497536" lon="13.130580852355736"><ele>220.0</ele><time>2026-04-06T08:26:01Z</time></trkpt><trkpt lat="46.32102469057613" lon="13.130618536672275"><ele>220.0</ele><time>2026-04-06T08:26:02Z</time></trkpt><trkpt lat="46.321207049569274" lon="13.13065996047946"><ele>220.0</ele><time>2026-04-06T08:26:03Z</time></trkpt><trkpt lat="46.32137919667544" lon="13.130703331866814"><ele>220.66666666666666</ele><time>2026-04-06T08:26:04Z</time></trkpt><trkpt lat="46.32154560927872" lon="13.130746289753956"><ele>221.33333333333331</ele><time>2026-04-06T08:26:05Z</time></trkpt><trkpt lat="46.321708035227786" lon="13.130794933221768"><ele>222.0</ele><time>2026-04-06T08:26:06Z</time></trkpt><trkpt lat="46.3218749763154" lon="13.130843972901385"><ele>222.0</ele><time>2026-04-06T08:26:07Z</time></trkpt><trkpt lat="46.322042316735896" lon="13.13089453175408"><ele>222.0</ele><time>2026-04-06T08:26:08Z</time></trkpt><trkpt lat="46.32221232513177" lon="13.130946442425888"><ele>222.0</ele><time>2026-04-06T08:26:09Z</time></trkpt><trkpt lat="46.32238932070483" lon="13.130998470901746"><ele>221.66666666666669</ele><time>2026-04-06T08:26:10Z</time></trkpt><trkpt lat="46.32257234201055" lon="13.131051006565762"><ele>221.33333333333334</ele><time>2026-04-06T08:26:11Z</time></trkpt><trkpt lat="46.32275436200227" lon="13.131105216241478"><ele>221.0</ele><time>2026-04-06T08:26:12Z</time></trkpt><trkpt lat="46.32293020551983" lon="13.131157212589066"><ele>221.33333333333334</ele><time>2026-04-06T08:26:13Z</time></trkpt><trkpt lat="46.32310330205996" lon="13.131207712220185"><ele>221.66666666666669</ele><time>2026-04-06T08:26:14Z</time></trkpt><trkpt lat="46.323275625125" lon="13.13125958735038"><ele>222.0</ele><time>2026-04-06T08:26:15Z</time></trkpt><trkpt lat="46.323452930459474" lon="13.131312973788193"><ele>222.0</ele><time>2026-04-06T08:26:16Z</time></trkpt><trkpt lat="46.32362836249102" lon="13.131365592876607"><ele>222.0</ele><time>2026-04-06T08:26:17Z</time></trkpt><trkpt lat="46.323801020596065" lon="13.131418813711935"><ele>222.0</ele><time>2026-04-06T08:26:18Z</time></trkpt><trkpt lat="46.323970734812434" lon="13.131481550045988"><ele>222.33333333333331</ele><time>2026-04-06T08:26:19Z</time></trkpt><trkpt lat="46.32413648253745" lon="13.131564409115581"><ele>222.66666666666666</ele><time>2026-04-06T08:26:20Z</time></trkpt><trkpt lat="46.32430266621194" lon="13.131668245076304"><ele>223.0</ele><time>2026-04-06T08:26:21Z</time></trkpt><trkpt lat="46.32446725594883" lon="13.131784794349786"><ele>223.0</ele><time>2026-04-06T08:26:22Z</time></trkpt><trkpt lat="46.324627253396734" lon="13.131919534609523"><ele>223.0</ele><time>2026-04-06T08:26:23Z</time></trkpt><trkpt lat="46.32478053489174" lon="13.132058538999553"><ele>223.0</ele><time>2026-04-06T08:26:24Z</time></trkpt><trkpt lat="46.324925365401356" lon="13.132191014988384"><ele>223.0</ele><time>2026-04-06T08:26:25Z</time></trkpt><trkpt lat="46.32505946390665" lon="13.132315198835588"><ele>223.0</ele><time>2026-04-06T08:26:26Z</time></trkpt><trkpt lat="46.325186469616256" lon="13.13243144515412"><ele>223.0</ele><time>2026-04-06T08:26:27Z</time></trkpt><trkpt lat="46.32530756846748" lon="13.132544053465653"><ele>222.75</ele><time>2026-04-06T08:26:28Z</time></trkpt><trkpt lat="46.32542351238361" lon="13.132655058417397"><ele>222.5</ele><time>2026-04-06T08:26:29Z</time></trkpt><trkpt lat="46.325542612279456" lon="13.132765133313594"><ele>222.25</ele><time>2026-04-06T08:26:30Z</time></trkpt><trkpt lat="46.32565860747995" lon="13.132867791318906"><ele>222.0</ele><time>2026-04-06T08:26:31Z</time></trkpt><trkpt lat="46.32576613637908" lon="13.132965420080629"><ele>222.75</ele><time>2026-04-06T08:26:32Z</time></trkpt><trkpt lat="46.32587521183117" lon="13.133068791882346"><ele>223.5</ele><time>2026-04-06T08:26:33Z</time></trkpt><trkpt lat="46.32599896168132" lon="13.133186878142087"><ele>224.25</ele><time>2026-04-06T08:26:34Z</time></trkpt><trkpt lat="46.3261340101368" lon="13.13331414379504"><ele>225.0</ele><time>2026-04-06T08:26:35Z</time></trkpt><trkpt lat="46.326275732493585" lon="13.133448985805995"><ele>224.66666666666669</ele><time>2026-04-06T08:26:36Z</time></trkpt><trkpt lat="46.32641861514227" lon="13.1335838975562"><ele>224.33333333333334</ele><time>2026-04-06T08:26:37Z</time></trkpt><trkpt lat="46.32656314014771" lon="13.133717697082066"><ele>224.0</ele><time>2026-04-06T08:26:38Z</time></trkpt><trkpt lat="46.32670773512388" lon="13.13385060946812"><ele>224.0</ele><time>2026-04-06T08:26:39Z</time></trkpt><trkpt lat="46.32684934713866" lon="13.13397641820744"><ele>224.0</ele><time>2026-04-06T08:26:40Z</time></trkpt><trkpt lat="46.326984781488605" lon="13.134104377875705"><ele>224.0</ele><time>2026-04-06T08:26:41Z</time></trkpt><trkpt lat="46.32711753567042" lon="13.134227578603463"><ele>224.0</ele><time>2026-04-06T08:26:42Z</time></trkpt><trkpt lat="46.32723851225304" lon="13.134344447497963"><ele>224.0</ele><time>2026-04-06T08:26:43Z</time></trkpt><trkpt lat="46.32735330723578" lon="13.134457298785353"><ele>224.0</ele><time>2026-04-06T08:26:44Z</time></trkpt><trkpt lat="46.32746390202317" lon="13.134566693373971"><ele>224.0</ele><time>2026-04-06T08:26:45Z</time></trkpt><trkpt lat="46.32757000987927" lon="13.134668107479124"><ele>224.0</ele><time>2026-04-06T08:26:46Z</time></trkpt><trkpt lat="46.32767335324446" lon="13.134767479212272"><ele>224.0</ele><time>2026-04-06T08:26:47Z</time></trkpt><trkpt lat="46.327781759980546" lon="13.134863072121385"><ele>224.0</ele><time>2026-04-06T08:26:48Z</time></trkpt><trkpt lat="46.32789589307502" lon="13.134970713346743"><ele>224.0</ele><time>2026-04-06T08:26:49Z</time></trkpt><trkpt lat="46.328013827756635" lon="13.135080092994732"><ele>224.33333333333334</ele><time>2026-04-06T08:26:50Z</time></trkpt><trkpt lat="46.32813582390611" lon="13.135192144383538"><ele>224.66666666666669</ele><time>2026-04-06T08:26:51Z</time></trkpt><trkpt lat="46.328264969901575" lon="13.135312086248819"><ele>225.0</ele><time>2026-04-06T08:26:52Z</time></trkpt><trkpt lat="46.32840055522305" lon="13.135436822070062"><ele>225.0</ele><time>2026-04-06T08:26:53Z</time></trkpt><trkpt lat="46.3285359606686" lon="13.135566759673583"><ele>225.0</ele><time>2026-04-06T08:26:54Z</time></trkpt><trkpt lat="46.3286759475606" lon="13.135701346358003"><ele>225.0</ele><time>2026-04-06T08:26:55Z</time></trkpt><trkpt lat="46.32880417317286" lon="13.13582615746711"><ele>225.33333333333331</ele><time>2026-04-06T08:26:56Z</time></trkpt><trkpt lat="46.32893687855369" lon="13.135942498726495"><ele>225.66666666666666</ele><time>2026-04-06T08:26:57Z</time></trkpt><trkpt lat="46.329065412835256" lon="13.136060455740525"><ele>226.0</ele><time>2026-04-06T08:26:58Z</time></trkpt><trkpt lat="46.32919787615358" lon="13.136180103370137"><ele>226.0</ele><time>2026-04-06T08:26:59Z</time></trkpt><trkpt lat="46.32933095343781" lon="13.136294284524324"><ele>226.0</ele><time>2026-04-06T08:27:00Z</time></trkpt><trkpt lat="46.329455717625265" lon="13.136398957141145"><ele>226.0</ele><time>2026-04-06T08:27:01Z</time></trkpt><trkpt lat="46.329576399296116" lon="13.136493985314749"><ele>226.0</ele><time>2026-04-06T08:27:02Z</time></trkpt><trkpt lat="46.3296926419217" lon="13.13658294168463"><ele>226.0</ele><time>2026-04-06T08:27:03Z</time></trkpt><trkpt lat="46.32980291515007" lon="13.136667431293159"><ele>226.0</ele><time>2026-04-06T08:27:04Z</time></trkpt><trkpt lat="46.329913022194596" lon="13.136754117002075"><ele>226.0</ele><time>2026-04-06T08:27:05Z</time></trkpt><trkpt lat="46.3300261337506" lon="13.136834997193198"><ele>226.0</ele><time>2026-04-06T08:27:06Z</time></trkpt><trkpt lat="46.330138488064186" lon="13.136915934054239"><ele>226.0</ele><time>2026-04-06T08:27:07Z</time></trkpt><trkpt lat="46.33023881994084" lon="13.136994258988691"><ele>226.0</ele><time>2026-04-06T08:27:08Z</time></trkpt><trkpt lat="46.330346752859455" lon="13.137079011291048"><ele>226.0</ele><time>2026-04-06T08:27:09Z</time></trkpt><trkpt lat="46.330460084828104" lon="13.13717437553394"><ele>226.0</ele><time>2026-04-06T08:27:10Z</time></trkpt><trkpt lat="46.33058132007021" lon="13.137269591757583"><ele>226.5</ele><time>2026-04-06T08:27:11Z</time></trkpt><trkpt lat="46.33071110309163" lon="13.137367703798812"><ele>227.0</ele><time>2026-04-06T08:27:12Z</time></trkpt><trkpt lat="46.33084091823309" lon="13.137459784807797"><ele>227.5</ele><time>2026-04-06T08:27:13Z</time></trkpt><trkpt lat="46.33096261322071" lon="13.13754618475412"><ele>228.0</ele><time>2026-04-06T08:27:14Z</time></trkpt><trkpt lat="46.33108705842077" lon="13.137637551805888"><ele>228.0</ele><time>2026-04-06T08:27:15Z</time></trkpt><trkpt lat="46.33121654539801" lon="13.137732552836079"><ele>228.0</ele><time>2026-04-06T08:27:16Z</time></trkpt><trkpt lat="46.3313518444555" lon="13.137832211211954"><ele>228.0</ele><time>2026-04-06T08:27:17Z</time></trkpt><trkpt lat="46.33149087359126" lon="13.137934455372463"><ele>228.25</ele><time>2026-04-06T08:27:18Z</time></trkpt><trkpt lat="46.33162461758312" lon="13.13802391892452"><ele>228.5</ele><time>2026-04-06T08:27:19Z</time></trkpt><trkpt lat="46.33175560902275" lon="13.13810387578745"><ele>228.75</ele><time>2026-04-06T08:27:20Z</time></trkpt><trkpt lat="46.33188976879835" lon="13.138166218886154"><ele>229.0</ele><time>2026-04-06T08:27:21Z</time></trkpt><trkpt lat="46.332025444896" lon="13.138197846918896"><ele>229.0</ele><time>2026-04-06T08:27:22Z</time></trkpt><trkpt lat="46.332169443743354" lon="13.138201365122466"><ele>229.0</ele><time>2026-04-06T08:27:23Z</time></trkpt><trkpt lat="46.332314095595464" lon="13.138178894611892"><ele>229.0</ele><time>2026-04-06T08:27:24Z</time></trkpt><trkpt lat="46.332458413968254" lon="13.138131098246914"><ele>229.0</ele><time>2026-04-06T08:27:25Z</time></trkpt><trkpt lat="46.3325920783287" lon="13.138068487062622"><ele>229.25</ele><time>2026-04-06T08:27:26Z</time></trkpt><trkpt lat="46.33271697387361" lon="13.137996821624874"><ele>229.5</ele><time>2026-04-06T08:27:27Z</time></trkpt><trkpt lat="46.33283353662217" lon="13.137923185018817"><ele>229.75</ele><time>2026-04-06T08:27:28Z</time></trkpt><trkpt lat="46.33294428142002" lon="13.137847432593041"><ele>230.0</ele><time>2026-04-06T08:27:29Z</time></trkpt><trkpt lat="46.333053594974366" lon="13.137767421391732"><ele>229.75</ele><time>2026-04-06T08:27:30Z</time></trkpt><trkpt lat="46.33318095162951" lon="13.137709622769574"><ele>229.5</ele><time>2026-04-06T08:27:31Z</time></trkpt><trkpt lat="46.33330839491271" lon="13.137626053348969"><ele>229.25</ele><time>2026-04-06T08:27:32Z</time></trkpt><trkpt lat="46.33339489075743" lon="13.13756121396362"><ele>229.0</ele><time>2026-04-06T08:27:33Z</time></trkpt><trkpt lat="46.333520341105" lon="13.137477021359036"><ele>229.0</ele><time>2026-04-06T08:27:34Z</time></trkpt><trkpt lat="46.33365118027958" lon="13.137396944328854"><ele>229.0</ele><time>2026-04-06T08:27:35Z</time></trkpt><trkpt lat="46.33377268130553" lon="13.137324416263493"><ele>229.0</ele><time>2026-04-06T08:27:36Z</time></trkpt><trkpt lat="46.33390674710422" lon="13.13727007998197"><ele>229.0</ele><time>2026-04-06T08:27:37Z</time></trkpt><trkpt lat="46.334053482677845" lon="13.137289025070299"><ele>230.33333333333331</ele><time>2026-04-06T08:27:38Z</time></trkpt><trkpt lat="46.33420138364254" lon="13.137320601052325"><ele>231.66666666666669</ele><time>2026-04-06T08:27:39Z</time></trkpt><trkpt lat="46.334348749901" lon="13.137403103946781"><ele>233.0</ele><time>2026-04-06T08:27:40Z</time></trkpt><trkpt lat="46.33451880648144" lon="13.13748810010397"><ele>233.0</ele><time>2026-04-06T08:27:41Z</time></trkpt><trkpt lat="46.33468076523646" lon="13.137613234116914"><ele>233.0</ele><time>2026-04-06T08:27:42Z</time></trkpt><trkpt lat="46.334831619051606" lon="13.137707706097162"><ele>233.0</ele><time>2026-04-06T08:27:43Z</time></trkpt><trkpt lat="46.334981172442966" lon="13.137789203641676"><ele>233.0</ele><time>2026-04-06T08:27:44Z</time></trkpt><trkpt lat="46.335128994366094" lon="13.137876942120558"><ele>233.0</ele><time>2026-04-06T08:27:45Z</time></trkpt><trkpt lat="46.33526970381186" lon="13.137953607704853"><ele>233.0</ele><time>2026-04-06T08:27:46Z</time></trkpt><trkpt lat="46.33541513380242" lon="13.138032513536281"><ele>232.33333333333334</ele><time>2026-04-06T08:27:47Z</time></trkpt><trkpt lat="46.335558844637" lon="13.138117611969351"><ele>231.66666666666669</ele><time>2026-04-06T08:27:48Z</time></trkpt><trkpt lat="46.33570112832544" lon="13.138210333942855"><ele>231.0</ele><time>2026-04-06T08:27:49Z</time></trkpt><trkpt lat="46.33583969528457" lon="13.138297520247857"><ele>231.0</ele><time>2026-04-06T08:27:50Z</time></trkpt><trkpt lat="46.335980048070766" lon="13.138381187808129"><ele>231.0</ele><time>2026-04-06T08:27:51Z</time></trkpt><trkpt lat="46.33612592450743" lon="13.138464785153943"><ele>231.0</ele><time>2026-04-06T08:27:52Z</time></trkpt><trkpt lat="46.33627648842353" lon="13.138552761903671"><ele>231.33333333333331</ele><time>2026-04-06T08:27:53Z</time></trkpt><trkpt lat="46.33643071912867" lon="13.138645636685235"><ele>231.66666666666666</ele><time>2026-04-06T08:27:54Z</time></trkpt><trkpt lat="46.33658660700813" lon="13.138736568360033"><ele>232.0</ele><time>2026-04-06T08:27:55Z</time></trkpt><trkpt lat="46.336740605437" lon="13.138829852290351"><ele>232.0</ele><time>2026-04-06T08:27:56Z</time></trkpt><trkpt lat="46.336895055627025" lon="13.138922991148288"><ele>232.0</ele><time>2026-04-06T08:27:57Z</time></trkpt><trkpt lat="46.337040656739724" lon="13.139019279145103"><ele>232.0</ele><time>2026-04-06T08:27:58Z</time></trkpt><trkpt lat="46.33717993565338" lon="13.139098095368194"><ele>231.75</ele><time>2026-04-06T08:27:59Z</time></trkpt><trkpt lat="46.33731091555149" lon="13.139170058396914"><ele>231.5</ele><time>2026-04-06T08:28:00Z</time></trkpt><trkpt lat="46.33743472375723" lon="13.139241252199483"><ele>231.25</ele><time>2026-04-06T08:28:01Z</time></trkpt><trkpt lat="46.337550872390594" lon="13.139312513312804"><ele>231.0</ele><time>2026-04-06T08:28:02Z</time></trkpt><trkpt lat="46.337669237526" lon="13.139376667826703"><ele>231.0</ele><time>2026-04-06T08:28:03Z</time></trkpt><trkpt lat="46.3377995571338" lon="13.13945803021932"><ele>231.0</ele><time>2026-04-06T08:28:04Z</time></trkpt><trkpt lat="46.337939007816075" lon="13.13954018423642"><ele>231.0</ele><time>2026-04-06T08:28:05Z</time></trkpt><trkpt lat="46.33808764965317" lon="13.139612289366188"><ele>231.0</ele><time>2026-04-06T08:28:06Z</time></trkpt><trkpt lat="46.33824114303559" lon="13.139672055281652"><ele>231.66666666666669</ele><time>2026-04-06T08:28:07Z</time></trkpt><trkpt lat="46.33839498521509" lon="13.139722897080471"><ele>232.33333333333334</ele><time>2026-04-06T08:28:08Z</time></trkpt><trkpt lat="46.33855188936888" lon="13.139759663144574"><ele>233.0</ele><time>2026-04-06T08:28:09Z</time></trkpt><trkpt lat="46.33870862780153" lon="13.139788606167366"><ele>233.0</ele><time>2026-04-06T08:28:10Z</time></trkpt><trkpt lat="46.338869468993934" lon="13.139811065836767"><ele>233.0</ele><time>2026-04-06T08:28:11Z</time></trkpt><trkpt lat="46.33903284561686" lon="13.139829742157316"><ele>233.0</ele><time>2026-04-06T08:28:12Z</time></trkpt><trkpt lat="46.33919169534041" lon="13.13983204438806"><ele>233.0</ele><time>2026-04-06T08:28:13Z</time></trkpt><trkpt lat="46.33935064087198" lon="13.139827302323853"><ele>233.0</ele><time>2026-04-06T08:28:14Z</time></trkpt><trkpt lat="46.33950032841717" lon="13.13982393480021"><ele>233.0</ele><time>2026-04-06T08:28:15Z</time></trkpt><trkpt lat="46.33964086473656" lon="13.13981721490643"><ele>233.0</ele><time>2026-04-06T08:28:16Z</time></trkpt><trkpt lat="46.33977705421382" lon="13.139811304775805"><ele>232.75</ele><time>2026-04-06T08:28:17Z</time></trkpt><trkpt lat="46.339916900873746" lon="13.139807287350356"><ele>232.5</ele><time>2026-04-06T08:28:18Z</time></trkpt><trkpt lat="46.34006847866952" lon="13.13980249971845"><ele>232.25</ele><time>2026-04-06T08:28:19Z</time></trkpt><trkpt lat="46.3402165803134" lon="13.139799582388777"><ele>232.0</ele><time>2026-04-06T08:28:20Z</time></trkpt><trkpt lat="46.34036931958856" lon="13.139797254988961"><ele>232.0</ele><time>2026-04-06T08:28:21Z</time></trkpt><trkpt lat="46.34052615644356" lon="13.139790666179666"><ele>232.0</ele><time>2026-04-06T08:28:22Z</time></trkpt><trkpt lat="46.34068763833861" lon="13.139784031503659"><ele>232.0</ele><time>2026-04-06T08:28:23Z</time></trkpt><trkpt lat="46.340852055627316" lon="13.139776238636045"><ele>232.33333333333331</ele><time>2026-04-06T08:28:24Z</time></trkpt><trkpt lat="46.34100763352063" lon="13.139768888206573"><ele>232.66666666666669</ele><time>2026-04-06T08:28:25Z</time></trkpt><trkpt lat="46.34116195318438" lon="13.139762306231628"><ele>233.0</ele><time>2026-04-06T08:28:26Z</time></trkpt><trkpt lat="46.34131382158599" lon="13.139759291126573"><ele>233.0</ele><time>2026-04-06T08:28:27Z</time></trkpt><trkpt lat="46.34147244609597" lon="13.139752663993312"><ele>233.0</ele><time>2026-04-06T08:28:28Z</time></trkpt><trkpt lat="46.341639956971775" lon="13.139749496049209"><ele>233.0</ele><time>2026-04-06T08:28:29Z</time></trkpt><trkpt lat="46.34180920611416" lon="13.139740805458793"><ele>233.0</ele><time>2026-04-06T08:28:30Z</time></trkpt><trkpt lat="46.34198001843361" lon="13.139734075559677"><ele>233.0</ele><time>2026-04-06T08:28:31Z</time></trkpt><trkpt lat="46.34214523986084" lon="13.13973079021011"><ele>233.0</ele><time>2026-04-06T08:28:32Z</time></trkpt><trkpt lat="46.34230831042222" lon="13.13972413976828"><ele>233.0</ele><time>2026-04-06T08:28:33Z</time></trkpt><trkpt lat="46.34247230942238" lon="13.13971329135941"><ele>233.0</ele><time>2026-04-06T08:28:34Z</time></trkpt><trkpt lat="46.34263336737256" lon="13.139703773313306"><ele>233.0</ele><time>2026-04-06T08:28:35Z</time></trkpt><trkpt lat="46.34279561075255" lon="13.13970073708699"><ele>233.0</ele><time>2026-04-06T08:28:36Z</time></trkpt><trkpt lat="46.342955681144225" lon="13.139699607689016"><ele>233.0</ele><time>2026-04-06T08:28:37Z</time></trkpt><trkpt lat="46.34310986728077" lon="13.139694814183548"><ele>233.0</ele><time>2026-04-06T08:28:38Z</time></trkpt><trkpt lat="46.34326834828854" lon="13.139690224390169"><ele>234.0</ele><time>2026-04-06T08:28:39Z</time></trkpt><trkpt lat="46.343432715294554" lon="13.139690877825648"><ele>235.0</ele><time>2026-04-06T08:28:40Z</time></trkpt><trkpt lat="46.343594770042934" lon="13.139696027431212"><ele>236.0</ele><time>2026-04-06T08:28:41Z</time></trkpt><trkpt lat="46.34376220092985" lon="13.139717619684916"><ele>235.66666666666669</ele><time>2026-04-06T08:28:42Z</time></trkpt><trkpt lat="46.343926045748546" lon="13.139759459734103"><ele>235.33333333333331</ele><time>2026-04-06T08:28:43Z</time></trkpt><trkpt lat="46.34409259394169" lon="13.139818908012897"><ele>235.0</ele><time>2026-04-06T08:28:44Z</time></trkpt><trkpt lat="46.34426576722926" lon="13.139898863921026"><ele>235.0</ele><time>2026-04-06T08:28:45Z</time></trkpt><trkpt lat="46.34444136866022" lon="13.139992192813956"><ele>235.0</ele><time>2026-04-06T08:28:46Z</time></trkpt><trkpt lat="46.34462214857778" lon="13.14009571982939"><ele>235.0</ele><time>2026-04-06T08:28:47Z</time></trkpt><trkpt lat="46.34480403047145" lon="13.140200640327386"><ele>235.0</ele><time>2026-04-06T08:28:48Z</time></trkpt><trkpt lat="46.34499808836935" lon="13.140307698655894"><ele>235.0</ele><time>2026-04-06T08:28:49Z</time></trkpt><trkpt lat="46.34520933684254" lon="13.140417612162034"><ele>235.0</ele><time>2026-04-06T08:28:50Z</time></trkpt><trkpt lat="46.345412034615194" lon="13.140524073518751"><ele>235.5</ele><time>2026-04-06T08:28:51Z</time></trkpt><trkpt lat="46.3456298052781" lon="13.140673626807372"><ele>236.0</ele><time>2026-04-06T08:28:52Z</time></trkpt><trkpt lat="46.34588592815157" lon="13.140821505788981"><ele>236.5</ele><time>2026-04-06T08:28:53Z</time></trkpt><trkpt lat="46.346153633708425" lon="13.14097582255924"><ele>237.0</ele><time>2026-04-06T08:28:54Z</time></trkpt><trkpt lat="46.34641940219429" lon="13.141128090335313"><ele>236.0</ele><time>2026-04-06T08:28:55Z</time></trkpt><trkpt lat="46.346662961326736" lon="13.141255572753376"><ele>235.0</ele><time>2026-04-06T08:28:56Z</time></trkpt><trkpt lat="46.346887933807466" lon="13.14139940388724"><ele>235.0</ele><time>2026-04-06T08:28:57Z</time></trkpt><trkpt lat="46.34709625482405" lon="13.141529222719011"><ele>235.0</ele><time>2026-04-06T08:28:58Z</time></trkpt><trkpt lat="46.34730036849917" lon="13.141647088138788"><ele>235.0</ele><time>2026-04-06T08:28:59Z</time></trkpt><trkpt lat="46.34749553089794" lon="13.141758583228308"><ele>235.33333333333331</ele><time>2026-04-06T08:29:00Z</time></trkpt><trkpt lat="46.34769856004057" lon="13.141873396212308"><ele>235.66666666666669</ele><time>2026-04-06T08:29:01Z</time></trkpt><trkpt lat="46.347912099327154" lon="13.141993384591181"><ele>236.0</ele><time>2026-04-06T08:29:02Z</time></trkpt><trkpt lat="46.348133410826534" lon="13.142116763899306"><ele>236.33333333333334</ele><time>2026-04-06T08:29:03Z</time></trkpt><trkpt lat="46.34833943981312" lon="13.142228957046752"><ele>236.66666666666669</ele><time>2026-04-06T08:29:04Z</time></trkpt><trkpt lat="46.34853089542911" lon="13.142326080120254"><ele>237.0</ele><time>2026-04-06T08:29:05Z</time></trkpt><trkpt lat="46.348719923862845" lon="13.142394259199124"><ele>242.33333333333331</ele><time>2026-04-06T08:29:06Z</time></trkpt><trkpt lat="46.34892158686527" lon="13.142434256716404"><ele>247.66666666666666</ele><time>2026-04-06T08:29:07Z</time></trkpt><trkpt lat="46.34913541116908" lon="13.142428245241556"><ele>253.0</ele><time>2026-04-06T08:29:08Z</time></trkpt><trkpt lat="46.3493546119806" lon="13.142386278611863"><ele>250.66666666666666</ele><time>2026-04-06T08:29:09Z</time></trkpt><trkpt lat="46.34957300992428" lon="13.14231134567934"><ele>248.33333333333331</ele><time>2026-04-06T08:29:10Z</time></trkpt><trkpt lat="46.3497706114747" lon="13.14221609994683"><ele>246.0</ele><time>2026-04-06T08:29:11Z</time></trkpt><trkpt lat="46.349951884539706" lon="13.142121905178243"><ele>246.0</ele><time>2026-04-06T08:29:12Z</time></trkpt><trkpt lat="46.35012912880014" lon="13.142036281191789"><ele>246.0</ele><time>2026-04-06T08:29:13Z</time></trkpt><trkpt lat="46.35031466229777" lon="13.141956514736021"><ele>246.0</ele><time>2026-04-06T08:29:14Z</time></trkpt><trkpt lat="46.350500863814176" lon="13.14187075774404"><ele>247.66666666666669</ele><time>2026-04-06T08:29:15Z</time></trkpt><trkpt lat="46.35068850112461" lon="13.141783305796222"><ele>249.33333333333334</ele><time>2026-04-06T08:29:16Z</time></trkpt><trkpt lat="46.350870754469305" lon="13.141691396416192"><ele>251.0</ele><time>2026-04-06T08:29:17Z</time></trkpt><trkpt lat="46.35104119132248" lon="13.141593462863032"><ele>250.33333333333334</ele><time>2026-04-06T08:29:18Z</time></trkpt><trkpt lat="46.351201985953935" lon="13.141491720925577"><ele>249.66666666666669</ele><time>2026-04-06T08:29:19Z</time></trkpt><trkpt lat="46.35136298698239" lon="13.14138374205268"><ele>249.0</ele><time>2026-04-06T08:29:20Z</time></trkpt><trkpt lat="46.35153034772" lon="13.141275546419262"><ele>249.0</ele><time>2026-04-06T08:29:21Z</time></trkpt><trkpt lat="46.35169721713925" lon="13.141168018670074"><ele>249.0</ele><time>2026-04-06T08:29:22Z</time></trkpt><trkpt lat="46.35186820212666" lon="13.141059610579905"><ele>249.0</ele><time>2026-04-06T08:29:23Z</time></trkpt><trkpt lat="46.352035960583876" lon="13.14095060465341"><ele>249.0</ele><time>2026-04-06T08:29:24Z</time></trkpt><trkpt lat="46.35219864708604" lon="13.140843367131096"><ele>249.0</ele><time>2026-04-06T08:29:25Z</time></trkpt><trkpt lat="46.352359513315406" lon="13.140737386027588"><ele>249.0</ele><time>2026-04-06T08:29:26Z</time></trkpt><trkpt lat="46.352514826472714" lon="13.140632335186208"><ele>248.33333333333331</ele><time>2026-04-06T08:29:27Z</time></trkpt><trkpt lat="46.35267498017247" lon="13.140524656984768"><ele>247.66666666666666</ele><time>2026-04-06T08:29:28Z</time></trkpt><trkpt lat="46.35284402454638" lon="13.140415491896823"><ele>247.0</ele><time>2026-04-06T08:29:29Z</time></trkpt><trkpt lat="46.35301388838459" lon="13.14030623213975"><ele>248.0</ele><time>2026-04-06T08:29:30Z</time></trkpt><trkpt lat="46.35318742131231" lon="13.140194345308538"><ele>249.0</ele><time>2026-04-06T08:29:31Z</time></trkpt><trkpt lat="46.353359816780426" lon="13.140083610612317"><ele>250.0</ele><time>2026-04-06T08:29:32Z</time></trkpt><trkpt lat="46.353535083156984" lon="13.139971892947196"><ele>248.0</ele><time>2026-04-06T08:29:33Z</time></trkpt><trkpt lat="46.35371158086119" lon="13.139858693726225"><ele>246.0</ele><time>2026-04-06T08:29:34Z</time></trkpt><trkpt lat="46.35388895637788" lon="13.139740184802266"><ele>244.0</ele><time>2026-04-06T08:29:35Z</time></trkpt><trkpt lat="46.35406722628633" lon="13.139619069669202"><ele>244.0</ele><time>2026-04-06T08:29:36Z</time></trkpt><trkpt lat="46.35424312798592" lon="13.139500762803133"><ele>244.0</ele><time>2026-04-06T08:29:37Z</time></trkpt><trkpt lat="46.35441702027307" lon="13.139383824381746"><ele>244.0</ele><time>2026-04-06T08:29:38Z</time></trkpt><trkpt lat="46.35459140286997" lon="13.139272707312935"><ele>244.33333333333331</ele><time>2026-04-06T08:29:39Z</time></trkpt><trkpt lat="46.35476798305042" lon="13.139162346923177"><ele>244.66666666666669</ele><time>2026-04-06T08:29:40Z</time></trkpt><trkpt lat="46.35494731700025" lon="13.139062048895658"><ele>245.0</ele><time>2026-04-06T08:29:41Z</time></trkpt><trkpt lat="46.355132416824716" lon="13.138974126765097"><ele>244.33333333333334</ele><time>2026-04-06T08:29:42Z</time></trkpt><trkpt lat="46.35531414416571" lon="13.138886647387872"><ele>243.66666666666669</ele><time>2026-04-06T08:29:43Z</time></trkpt><trkpt lat="46.35550007012866" lon="13.138799068586085"><ele>243.0</ele><time>2026-04-06T08:29:44Z</time></trkpt><trkpt lat="46.35567927808726" lon="13.138711316773879"><ele>242.66666666666669</ele><time>2026-04-06T08:29:45Z</time></trkpt><trkpt lat="46.35585999525558" lon="13.138628141419822"><ele>242.33333333333334</ele><time>2026-04-06T08:29:46Z</time></trkpt><trkpt lat="46.356042850186114" lon="13.13854136038814"><ele>242.0</ele><time>2026-04-06T08:29:47Z</time></trkpt><trkpt lat="46.35622853278477" lon="13.138452937183956"><ele>241.66666666666669</ele><time>2026-04-06T08:29:48Z</time></trkpt><trkpt lat="46.35641594209547" lon="13.138363390930493"><ele>241.33333333333331</ele><time>2026-04-06T08:29:49Z</time></trkpt><trkpt lat="46.35659818027338" lon="13.138279278319892"><ele>241.0</ele><time>2026-04-06T08:29:50Z</time></trkpt><trkpt lat="46.35678321888574" lon="13.138195009307715"><ele>240.33333333333331</ele><time>2026-04-06T08:29:51Z</time></trkpt><trkpt lat="46.35696984172008" lon="13.138110080337952"><ele>239.66666666666669</ele><time>2026-04-06T08:29:52Z</time></trkpt><trkpt lat="46.35715783611398" lon="13.13802305807997"><ele>239.0</ele><time>2026-04-06T08:29:53Z</time></trkpt><trkpt lat="46.35734774748091" lon="13.137934501968136"><ele>239.0</ele><time>2026-04-06T08:29:54Z</time></trkpt><trkpt lat="46.357526730653404" lon="13.137848802568"><ele>239.0</ele><time>2026-04-06T08:29:55Z</time></trkpt><trkpt lat="46.35769829609785" lon="13.137766374716445"><ele>239.0</ele><time>2026-04-06T08:29:56Z</time></trkpt><trkpt lat="46.357871702355204" lon="13.137688039464459"><ele>239.0</ele><time>2026-04-06T08:29:57Z</time></trkpt><trkpt lat="46.358044326514104" lon="13.137604032901544"><ele>239.0</ele><time>2026-04-06T08:29:58Z</time></trkpt><trkpt lat="46.35821982674653" lon="13.13751770841664"><ele>239.0</ele><time>2026-04-06T08:29:59Z</time></trkpt><trkpt lat="46.35840068957696" lon="13.137430378928865"><ele>240.0</ele><time>2026-04-06T08:30:00Z</time></trkpt><trkpt lat="46.35858227837806" lon="13.137341071448363"><ele>241.0</ele><time>2026-04-06T08:30:01Z</time></trkpt><trkpt lat="46.358769098910614" lon="13.13725209285453"><ele>242.0</ele><time>2026-04-06T08:30:02Z</time></trkpt><trkpt lat="46.35894874428862" lon="13.137167550319361"><ele>242.0</ele><time>2026-04-06T08:30:03Z</time></trkpt><trkpt lat="46.35912117716182" lon="13.137085591395023"><ele>242.0</ele><time>2026-04-06T08:30:04Z</time></trkpt><trkpt lat="46.35929607175649" lon="13.137009200693527"><ele>242.0</ele><time>2026-04-06T08:30:05Z</time></trkpt><trkpt lat="46.359473686477" lon="13.136938134042747"><ele>242.0</ele><time>2026-04-06T08:30:06Z</time></trkpt><trkpt lat="46.35965519256389" lon="13.136866325547686"><ele>242.0</ele><time>2026-04-06T08:30:07Z</time></trkpt><trkpt lat="46.35983591988107" lon="13.136796576777368"><ele>242.0</ele><time>2026-04-06T08:30:08Z</time></trkpt><trkpt lat="46.36001337368048" lon="13.136725085583654"><ele>242.0</ele><time>2026-04-06T08:30:09Z</time></trkpt><trkpt lat="46.360193089352144" lon="13.13665443074419"><ele>242.0</ele><time>2026-04-06T08:30:10Z</time></trkpt><trkpt lat="46.360377607345825" lon="13.136589765782718"><ele>242.0</ele><time>2026-04-06T08:30:11Z</time></trkpt><trkpt lat="46.360561319676634" lon="13.136524913586719"><ele>242.0</ele><time>2026-04-06T08:30:12Z</time></trkpt><trkpt lat="46.36074783705536" lon="13.136458521818941"><ele>242.0</ele><time>2026-04-06T08:30:13Z</time></trkpt><trkpt lat="46.36093352771734" lon="13.136393444329366"><ele>242.0</ele><time>2026-04-06T08:30:14Z</time></trkpt><trkpt lat="46.3611131824578" lon="13.13632760724172"><ele>242.0</ele><time>2026-04-06T08:30:15Z</time></trkpt><trkpt lat="46.36129624430919" lon="13.136262298874884"><ele>242.0</ele><time>2026-04-06T08:30:16Z</time></trkpt><trkpt lat="46.36148046495941" lon="13.136196987175799"><ele>242.0</ele><time>2026-04-06T08:30:17Z</time></trkpt><trkpt lat="46.36166184195275" lon="13.13613099513523"><ele>242.33333333333334</ele><time>2026-04-06T08:30:18Z</time></trkpt><trkpt lat="46.36184218356533" lon="13.136064344689691"><ele>242.66666666666669</ele><time>2026-04-06T08:30:19Z</time></trkpt><trkpt lat="46.36202407152249" lon="13.135999646983679"><ele>243.0</ele><time>2026-04-06T08:30:20Z</time></trkpt><trkpt lat="46.36220275597111" lon="13.135940416376954"><ele>244.0</ele><time>2026-04-06T08:30:21Z</time></trkpt><trkpt lat="46.362382639828496" lon="13.135881110354115"><ele>245.0</ele><time>2026-04-06T08:30:22Z</time></trkpt><trkpt lat="46.36256370265509" lon="13.135819234790612"><ele>246.0</ele><time>2026-04-06T08:30:23Z</time></trkpt><trkpt lat="46.36274399322124" lon="13.135752876752585"><ele>245.66666666666669</ele><time>2026-04-06T08:30:24Z</time></trkpt><trkpt lat="46.362921645228994" lon="13.13568664993096"><ele>245.33333333333334</ele><time>2026-04-06T08:30:25Z</time></trkpt><trkpt lat="46.36309567721207" lon="13.135620964350963"><ele>245.0</ele><time>2026-04-06T08:30:26Z</time></trkpt><trkpt lat="46.363266880419076" lon="13.135558741427666"><ele>244.66666666666669</ele><time>2026-04-06T08:30:27Z</time></trkpt><trkpt lat="46.363437177147254" lon="13.135500023832913"><ele>244.33333333333331</ele><time>2026-04-06T08:30:28Z</time></trkpt><trkpt lat="46.36361279300205" lon="13.135438375590947"><ele>244.0</ele><time>2026-04-06T08:30:29Z</time></trkpt><trkpt lat="46.36379392771031" lon="13.135377699563175"><ele>245.66666666666666</ele><time>2026-04-06T08:30:30Z</time></trkpt><trkpt lat="46.36397607677191" lon="13.13531676437911"><ele>247.33333333333331</ele><time>2026-04-06T08:30:31Z</time></trkpt><trkpt lat="46.364152830606905" lon="13.13525568677825"><ele>249.0</ele><time>2026-04-06T08:30:32Z</time></trkpt><trkpt lat="46.364324683795324" lon="13.135192882594577"><ele>249.0</ele><time>2026-04-06T08:30:33Z</time></trkpt><trkpt lat="46.364505227970774" lon="13.135130748426944"><ele>249.0</ele><time>2026-04-06T08:30:34Z</time></trkpt><trkpt lat="46.36469136705931" lon="13.135065406241697"><ele>249.0</ele><time>2026-04-06T08:30:35Z</time></trkpt><trkpt lat="46.364873735994756" lon="13.1350005716333"><ele>248.33333333333331</ele><time>2026-04-06T08:30:36Z</time></trkpt><trkpt lat="46.36505645564109" lon="13.134936124708565"><ele>247.66666666666666</ele><time>2026-04-06T08:30:37Z</time></trkpt><trkpt lat="46.36524052422844" lon="13.134871766878183"><ele>247.0</ele><time>2026-04-06T08:30:38Z</time></trkpt><trkpt lat="46.36542439369121" lon="13.134809703607464"><ele>247.66666666666666</ele><time>2026-04-06T08:30:39Z</time></trkpt><trkpt lat="46.36561368880781" lon="13.134752161831301"><ele>248.33333333333331</ele><time>2026-04-06T08:30:40Z</time></trkpt><trkpt lat="46.36580663771761" lon="13.13470949423188"><ele>249.0</ele><time>2026-04-06T08:30:41Z</time></trkpt><trkpt lat="46.36600577131763" lon="13.134688441079076"><ele>249.0</ele><time>2026-04-06T08:30:42Z</time></trkpt><trkpt lat="46.36621483773555" lon="13.134698244627856"><ele>249.0</ele><time>2026-04-06T08:30:43Z</time></trkpt><trkpt lat="46.366420139984086" lon="13.134732554029643"><ele>249.0</ele><time>2026-04-06T08:30:44Z</time></trkpt><trkpt lat="46.366622539621375" lon="13.13478439805979"><ele>249.33333333333331</ele><time>2026-04-06T08:30:45Z</time></trkpt><trkpt lat="46.36682156261894" lon="13.13485149061097"><ele>249.66666666666666</ele><time>2026-04-06T08:30:46Z</time></trkpt><trkpt lat="46.36701787100787" lon="13.134920902161817"><ele>250.0</ele><time>2026-04-06T08:30:47Z</time></trkpt><trkpt lat="46.36720298265129" lon="13.134988843528843"><ele>252.66666666666666</ele><time>2026-04-06T08:30:48Z</time></trkpt><trkpt lat="46.36737833534332" lon="13.135049277739824"><ele>255.33333333333331</ele><time>2026-04-06T08:30:49Z</time></trkpt><trkpt lat="46.36755740650503" lon="13.135110751271975"><ele>258.0</ele><time>2026-04-06T08:30:50Z</time></trkpt><trkpt lat="46.3677270606606" lon="13.13517079477723"><ele>258.0</ele><time>2026-04-06T08:30:51Z</time></trkpt><trkpt lat="46.367884682784656" lon="13.135225326842098"><ele>258.0</ele><time>2026-04-06T08:30:52Z</time></trkpt><trkpt lat="46.368042952763304" lon="13.135278624679584"><ele>258.0</ele><time>2026-04-06T08:30:53Z</time></trkpt><trkpt lat="46.368193563509585" lon="13.135331501490949"><ele>256.3333333333333</ele><time>2026-04-06T08:30:54Z</time></trkpt><trkpt lat="46.36838237157248" lon="13.135401533638996"><ele>254.66666666666666</ele><time>2026-04-06T08:30:55Z</time></trkpt><trkpt lat="46.36855048629372" lon="13.135469245561275"><ele>253.0</ele><time>2026-04-06T08:30:56Z</time></trkpt><trkpt lat="46.36870274591356" lon="13.13552062374605"><ele>253.0</ele><time>2026-04-06T08:30:57Z</time></trkpt><trkpt lat="46.36883604644118" lon="13.13558861922392"><ele>253.0</ele><time>2026-04-06T08:30:58Z</time></trkpt><trkpt lat="46.369003896713366" lon="13.135593258215954"><ele>253.0</ele><time>2026-04-06T08:30:59Z</time></trkpt><trkpt lat="46.36912978981796" lon="13.135580649447187"><ele>253.0</ele><time>2026-04-06T08:31:00Z</time></trkpt><trkpt lat="46.36931028995703" lon="13.135587540065558"><ele>253.33333333333331</ele><time>2026-04-06T08:31:01Z</time></trkpt><trkpt lat="46.369486870355935" lon="13.135583304279656"><ele>253.66666666666669</ele><time>2026-04-06T08:31:02Z</time></trkpt><trkpt lat="46.36965358396102" lon="13.135587826724642"><ele>254.0</ele><time>2026-04-06T08:31:03Z</time></trkpt><trkpt lat="46.36982980362822" lon="13.135590397513276"><ele>255.66666666666669</ele><time>2026-04-06T08:31:04Z</time></trkpt><trkpt lat="46.37000081093644" lon="13.13559449582851"><ele>257.3333333333333</ele><time>2026-04-06T08:31:05Z</time></trkpt><trkpt lat="46.370206067234584" lon="13.135602510308606"><ele>259.0</ele><time>2026-04-06T08:31:06Z</time></trkpt><trkpt lat="46.37040054310536" lon="13.135611456744847"><ele>259.3333333333333</ele><time>2026-04-06T08:31:07Z</time></trkpt><trkpt lat="46.37061405503827" lon="13.135619326724083"><ele>259.6666666666667</ele><time>2026-04-06T08:31:08Z</time></trkpt><trkpt lat="46.37081282633704" lon="13.135625246483302"><ele>260.0</ele><time>2026-04-06T08:31:09Z</time></trkpt><trkpt lat="46.370997073561256" lon="13.135616021174705"><ele>260.0</ele><time>2026-04-06T08:31:10Z</time></trkpt><trkpt lat="46.37116596530596" lon="13.135624410935693"><ele>260.0</ele><time>2026-04-06T08:31:11Z</time></trkpt><trkpt lat="46.37132945678761" lon="13.135632417957627"><ele>260.0</ele><time>2026-04-06T08:31:12Z</time></trkpt><trkpt lat="46.37150610043739" lon="13.13564251001653"><ele>260.0</ele><time>2026-04-06T08:31:13Z</time></trkpt><trkpt lat="46.371696718489574" lon="13.13565514389498"><ele>260.0</ele><time>2026-04-06T08:31:14Z</time></trkpt><trkpt lat="46.371900644663526" lon="13.135679727299934"><ele>260.0</ele><time>2026-04-06T08:31:15Z</time></trkpt><trkpt lat="46.37210983510611" lon="13.135713550870163"><ele>263.0</ele><time>2026-04-06T08:31:16Z</time></trkpt><trkpt lat="46.37233272691283" lon="13.135737776260772"><ele>266.0</ele><time>2026-04-06T08:31:17Z</time></trkpt><trkpt lat="46.3725429999886" lon="13.135771714931987"><ele>269.0</ele><time>2026-04-06T08:31:18Z</time></trkpt><trkpt lat="46.37273777113405" lon="13.135812153794598"><ele>269.0</ele><time>2026-04-06T08:31:19Z</time></trkpt><trkpt lat="46.37292893998895" lon="13.135853378284407"><ele>269.0</ele><time>2026-04-06T08:31:20Z</time></trkpt><trkpt lat="46.3731288492908" lon="13.135897938589313"><ele>269.0</ele><time>2026-04-06T08:31:21Z</time></trkpt><trkpt lat="46.3733374969257" lon="13.135946695744238"><ele>266.0</ele><time>2026-04-06T08:31:22Z</time></trkpt><trkpt lat="46.373543615984104" lon="13.136003350736612"><ele>263.0</ele><time>2026-04-06T08:31:23Z</time></trkpt><trkpt lat="46.37375119641796" lon="13.13607843051663"><ele>260.0</ele><time>2026-04-06T08:31:24Z</time></trkpt><trkpt lat="46.37395783136015" lon="13.136153945861992"><ele>259.33333333333337</ele><time>2026-04-06T08:31:25Z</time></trkpt><trkpt lat="46.37415666646313" lon="13.136226912675356"><ele>258.6666666666667</ele><time>2026-04-06T08:31:26Z</time></trkpt><trkpt lat="46.374340758588396" lon="13.136300234299629"><ele>258.0</ele><time>2026-04-06T08:31:27Z</time></trkpt><trkpt lat="46.37451777577425" lon="13.136370713344217"><ele>258.6666666666667</ele><time>2026-04-06T08:31:28Z</time></trkpt><trkpt lat="46.3746892759597" lon="13.136442607209569"><ele>259.33333333333337</ele><time>2026-04-06T08:31:29Z</time></trkpt><trkpt lat="46.37485515494926" lon="13.136512083884705"><ele>260.0</ele><time>2026-04-06T08:31:30Z</time></trkpt><trkpt lat="46.37501989017357" lon="13.136586900152952"><ele>260.6666666666667</ele><time>2026-04-06T08:31:31Z</time></trkpt><trkpt lat="46.37519711147063" lon="13.13666420863507"><ele>261.3333333333333</ele><time>2026-04-06T08:31:32Z</time></trkpt><trkpt lat="46.375372592016916" lon="13.136743424990776"><ele>262.0</ele><time>2026-04-06T08:31:33Z</time></trkpt><trkpt lat="46.375536230335314" lon="13.136820138621884"><ele>262.0</ele><time>2026-04-06T08:31:34Z</time></trkpt><trkpt lat="46.37568704835336" lon="13.136886760770352"><ele>262.0</ele><time>2026-04-06T08:31:35Z</time></trkpt><trkpt lat="46.37583676588853" lon="13.136951312887355"><ele>262.0</ele><time>2026-04-06T08:31:36Z</time></trkpt><trkpt lat="46.37598955877537" lon="13.137007537297128"><ele>262.0</ele><time>2026-04-06T08:31:37Z</time></trkpt><trkpt lat="46.37614750355583" lon="13.137044652022052"><ele>262.0</ele><time>2026-04-06T08:31:38Z</time></trkpt><trkpt lat="46.37630934237248" lon="13.137051709012107"><ele>262.0</ele><time>2026-04-06T08:31:39Z</time></trkpt><trkpt lat="46.37647491277404" lon="13.137037811426515"><ele>263.0</ele><time>2026-04-06T08:31:40Z</time></trkpt><trkpt lat="46.37663330604612" lon="13.13699974115558"><ele>264.0</ele><time>2026-04-06T08:31:41Z</time></trkpt><trkpt lat="46.37678656441702" lon="13.136939842573742"><ele>265.0</ele><time>2026-04-06T08:31:42Z</time></trkpt><trkpt lat="46.37693721755523" lon="13.136870283922217"><ele>265.0</ele><time>2026-04-06T08:31:43Z</time></trkpt><trkpt lat="46.377089564505255" lon="13.1367644955462"><ele>265.0</ele><time>2026-04-06T08:31:44Z</time></trkpt><trkpt lat="46.37723865602224" lon="13.136648055968704"><ele>265.0</ele><time>2026-04-06T08:31:45Z</time></trkpt><trkpt lat="46.37738152383459" lon="13.136521744710807"><ele>265.0</ele><time>2026-04-06T08:31:46Z</time></trkpt><trkpt lat="46.377508779072" lon="13.136386853130471"><ele>265.0</ele><time>2026-04-06T08:31:47Z</time></trkpt><trkpt lat="46.37762644065355" lon="13.136236524310128"><ele>265.0</ele><time>2026-04-06T08:31:48Z</time></trkpt><trkpt lat="46.37773320271165" lon="13.136071014466742"><ele>265.0</ele><time>2026-04-06T08:31:49Z</time></trkpt><trkpt lat="46.37783614399303" lon="13.135899079239387"><ele>265.0</ele><time>2026-04-06T08:31:50Z</time></trkpt><trkpt lat="46.377932442054124" lon="13.135721431315668"><ele>265.0</ele><time>2026-04-06T08:31:51Z</time></trkpt><trkpt lat="46.37801188060388" lon="13.135540893864116"><ele>265.3333333333333</ele><time>2026-04-06T08:31:52Z</time></trkpt><trkpt lat="46.378084942557784" lon="13.135349133107049"><ele>265.6666666666667</ele><time>2026-04-06T08:31:53Z</time></trkpt><trkpt lat="46.378159133513755" lon="13.135160557738482"><ele>266.0</ele><time>2026-04-06T08:31:54Z</time></trkpt><trkpt lat="46.37824818037659" lon="13.1349830678381"><ele>265.0</ele><time>2026-04-06T08:31:55Z</time></trkpt><trkpt lat="46.37832054949472" lon="13.134805484394292"><ele>264.0</ele><time>2026-04-06T08:31:56Z</time></trkpt><trkpt lat="46.37839721581106" lon="13.134629618929354"><ele>263.0</ele><time>2026-04-06T08:31:57Z</time></trkpt><trkpt lat="46.3784633366763" lon="13.134445964659633"><ele>262.0</ele><time>2026-04-06T08:31:58Z</time></trkpt><trkpt lat="46.378545811852916" lon="13.134290956590833"><ele>262.0</ele><time>2026-04-06T08:31:59Z</time></trkpt><trkpt lat="46.378629448628686" lon="13.13415165961732"><ele>262.0</ele><time>2026-04-06T08:32:00Z</time></trkpt><trkpt lat="46.37871502350777" lon="13.13402648253093"><ele>262.0</ele><time>2026-04-06T08:32:01Z</time></trkpt><trkpt lat="46.3788089693335" lon="13.13391460543895"><ele>262.0</ele><time>2026-04-06T08:32:02Z</time></trkpt><trkpt lat="46.37891214669361" lon="13.13380152198671"><ele>262.0</ele><time>2026-04-06T08:32:03Z</time></trkpt><trkpt lat="46.37902833616412" lon="13.133687149062895"><ele>262.0</ele><time>2026-04-06T08:32:04Z</time></trkpt><trkpt lat="46.379152323748485" lon="13.133574585922402"><ele>262.0</ele><time>2026-04-06T08:32:05Z</time></trkpt><trkpt lat="46.379285130931805" lon="13.133469959779777"><ele>262.0</ele><time>2026-04-06T08:32:06Z</time></trkpt><trkpt lat="46.37941686766893" lon="13.133375991110704"><ele>262.0</ele><time>2026-04-06T08:32:07Z</time></trkpt><trkpt lat="46.37954230251671" lon="13.133283891287746"><ele>262.0</ele><time>2026-04-06T08:32:08Z</time></trkpt><trkpt lat="46.37965681536578" lon="13.133196346587262"><ele>262.0</ele><time>2026-04-06T08:32:09Z</time></trkpt><trkpt lat="46.379765470681946" lon="13.133112966895682"><ele>262.0</ele><time>2026-04-06T08:32:10Z</time></trkpt><trkpt lat="46.379870010388856" lon="13.133040253000969"><ele>262.5</ele><time>2026-04-06T08:32:11Z</time></trkpt><trkpt lat="46.37998139757432" lon="13.132974693148814"><ele>263.0</ele><time>2026-04-06T08:32:12Z</time></trkpt><trkpt lat="46.38010909098811" lon="13.13291198122269"><ele>263.5</ele><time>2026-04-06T08:32:13Z</time></trkpt><trkpt lat="46.380251504730886" lon="13.132871319059657"><ele>264.0</ele><time>2026-04-06T08:32:14Z</time></trkpt><trkpt lat="46.38040543409353" lon="13.132853429587033"><ele>264.3333333333333</ele><time>2026-04-06T08:32:15Z</time></trkpt><trkpt lat="46.3805620581197" lon="13.132867226175744"><ele>264.66666666666663</ele><time>2026-04-06T08:32:16Z</time></trkpt><trkpt lat="46.38072361749996" lon="13.132900418994735"><ele>265.0</ele><time>2026-04-06T08:32:17Z</time></trkpt><trkpt lat="46.38088398400189" lon="13.132957068943911"><ele>265.0</ele><time>2026-04-06T08:32:18Z</time></trkpt><trkpt lat="46.38104420628573" lon="13.133036647898757"><ele>265.0</ele><time>2026-04-06T08:32:19Z</time></trkpt><trkpt lat="46.38120197575292" lon="13.13316130118172"><ele>265.0</ele><time>2026-04-06T08:32:20Z</time></trkpt><trkpt lat="46.38136361147115" lon="13.133317871900344"><ele>264.0</ele><time>2026-04-06T08:32:21Z</time></trkpt><trkpt lat="46.38151725031025" lon="13.133501655558518"><ele>263.0</ele><time>2026-04-06T08:32:22Z</time></trkpt><trkpt lat="46.38167401209139" lon="13.133706447354488"><ele>262.0</ele><time>2026-04-06T08:32:23Z</time></trkpt><trkpt lat="46.381834399983084" lon="13.13392058169737"><ele>262.66666666666663</ele><time>2026-04-06T08:32:24Z</time></trkpt><trkpt lat="46.38198764066109" lon="13.134120417400753"><ele>263.3333333333333</ele><time>2026-04-06T08:32:25Z</time></trkpt><trkpt lat="46.38213086202782" lon="13.13430787207928"><ele>264.0</ele><time>2026-04-06T08:32:26Z</time></trkpt><trkpt lat="46.38226814564993" lon="13.134482524197749"><ele>264.0</ele><time>2026-04-06T08:32:27Z</time></trkpt><trkpt lat="46.38240359824881" lon="13.134659372372779"><ele>264.0</ele><time>2026-04-06T08:32:28Z</time></trkpt><trkpt lat="46.38254936568757" lon="13.134843257463071"><ele>264.0</ele><time>2026-04-06T08:32:29Z</time></trkpt><trkpt lat="46.38269234610718" lon="13.135033675335093"><ele>264.0</ele><time>2026-04-06T08:32:30Z</time></trkpt><trkpt lat="46.38283137936503" lon="13.135217512441994"><ele>264.0</ele><time>2026-04-06T08:32:31Z</time></trkpt><trkpt lat="46.38296693913389" lon="13.13539125556109"><ele>264.0</ele><time>2026-04-06T08:32:32Z</time></trkpt><trkpt lat="46.383103245222735" lon="13.13555582720816"><ele>265.3333333333333</ele><time>2026-04-06T08:32:33Z</time></trkpt><trkpt lat="46.3832433114229" lon="13.135725547605173"><ele>266.66666666666663</ele><time>2026-04-06T08:32:34Z</time></trkpt><trkpt lat="46.38339161770847" lon="13.13590464259057"><ele>268.0</ele><time>2026-04-06T08:32:35Z</time></trkpt><trkpt lat="46.38354501234033" lon="13.136088663890435"><ele>268.0</ele><time>2026-04-06T08:32:36Z</time></trkpt><trkpt lat="46.38370116543307" lon="13.136274075841643"><ele>268.0</ele><time>2026-04-06T08:32:37Z</time></trkpt><trkpt lat="46.383860249597994" lon="13.136455462167895"><ele>268.0</ele><time>2026-04-06T08:32:38Z</time></trkpt><trkpt lat="46.384034229779125" lon="13.136647231842433"><ele>267.5</ele><time>2026-04-06T08:32:39Z</time></trkpt><trkpt lat="46.38423158732065" lon="13.136887453397218"><ele>267.0</ele><time>2026-04-06T08:32:40Z</time></trkpt><trkpt lat="46.38446234921664" lon="13.137146993606983"><ele>267.0</ele><time>2026-04-06T08:32:41Z</time></trkpt><trkpt lat="46.38471510537785" lon="13.137423859544096"><ele>267.0</ele><time>2026-04-06T08:32:42Z</time></trkpt><trkpt lat="46.384997951864456" lon="13.137705165532925"><ele>267.0</ele><time>2026-04-06T08:32:43Z</time></trkpt><trkpt lat="46.385254922333964" lon="13.138003763403558"><ele>267.0</ele><time>2026-04-06T08:32:44Z</time></trkpt><trkpt lat="46.385481953642866" lon="13.138261723361712"><ele>267.0</ele><time>2026-04-06T08:32:45Z</time></trkpt><trkpt lat="46.38568879017552" lon="13.138497567260863"><ele>267.0</ele><time>2026-04-06T08:32:46Z</time></trkpt><trkpt lat="46.385888113308" lon="13.138722622779097"><ele>267.0</ele><time>2026-04-06T08:32:47Z</time></trkpt><trkpt lat="46.38608352062229" lon="13.138935320537408"><ele>267.0</ele><time>2026-04-06T08:32:48Z</time></trkpt><trkpt lat="46.38626658681559" lon="13.139131981493534"><ele>267.6666666666667</ele><time>2026-04-06T08:32:49Z</time></trkpt><trkpt lat="46.386438832745576" lon="13.139313527089618"><ele>268.33333333333337</ele><time>2026-04-06T08:32:50Z</time></trkpt><trkpt lat="46.38661180358273" lon="13.13950661159812"><ele>269.0</ele><time>2026-04-06T08:32:51Z</time></trkpt><trkpt lat="46.38677369897477" lon="13.139719969400721"><ele>269.33333333333337</ele><time>2026-04-06T08:32:52Z</time></trkpt><trkpt lat="46.386913690269054" lon="13.139947877884257"><ele>269.6666666666667</ele><time>2026-04-06T08:32:53Z</time></trkpt><trkpt lat="46.38704000303007" lon="13.140205563987228"><ele>270.0</ele><time>2026-04-06T08:32:54Z</time></trkpt><trkpt lat="46.387152165740645" lon="13.140484549209395"><ele>268.6666666666667</ele><time>2026-04-06T08:32:55Z</time></trkpt><trkpt lat="46.38724655059248" lon="13.14077260554215"><ele>267.33333333333337</ele><time>2026-04-06T08:32:56Z</time></trkpt><trkpt lat="46.387319471957525" lon="13.14106881032753"><ele>266.0</ele><time>2026-04-06T08:32:57Z</time></trkpt><trkpt lat="46.38737836386795" lon="13.14137346216708"><ele>267.6666666666667</ele><time>2026-04-06T08:32:58Z</time></trkpt><trkpt lat="46.38741230283726" lon="13.141683118362893"><ele>269.3333333333333</ele><time>2026-04-06T08:32:59Z</time></trkpt><trkpt lat="46.38742290943185" lon="13.142001416550197"><ele>271.0</ele><time>2026-04-06T08:33:00Z</time></trkpt><trkpt lat="46.38742791064491" lon="13.142333297039608"><ele>270.0</ele><time>2026-04-06T08:33:01Z</time></trkpt><trkpt lat="46.38743350879438" lon="13.142685653754116"><ele>269.0</ele><time>2026-04-06T08:33:02Z</time></trkpt><trkpt lat="46.387445765679544" lon="13.143036127552898"><ele>271.0</ele><time>2026-04-06T08:33:03Z</time></trkpt><trkpt lat="46.38746085191508" lon="13.143393136778675"><ele>273.0</ele><time>2026-04-06T08:33:04Z</time></trkpt><trkpt lat="46.38747731018868" lon="13.143760235176815"><ele>280.5</ele><time>2026-04-06T08:33:05Z</time></trkpt><trkpt lat="46.38748788082234" lon="13.144117179042427"><ele>288.0</ele><time>2026-04-06T08:33:06Z</time></trkpt><trkpt lat="46.38749681728199" lon="13.144473229909208"><ele>288.0</ele><time>2026-04-06T08:33:07Z</time></trkpt><trkpt lat="46.387496175224896" lon="13.144809047036949"><ele>288.0</ele><time>2026-04-06T08:33:08Z</time></trkpt><trkpt lat="46.387485347807036" lon="13.145126959786449"><ele>286.5</ele><time>2026-04-06T08:33:09Z</time></trkpt><trkpt lat="46.3874567987592" lon="13.145464188934127"><ele>285.0</ele><time>2026-04-06T08:33:10Z</time></trkpt><trkpt lat="46.38742427184791" lon="13.145830112707827"><ele>281.0</ele><time>2026-04-06T08:33:11Z</time></trkpt><trkpt lat="46.38739207228234" lon="13.146219818320587"><ele>277.0</ele><time>2026-04-06T08:33:12Z</time></trkpt><trkpt lat="46.38736217615846" lon="13.146590653294195"><ele>275.5</ele><time>2026-04-06T08:33:13Z</time></trkpt><trkpt lat="46.387334484819505" lon="13.146926200664778"><ele>274.0</ele><time>2026-04-06T08:33:14Z</time></trkpt><trkpt lat="46.387311437019356" lon="13.14724744807696"><ele>272.5</ele><time>2026-04-06T08:33:15Z</time></trkpt><trkpt lat="46.38728311006308" lon="13.147577429772053"><ele>271.0</ele><time>2026-04-06T08:33:16Z</time></trkpt><trkpt lat="46.38725436326977" lon="13.147928321673337"><ele>270.5</ele><time>2026-04-06T08:33:17Z</time></trkpt><trkpt lat="46.387218523322666" lon="13.148288313644409"><ele>270.0</ele><time>2026-04-06T08:33:18Z</time></trkpt><trkpt lat="46.387171199284225" lon="13.148629950323983"><ele>283.3333333333333</ele><time>2026-04-06T08:33:19Z</time></trkpt><trkpt lat="46.387119782247716" lon="13.148949646145486"><ele>296.66666666666663</ele><time>2026-04-06T08:33:20Z</time></trkpt><trkpt lat="46.387075830057285" lon="13.149257131479896"><ele>310.0</ele><time>2026-04-06T08:33:21Z</time></trkpt><trkpt lat="46.38704232464921" lon="13.149571080997282"><ele>308.0</ele><time>2026-04-06T08:33:22Z</time></trkpt><trkpt lat="46.38701514778676" lon="13.149884030513048"><ele>306.0</ele><time>2026-04-06T08:33:23Z</time></trkpt><trkpt lat="46.38698834003411" lon="13.150193920923947"><ele>304.0</ele><time>2026-04-06T08:33:24Z</time></trkpt><trkpt lat="46.38697512360651" lon="13.150500889264732"><ele>302.66666666666663</ele><time>2026-04-06T08:33:25Z</time></trkpt><trkpt lat="46.38698380532041" lon="13.150802726202816"><ele>301.3333333333333</ele><time>2026-04-06T08:33:26Z</time></trkpt><trkpt lat="46.387027740361795" lon="13.151080115860259"><ele>300.0</ele><time>2026-04-06T08:33:27Z</time></trkpt><trkpt lat="46.38707432952204" lon="13.151385612847838"><ele>301.3333333333333</ele><time>2026-04-06T08:33:28Z</time></trkpt><trkpt lat="46.38709975124864" lon="13.15168329195324"><ele>302.66666666666663</ele><time>2026-04-06T08:33:29Z</time></trkpt><trkpt lat="46.38711587279093" lon="13.151962195008755"><ele>304.0</ele><time>2026-04-06T08:33:30Z</time></trkpt><trkpt lat="46.38712896266565" lon="13.152227294828977"><ele>313.66666666666663</ele><time>2026-04-06T08:33:31Z</time></trkpt><trkpt lat="46.387137876152714" lon="13.152476236109418"><ele>323.3333333333333</ele><time>2026-04-06T08:33:32Z</time></trkpt><trkpt lat="46.38714619721586" lon="13.15271959626855"><ele>333.0</ele><time>2026-04-06T08:33:33Z</time></trkpt><trkpt lat="46.38714229346225" lon="13.152979533121691"><ele>336.3333333333333</ele><time>2026-04-06T08:33:34Z</time></trkpt><trkpt lat="46.3871226345691" lon="13.153246940906026"><ele>339.66666666666663</ele><time>2026-04-06T08:33:35Z</time></trkpt><trkpt lat="46.38709520770904" lon="13.153536429896226"><ele>343.0</ele><time>2026-04-06T08:33:36Z</time></trkpt><trkpt lat="46.38706528248879" lon="13.1538397087382"><ele>336.66666666666663</ele><time>2026-04-06T08:33:37Z</time></trkpt><trkpt lat="46.38703657512261" lon="13.154153840007034"><ele>330.3333333333333</ele><time>2026-04-06T08:33:38Z</time></trkpt><trkpt lat="46.38700927737585" lon="13.15447690836333"><ele>324.0</ele><time>2026-04-06T08:33:39Z</time></trkpt><trkpt lat="46.386981366473194" lon="13.154807944182062"><ele>319.0</ele><time>2026-04-06T08:33:40Z</time></trkpt><trkpt lat="46.38695531866149" lon="13.155128499644023"><ele>314.0</ele><time>2026-04-06T08:33:41Z</time></trkpt><trkpt lat="46.38693363978174" lon="13.155437121381958"><ele>309.0</ele><time>2026-04-06T08:33:42Z</time></trkpt><trkpt lat="46.38691811306544" lon="13.155752915483733"><ele>309.0</ele><time>2026-04-06T08:33:43Z</time></trkpt><trkpt lat="46.38691110193019" lon="13.156074360608509"><ele>309.0</ele><time>2026-04-06T08:33:44Z</time></trkpt><trkpt lat="46.3869160794385" lon="13.15640242970843"><ele>309.0</ele><time>2026-04-06T08:33:45Z</time></trkpt><trkpt lat="46.38692522231176" lon="13.156722177775537"><ele>309.6666666666667</ele><time>2026-04-06T08:33:46Z</time></trkpt><trkpt lat="46.386938457413926" lon="13.157022072006608"><ele>310.33333333333337</ele><time>2026-04-06T08:33:47Z</time></trkpt><trkpt lat="46.3869591408294" lon="13.1573186769101"><ele>311.0</ele><time>2026-04-06T08:33:48Z</time></trkpt><trkpt lat="46.38698833252522" lon="13.157613919407403"><ele>312.33333333333337</ele><time>2026-04-06T08:33:49Z</time></trkpt><trkpt lat="46.3870325289169" lon="13.157908198481614"><ele>313.6666666666667</ele><time>2026-04-06T08:33:50Z</time></trkpt><trkpt lat="46.387087142472126" lon="13.158206125606785"><ele>315.0</ele><time>2026-04-06T08:33:51Z</time></trkpt><trkpt lat="46.38714973408719" lon="13.158496974788697"><ele>303.0</ele><time>2026-04-06T08:33:52Z</time></trkpt><trkpt lat="46.3872219049653" lon="13.158785555848544"><ele>291.0</ele><time>2026-04-06T08:33:53Z</time></trkpt><trkpt lat="46.38730402260836" lon="13.159074395496988"><ele>279.0</ele><time>2026-04-06T08:33:54Z</time></trkpt><trkpt lat="46.38739835340164" lon="13.159362899509459"><ele>279.0</ele><time>2026-04-06T08:33:55Z</time></trkpt><trkpt lat="46.38750684889822" lon="13.15964974047884"><ele>279.0</ele><time>2026-04-06T08:33:55.999Z</time></trkpt><trkpt lat="46.38763133716277" lon="13.159938791456629"><ele>281.5</ele><time>2026-04-06T08:33:56.999Z</time></trkpt><trkpt lat="46.3877632632058" lon="13.160218726775565"><ele>284.0</ele><time>2026-04-06T08:33:57.999Z</time></trkpt><trkpt lat="46.387902915531534" lon="13.160485745336509"><ele>282.5</ele><time>2026-04-06T08:33:58.999Z</time></trkpt><trkpt lat="46.38805768137631" lon="13.160742017203615"><ele>281.0</ele><time>2026-04-06T08:33:59.999Z</time></trkpt><trkpt lat="46.38822382735752" lon="13.160992284326097"><ele>281.0</ele><time>2026-04-06T08:34:00.999Z</time></trkpt><trkpt lat="46.38839788876804" lon="13.161229644108666"><ele>281.0</ele><time>2026-04-06T08:34:01.999Z</time></trkpt><trkpt lat="46.38857687910563" lon="13.16144987917347"><ele>281.5</ele><time>2026-04-06T08:34:02.999Z</time></trkpt><trkpt lat="46.38876528873945" lon="13.161658248414406"><ele>282.0</ele><time>2026-04-06T08:34:03.999Z</time></trkpt><trkpt lat="46.3889692567231" lon="13.161855484006324"><ele>282.0</ele><time>2026-04-06T08:34:04.999Z</time></trkpt><trkpt lat="46.389189924049745" lon="13.162042979707811"><ele>282.0</ele><time>2026-04-06T08:34:05.999Z</time></trkpt><trkpt lat="46.38941265674535" lon="13.16223349865863"><ele>283.5</ele><time>2026-04-06T08:34:06.999Z</time></trkpt><trkpt lat="46.389633638597246" lon="13.1624110962485"><ele>285.0</ele><time>2026-04-06T08:34:07.999Z</time></trkpt><trkpt lat="46.389831230768664" lon="13.162580410944765"><ele>285.0</ele><time>2026-04-06T08:34:08.999Z</time></trkpt><trkpt lat="46.39002026921033" lon="13.162741929015702"><ele>285.0</ele><time>2026-04-06T08:34:09.999Z</time></trkpt><trkpt lat="46.390203116981226" lon="13.162892679217975"><ele>285.0</ele><time>2026-04-06T08:34:10.999Z</time></trkpt><trkpt lat="46.39039274350926" lon="13.16305340688416"><ele>285.0</ele><time>2026-04-06T08:34:11.999Z</time></trkpt><trkpt lat="46.39058974481943" lon="13.163221485285883"><ele>285.0</ele><time>2026-04-06T08:34:12.999Z</time></trkpt><trkpt lat="46.3907957603592" lon="13.163394535161808"><ele>285.0</ele><time>2026-04-06T08:34:13.999Z</time></trkpt><trkpt lat="46.39101859444366" lon="13.163573650671916"><ele>285.0</ele><time>2026-04-06T08:34:14.999Z</time></trkpt><trkpt lat="46.391253989226605" lon="13.163794209136238"><ele>285.0</ele><time>2026-04-06T08:34:16Z</time></trkpt><trkpt lat="46.391507891564565" lon="13.164008727911806"><ele>285.0</ele><time>2026-04-06T08:34:17Z</time></trkpt><trkpt lat="46.39174550051508" lon="13.16421372581662"><ele>285.0</ele><time>2026-04-06T08:34:18Z</time></trkpt><trkpt lat="46.39198427340461" lon="13.164413332153531"><ele>285.0</ele><time>2026-04-06T08:34:19Z</time></trkpt><trkpt lat="46.392216906934436" lon="13.164656929108482"><ele>287.0</ele><time>2026-04-06T08:34:20Z</time></trkpt><trkpt lat="46.3924424263312" lon="13.164923448739515"><ele>289.0</ele><time>2026-04-06T08:34:21Z</time></trkpt><trkpt lat="46.39264307000117" lon="13.1651744324856"><ele>289.0</ele><time>2026-04-06T08:34:22Z</time></trkpt><trkpt lat="46.39282858881418" lon="13.165403726241557"><ele>289.0</ele><time>2026-04-06T08:34:23Z</time></trkpt><trkpt lat="46.393001677523706" lon="13.165619389422444"><ele>287.66666666666663</ele><time>2026-04-06T08:34:24Z</time></trkpt><trkpt lat="46.39316630789148" lon="13.165823861751772"><ele>286.3333333333333</ele><time>2026-04-06T08:34:25Z</time></trkpt><trkpt lat="46.3933270830162" lon="13.16602912451674"><ele>285.0</ele><time>2026-04-06T08:34:26Z</time></trkpt><trkpt lat="46.39348240413258" lon="13.166237156866996"><ele>285.0</ele><time>2026-04-06T08:34:27Z</time></trkpt><trkpt lat="46.39362706463923" lon="13.166458016938863"><ele>285.0</ele><time>2026-04-06T08:34:28Z</time></trkpt><trkpt lat="46.39375940153445" lon="13.166682335896319"><ele>285.0</ele><time>2026-04-06T08:34:29Z</time></trkpt><trkpt lat="46.393880671962165" lon="13.166899105455833"><ele>284.0</ele><time>2026-04-06T08:34:30Z</time></trkpt><trkpt lat="46.3939901919762" lon="13.167094204211962"><ele>283.0</ele><time>2026-04-06T08:34:31Z</time></trkpt><trkpt lat="46.39411163624346" lon="13.16732272865144"><ele>282.0</ele><time>2026-04-06T08:34:32Z</time></trkpt><trkpt lat="46.39423665119268" lon="13.167536684669166"><ele>285.3333333333333</ele><time>2026-04-06T08:34:33Z</time></trkpt><trkpt lat="46.39436244046124" lon="13.167756568298062"><ele>288.66666666666663</ele><time>2026-04-06T08:34:34Z</time></trkpt><trkpt lat="46.39448488723124" lon="13.167984982263885"><ele>292.0</ele><time>2026-04-06T08:34:35Z</time></trkpt><trkpt lat="46.39460266003656" lon="13.168218159234966"><ele>288.3333333333333</ele><time>2026-04-06T08:34:36Z</time></trkpt><trkpt lat="46.394705380447704" lon="13.168441684502161"><ele>284.6666666666667</ele><time>2026-04-06T08:34:37Z</time></trkpt><trkpt lat="46.39480952937137" lon="13.168661315540788"><ele>281.0</ele><time>2026-04-06T08:34:38Z</time></trkpt><trkpt lat="46.39490970806966" lon="13.168875981938468"><ele>284.6666666666667</ele><time>2026-04-06T08:34:39Z</time></trkpt><trkpt lat="46.395005312157714" lon="13.169083300497016"><ele>288.3333333333333</ele><time>2026-04-06T08:34:40Z</time></trkpt><trkpt lat="46.395098861104216" lon="13.169288168313923"><ele>292.0</ele><time>2026-04-06T08:34:41Z</time></trkpt><trkpt lat="46.39519266379591" lon="13.169488819731754"><ele>292.0</ele><time>2026-04-06T08:34:42Z</time></trkpt><trkpt lat="46.39528979407285" lon="13.169692945885217"><ele>292.0</ele><time>2026-04-06T08:34:43Z</time></trkpt><trkpt lat="46.395389582358646" lon="13.169893468416374"><ele>292.0</ele><time>2026-04-06T08:34:44Z</time></trkpt><trkpt lat="46.395488325761335" lon="13.170091393637202"><ele>291.3333333333333</ele><time>2026-04-06T08:34:45Z</time></trkpt><trkpt lat="46.395576400906684" lon="13.17029165686851"><ele>290.6666666666667</ele><time>2026-04-06T08:34:46Z</time></trkpt><trkpt lat="46.39566734536891" lon="13.170500385509223"><ele>290.0</ele><time>2026-04-06T08:34:47Z</time></trkpt><trkpt lat="46.39575744436784" lon="13.170712227610666"><ele>290.0</ele><time>2026-04-06T08:34:48Z</time></trkpt><trkpt lat="46.39585083540867" lon="13.170931465790948"><ele>290.0</ele><time>2026-04-06T08:34:49Z</time></trkpt><trkpt lat="46.39594333053021" lon="13.171161943867032"><ele>290.0</ele><time>2026-04-06T08:34:50Z</time></trkpt><trkpt lat="46.39602618932351" lon="13.171404887127997"><ele>298.33333333333337</ele><time>2026-04-06T08:34:51Z</time></trkpt><trkpt lat="46.396101392199974" lon="13.171662469731166"><ele>306.6666666666667</ele><time>2026-04-06T08:34:52Z</time></trkpt><trkpt lat="46.39617605391282" lon="13.171934166015989"><ele>315.0</ele><time>2026-04-06T08:34:52.999Z</time></trkpt><trkpt lat="46.396252954604336" lon="13.17221560208851"><ele>303.0</ele><time>2026-04-06T08:34:53.999Z</time></trkpt><trkpt lat="46.396329636245696" lon="13.172510833823358"><ele>291.0</ele><time>2026-04-06T08:34:54.999Z</time></trkpt><trkpt lat="46.39640761103226" lon="13.172817066074183"><ele>279.0</ele><time>2026-04-06T08:34:55.999Z</time></trkpt><trkpt lat="46.39648980614229" lon="13.173133164258793"><ele>283.0</ele><time>2026-04-06T08:34:56.999Z</time></trkpt><trkpt lat="46.39657342438523" lon="13.173445145037237"><ele>287.0</ele><time>2026-04-06T08:34:57.999Z</time></trkpt><trkpt lat="46.39665401787669" lon="13.173743003534444"><ele>289.0</ele><time>2026-04-06T08:34:58.999Z</time></trkpt><trkpt lat="46.396729191241505" lon="13.174027479420426"><ele>291.0</ele><time>2026-04-06T08:34:59.999Z</time></trkpt><trkpt lat="46.396803301260775" lon="13.174312769554282"><ele>293.0</ele><time>2026-04-06T08:35:00.999Z</time></trkpt><trkpt lat="46.39687497124454" lon="13.174589063396558"><ele>294.6666666666667</ele><time>2026-04-06T08:35:01.999Z</time></trkpt><trkpt lat="46.39694523107853" lon="13.174866195035623"><ele>296.3333333333333</ele><time>2026-04-06T08:35:02.999Z</time></trkpt><trkpt lat="46.397015698009255" lon="13.17514759050416"><ele>298.0</ele><time>2026-04-06T08:35:03.999Z</time></trkpt><trkpt lat="46.39708659854954" lon="13.175428763046328"><ele>294.0</ele><time>2026-04-06T08:35:04.999Z</time></trkpt><trkpt lat="46.397158653299165" lon="13.175705419331173"><ele>290.0</ele><time>2026-04-06T08:35:05.999Z</time></trkpt><trkpt lat="46.39723321697126" lon="13.175987201840702"><ele>286.0</ele><time>2026-04-06T08:35:06.999Z</time></trkpt><trkpt lat="46.39730944743723" lon="13.176273243807826"><ele>288.0</ele><time>2026-04-06T08:35:07.999Z</time></trkpt><trkpt lat="46.39738699842612" lon="13.17656294747303"><ele>290.0</ele><time>2026-04-06T08:35:08.999Z</time></trkpt><trkpt lat="46.397459910044596" lon="13.17684007266019"><ele>292.0</ele><time>2026-04-06T08:35:09.999Z</time></trkpt><trkpt lat="46.39752742217437" lon="13.177103277317814"><ele>294.66666666666663</ele><time>2026-04-06T08:35:10.999Z</time></trkpt><trkpt lat="46.39759110072193" lon="13.17735660225628"><ele>297.3333333333333</ele><time>2026-04-06T08:35:11.999Z</time></trkpt><trkpt lat="46.397648042982944" lon="13.177589394685935"><ele>300.0</ele><time>2026-04-06T08:35:12.999Z</time></trkpt><trkpt lat="46.39773668614419" lon="13.177905542988297"><ele>300.0</ele><time>2026-04-06T08:35:13.999Z</time></trkpt><trkpt lat="46.397816089245445" lon="13.178184798178926"><ele>300.0</ele><time>2026-04-06T08:35:14.999Z</time></trkpt><trkpt lat="46.39789909363116" lon="13.178493333645456"><ele>300.0</ele><time>2026-04-06T08:35:15.999Z</time></trkpt><trkpt lat="46.39796358277418" lon="13.178785741770566"><ele>297.3333333333333</ele><time>2026-04-06T08:35:16.999Z</time></trkpt><trkpt lat="46.3980428892991" lon="13.179057725704931"><ele>294.66666666666663</ele><time>2026-04-06T08:35:17.999Z</time></trkpt><trkpt lat="46.398117463461205" lon="13.179318385810362"><ele>292.0</ele><time>2026-04-06T08:35:18.999Z</time></trkpt><trkpt lat="46.398186502818604" lon="13.179566606067985"><ele>292.0</ele><time>2026-04-06T08:35:19.999Z</time></trkpt><trkpt lat="46.398250676834586" lon="13.179807515224017"><ele>292.0</ele><time>2026-04-06T08:35:20.999Z</time></trkpt><trkpt lat="46.398316116915716" lon="13.180037865764492"><ele>292.0</ele><time>2026-04-06T08:35:21.999Z</time></trkpt><trkpt lat="46.398389928934975" lon="13.180267134405595"><ele>292.3333333333333</ele><time>2026-04-06T08:35:22.999Z</time></trkpt><trkpt lat="46.39847278326536" lon="13.180509241388966"><ele>292.6666666666667</ele><time>2026-04-06T08:35:23.999Z</time></trkpt><trkpt lat="46.39855971347808" lon="13.18075920385415"><ele>293.0</ele><time>2026-04-06T08:35:24.999Z</time></trkpt><trkpt lat="46.39864549277743" lon="13.181024167061931"><ele>293.0</ele><time>2026-04-06T08:35:25.999Z</time></trkpt><trkpt lat="46.398730200036546" lon="13.181291729757957"><ele>293.0</ele><time>2026-04-06T08:35:26.999Z</time></trkpt><trkpt lat="46.39881086578225" lon="13.181551990496663"><ele>293.0</ele><time>2026-04-06T08:35:27.999Z</time></trkpt><trkpt lat="46.39889971211716" lon="13.18183554256823"><ele>294.0</ele><time>2026-04-06T08:35:28.999Z</time></trkpt><trkpt lat="46.39898962705945" lon="13.182105633034485"><ele>295.0</ele><time>2026-04-06T08:35:29.999Z</time></trkpt><trkpt lat="46.39907613359893" lon="13.182356915495978"><ele>296.0</ele><time>2026-04-06T08:35:30.999Z</time></trkpt><trkpt lat="46.3991621962141" lon="13.182609587310294"><ele>296.0</ele><time>2026-04-06T08:35:31.999Z</time></trkpt><trkpt lat="46.399249319448" lon="13.18286608489092"><ele>296.0</ele><time>2026-04-06T08:35:32.999Z</time></trkpt><trkpt lat="46.39933808766146" lon="13.183126082820207"><ele>296.0</ele><time>2026-04-06T08:35:33.999Z</time></trkpt><trkpt lat="46.3994221167926" lon="13.183374011767233"><ele>298.6666666666667</ele><time>2026-04-06T08:35:34.999Z</time></trkpt><trkpt lat="46.399495275406395" lon="13.183607647528378"><ele>301.3333333333333</ele><time>2026-04-06T08:35:35.999Z</time></trkpt><trkpt lat="46.39957594014713" lon="13.183838348663421"><ele>304.0</ele><time>2026-04-06T08:35:36.999Z</time></trkpt><trkpt lat="46.399646212630216" lon="13.184073657516151"><ele>303.3333333333333</ele><time>2026-04-06T08:35:37.999Z</time></trkpt><trkpt lat="46.39969854065766" lon="13.18429757511931"><ele>302.6666666666667</ele><time>2026-04-06T08:35:38.999Z</time></trkpt><trkpt lat="46.39973300273755" lon="13.184527198251073"><ele>302.0</ele><time>2026-04-06T08:35:39.999Z</time></trkpt><trkpt lat="46.39974995418692" lon="13.184758503532118"><ele>302.5</ele><time>2026-04-06T08:35:41Z</time></trkpt><trkpt lat="46.3997549059131" lon="13.184973088234601"><ele>303.0</ele><time>2026-04-06T08:35:42Z</time></trkpt><trkpt lat="46.39974567863909" lon="13.185176301706454"><ele>303.5</ele><time>2026-04-06T08:35:43Z</time></trkpt><trkpt lat="46.399729754622804" lon="13.185366444763169"><ele>304.0</ele><time>2026-04-06T08:35:44Z</time></trkpt><trkpt lat="46.39970718958927" lon="13.185556831749782"><ele>303.0</ele><time>2026-04-06T08:35:45Z</time></trkpt><trkpt lat="46.39967377612753" lon="13.185732633422287"><ele>302.0</ele><time>2026-04-06T08:35:46Z</time></trkpt><trkpt lat="46.39962888773149" lon="13.185903389257248"><ele>301.0</ele><time>2026-04-06T08:35:47Z</time></trkpt><trkpt lat="46.39957488502816" lon="13.186090067182379"><ele>300.0</ele><time>2026-04-06T08:35:48Z</time></trkpt><trkpt lat="46.39950621415136" lon="13.186280447680288"><ele>307.0</ele><time>2026-04-06T08:35:49Z</time></trkpt><trkpt lat="46.39941920105444" lon="13.186468725902975"><ele>314.0</ele><time>2026-04-06T08:35:50Z</time></trkpt><trkpt lat="46.39932486127217" lon="13.18664921867782"><ele>321.0</ele><time>2026-04-06T08:35:51Z</time></trkpt><trkpt lat="46.39924176115596" lon="13.186819559248166"><ele>321.0</ele><time>2026-04-06T08:35:52Z</time></trkpt><trkpt lat="46.39916329811632" lon="13.186991294826582"><ele>321.0</ele><time>2026-04-06T08:35:53Z</time></trkpt><trkpt lat="46.39908760273333" lon="13.187188347527394"><ele>321.0</ele><time>2026-04-06T08:35:54Z</time></trkpt><trkpt lat="46.39902694077502" lon="13.187413205552753"><ele>313.0</ele><time>2026-04-06T08:35:55Z</time></trkpt><trkpt lat="46.398975518953606" lon="13.187656748557487"><ele>305.0</ele><time>2026-04-06T08:35:56Z</time></trkpt><trkpt lat="46.398941952983144" lon="13.187923732770054"><ele>297.0</ele><time>2026-04-06T08:35:57Z</time></trkpt><trkpt lat="46.39892020163104" lon="13.188192356361599"><ele>295.3333333333333</ele><time>2026-04-06T08:35:58Z</time></trkpt><trkpt lat="46.39891187383776" lon="13.188451347395949"><ele>293.66666666666663</ele><time>2026-04-06T08:35:59Z</time></trkpt><trkpt lat="46.398906822493004" lon="13.188695545863103"><ele>292.0</ele><time>2026-04-06T08:36:00Z</time></trkpt><trkpt lat="46.398897556171754" lon="13.188930978711914"><ele>293.3333333333333</ele><time>2026-04-06T08:36:01Z</time></trkpt><trkpt lat="46.398877413307844" lon="13.189174430847162"><ele>294.6666666666667</ele><time>2026-04-06T08:36:02Z</time></trkpt><trkpt lat="46.39883900419179" lon="13.189431516772938"><ele>296.0</ele><time>2026-04-06T08:36:03Z</time></trkpt><trkpt lat="46.398789390123426" lon="13.189688571462618"><ele>312.6666666666667</ele><time>2026-04-06T08:36:04Z</time></trkpt><trkpt lat="46.39873584061936" lon="13.189926139412945"><ele>329.3333333333333</ele><time>2026-04-06T08:36:05Z</time></trkpt><trkpt lat="46.398679856399895" lon="13.190147032357439"><ele>346.0</ele><time>2026-04-06T08:36:06Z</time></trkpt><trkpt lat="46.39862491261171" lon="13.190352255978343"><ele>346.0</ele><time>2026-04-06T08:36:07Z</time></trkpt><trkpt lat="46.39856378220985" lon="13.190545212557412"><ele>346.0</ele><time>2026-04-06T08:36:08Z</time></trkpt><trkpt lat="46.39848899438345" lon="13.190731650552173"><ele>346.0</ele><time>2026-04-06T08:36:09Z</time></trkpt><trkpt lat="46.39839316853606" lon="13.190917996970196"><ele>351.66666666666663</ele><time>2026-04-06T08:36:10Z</time></trkpt><trkpt lat="46.3982779779385" lon="13.191095013218689"><ele>357.3333333333333</ele><time>2026-04-06T08:36:11Z</time></trkpt><trkpt lat="46.398131172281644" lon="13.191274002773113"><ele>363.0</ele><time>2026-04-06T08:36:12Z</time></trkpt><trkpt lat="46.39797062246804" lon="13.191453650602707"><ele>351.6666666666667</ele><time>2026-04-06T08:36:13Z</time></trkpt><trkpt lat="46.39781592186629" lon="13.191607696515781"><ele>340.33333333333337</ele><time>2026-04-06T08:36:14Z</time></trkpt><trkpt lat="46.397679694670394" lon="13.191762641500372"><ele>329.0</ele><time>2026-04-06T08:36:15Z</time></trkpt><trkpt lat="46.397565608192906" lon="13.191931402363853"><ele>329.0</ele><time>2026-04-06T08:36:16Z</time></trkpt><trkpt lat="46.397459614172185" lon="13.192122471360209"><ele>329.0</ele><time>2026-04-06T08:36:17Z</time></trkpt><trkpt lat="46.397362656383095" lon="13.192328046394717"><ele>329.0</ele><time>2026-04-06T08:36:18Z</time></trkpt><trkpt lat="46.397269229887996" lon="13.192561431998191"><ele>334.6666666666667</ele><time>2026-04-06T08:36:19Z</time></trkpt><trkpt lat="46.397189297205614" lon="13.192823823053375"><ele>340.3333333333333</ele><time>2026-04-06T08:36:20Z</time></trkpt><trkpt lat="46.39710459000828" lon="13.19309216009334"><ele>346.0</ele><time>2026-04-06T08:36:21Z</time></trkpt><trkpt lat="46.397020095737574" lon="13.19334669461423"><ele>346.0</ele><time>2026-04-06T08:36:22Z</time></trkpt><trkpt lat="46.39694108167896" lon="13.19358806574806"><ele>346.0</ele><time>2026-04-06T08:36:23Z</time></trkpt><trkpt lat="46.39687435466094" lon="13.193843321791766"><ele>346.0</ele><time>2026-04-06T08:36:24Z</time></trkpt><trkpt lat="46.39682869583867" lon="13.19411981733927"><ele>339.0</ele><time>2026-04-06T08:36:25Z</time></trkpt><trkpt lat="46.39680410042308" lon="13.194415148625843"><ele>332.0</ele><time>2026-04-06T08:36:26Z</time></trkpt><trkpt lat="46.39679259014832" lon="13.19473418579474"><ele>325.0</ele><time>2026-04-06T08:36:27Z</time></trkpt><trkpt lat="46.39679683403262" lon="13.195060116622441"><ele>324.5</ele><time>2026-04-06T08:36:28Z</time></trkpt><trkpt lat="46.39680888117666" lon="13.195396582025168"><ele>324.0</ele><time>2026-04-06T08:36:29Z</time></trkpt><trkpt lat="46.39682082546241" lon="13.195720646813594"><ele>325.3333333333333</ele><time>2026-04-06T08:36:30Z</time></trkpt><trkpt lat="46.39681869466943" lon="13.196018095544341"><ele>326.66666666666663</ele><time>2026-04-06T08:36:31Z</time></trkpt><trkpt lat="46.39681501259839" lon="13.196295434294656"><ele>328.0</ele><time>2026-04-06T08:36:32Z</time></trkpt><trkpt lat="46.39681106259365" lon="13.196555869956187"><ele>330.3333333333333</ele><time>2026-04-06T08:36:33Z</time></trkpt><trkpt lat="46.39681198026801" lon="13.196820823894345"><ele>332.6666666666667</ele><time>2026-04-06T08:36:34Z</time></trkpt><trkpt lat="46.396805589762465" lon="13.19709473362302"><ele>335.0</ele><time>2026-04-06T08:36:35Z</time></trkpt><trkpt lat="46.39679451342357" lon="13.197373181672846"><ele>335.0</ele><time>2026-04-06T08:36:36Z</time></trkpt><trkpt lat="46.39677591262406" lon="13.197644201582603"><ele>335.0</ele><time>2026-04-06T08:36:37Z</time></trkpt><trkpt lat="46.396756807804515" lon="13.197895882132123"><ele>335.0</ele><time>2026-04-06T08:36:38Z</time></trkpt><trkpt lat="46.39674258242606" lon="13.198133775060473"><ele>335.6666666666667</ele><time>2026-04-06T08:36:39Z</time></trkpt><trkpt lat="46.3967264288345" lon="13.198384495586557"><ele>336.3333333333333</ele><time>2026-04-06T08:36:40Z</time></trkpt><trkpt lat="46.396702070598444" lon="13.198645162316126"><ele>337.0</ele><time>2026-04-06T08:36:41Z</time></trkpt><trkpt lat="46.39667092418024" lon="13.198916150204846"><ele>333.66666666666663</ele><time>2026-04-06T08:36:42Z</time></trkpt><trkpt lat="46.39663793306857" lon="13.199172801840021"><ele>330.3333333333333</ele><time>2026-04-06T08:36:43Z</time></trkpt><trkpt lat="46.39661039168251" lon="13.199407133984407"><ele>327.0</ele><time>2026-04-06T08:36:44Z</time></trkpt><trkpt lat="46.39658707192841" lon="13.199626597894358"><ele>325.25</ele><time>2026-04-06T08:36:45Z</time></trkpt><trkpt lat="46.396562555150226" lon="13.199839194399807"><ele>323.5</ele><time>2026-04-06T08:36:46Z</time></trkpt><trkpt lat="46.39654123192075" lon="13.200040745940596"><ele>321.75</ele><time>2026-04-06T08:36:47Z</time></trkpt><trkpt lat="46.396518622463326" lon="13.200231350929032"><ele>320.0</ele><time>2026-04-06T08:36:48Z</time></trkpt><trkpt lat="46.39649409363342" lon="13.200414945373593"><ele>320.0</ele><time>2026-04-06T08:36:49Z</time></trkpt><trkpt lat="46.396453077499835" lon="13.200612380310371"><ele>320.0</ele><time>2026-04-06T08:36:50Z</time></trkpt><trkpt lat="46.396395920516554" lon="13.200826179518657"><ele>320.0</ele><time>2026-04-06T08:36:51Z</time></trkpt><trkpt lat="46.3963305385971" lon="13.201056310828161"><ele>325.6666666666667</ele><time>2026-04-06T08:36:52Z</time></trkpt><trkpt lat="46.39625273482066" lon="13.201290918855797"><ele>331.3333333333333</ele><time>2026-04-06T08:36:53Z</time></trkpt><trkpt lat="46.39618536951751" lon="13.20152958760283"><ele>337.0</ele><time>2026-04-06T08:36:54Z</time></trkpt><trkpt lat="46.39613152595951" lon="13.201753594995633"><ele>337.0</ele><time>2026-04-06T08:36:55Z</time></trkpt><trkpt lat="46.396072679735646" lon="13.201996909479293"><ele>337.0</ele><time>2026-04-06T08:36:56Z</time></trkpt><trkpt lat="46.39602067652239" lon="13.202283394626308"><ele>337.0</ele><time>2026-04-06T08:36:57Z</time></trkpt><trkpt lat="46.39597825086787" lon="13.202575271630346"><ele>336.3333333333333</ele><time>2026-04-06T08:36:58Z</time></trkpt><trkpt lat="46.39593662697182" lon="13.202853867727722"><ele>335.6666666666667</ele><time>2026-04-06T08:36:59Z</time></trkpt><trkpt lat="46.39589441325165" lon="13.203117128258569"><ele>335.0</ele><time>2026-04-06T08:37:00Z</time></trkpt><trkpt lat="46.39584927174176" lon="13.203382402379688"><ele>331.33333333333337</ele><time>2026-04-06T08:37:01Z</time></trkpt><trkpt lat="46.39579968855405" lon="13.20366654051731"><ele>327.6666666666667</ele><time>2026-04-06T08:37:02Z</time></trkpt><trkpt lat="46.395749372518004" lon="13.2039692598687"><ele>324.0</ele><time>2026-04-06T08:37:03Z</time></trkpt><trkpt lat="46.395707633684914" lon="13.204302695227579"><ele>322.0</ele><time>2026-04-06T08:37:04Z</time></trkpt><trkpt lat="46.39568042561433" lon="13.204689761288558"><ele>320.0</ele><time>2026-04-06T08:37:05Z</time></trkpt><trkpt lat="46.39566496007508" lon="13.205110240950576"><ele>316.0</ele><time>2026-04-06T08:37:06Z</time></trkpt><trkpt lat="46.39564967991927" lon="13.205560370202885"><ele>312.0</ele><time>2026-04-06T08:37:07Z</time></trkpt><trkpt lat="46.39561935799977" lon="13.206002079244334"><ele>309.5</ele><time>2026-04-06T08:37:08Z</time></trkpt><trkpt lat="46.39560982460622" lon="13.206408138601656"><ele>307.0</ele><time>2026-04-06T08:37:09Z</time></trkpt><trkpt lat="46.39559280752566" lon="13.206770676606027"><ele>305.5</ele><time>2026-04-06T08:37:10Z</time></trkpt><trkpt lat="46.3955782279459" lon="13.207117460405364"><ele>304.0</ele><time>2026-04-06T08:37:11Z</time></trkpt><trkpt lat="46.39556442592246" lon="13.207442390445264"><ele>304.0</ele><time>2026-04-06T08:37:12Z</time></trkpt><trkpt lat="46.39555044962418" lon="13.207752489693531"><ele>304.0</ele><time>2026-04-06T08:37:13Z</time></trkpt><trkpt lat="46.39553458231611" lon="13.208072069803437"><ele>304.0</ele><time>2026-04-06T08:37:14Z</time></trkpt><trkpt lat="46.39552056546032" lon="13.208401223175066"><ele>322.0</ele><time>2026-04-06T08:37:15Z</time></trkpt><trkpt lat="46.39550155829875" lon="13.208728526677419"><ele>340.0</ele><time>2026-04-06T08:37:16Z</time></trkpt><trkpt lat="46.395483401378684" lon="13.209054212750871"><ele>340.0</ele><time>2026-04-06T08:37:17Z</time></trkpt><trkpt lat="46.3954686510877" lon="13.209382859139565"><ele>340.0</ele><time>2026-04-06T08:37:18Z</time></trkpt><trkpt lat="46.39545001362806" lon="13.209725192813693"><ele>330.5</ele><time>2026-04-06T08:37:19Z</time></trkpt><trkpt lat="46.39542830949746" lon="13.210079563114139"><ele>321.0</ele><time>2026-04-06T08:37:20Z</time></trkpt><trkpt lat="46.39539927672511" lon="13.210435750461585"><ele>319.0</ele><time>2026-04-06T08:37:21Z</time></trkpt><trkpt lat="46.39535818028217" lon="13.210772596135548"><ele>317.0</ele><time>2026-04-06T08:37:22Z</time></trkpt><trkpt lat="46.39530844515026" lon="13.211099371960662"><ele>317.0</ele><time>2026-04-06T08:37:23Z</time></trkpt><trkpt lat="46.39525575171277" lon="13.21143444652388"><ele>317.0</ele><time>2026-04-06T08:37:24Z</time></trkpt><trkpt lat="46.3952054509331" lon="13.211775341934219"><ele>316.0</ele><time>2026-04-06T08:37:25Z</time></trkpt><trkpt lat="46.395154106959495" lon="13.212106333206725"><ele>315.0</ele><time>2026-04-06T08:37:26Z</time></trkpt><trkpt lat="46.39510758396336" lon="13.212414807289028"><ele>314.3333333333333</ele><time>2026-04-06T08:37:27Z</time></trkpt><trkpt lat="46.395065258976324" lon="13.21271217407274"><ele>313.66666666666663</ele><time>2026-04-06T08:37:28Z</time></trkpt><trkpt lat="46.395022487737315" lon="13.21300838331709"><ele>313.0</ele><time>2026-04-06T08:37:29Z</time></trkpt><trkpt lat="46.39497947747166" lon="13.213304406202306"><ele>312.66666666666663</ele><time>2026-04-06T08:37:30Z</time></trkpt><trkpt lat="46.39493636187821" lon="13.213603139136096"><ele>312.3333333333333</ele><time>2026-04-06T08:37:31Z</time></trkpt><trkpt lat="46.394895952874855" lon="13.21389872889272"><ele>312.0</ele><time>2026-04-06T08:37:32Z</time></trkpt><trkpt lat="46.3948569632218" lon="13.214176047844296"><ele>312.6666666666667</ele><time>2026-04-06T08:37:33Z</time></trkpt><trkpt lat="46.39481735124774" lon="13.2144450669729"><ele>313.33333333333337</ele><time>2026-04-06T08:37:34Z</time></trkpt><trkpt lat="46.39477321687488" lon="13.214734478712577"><ele>314.0</ele><time>2026-04-06T08:37:35Z</time></trkpt><trkpt lat="46.39472932662165" lon="13.215026376588877"><ele>314.33333333333337</ele><time>2026-04-06T08:37:36Z</time></trkpt><trkpt lat="46.39468211966676" lon="13.215327259081246"><ele>314.6666666666667</ele><time>2026-04-06T08:37:37Z</time></trkpt><trkpt lat="46.39463653162931" lon="13.21562993871186"><ele>315.0</ele><time>2026-04-06T08:37:38Z</time></trkpt><trkpt lat="46.39459559830275" lon="13.215918703475392"><ele>315.0</ele><time>2026-04-06T08:37:39Z</time></trkpt><trkpt lat="46.39455804287221" lon="13.216188225674774"><ele>315.0</ele><time>2026-04-06T08:37:40Z</time></trkpt><trkpt lat="46.39452106324477" lon="13.2164519719303"><ele>315.0</ele><time>2026-04-06T08:37:41Z</time></trkpt><trkpt lat="46.39448102260144" lon="13.216724710365556"><ele>315.0</ele><time>2026-04-06T08:37:42Z</time></trkpt><trkpt lat="46.394439186680344" lon="13.216996991423692"><ele>315.0</ele><time>2026-04-06T08:37:43Z</time></trkpt><trkpt lat="46.394397663446505" lon="13.217262884494449"><ele>315.0</ele><time>2026-04-06T08:37:44Z</time></trkpt><trkpt lat="46.39435652314018" lon="13.217517085486408"><ele>314.6666666666667</ele><time>2026-04-06T08:37:45Z</time></trkpt><trkpt lat="46.39432062862162" lon="13.217753552136784"><ele>314.33333333333337</ele><time>2026-04-06T08:37:46Z</time></trkpt><trkpt lat="46.394282795280894" lon="13.21799696771282"><ele>314.0</ele><time>2026-04-06T08:37:47Z</time></trkpt><trkpt lat="46.394241728538816" lon="13.218252503846875"><ele>315.0</ele><time>2026-04-06T08:37:48Z</time></trkpt><trkpt lat="46.394202868811824" lon="13.218520519682594"><ele>316.0</ele><time>2026-04-06T08:37:49Z</time></trkpt><trkpt lat="46.39416664635817" lon="13.21879381948055"><ele>317.0</ele><time>2026-04-06T08:37:50Z</time></trkpt><trkpt lat="46.39412700280411" lon="13.219067050365801"><ele>317.0</ele><time>2026-04-06T08:37:51Z</time></trkpt><trkpt lat="46.39408428002826" lon="13.219345473951284"><ele>317.0</ele><time>2026-04-06T08:37:52Z</time></trkpt><trkpt lat="46.394041483233316" lon="13.219618850232289"><ele>317.0</ele><time>2026-04-06T08:37:53Z</time></trkpt><trkpt lat="46.39399864256171" lon="13.21988040371138"><ele>317.0</ele><time>2026-04-06T08:37:54Z</time></trkpt><trkpt lat="46.39396044381577" lon="13.220135386438951"><ele>317.0</ele><time>2026-04-06T08:37:55Z</time></trkpt><trkpt lat="46.393921326168034" lon="13.220391987900506"><ele>317.0</ele><time>2026-04-06T08:37:56Z</time></trkpt><trkpt lat="46.39388155718947" lon="13.220644592976672"><ele>317.33333333333337</ele><time>2026-04-06T08:37:57Z</time></trkpt><trkpt lat="46.393840623867995" lon="13.22088564211517"><ele>317.6666666666667</ele><time>2026-04-06T08:37:58Z</time></trkpt><trkpt lat="46.39380192644814" lon="13.221125267421433"><ele>318.0</ele><time>2026-04-06T08:37:59Z</time></trkpt><trkpt lat="46.393761889167735" lon="13.221370690769415"><ele>317.3333333333333</ele><time>2026-04-06T08:38:00Z</time></trkpt><trkpt lat="46.3937245425447" lon="13.221620645325709"><ele>316.66666666666663</ele><time>2026-04-06T08:38:01Z</time></trkpt><trkpt lat="46.393693762488944" lon="13.221861079068736"><ele>316.0</ele><time>2026-04-06T08:38:02Z</time></trkpt><trkpt lat="46.39366993267957" lon="13.222099083864885"><ele>316.3333333333333</ele><time>2026-04-06T08:38:03Z</time></trkpt><trkpt lat="46.393653174907925" lon="13.222340867141543"><ele>316.6666666666667</ele><time>2026-04-06T08:38:04Z</time></trkpt><trkpt lat="46.39364835285418" lon="13.222593033392215"><ele>317.0</ele><time>2026-04-06T08:38:05Z</time></trkpt><trkpt lat="46.39367491073391" lon="13.222836951843227"><ele>317.0</ele><time>2026-04-06T08:38:06Z</time></trkpt><trkpt lat="46.39367650928206" lon="13.223103483488044"><ele>317.0</ele><time>2026-04-06T08:38:07Z</time></trkpt><trkpt lat="46.3936661418534" lon="13.223225668372491"><ele>317.0</ele><time>2026-04-06T08:38:08Z</time></trkpt><trkpt lat="46.39367840859622" lon="13.223448446378933"><ele>317.0</ele><time>2026-04-06T08:38:09Z</time></trkpt><trkpt lat="46.3936942925159" lon="13.223674894378405"><ele>317.33333333333337</ele><time>2026-04-06T08:38:10Z</time></trkpt><trkpt lat="46.393700531352785" lon="13.223930174265925"><ele>317.6666666666667</ele><time>2026-04-06T08:38:11Z</time></trkpt><trkpt lat="46.39371081898286" lon="13.22418847145989"><ele>318.0</ele><time>2026-04-06T08:38:12Z</time></trkpt><trkpt lat="46.3937298112468" lon="13.224422115922664"><ele>318.3333333333333</ele><time>2026-04-06T08:38:13Z</time></trkpt><trkpt lat="46.393741462616276" lon="13.224659069219973"><ele>318.66666666666663</ele><time>2026-04-06T08:38:14Z</time></trkpt><trkpt lat="46.393755192139714" lon="13.224894026689967"><ele>319.0</ele><time>2026-04-06T08:38:15Z</time></trkpt><trkpt lat="46.39377040731472" lon="13.22512856320435"><ele>319.66666666666663</ele><time>2026-04-06T08:38:16Z</time></trkpt><trkpt lat="46.393783613207" lon="13.225356640894566"><ele>320.3333333333333</ele><time>2026-04-06T08:38:17Z</time></trkpt><trkpt lat="46.3937983148403" lon="13.225582934486757"><ele>321.0</ele><time>2026-04-06T08:38:18Z</time></trkpt><trkpt lat="46.393804818174445" lon="13.225849342665013"><ele>321.3333333333333</ele><time>2026-04-06T08:38:19Z</time></trkpt><trkpt lat="46.393794899944936" lon="13.2261222685388"><ele>321.66666666666663</ele><time>2026-04-06T08:38:20Z</time></trkpt><trkpt lat="46.39378404881095" lon="13.226394895274877"><ele>322.0</ele><time>2026-04-06T08:38:21Z</time></trkpt><trkpt lat="46.393761093853755" lon="13.226681045027695"><ele>322.0</ele><time>2026-04-06T08:38:22Z</time></trkpt><trkpt lat="46.3937267570957" lon="13.226959468503251"><ele>322.0</ele><time>2026-04-06T08:38:23Z</time></trkpt><trkpt lat="46.393686002944776" lon="13.227228266130167"><ele>322.0</ele><time>2026-04-06T08:38:24Z</time></trkpt><trkpt lat="46.393640874421145" lon="13.227508653742104"><ele>321.3333333333333</ele><time>2026-04-06T08:38:25Z</time></trkpt><trkpt lat="46.39360194390523" lon="13.227796648377923"><ele>320.6666666666667</ele><time>2026-04-06T08:38:26Z</time></trkpt><trkpt lat="46.393557111033196" lon="13.228092053171176"><ele>320.0</ele><time>2026-04-06T08:38:27Z</time></trkpt><trkpt lat="46.39351184201854" lon="13.228393302766012"><ele>320.0</ele><time>2026-04-06T08:38:28Z</time></trkpt><trkpt lat="46.39347090724667" lon="13.228694813471396"><ele>320.0</ele><time>2026-04-06T08:38:29Z</time></trkpt><trkpt lat="46.393425713069156" lon="13.228993858186564"><ele>320.0</ele><time>2026-04-06T08:38:30Z</time></trkpt><trkpt lat="46.393392512385425" lon="13.229268750830139"><ele>319.33333333333337</ele><time>2026-04-06T08:38:31Z</time></trkpt><trkpt lat="46.393360049659584" lon="13.229526207130604"><ele>318.6666666666667</ele><time>2026-04-06T08:38:32Z</time></trkpt><trkpt lat="46.39333057284305" lon="13.229778679538239"><ele>318.0</ele><time>2026-04-06T08:38:33Z</time></trkpt><trkpt lat="46.39329834097035" lon="13.230045451853659"><ele>318.0</ele><time>2026-04-06T08:38:34Z</time></trkpt><trkpt lat="46.39326220982035" lon="13.230320550203105"><ele>318.0</ele><time>2026-04-06T08:38:35Z</time></trkpt><trkpt lat="46.39322763337589" lon="13.230587253652807"><ele>318.0</ele><time>2026-04-06T08:38:36Z</time></trkpt><trkpt lat="46.39319560736577" lon="13.230830961893416"><ele>319.0</ele><time>2026-04-06T08:38:37Z</time></trkpt><trkpt lat="46.393165752442606" lon="13.231063498865097"><ele>320.0</ele><time>2026-04-06T08:38:38Z</time></trkpt><trkpt lat="46.3931335013561" lon="13.231302162053248"><ele>321.0</ele><time>2026-04-06T08:38:39Z</time></trkpt><trkpt lat="46.39310370832108" lon="13.23154486435645"><ele>321.6666666666667</ele><time>2026-04-06T08:38:40Z</time></trkpt><trkpt lat="46.39307668872777" lon="13.23179092383499"><ele>322.33333333333337</ele><time>2026-04-06T08:38:41Z</time></trkpt><trkpt lat="46.393050811026576" lon="13.232033054409547"><ele>323.0</ele><time>2026-04-06T08:38:42Z</time></trkpt><trkpt lat="46.39302195951108" lon="13.232275434797335"><ele>331.33333333333337</ele><time>2026-04-06T08:38:43Z</time></trkpt><trkpt lat="46.39299276554066" lon="13.23251355223923"><ele>339.6666666666667</ele><time>2026-04-06T08:38:44Z</time></trkpt><trkpt lat="46.39296139932197" lon="13.232760685963925"><ele>348.0</ele><time>2026-04-06T08:38:45Z</time></trkpt><trkpt lat="46.39293053828913" lon="13.233004870650399"><ele>348.3333333333333</ele><time>2026-04-06T08:38:46Z</time></trkpt><trkpt lat="46.39288436843007" lon="13.23324969275691"><ele>348.66666666666663</ele><time>2026-04-06T08:38:47Z</time></trkpt><trkpt lat="46.392823190280936" lon="13.23347883736471"><ele>349.0</ele><time>2026-04-06T08:38:48Z</time></trkpt><trkpt lat="46.392758253428106" lon="13.233689712467108"><ele>349.0</ele><time>2026-04-06T08:38:49Z</time></trkpt><trkpt lat="46.392696525038794" lon="13.233884597429482"><ele>349.0</ele><time>2026-04-06T08:38:50Z</time></trkpt><trkpt lat="46.39263502870226" lon="13.23409362065305"><ele>349.0</ele><time>2026-04-06T08:38:51Z</time></trkpt><trkpt lat="46.39257655962174" lon="13.234315023625454"><ele>346.66666666666663</ele><time>2026-04-06T08:38:52Z</time></trkpt><trkpt lat="46.392531184227884" lon="13.234552076681924"><ele>344.3333333333333</ele><time>2026-04-06T08:38:53Z</time></trkpt><trkpt lat="46.392502276937655" lon="13.234804536131522"><ele>342.0</ele><time>2026-04-06T08:38:54Z</time></trkpt><trkpt lat="46.392491762823376" lon="13.235077488493715"><ele>342.0</ele><time>2026-04-06T08:38:55Z</time></trkpt><trkpt lat="46.392492204296474" lon="13.23536069788716"><ele>342.0</ele><time>2026-04-06T08:38:56Z</time></trkpt><trkpt lat="46.39250751494196" lon="13.23564873911966"><ele>342.0</ele><time>2026-04-06T08:38:57Z</time></trkpt><trkpt lat="46.39252711353434" lon="13.235923564819199"><ele>341.3333333333333</ele><time>2026-04-06T08:38:58Z</time></trkpt><trkpt lat="46.39254445730997" lon="13.236199891305686"><ele>340.66666666666663</ele><time>2026-04-06T08:38:59Z</time></trkpt><trkpt lat="46.39255701717298" lon="13.236482981286013"><ele>340.0</ele><time>2026-04-06T08:39:00Z</time></trkpt><trkpt lat="46.392557840670534" lon="13.23676796022148"><ele>340.0</ele><time>2026-04-06T08:39:01Z</time></trkpt><trkpt lat="46.39254004003449" lon="13.237049491177238"><ele>340.0</ele><time>2026-04-06T08:39:02Z</time></trkpt><trkpt lat="46.392507137766884" lon="13.237322539599715"><ele>340.0</ele><time>2026-04-06T08:39:03Z</time></trkpt><trkpt lat="46.39247411898732" lon="13.237578201789212"><ele>342.3333333333333</ele><time>2026-04-06T08:39:04Z</time></trkpt><trkpt lat="46.39245524457092" lon="13.237814256099576"><ele>344.6666666666667</ele><time>2026-04-06T08:39:05Z</time></trkpt><trkpt lat="46.39245304180449" lon="13.23806251714244"><ele>347.0</ele><time>2026-04-06T08:39:06Z</time></trkpt><trkpt lat="46.39246072194544" lon="13.238324252361435"><ele>347.33333333333337</ele><time>2026-04-06T08:39:07Z</time></trkpt><trkpt lat="46.392469255283835" lon="13.238596857373485"><ele>347.6666666666667</ele><time>2026-04-06T08:39:08Z</time></trkpt><trkpt lat="46.392473910987434" lon="13.23886988787025"><ele>348.0</ele><time>2026-04-06T08:39:09Z</time></trkpt><trkpt lat="46.392477534260216" lon="13.239147450427817"><ele>347.3333333333333</ele><time>2026-04-06T08:39:10Z</time></trkpt><trkpt lat="46.39247884661139" lon="13.239396992480598"><ele>346.66666666666663</ele><time>2026-04-06T08:39:11Z</time></trkpt><trkpt lat="46.39248322936984" lon="13.23963314852578"><ele>346.0</ele><time>2026-04-06T08:39:12Z</time></trkpt><trkpt lat="46.392486826020104" lon="13.239862951818466"><ele>343.3333333333333</ele><time>2026-04-06T08:39:13Z</time></trkpt><trkpt lat="46.39249584520917" lon="13.240099167521432"><ele>340.6666666666667</ele><time>2026-04-06T08:39:14Z</time></trkpt><trkpt lat="46.392525352782215" lon="13.24033825746576"><ele>338.0</ele><time>2026-04-06T08:39:15Z</time></trkpt><trkpt lat="46.39257476863933" lon="13.240578290936583"><ele>342.33333333333337</ele><time>2026-04-06T08:39:16Z</time></trkpt><trkpt lat="46.392627185457535" lon="13.240816880227207"><ele>346.6666666666667</ele><time>2026-04-06T08:39:17Z</time></trkpt><trkpt lat="46.392681873417644" lon="13.241056190753644"><ele>351.0</ele><time>2026-04-06T08:39:18Z</time></trkpt><trkpt lat="46.39274021781318" lon="13.241295829165733"><ele>355.3333333333333</ele><time>2026-04-06T08:39:19Z</time></trkpt><trkpt lat="46.392796567697246" lon="13.241542472166577"><ele>359.66666666666663</ele><time>2026-04-06T08:39:20Z</time></trkpt><trkpt lat="46.392851002761" lon="13.241795748228448"><ele>364.0</ele><time>2026-04-06T08:39:21Z</time></trkpt><trkpt lat="46.39290297518455" lon="13.242041426878748"><ele>364.0</ele><time>2026-04-06T08:39:22Z</time></trkpt><trkpt lat="46.39295255307396" lon="13.242272627869413"><ele>364.0</ele><time>2026-04-06T08:39:23Z</time></trkpt><trkpt lat="46.39300237773974" lon="13.242491539743206"><ele>364.0</ele><time>2026-04-06T08:39:24Z</time></trkpt><trkpt lat="46.39305603058011" lon="13.242714353568061"><ele>359.3333333333333</ele><time>2026-04-06T08:39:25Z</time></trkpt><trkpt lat="46.39312544986694" lon="13.242944498834795"><ele>354.6666666666667</ele><time>2026-04-06T08:39:26Z</time></trkpt><trkpt lat="46.39321382174308" lon="13.243165233270407"><ele>350.0</ele><time>2026-04-06T08:39:27Z</time></trkpt><trkpt lat="46.39331880083054" lon="13.243385563797947"><ele>350.0</ele><time>2026-04-06T08:39:28Z</time></trkpt><trkpt lat="46.39342452634394" lon="13.24360716110913"><ele>350.0</ele><time>2026-04-06T08:39:29Z</time></trkpt><trkpt lat="46.39352438542528" lon="13.243816722046503"><ele>350.0</ele><time>2026-04-06T08:39:30Z</time></trkpt><trkpt lat="46.39361513176252" lon="13.244016636625377"><ele>345.33333333333337</ele><time>2026-04-06T08:39:31Z</time></trkpt><trkpt lat="46.39370719786751" lon="13.244224973824394"><ele>340.6666666666667</ele><time>2026-04-06T08:39:32Z</time></trkpt><trkpt lat="46.393801131996696" lon="13.244449438500244"><ele>336.0</ele><time>2026-04-06T08:39:33Z</time></trkpt><trkpt lat="46.393894184518" lon="13.244677489410291"><ele>339.6666666666667</ele><time>2026-04-06T08:39:34Z</time></trkpt><trkpt lat="46.39398311820727" lon="13.244917330522226"><ele>343.33333333333337</ele><time>2026-04-06T08:39:35Z</time></trkpt><trkpt lat="46.394061612809836" lon="13.245168827344424"><ele>347.0</ele><time>2026-04-06T08:39:36Z</time></trkpt><trkpt lat="46.39412697949004" lon="13.245430778694903"><ele>349.6666666666667</ele><time>2026-04-06T08:39:37Z</time></trkpt><trkpt lat="46.39418675783258" lon="13.245705181383604"><ele>352.3333333333333</ele><time>2026-04-06T08:39:38Z</time></trkpt><trkpt lat="46.39423858432929" lon="13.24598246073861"><ele>355.0</ele><time>2026-04-06T08:39:39Z</time></trkpt><trkpt lat="46.39427726477261" lon="13.246264038628816"><ele>355.3333333333333</ele><time>2026-04-06T08:39:40Z</time></trkpt><trkpt lat="46.39430933540725" lon="13.246551293853901"><ele>355.6666666666667</ele><time>2026-04-06T08:39:41Z</time></trkpt><trkpt lat="46.3943247759085" lon="13.246851183405628"><ele>356.0</ele><time>2026-04-06T08:39:42Z</time></trkpt><trkpt lat="46.39433461546084" lon="13.247145783920125"><ele>355.0</ele><time>2026-04-06T08:39:43Z</time></trkpt><trkpt lat="46.394336278538475" lon="13.247417512923978"><ele>354.0</ele><time>2026-04-06T08:39:44Z</time></trkpt><trkpt lat="46.39433763913649" lon="13.247671237120848"><ele>353.0</ele><time>2026-04-06T08:39:45Z</time></trkpt><trkpt lat="46.39433635959047" lon="13.24791472263331"><ele>356.0</ele><time>2026-04-06T08:39:46Z</time></trkpt><trkpt lat="46.3943337090036" lon="13.24815860549746"><ele>359.0</ele><time>2026-04-06T08:39:47Z</time></trkpt><trkpt lat="46.39433423811319" lon="13.248405832607164"><ele>362.0</ele><time>2026-04-06T08:39:48Z</time></trkpt><trkpt lat="46.394339193759556" lon="13.248657191563524"><ele>362.0</ele><time>2026-04-06T08:39:49Z</time></trkpt><trkpt lat="46.394339259659205" lon="13.248907867836985"><ele>362.0</ele><time>2026-04-06T08:39:50Z</time></trkpt><trkpt lat="46.39433921414809" lon="13.249176116259834"><ele>362.0</ele><time>2026-04-06T08:39:51Z</time></trkpt><trkpt lat="46.3943328488446" lon="13.249467763996526"><ele>362.0</ele><time>2026-04-06T08:39:52Z</time></trkpt><trkpt lat="46.394324000925636" lon="13.249770497217577"><ele>362.0</ele><time>2026-04-06T08:39:53Z</time></trkpt><trkpt lat="46.39431634953267" lon="13.250093845944345"><ele>362.0</ele><time>2026-04-06T08:39:54Z</time></trkpt><trkpt lat="46.39430629008736" lon="13.25041798029801"><ele>362.0</ele><time>2026-04-06T08:39:55Z</time></trkpt><trkpt lat="46.39429814282587" lon="13.250729388217577"><ele>362.0</ele><time>2026-04-06T08:39:56Z</time></trkpt><trkpt lat="46.39429083794288" lon="13.25104660035994"><ele>362.0</ele><time>2026-04-06T08:39:57Z</time></trkpt><trkpt lat="46.394280366139604" lon="13.251359653138664"><ele>360.6666666666667</ele><time>2026-04-06T08:39:58Z</time></trkpt><trkpt lat="46.39426517127935" lon="13.251656918350138"><ele>359.3333333333333</ele><time>2026-04-06T08:39:59Z</time></trkpt><trkpt lat="46.39425050773587" lon="13.251937657619827"><ele>358.0</ele><time>2026-04-06T08:40:00Z</time></trkpt><trkpt lat="46.39423535898327" lon="13.252202032031207"><ele>358.66666666666663</ele><time>2026-04-06T08:40:01Z</time></trkpt><trkpt lat="46.394222242836186" lon="13.252459579567686"><ele>359.3333333333333</ele><time>2026-04-06T08:40:02Z</time></trkpt><trkpt lat="46.39420478477759" lon="13.252717515182324"><ele>360.0</ele><time>2026-04-06T08:40:03Z</time></trkpt><trkpt lat="46.39418706298659" lon="13.25298532718654"><ele>359.6666666666667</ele><time>2026-04-06T08:40:04Z</time></trkpt><trkpt lat="46.3941621497702" lon="13.253258496208987"><ele>359.33333333333337</ele><time>2026-04-06T08:40:05Z</time></trkpt><trkpt lat="46.39412402705621" lon="13.25352493959508"><ele>359.0</ele><time>2026-04-06T08:40:06Z</time></trkpt><trkpt lat="46.394076144597975" lon="13.253780937942055"><ele>356.33333333333337</ele><time>2026-04-06T08:40:07Z</time></trkpt><trkpt lat="46.39402264415861" lon="13.254044466992092"><ele>353.6666666666667</ele><time>2026-04-06T08:40:08Z</time></trkpt><trkpt lat="46.393955724178966" lon="13.254298850190134"><ele>351.0</ele><time>2026-04-06T08:40:09Z</time></trkpt><trkpt lat="46.39388748347489" lon="13.254530979467145"><ele>364.33333333333337</ele><time>2026-04-06T08:40:10Z</time></trkpt><trkpt lat="46.39381473098991" lon="13.254747790566016"><ele>377.6666666666667</ele><time>2026-04-06T08:40:11Z</time></trkpt><trkpt lat="46.39374252926354" lon="13.254961140583875"><ele>391.0</ele><time>2026-04-06T08:40:12Z</time></trkpt><trkpt lat="46.39366520113934" lon="13.255171453219788"><ele>391.0</ele><time>2026-04-06T08:40:13Z</time></trkpt><trkpt lat="46.3935851801021" lon="13.25537345200137"><ele>391.0</ele><time>2026-04-06T08:40:14Z</time></trkpt><trkpt lat="46.39351694575219" lon="13.255570073010519"><ele>391.0</ele><time>2026-04-06T08:40:15Z</time></trkpt><trkpt lat="46.393461243333356" lon="13.25577458032089"><ele>385.0</ele><time>2026-04-06T08:40:16Z</time></trkpt><trkpt lat="46.39341719668867" lon="13.256001433566746"><ele>379.0</ele><time>2026-04-06T08:40:17Z</time></trkpt><trkpt lat="46.393387863202896" lon="13.256230826182973"><ele>373.0</ele><time>2026-04-06T08:40:18Z</time></trkpt><trkpt lat="46.39337614088196" lon="13.256477899769472"><ele>368.3333333333333</ele><time>2026-04-06T08:40:19Z</time></trkpt><trkpt lat="46.39337915399316" lon="13.25672998971634"><ele>363.6666666666667</ele><time>2026-04-06T08:40:20Z</time></trkpt><trkpt lat="46.39340065196011" lon="13.256994396740822"><ele>359.0</ele><time>2026-04-06T08:40:21Z</time></trkpt><trkpt lat="46.39343483975603" lon="13.25726397383748"><ele>359.6666666666667</ele><time>2026-04-06T08:40:22Z</time></trkpt><trkpt lat="46.39347645856694" lon="13.25753546093361"><ele>360.3333333333333</ele><time>2026-04-06T08:40:23Z</time></trkpt><trkpt lat="46.39351944645904" lon="13.257793254146444"><ele>361.0</ele><time>2026-04-06T08:40:24Z</time></trkpt><trkpt lat="46.3935548745921" lon="13.258041639017666"><ele>363.3333333333333</ele><time>2026-04-06T08:40:25Z</time></trkpt><trkpt lat="46.393590339766824" lon="13.258294349135081"><ele>365.6666666666667</ele><time>2026-04-06T08:40:26Z</time></trkpt><trkpt lat="46.393628046400764" lon="13.258561476991545"><ele>368.0</ele><time>2026-04-06T08:40:27Z</time></trkpt><trkpt lat="46.39366269394463" lon="13.258814256717471"><ele>368.6666666666667</ele><time>2026-04-06T08:40:28Z</time></trkpt><trkpt lat="46.39369815285452" lon="13.25905308358131"><ele>369.3333333333333</ele><time>2026-04-06T08:40:29Z</time></trkpt><trkpt lat="46.3937376049708" lon="13.259287313743826"><ele>370.0</ele><time>2026-04-06T08:40:30Z</time></trkpt><trkpt lat="46.393784158595494" lon="13.259526488072993"><ele>361.3333333333333</ele><time>2026-04-06T08:40:31Z</time></trkpt><trkpt lat="46.393848717639415" lon="13.259766580018773"><ele>352.6666666666667</ele><time>2026-04-06T08:40:32Z</time></trkpt><trkpt lat="46.39393548560783" lon="13.259996403581878"><ele>344.0</ele><time>2026-04-06T08:40:33Z</time></trkpt><trkpt lat="46.39404154603749" lon="13.260222523863357"><ele>344.0</ele><time>2026-04-06T08:40:34Z</time></trkpt><trkpt lat="46.39415171198652" lon="13.260443618998522"><ele>344.0</ele><time>2026-04-06T08:40:35Z</time></trkpt><trkpt lat="46.394254219794234" lon="13.260652469815861"><ele>344.0</ele><time>2026-04-06T08:40:36Z</time></trkpt><trkpt lat="46.39435049400642" lon="13.2608621310326"><ele>347.33333333333337</ele><time>2026-04-06T08:40:37Z</time></trkpt><trkpt lat="46.39444894133571" lon="13.261074595227273"><ele>350.6666666666667</ele><time>2026-04-06T08:40:38Z</time></trkpt><trkpt lat="46.394545650510544" lon="13.261300389609445"><ele>354.0</ele><time>2026-04-06T08:40:39Z</time></trkpt><trkpt lat="46.39464802162687" lon="13.261526838681295"><ele>353.0</ele><time>2026-04-06T08:40:40Z</time></trkpt><trkpt lat="46.3947501702038" lon="13.261748626143685"><ele>352.0</ele><time>2026-04-06T08:40:41Z</time></trkpt><trkpt lat="46.39484903895519" lon="13.261964682590508"><ele>351.0</ele><time>2026-04-06T08:40:42Z</time></trkpt><trkpt lat="46.39493905873493" lon="13.262186995884331"><ele>353.6666666666667</ele><time>2026-04-06T08:40:43Z</time></trkpt><trkpt lat="46.39500889276277" lon="13.262416392678189"><ele>356.33333333333337</ele><time>2026-04-06T08:40:44Z</time></trkpt><trkpt lat="46.39506190714523" lon="13.262655631935278"><ele>359.0</ele><time>2026-04-06T08:40:45Z</time></trkpt><trkpt lat="46.39510197163376" lon="13.262905712591339"><ele>360.33333333333337</ele><time>2026-04-06T08:40:46Z</time></trkpt><trkpt lat="46.39512860850328" lon="13.263165783478263"><ele>361.6666666666667</ele><time>2026-04-06T08:40:47Z</time></trkpt><trkpt lat="46.395150128085724" lon="13.263441437425577"><ele>363.0</ele><time>2026-04-06T08:40:48Z</time></trkpt><trkpt lat="46.39516868222689" lon="13.263688405082618"><ele>367.6666666666667</ele><time>2026-04-06T08:40:49Z</time></trkpt><trkpt lat="46.39519379043197" lon="13.263955445563095"><ele>372.33333333333337</ele><time>2026-04-06T08:40:50Z</time></trkpt><trkpt lat="46.39521685627744" lon="13.264235499032305"><ele>377.0</ele><time>2026-04-06T08:40:51Z</time></trkpt><trkpt lat="46.395237037367686" lon="13.264512219737432"><ele>391.0</ele><time>2026-04-06T08:40:52Z</time></trkpt><trkpt lat="46.39525493480903" lon="13.264791707911673"><ele>405.0</ele><time>2026-04-06T08:40:53Z</time></trkpt><trkpt lat="46.39527039312805" lon="13.265072679539838"><ele>419.0</ele><time>2026-04-06T08:40:54Z</time></trkpt><trkpt lat="46.395284968623166" lon="13.265355481667894"><ele>432.3333333333333</ele><time>2026-04-06T08:40:55Z</time></trkpt><trkpt lat="46.39529761562125" lon="13.265642552842161"><ele>445.66666666666663</ele><time>2026-04-06T08:40:56Z</time></trkpt><trkpt lat="46.39531209632515" lon="13.265949181957074"><ele>459.0</ele><time>2026-04-06T08:40:57.061Z</time></trkpt><trkpt lat="46.39532295852751" lon="13.266241248982801"><ele>467.66666666666663</ele><time>2026-04-06T08:40:58.061Z</time></trkpt><trkpt lat="46.39533598229398" lon="13.26653258244203"><ele>476.3333333333333</ele><time>2026-04-06T08:40:59.061Z</time></trkpt><trkpt lat="46.39537210848365" lon="13.266822680775437"><ele>485.0</ele><time>2026-04-06T08:41:00.057Z</time></trkpt><trkpt lat="46.39558889427576" lon="13.268992805144721"><ele>438.66666666666663</ele><time>2026-04-06T08:41:08Z</time></trkpt><trkpt lat="46.39561892404037" lon="13.269267462961546"><ele>392.3333333333333</ele><time>2026-04-06T08:41:09Z</time></trkpt><trkpt lat="46.395648474399486" lon="13.26955980500877"><ele>346.0</ele><time>2026-04-06T08:41:10Z</time></trkpt><trkpt lat="46.39567679323454" lon="13.269824612769007"><ele>346.0</ele><time>2026-04-06T08:41:11Z</time></trkpt><trkpt lat="46.395708447746024" lon="13.270069959785936"><ele>346.0</ele><time>2026-04-06T08:41:12Z</time></trkpt><trkpt lat="46.39573485973033" lon="13.270302638165013"><ele>346.0</ele><time>2026-04-06T08:41:13Z</time></trkpt><trkpt lat="46.395731221495396" lon="13.270516665440688"><ele>346.3333333333333</ele><time>2026-04-06T08:41:14Z</time></trkpt><trkpt lat="46.395748029991935" lon="13.270756566286591"><ele>346.6666666666667</ele><time>2026-04-06T08:41:15Z</time></trkpt><trkpt lat="46.395758504707125" lon="13.271015960661451"><ele>347.0</ele><time>2026-04-06T08:41:16Z</time></trkpt><trkpt lat="46.39576066977943" lon="13.27128320797775"><ele>348.33333333333337</ele><time>2026-04-06T08:41:17Z</time></trkpt><trkpt lat="46.395728110354526" lon="13.271548155584098"><ele>349.6666666666667</ele><time>2026-04-06T08:41:18Z</time></trkpt><trkpt lat="46.39567259593305" lon="13.271837143236269"><ele>351.0</ele><time>2026-04-06T08:41:19Z</time></trkpt><trkpt lat="46.3955926499084" lon="13.27214070605659"><ele>348.3333333333333</ele><time>2026-04-06T08:41:20Z</time></trkpt><trkpt lat="46.39550453627631" lon="13.272427243438209"><ele>345.66666666666663</ele><time>2026-04-06T08:41:21Z</time></trkpt><trkpt lat="46.39542931305168" lon="13.272685027806107"><ele>343.0</ele><time>2026-04-06T08:41:22Z</time></trkpt><trkpt lat="46.39535680025044" lon="13.272927052646262"><ele>343.66666666666663</ele><time>2026-04-06T08:41:23Z</time></trkpt><trkpt lat="46.39528907054508" lon="13.2731722964162"><ele>344.3333333333333</ele><time>2026-04-06T08:41:24Z</time></trkpt><trkpt lat="46.39522406119351" lon="13.273421526602757"><ele>345.0</ele><time>2026-04-06T08:41:25Z</time></trkpt><trkpt lat="46.39516682520401" lon="13.273666837228472"><ele>345.0</ele><time>2026-04-06T08:41:26Z</time></trkpt><trkpt lat="46.395122246695614" lon="13.273896988723791"><ele>345.0</ele><time>2026-04-06T08:41:27Z</time></trkpt><trkpt lat="46.39509328365573" lon="13.274129163390613"><ele>345.0</ele><time>2026-04-06T08:41:28Z</time></trkpt><trkpt lat="46.39507861743121" lon="13.274377442345951"><ele>349.6666666666667</ele><time>2026-04-06T08:41:29Z</time></trkpt><trkpt lat="46.39509130889027" lon="13.27463948242175"><ele>354.33333333333337</ele><time>2026-04-06T08:41:30Z</time></trkpt><trkpt lat="46.395130376453736" lon="13.274905266451157"><ele>359.0</ele><time>2026-04-06T08:41:31Z</time></trkpt><trkpt lat="46.3952019649283" lon="13.275192288491503"><ele>358.6666666666667</ele><time>2026-04-06T08:41:32Z</time></trkpt><trkpt lat="46.39527801818611" lon="13.27548226798676"><ele>358.3333333333333</ele><time>2026-04-06T08:41:33Z</time></trkpt><trkpt lat="46.39535439007376" lon="13.275766034460686"><ele>358.0</ele><time>2026-04-06T08:41:34Z</time></trkpt><trkpt lat="46.395426904044335" lon="13.276058192877843"><ele>358.0</ele><time>2026-04-06T08:41:35Z</time></trkpt><trkpt lat="46.395499498076084" lon="13.27632173754203"><ele>358.0</ele><time>2026-04-06T08:41:36Z</time></trkpt><trkpt lat="46.3955593137986" lon="13.276579699876793"><ele>358.0</ele><time>2026-04-06T08:41:37Z</time></trkpt><trkpt lat="46.395620418378066" lon="13.276851661001372"><ele>362.0</ele><time>2026-04-06T08:41:38Z</time></trkpt><trkpt lat="46.395689952851235" lon="13.27712753709497"><ele>366.0</ele><time>2026-04-06T08:41:39Z</time></trkpt><trkpt lat="46.39576870769343" lon="13.277409423296277"><ele>370.0</ele><time>2026-04-06T08:41:40Z</time></trkpt><trkpt lat="46.39585672348973" lon="13.277702980304706"><ele>370.0</ele><time>2026-04-06T08:41:41Z</time></trkpt><trkpt lat="46.39594415001938" lon="13.278001532521413"><ele>370.0</ele><time>2026-04-06T08:41:42Z</time></trkpt><trkpt lat="46.39602770932577" lon="13.278271445821192"><ele>370.0</ele><time>2026-04-06T08:41:43Z</time></trkpt><trkpt lat="46.3961110826066" lon="13.278543630677522"><ele>368.0</ele><time>2026-04-06T08:41:44Z</time></trkpt><trkpt lat="46.39620180220607" lon="13.27882726097774"><ele>366.0</ele><time>2026-04-06T08:41:45Z</time></trkpt><trkpt lat="46.39628468108849" lon="13.279116389325257"><ele>364.0</ele><time>2026-04-06T08:41:46Z</time></trkpt><trkpt lat="46.39636945514486" lon="13.279403474829785"><ele>364.0</ele><time>2026-04-06T08:41:47Z</time></trkpt><trkpt lat="46.396463345825445" lon="13.279674921986674"><ele>364.0</ele><time>2026-04-06T08:41:48Z</time></trkpt><trkpt lat="46.396580917892166" lon="13.279935428170136"><ele>364.0</ele><time>2026-04-06T08:41:49Z</time></trkpt><trkpt lat="46.396726927731486" lon="13.280198368377802"><ele>364.5</ele><time>2026-04-06T08:41:50Z</time></trkpt><trkpt lat="46.39688641027041" lon="13.280475133505169"><ele>365.0</ele><time>2026-04-06T08:41:51Z</time></trkpt><trkpt lat="46.3970575271978" lon="13.280762641477207"><ele>365.0</ele><time>2026-04-06T08:41:52Z</time></trkpt><trkpt lat="46.39721334469968" lon="13.281044896485165"><ele>365.0</ele><time>2026-04-06T08:41:53Z</time></trkpt><trkpt lat="46.39735130664586" lon="13.281291813955985"><ele>364.0</ele><time>2026-04-06T08:41:54Z</time></trkpt><trkpt lat="46.397485246655314" lon="13.28153322211285"><ele>363.0</ele><time>2026-04-06T08:41:55Z</time></trkpt><trkpt lat="46.39761243080976" lon="13.28176856200226"><ele>362.0</ele><time>2026-04-06T08:41:56Z</time></trkpt><trkpt lat="46.39773076607163" lon="13.28198828272931"><ele>362.0</ele><time>2026-04-06T08:41:57Z</time></trkpt><trkpt lat="46.397864177995295" lon="13.2822327038977"><ele>362.0</ele><time>2026-04-06T08:41:58Z</time></trkpt><trkpt lat="46.397996678341634" lon="13.282473519903338"><ele>362.0</ele><time>2026-04-06T08:41:59Z</time></trkpt><trkpt lat="46.398121056414816" lon="13.282696444736532"><ele>365.0</ele><time>2026-04-06T08:42:00Z</time></trkpt><trkpt lat="46.398238982796826" lon="13.282898868179503"><ele>368.0</ele><time>2026-04-06T08:42:01Z</time></trkpt><trkpt lat="46.39835755465566" lon="13.283092332934176"><ele>371.0</ele><time>2026-04-06T08:42:02Z</time></trkpt><trkpt lat="46.398479742339646" lon="13.283265696576494"><ele>371.0</ele><time>2026-04-06T08:42:03Z</time></trkpt><trkpt lat="46.39862019449202" lon="13.283412819159404"><ele>371.0</ele><time>2026-04-06T08:42:04Z</time></trkpt><trkpt lat="46.398787208718204" lon="13.283546682028817"><ele>371.0</ele><time>2026-04-06T08:42:05Z</time></trkpt><trkpt lat="46.398971823650264" lon="13.283681705637303"><ele>368.0</ele><time>2026-04-06T08:42:06Z</time></trkpt><trkpt lat="46.399160186163016" lon="13.283812570677734"><ele>365.0</ele><time>2026-04-06T08:42:07Z</time></trkpt><trkpt lat="46.39933992679645" lon="13.283942140013979"><ele>362.0</ele><time>2026-04-06T08:42:08Z</time></trkpt><trkpt lat="46.399505483286305" lon="13.284065329765365"><ele>366.0</ele><time>2026-04-06T08:42:09Z</time></trkpt><trkpt lat="46.399669680973794" lon="13.284192013288402"><ele>370.0</ele><time>2026-04-06T08:42:10Z</time></trkpt><trkpt lat="46.39984173901359" lon="13.28433129427767"><ele>374.0</ele><time>2026-04-06T08:42:11Z</time></trkpt><trkpt lat="46.40001111484669" lon="13.28449666368695"><ele>374.0</ele><time>2026-04-06T08:42:12Z</time></trkpt><trkpt lat="46.40016528856344" lon="13.284704093859029"><ele>374.0</ele><time>2026-04-06T08:42:13Z</time></trkpt><trkpt lat="46.40031064389779" lon="13.284951375355261"><ele>374.0</ele><time>2026-04-06T08:42:14Z</time></trkpt><trkpt lat="46.40044077209812" lon="13.285189770014997"><ele>373.0</ele><time>2026-04-06T08:42:15Z</time></trkpt><trkpt lat="46.400560096027434" lon="13.285413343793488"><ele>372.0</ele><time>2026-04-06T08:42:16Z</time></trkpt><trkpt lat="46.400678921722" lon="13.285614428237054"><ele>371.0</ele><time>2026-04-06T08:42:17Z</time></trkpt><trkpt lat="46.400795114193805" lon="13.285804117237882"><ele>371.0</ele><time>2026-04-06T08:42:18Z</time></trkpt><trkpt lat="46.400911943995105" lon="13.286003172773498"><ele>371.0</ele><time>2026-04-06T08:42:19Z</time></trkpt><trkpt lat="46.40103577187737" lon="13.28622059911585"><ele>371.0</ele><time>2026-04-06T08:42:20Z</time></trkpt><trkpt lat="46.40117142040338" lon="13.286460229484762"><ele>368.33333333333337</ele><time>2026-04-06T08:42:21Z</time></trkpt><trkpt lat="46.40130946860793" lon="13.286691901157239"><ele>365.6666666666667</ele><time>2026-04-06T08:42:22Z</time></trkpt><trkpt lat="46.401441660063206" lon="13.286909985188931"><ele>363.0</ele><time>2026-04-06T08:42:23Z</time></trkpt><trkpt lat="46.40159113771544" lon="13.287114196428837"><ele>364.0</ele><time>2026-04-06T08:42:24Z</time></trkpt><trkpt lat="46.401745508808546" lon="13.28734771776801"><ele>365.0</ele><time>2026-04-06T08:42:25Z</time></trkpt><trkpt lat="46.40188476681896" lon="13.287567651722677"><ele>366.0</ele><time>2026-04-06T08:42:26Z</time></trkpt><trkpt lat="46.40202162717497" lon="13.287780644992615"><ele>366.0</ele><time>2026-04-06T08:42:27Z</time></trkpt><trkpt lat="46.40215024835741" lon="13.28798624669854"><ele>366.0</ele><time>2026-04-06T08:42:28Z</time></trkpt><trkpt lat="46.40227979846169" lon="13.288184021395129"><ele>366.0</ele><time>2026-04-06T08:42:29Z</time></trkpt><trkpt lat="46.40240050354645" lon="13.288367082204553"><ele>368.6666666666667</ele><time>2026-04-06T08:42:30Z</time></trkpt><trkpt lat="46.40251670788244" lon="13.288543648128584"><ele>371.33333333333337</ele><time>2026-04-06T08:42:31Z</time></trkpt><trkpt lat="46.402628372105475" lon="13.288710516394607"><ele>374.0</ele><time>2026-04-06T08:42:32Z</time></trkpt><trkpt lat="46.40273825185894" lon="13.28888043494882"><ele>372.0</ele><time>2026-04-06T08:42:33Z</time></trkpt><trkpt lat="46.402860695073656" lon="13.289065656590203"><ele>370.0</ele><time>2026-04-06T08:42:34Z</time></trkpt><trkpt lat="46.40298396152169" lon="13.289255781823414"><ele>368.0</ele><time>2026-04-06T08:42:35Z</time></trkpt><trkpt lat="46.40310256513901" lon="13.289437706140948"><ele>369.6666666666667</ele><time>2026-04-06T08:42:36Z</time></trkpt><trkpt lat="46.403221662730125" lon="13.289618377716184"><ele>371.3333333333333</ele><time>2026-04-06T08:42:37Z</time></trkpt><trkpt lat="46.403337597597954" lon="13.289800919964062"><ele>373.0</ele><time>2026-04-06T08:42:38Z</time></trkpt><trkpt lat="46.40344719787819" lon="13.289971718671046"><ele>373.0</ele><time>2026-04-06T08:42:39Z</time></trkpt><trkpt lat="46.40355382141714" lon="13.290133060713535"><ele>373.0</ele><time>2026-04-06T08:42:40Z</time></trkpt><trkpt lat="46.403658518125255" lon="13.290306887514669"><ele>373.0</ele><time>2026-04-06T08:42:41Z</time></trkpt><trkpt lat="46.40375758929992" lon="13.290510340004658"><ele>375.3333333333333</ele><time>2026-04-06T08:42:42Z</time></trkpt><trkpt lat="46.40384535306303" lon="13.290727910878402"><ele>377.6666666666667</ele><time>2026-04-06T08:42:43Z</time></trkpt><trkpt lat="46.40392044121825" lon="13.290950753648676"><ele>380.0</ele><time>2026-04-06T08:42:44Z</time></trkpt><trkpt lat="46.403991782130085" lon="13.291171780613984"><ele>380.0</ele><time>2026-04-06T08:42:45Z</time></trkpt><trkpt lat="46.40405711128711" lon="13.29138798562108"><ele>380.0</ele><time>2026-04-06T08:42:46Z</time></trkpt><trkpt lat="46.40411802032125" lon="13.291593291762187"><ele>380.0</ele><time>2026-04-06T08:42:47Z</time></trkpt><trkpt lat="46.40417665633364" lon="13.291791659798912"><ele>377.75</ele><time>2026-04-06T08:42:48Z</time></trkpt><trkpt lat="46.40423453917997" lon="13.291978616744826"><ele>375.5</ele><time>2026-04-06T08:42:49Z</time></trkpt><trkpt lat="46.4042922070017" lon="13.292161105004686"><ele>373.25</ele><time>2026-04-06T08:42:50Z</time></trkpt><trkpt lat="46.40435106975146" lon="13.292347861210784"><ele>371.0</ele><time>2026-04-06T08:42:51Z</time></trkpt><trkpt lat="46.40441034556257" lon="13.292544722592984"><ele>369.33333333333337</ele><time>2026-04-06T08:42:52Z</time></trkpt><trkpt lat="46.4044732849831" lon="13.292748263105638"><ele>367.6666666666667</ele><time>2026-04-06T08:42:53Z</time></trkpt><trkpt lat="46.40454019702431" lon="13.29295813269484"><ele>366.0</ele><time>2026-04-06T08:42:54Z</time></trkpt><trkpt lat="46.40461065123465" lon="13.293178778394305"><ele>371.0</ele><time>2026-04-06T08:42:55Z</time></trkpt><trkpt lat="46.404678666285186" lon="13.293395472073628"><ele>376.0</ele><time>2026-04-06T08:42:56Z</time></trkpt><trkpt lat="46.404745828566476" lon="13.293621970102373"><ele>381.0</ele><time>2026-04-06T08:42:57Z</time></trkpt><trkpt lat="46.40481234276747" lon="13.29384622490016"><ele>379.3333333333333</ele><time>2026-04-06T08:42:58Z</time></trkpt><trkpt lat="46.40487552783859" lon="13.294072469216207"><ele>377.66666666666663</ele><time>2026-04-06T08:42:59Z</time></trkpt><trkpt lat="46.404926501099766" lon="13.294287719614513"><ele>376.0</ele><time>2026-04-06T08:43:00Z</time></trkpt><trkpt lat="46.40496603602194" lon="13.29449256733475"><ele>376.0</ele><time>2026-04-06T08:43:01Z</time></trkpt><trkpt lat="46.40500221723491" lon="13.294686484841682"><ele>376.0</ele><time>2026-04-06T08:43:02Z</time></trkpt><trkpt lat="46.40503606165215" lon="13.294868594717082"><ele>376.0</ele><time>2026-04-06T08:43:03Z</time></trkpt><trkpt lat="46.40507357387042" lon="13.295055609387752"><ele>376.0</ele><time>2026-04-06T08:43:04Z</time></trkpt><trkpt lat="46.405117501348386" lon="13.295253724894986"><ele>376.3333333333333</ele><time>2026-04-06T08:43:05Z</time></trkpt><trkpt lat="46.405163560906445" lon="13.295461775675776"><ele>376.6666666666667</ele><time>2026-04-06T08:43:06Z</time></trkpt><trkpt lat="46.405206300600355" lon="13.29567575807076"><ele>377.0</ele><time>2026-04-06T08:43:07Z</time></trkpt><trkpt lat="46.40525120774859" lon="13.295891534233876"><ele>374.5</ele><time>2026-04-06T08:43:08Z</time></trkpt><trkpt lat="46.405293521637866" lon="13.296090883220332"><ele>372.0</ele><time>2026-04-06T08:43:09Z</time></trkpt><trkpt lat="46.40532974492179" lon="13.296274234728804"><ele>369.5</ele><time>2026-04-06T08:43:10Z</time></trkpt><trkpt lat="46.40536256688873" lon="13.296449326537221"><ele>367.0</ele><time>2026-04-06T08:43:11Z</time></trkpt><trkpt lat="46.40539633399003" lon="13.296629553145285"><ele>366.75</ele><time>2026-04-06T08:43:12Z</time></trkpt><trkpt lat="46.40543681823977" lon="13.296832545190513"><ele>366.5</ele><time>2026-04-06T08:43:13Z</time></trkpt><trkpt lat="46.40547851470029" lon="13.297044524924525"><ele>366.25</ele><time>2026-04-06T08:43:14Z</time></trkpt><trkpt lat="46.4055174473226" lon="13.297241253229743"><ele>366.0</ele><time>2026-04-06T08:43:15Z</time></trkpt><trkpt lat="46.40555650725901" lon="13.297448719449438"><ele>367.75</ele><time>2026-04-06T08:43:16Z</time></trkpt><trkpt lat="46.405596341697716" lon="13.297640853394656"><ele>369.5</ele><time>2026-04-06T08:43:17Z</time></trkpt><trkpt lat="46.405634650166846" lon="13.297829371394895"><ele>371.25</ele><time>2026-04-06T08:43:18Z</time></trkpt><trkpt lat="46.405672568466656" lon="13.298021653709005"><ele>373.0</ele><time>2026-04-06T08:43:19Z</time></trkpt><trkpt lat="46.40571320035764" lon="13.298223157954737"><ele>373.0</ele><time>2026-04-06T08:43:20Z</time></trkpt><trkpt lat="46.40575579546033" lon="13.298433346385691"><ele>373.0</ele><time>2026-04-06T08:43:21Z</time></trkpt><trkpt lat="46.40579927972756" lon="13.298661690362795"><ele>373.0</ele><time>2026-04-06T08:43:22Z</time></trkpt><trkpt lat="46.405838309011266" lon="13.298883339418643"><ele>372.75</ele><time>2026-04-06T08:43:23Z</time></trkpt><trkpt lat="46.40587092046581" lon="13.299101614194255"><ele>372.5</ele><time>2026-04-06T08:43:24Z</time></trkpt><trkpt lat="46.405903067046076" lon="13.299307774696327"><ele>372.25</ele><time>2026-04-06T08:43:25Z</time></trkpt><trkpt lat="46.40593467352527" lon="13.299503785479747"><ele>372.0</ele><time>2026-04-06T08:43:26Z</time></trkpt><trkpt lat="46.40596807872254" lon="13.299704139918015"><ele>372.25</ele><time>2026-04-06T08:43:27Z</time></trkpt><trkpt lat="46.40600546520477" lon="13.299912810226454"><ele>372.5</ele><time>2026-04-06T08:43:28Z</time></trkpt><trkpt lat="46.40603972193288" lon="13.300124309212018"><ele>372.75</ele><time>2026-04-06T08:43:29Z</time></trkpt><trkpt lat="46.40607158619318" lon="13.300327397924978"><ele>373.0</ele><time>2026-04-06T08:43:30Z</time></trkpt><trkpt lat="46.406103714102684" lon="13.300534476750778"><ele>373.0</ele><time>2026-04-06T08:43:31Z</time></trkpt><trkpt lat="46.406135686198084" lon="13.300738252105994"><ele>373.0</ele><time>2026-04-06T08:43:32Z</time></trkpt><trkpt lat="46.40616518286915" lon="13.300931644947838"><ele>373.0</ele><time>2026-04-06T08:43:33Z</time></trkpt><trkpt lat="46.40619195398553" lon="13.301124994835314"><ele>373.0</ele><time>2026-04-06T08:43:34Z</time></trkpt><trkpt lat="46.40621618107455" lon="13.30133199939828"><ele>372.66666666666663</ele><time>2026-04-06T08:43:35Z</time></trkpt><trkpt lat="46.40624120446233" lon="13.301553763675116"><ele>372.3333333333333</ele><time>2026-04-06T08:43:36Z</time></trkpt><trkpt lat="46.40626033951312" lon="13.301786506204675"><ele>372.0</ele><time>2026-04-06T08:43:37Z</time></trkpt><trkpt lat="46.40627560100844" lon="13.302020478957846"><ele>371.3333333333333</ele><time>2026-04-06T08:43:38Z</time></trkpt><trkpt lat="46.406290816034165" lon="13.302254729183023"><ele>370.66666666666663</ele><time>2026-04-06T08:43:39Z</time></trkpt><trkpt lat="46.406304797220365" lon="13.302485734366174"><ele>370.0</ele><time>2026-04-06T08:43:40Z</time></trkpt><trkpt lat="46.40631903472038" lon="13.302716181343023"><ele>371.3333333333333</ele><time>2026-04-06T08:43:41Z</time></trkpt><trkpt lat="46.40633574900772" lon="13.302954656882005"><ele>372.6666666666667</ele><time>2026-04-06T08:43:42Z</time></trkpt><trkpt lat="46.40635310405361" lon="13.30319127287812"><ele>374.0</ele><time>2026-04-06T08:43:43Z</time></trkpt><trkpt lat="46.40636987939068" lon="13.303432155365252"><ele>374.0</ele><time>2026-04-06T08:43:44Z</time></trkpt><trkpt lat="46.40638585416528" lon="13.303683008624391"><ele>374.0</ele><time>2026-04-06T08:43:45Z</time></trkpt><trkpt lat="46.40640024350098" lon="13.30392459540347"><ele>374.0</ele><time>2026-04-06T08:43:46Z</time></trkpt><trkpt lat="46.40641483287509" lon="13.304167656303997"><ele>375.33333333333337</ele><time>2026-04-06T08:43:47Z</time></trkpt><trkpt lat="46.40643309015011" lon="13.304399387795334"><ele>376.6666666666667</ele><time>2026-04-06T08:43:48Z</time></trkpt><trkpt lat="46.40645012425331" lon="13.304627141494944"><ele>378.0</ele><time>2026-04-06T08:43:49Z</time></trkpt><trkpt lat="46.40647965826262" lon="13.304866490836384"><ele>379.0</ele><time>2026-04-06T08:43:50Z</time></trkpt><trkpt lat="46.406509867042104" lon="13.305102087557643"><ele>380.0</ele><time>2026-04-06T08:43:51Z</time></trkpt><trkpt lat="46.40654619552521" lon="13.305351219050785"><ele>381.0</ele><time>2026-04-06T08:43:52Z</time></trkpt><trkpt lat="46.40658190013225" lon="13.305613239376829"><ele>381.0</ele><time>2026-04-06T08:43:53Z</time></trkpt><trkpt lat="46.4066212388115" lon="13.305883796297085"><ele>381.0</ele><time>2026-04-06T08:43:54Z</time></trkpt><trkpt lat="46.406661245974796" lon="13.306155229736518"><ele>381.0</ele><time>2026-04-06T08:43:55Z</time></trkpt><trkpt lat="46.40669992838535" lon="13.306412884764361"><ele>381.0</ele><time>2026-04-06T08:43:56Z</time></trkpt><trkpt lat="46.406735745511085" lon="13.30666161056185"><ele>381.0</ele><time>2026-04-06T08:43:57Z</time></trkpt><trkpt lat="46.40676926850879" lon="13.306895993469064"><ele>381.0</ele><time>2026-04-06T08:43:58Z</time></trkpt><trkpt lat="46.406800039046104" lon="13.307124776270168"><ele>379.0</ele><time>2026-04-06T08:43:59Z</time></trkpt><trkpt lat="46.406830372930145" lon="13.307337878211692"><ele>377.0</ele><time>2026-04-06T08:44:00Z</time></trkpt><trkpt lat="46.40685847365809" lon="13.307542536323881"><ele>375.0</ele><time>2026-04-06T08:44:01Z</time></trkpt><trkpt lat="46.406890041620805" lon="13.307752465242167"><ele>373.0</ele><time>2026-04-06T08:44:02Z</time></trkpt><trkpt lat="46.40692549393632" lon="13.307982556400427"><ele>373.0</ele><time>2026-04-06T08:44:03Z</time></trkpt><trkpt lat="46.40696120423609" lon="13.308215454634444"><ele>373.0</ele><time>2026-04-06T08:44:04Z</time></trkpt><trkpt lat="46.407000188299826" lon="13.30846453580208"><ele>373.0</ele><time>2026-04-06T08:44:05Z</time></trkpt><trkpt lat="46.407040039761334" lon="13.308723434376388"><ele>372.0</ele><time>2026-04-06T08:44:06Z</time></trkpt><trkpt lat="46.40708307194318" lon="13.308981406343591"><ele>371.0</ele><time>2026-04-06T08:44:07Z</time></trkpt><trkpt lat="46.40712459717804" lon="13.309217439568767"><ele>370.0</ele><time>2026-04-06T08:44:08Z</time></trkpt><trkpt lat="46.40716882945819" lon="13.30943485861797"><ele>371.75</ele><time>2026-04-06T08:44:09Z</time></trkpt><trkpt lat="46.407218567310885" lon="13.309638600640719"><ele>373.5</ele><time>2026-04-06T08:44:10Z</time></trkpt><trkpt lat="46.407276607697085" lon="13.309842571767224"><ele>375.25</ele><time>2026-04-06T08:44:11Z</time></trkpt><trkpt lat="46.40734323036676" lon="13.310033041898706"><ele>377.0</ele><time>2026-04-06T08:44:12Z</time></trkpt><trkpt lat="46.407412722370175" lon="13.310201115687342"><ele>377.0</ele><time>2026-04-06T08:44:13Z</time></trkpt><trkpt lat="46.40748676480914" lon="13.310363267855744"><ele>377.0</ele><time>2026-04-06T08:44:14Z</time></trkpt><trkpt lat="46.40757123866175" lon="13.310526039911819"><ele>377.0</ele><time>2026-04-06T08:44:15Z</time></trkpt><trkpt lat="46.40765840348435" lon="13.31067058714183"><ele>377.0</ele><time>2026-04-06T08:44:16Z</time></trkpt><trkpt lat="46.40774158307017" lon="13.310799374833806"><ele>376.25</ele><time>2026-04-06T08:44:17Z</time></trkpt><trkpt lat="46.40782596465178" lon="13.310916782282023"><ele>375.5</ele><time>2026-04-06T08:44:18Z</time></trkpt><trkpt lat="46.40791507840038" lon="13.31102519250641"><ele>374.75</ele><time>2026-04-06T08:44:19Z</time></trkpt><trkpt lat="46.408010654473834" lon="13.311135255458247"><ele>374.0</ele><time>2026-04-06T08:44:20Z</time></trkpt><trkpt lat="46.40811905726294" lon="13.311243372102687"><ele>375.0</ele><time>2026-04-06T08:44:21Z</time></trkpt><trkpt lat="46.408231176472036" lon="13.31133546748603"><ele>376.0</ele><time>2026-04-06T08:44:22Z</time></trkpt><trkpt lat="46.40833318331693" lon="13.311407055736387"><ele>377.0</ele><time>2026-04-06T08:44:23Z</time></trkpt><trkpt lat="46.40841829850983" lon="13.311458400959193"><ele>378.0</ele><time>2026-04-06T08:44:24Z</time></trkpt><trkpt lat="46.408492423998034" lon="13.31150118409105"><ele>379.0</ele><time>2026-04-06T08:44:25Z</time></trkpt><trkpt lat="46.40855472013659" lon="13.31155039985217"><ele>379.0</ele><time>2026-04-06T08:44:26Z</time></trkpt><trkpt lat="46.40859647608101" lon="13.311624903787635"><ele>379.0</ele><time>2026-04-06T08:44:27Z</time></trkpt><trkpt lat="46.408613943804355" lon="13.311720253252368"><ele>379.0</ele><time>2026-04-06T08:44:28Z</time></trkpt><trkpt lat="46.4086029031717" lon="13.311828805705778"><ele>379.0</ele><time>2026-04-06T08:44:29Z</time></trkpt><trkpt lat="46.408555708254475" lon="13.311955241719534"><ele>379.0</ele><time>2026-04-06T08:44:30Z</time></trkpt><trkpt lat="46.4084906961764" lon="13.312104840222853"><ele>379.0</ele><time>2026-04-06T08:44:31Z</time></trkpt><trkpt lat="46.4084214255554" lon="13.31226824691539"><ele>378.5</ele><time>2026-04-06T08:44:32Z</time></trkpt><trkpt lat="46.40835566351756" lon="13.31242473276511"><ele>378.0</ele><time>2026-04-06T08:44:33Z</time></trkpt><trkpt lat="46.40829629734845" lon="13.31257017116467"><ele>377.5</ele><time>2026-04-06T08:44:34Z</time></trkpt><trkpt lat="46.408241500095414" lon="13.312710581809277"><ele>377.0</ele><time>2026-04-06T08:44:35Z</time></trkpt><trkpt lat="46.40818871473701" lon="13.312845835064234"><ele>377.0</ele><time>2026-04-06T08:44:36Z</time></trkpt><trkpt lat="46.40813006587955" lon="13.312991434187799"><ele>377.0</ele><time>2026-04-06T08:44:37Z</time></trkpt><trkpt lat="46.408069894727824" lon="13.313145664104487"><ele>377.0</ele><time>2026-04-06T08:44:38Z</time></trkpt><trkpt lat="46.408008423360414" lon="13.313311684109328"><ele>377.0</ele><time>2026-04-06T08:44:39Z</time></trkpt><trkpt lat="46.407950650741306" lon="13.313477727921901"><ele>377.25</ele><time>2026-04-06T08:44:40Z</time></trkpt><trkpt lat="46.40789741838852" lon="13.313641123247896"><ele>377.5</ele><time>2026-04-06T08:44:41Z</time></trkpt><trkpt lat="46.40784968474181" lon="13.313798017296406"><ele>377.75</ele><time>2026-04-06T08:44:42Z</time></trkpt><trkpt lat="46.407807492116" lon="13.313964455859098"><ele>378.0</ele><time>2026-04-06T08:44:43Z</time></trkpt><trkpt lat="46.40776552474862" lon="13.314138704008306"><ele>378.25</ele><time>2026-04-06T08:44:44Z</time></trkpt><trkpt lat="46.4077277815794" lon="13.314273635020728"><ele>378.5</ele><time>2026-04-06T08:44:45Z</time></trkpt><trkpt lat="46.40768245896481" lon="13.314442065887546"><ele>378.75</ele><time>2026-04-06T08:44:46Z</time></trkpt><trkpt lat="46.40763869476392" lon="13.31461467177592"><ele>379.0</ele><time>2026-04-06T08:44:47Z</time></trkpt><trkpt lat="46.40759752815396" lon="13.314772349406562"><ele>379.4</ele><time>2026-04-06T08:44:48Z</time></trkpt><trkpt lat="46.40756023531142" lon="13.314919002849129"><ele>379.79999999999995</ele><time>2026-04-06T08:44:49Z</time></trkpt><trkpt lat="46.40752248886217" lon="13.315058575895858"><ele>380.20000000000005</ele><time>2026-04-06T08:44:50Z</time></trkpt><trkpt lat="46.40747588194223" lon="13.315196935784725"><ele>380.6</ele><time>2026-04-06T08:44:51Z</time></trkpt><trkpt lat="46.40740448576848" lon="13.315335046694859"><ele>381.0</ele><time>2026-04-06T08:44:52Z</time></trkpt><trkpt lat="46.40731366225935" lon="13.315462937358541"><ele>380.75</ele><time>2026-04-06T08:44:53Z</time></trkpt><trkpt lat="46.40721143200031" lon="13.31558151671835"><ele>380.5</ele><time>2026-04-06T08:44:54Z</time></trkpt><trkpt lat="46.40711358264559" lon="13.315683072014933"><ele>380.25</ele><time>2026-04-06T08:44:55Z</time></trkpt><trkpt lat="46.40702354554198" lon="13.315783672817574"><ele>380.0</ele><time>2026-04-06T08:44:56Z</time></trkpt><trkpt lat="46.40693759503976" lon="13.315874088243994"><ele>380.0</ele><time>2026-04-06T08:44:57Z</time></trkpt><trkpt lat="46.40684247631146" lon="13.31595060769149"><ele>380.0</ele><time>2026-04-06T08:44:58Z</time></trkpt><trkpt lat="46.40673331855524" lon="13.315985108391144"><ele>380.0</ele><time>2026-04-06T08:44:59Z</time></trkpt><trkpt lat="46.406612720285096" lon="13.31598891566211"><ele>380.0</ele><time>2026-04-06T08:45:00Z</time></trkpt><trkpt lat="46.406492571447316" lon="13.315964090691596"><ele>380.0</ele><time>2026-04-06T08:45:01Z</time></trkpt><trkpt lat="46.40638331812284" lon="13.315943612275833"><ele>380.0</ele><time>2026-04-06T08:45:02Z</time></trkpt><trkpt lat="46.40627828253162" lon="13.31594467444605"><ele>380.0</ele><time>2026-04-06T08:45:03Z</time></trkpt><trkpt lat="46.40618649248334" lon="13.315970941974488"><ele>380.0</ele><time>2026-04-06T08:45:04Z</time></trkpt><trkpt lat="46.406119716384715" lon="13.316019182074813"><ele>380.0</ele><time>2026-04-06T08:45:05Z</time></trkpt><trkpt lat="46.406057576110555" lon="13.316072754536345"><ele>379.4</ele><time>2026-04-06T08:45:06Z</time></trkpt><trkpt lat="46.405976865622875" lon="13.316128867595998"><ele>378.8</ele><time>2026-04-06T08:45:07Z</time></trkpt><trkpt lat="46.40589104315217" lon="13.316200689196497"><ele>378.20000000000005</ele><time>2026-04-06T08:45:08Z</time></trkpt><trkpt lat="46.40579904982912" lon="13.3162750255005"><ele>377.6</ele><time>2026-04-06T08:45:09Z</time></trkpt><trkpt lat="46.40570913508567" lon="13.316370059062944"><ele>377.0</ele><time>2026-04-06T08:45:10Z</time></trkpt><trkpt lat="46.405625807818055" lon="13.31650345212552"><ele>377.5</ele><time>2026-04-06T08:45:11Z</time></trkpt><trkpt lat="46.40554564083327" lon="13.3166546815961"><ele>378.0</ele><time>2026-04-06T08:45:12Z</time></trkpt><trkpt lat="46.405470627720696" lon="13.316776311817334"><ele>378.5</ele><time>2026-04-06T08:45:13Z</time></trkpt><trkpt lat="46.405393190685814" lon="13.31690352232245"><ele>379.0</ele><time>2026-04-06T08:45:14Z</time></trkpt><trkpt lat="46.40530309669579" lon="13.317017119428467"><ele>379.0</ele><time>2026-04-06T08:45:15Z</time></trkpt><trkpt lat="46.405198153334986" lon="13.317115909062359"><ele>379.0</ele><time>2026-04-06T08:45:16Z</time></trkpt><trkpt lat="46.40507698056282" lon="13.317200927516708"><ele>379.0</ele><time>2026-04-06T08:45:17Z</time></trkpt><trkpt lat="46.404966389920645" lon="13.317275236557485"><ele>379.0</ele><time>2026-04-06T08:45:18Z</time></trkpt><trkpt lat="46.404870163433934" lon="13.317342073269149"><ele>380.5</ele><time>2026-04-06T08:45:19Z</time></trkpt><trkpt lat="46.40478840291068" lon="13.317404457653792"><ele>382.0</ele><time>2026-04-06T08:45:20Z</time></trkpt><trkpt lat="46.404718803010866" lon="13.317465397226936"><ele>383.5</ele><time>2026-04-06T08:45:21Z</time></trkpt><trkpt lat="46.40465834000889" lon="13.317514251710271"><ele>385.0</ele><time>2026-04-06T08:45:22Z</time></trkpt><trkpt lat="46.404539560722924" lon="13.317512747282382"><ele>386.50000000000006</ele><time>2026-04-06T08:45:24Z</time></trkpt><trkpt lat="46.404488004435684" lon="13.317458107045708"><ele>388.0</ele><time>2026-04-06T08:45:25Z</time></trkpt><trkpt lat="46.404437863728845" lon="13.317376529747282"><ele>388.0</ele><time>2026-04-06T08:45:26Z</time></trkpt><trkpt lat="46.40437282618226" lon="13.317283952579412"><ele>388.0</ele><time>2026-04-06T08:45:27Z</time></trkpt><trkpt lat="46.404295887769905" lon="13.317186853235587"><ele>388.0</ele><time>2026-04-06T08:45:28Z</time></trkpt><trkpt lat="46.404230740078816" lon="13.317101258057358"><ele>388.0</ele><time>2026-04-06T08:45:29Z</time></trkpt><trkpt lat="46.40416797467809" lon="13.317019748214678"><ele>388.0</ele><time>2026-04-06T08:45:30Z</time></trkpt><trkpt lat="46.404085102775646" lon="13.316943153769468"><ele>387.5</ele><time>2026-04-06T08:45:31Z</time></trkpt><trkpt lat="46.40399013264558" lon="13.316887076591135"><ele>387.0</ele><time>2026-04-06T08:45:32Z</time></trkpt><trkpt lat="46.403882784084146" lon="13.316850117359635"><ele>386.5</ele><time>2026-04-06T08:45:33Z</time></trkpt><trkpt lat="46.40375250003397" lon="13.316835514723499"><ele>386.0</ele><time>2026-04-06T08:45:34Z</time></trkpt><trkpt lat="46.403607770208616" lon="13.316852722312483"><ele>391.5</ele><time>2026-04-06T08:45:35Z</time></trkpt><trkpt lat="46.403446046670695" lon="13.31688262399161"><ele>397.0</ele><time>2026-04-06T08:45:36Z</time></trkpt><trkpt lat="46.40335792277771" lon="13.316939357697839"><ele>402.5</ele><time>2026-04-06T08:45:37Z</time></trkpt><trkpt lat="46.40321180409809" lon="13.316996290691275"><ele>408.0</ele><time>2026-04-06T08:45:38Z</time></trkpt><trkpt lat="46.4030941180184" lon="13.317078238331966"><ele>413.33333333333337</ele><time>2026-04-06T08:45:39Z</time></trkpt><trkpt lat="46.40298168428737" lon="13.317206812715941"><ele>418.6666666666667</ele><time>2026-04-06T08:45:40Z</time></trkpt><trkpt lat="46.40285418241571" lon="13.317372139476829"><ele>424.0</ele><time>2026-04-06T08:45:41Z</time></trkpt><trkpt lat="46.40272459069084" lon="13.317530565324555"><ele>424.0</ele><time>2026-04-06T08:45:42Z</time></trkpt><trkpt lat="46.40261713359221" lon="13.317662445197959"><ele>424.0</ele><time>2026-04-06T08:45:43Z</time></trkpt><trkpt lat="46.40252128173056" lon="13.317771064845894"><ele>424.0</ele><time>2026-04-06T08:45:44Z</time></trkpt><trkpt lat="46.40241413482364" lon="13.317869987240908"><ele>424.0</ele><time>2026-04-06T08:45:45Z</time></trkpt><trkpt lat="46.40228042813927" lon="13.317960427570492"><ele>426.0</ele><time>2026-04-06T08:45:46Z</time></trkpt><trkpt lat="46.402129901203544" lon="13.318024032691973"><ele>428.0</ele><time>2026-04-06T08:45:47Z</time></trkpt><trkpt lat="46.40199606387136" lon="13.318095276831828"><ele>430.0</ele><time>2026-04-06T08:45:48Z</time></trkpt><trkpt lat="46.40185756504294" lon="13.318215256253517"><ele>430.0</ele><time>2026-04-06T08:45:49Z</time></trkpt><trkpt lat="46.40171211852227" lon="13.318367303142796"><ele>430.0</ele><time>2026-04-06T08:45:50Z</time></trkpt><trkpt lat="46.401595872235085" lon="13.31849452202691"><ele>430.0</ele><time>2026-04-06T08:45:51Z</time></trkpt><trkpt lat="46.40149254701374" lon="13.318615342526424"><ele>430.0</ele><time>2026-04-06T08:45:52Z</time></trkpt><trkpt lat="46.401395276212135" lon="13.31872149073368"><ele>430.0</ele><time>2026-04-06T08:45:53Z</time></trkpt><trkpt lat="46.40129684933823" lon="13.318832195018445"><ele>430.0</ele><time>2026-04-06T08:45:54Z</time></trkpt><trkpt lat="46.40120081231948" lon="13.318912070446467"><ele>430.0</ele><time>2026-04-06T08:45:55Z</time></trkpt><trkpt lat="46.401089921428564" lon="13.318937673742692"><ele>427.25</ele><time>2026-04-06T08:45:56Z</time></trkpt><trkpt lat="46.400954358883105" lon="13.318976027255706"><ele>424.5</ele><time>2026-04-06T08:45:57Z</time></trkpt><trkpt lat="46.40081546414986" lon="13.319021604421701"><ele>421.75</ele><time>2026-04-06T08:45:58Z</time></trkpt><trkpt lat="46.40068828187663" lon="13.319053092721218"><ele>419.0</ele><time>2026-04-06T08:45:59Z</time></trkpt><trkpt lat="46.40056852043228" lon="13.319068927327768"><ele>423.75</ele><time>2026-04-06T08:46:00Z</time></trkpt><trkpt lat="46.400448355354506" lon="13.319072181704726"><ele>428.5</ele><time>2026-04-06T08:46:01Z</time></trkpt><trkpt lat="46.40033378397402" lon="13.319072559286315"><ele>433.25</ele><time>2026-04-06T08:46:02Z</time></trkpt><trkpt lat="46.40022436246618" lon="13.319084018239767"><ele>438.0</ele><time>2026-04-06T08:46:03Z</time></trkpt><trkpt lat="46.40011894990952" lon="13.319127114021166"><ele>438.0</ele><time>2026-04-06T08:46:04Z</time></trkpt><trkpt lat="46.40001679575691" lon="13.31920955668741"><ele>438.0</ele><time>2026-04-06T08:46:05Z</time></trkpt><trkpt lat="46.39992510218405" lon="13.319351921237171"><ele>438.0</ele><time>2026-04-06T08:46:06Z</time></trkpt><trkpt lat="46.39983776014719" lon="13.31954558135583"><ele>438.0</ele><time>2026-04-06T08:46:07Z</time></trkpt><trkpt lat="46.399756094455874" lon="13.319763197171989"><ele>434.33333333333337</ele><time>2026-04-06T08:46:08Z</time></trkpt><trkpt lat="46.39968216536063" lon="13.319989554726403"><ele>430.6666666666667</ele><time>2026-04-06T08:46:09Z</time></trkpt><trkpt lat="46.399623294422106" lon="13.32022473446024"><ele>427.0</ele><time>2026-04-06T08:46:10Z</time></trkpt><trkpt lat="46.39955448068684" lon="13.320391083824584"><ele>433.75</ele><time>2026-04-06T08:46:11Z</time></trkpt><trkpt lat="46.399493846214284" lon="13.320547227671327"><ele>440.5</ele><time>2026-04-06T08:46:12Z</time></trkpt><trkpt lat="46.39942556981805" lon="13.320672823448689"><ele>447.25</ele><time>2026-04-06T08:46:13Z</time></trkpt><trkpt lat="46.399390248217706" lon="13.320854021251684"><ele>454.0</ele><time>2026-04-06T08:46:14Z</time></trkpt><trkpt lat="46.399363585194344" lon="13.321055015001827"><ele>454.0</ele><time>2026-04-06T08:46:15Z</time></trkpt><trkpt lat="46.39933209116678" lon="13.321241016246056"><ele>454.0</ele><time>2026-04-06T08:46:16Z</time></trkpt><trkpt lat="46.3992978592797" lon="13.321396965801602"><ele>454.0</ele><time>2026-04-06T08:46:17Z</time></trkpt><trkpt lat="46.399249932555236" lon="13.321527842791404"><ele>454.0</ele><time>2026-04-06T08:46:18Z</time></trkpt><trkpt lat="46.399198184435555" lon="13.321666699902067"><ele>450.0</ele><time>2026-04-06T08:46:19Z</time></trkpt><trkpt lat="46.399142050345915" lon="13.321801664700104"><ele>446.0</ele><time>2026-04-06T08:46:20Z</time></trkpt><trkpt lat="46.39909583385304" lon="13.321924468524955"><ele>442.0</ele><time>2026-04-06T08:46:21Z</time></trkpt><trkpt lat="46.39904826908622" lon="13.322111806589763"><ele>438.0</ele><time>2026-04-06T08:46:22Z</time></trkpt><trkpt lat="46.399049321704005" lon="13.322214197129576"><ele>434.0</ele><time>2026-04-06T08:46:23Z</time></trkpt><trkpt lat="46.39908931910318" lon="13.322410148607979"><ele>432.4</ele><time>2026-04-06T08:46:24Z</time></trkpt><trkpt lat="46.399085715654195" lon="13.322571317315724"><ele>430.79999999999995</ele><time>2026-04-06T08:46:25Z</time></trkpt><trkpt lat="46.39909228862864" lon="13.322738565704705"><ele>429.20000000000005</ele><time>2026-04-06T08:46:26Z</time></trkpt><trkpt lat="46.39910139104014" lon="13.322899230134258"><ele>427.6</ele><time>2026-04-06T08:46:27Z</time></trkpt><trkpt lat="46.399100267326055" lon="13.323057622133303"><ele>426.0</ele><time>2026-04-06T08:46:28.054Z</time></trkpt><trkpt lat="46.399067096016964" lon="13.323151398576469"><ele>422.0</ele><time>2026-04-06T08:46:29.051Z</time></trkpt><trkpt lat="46.398340387633446" lon="13.32474927612434"><ele>422.0</ele><time>2026-04-06T08:46:38Z</time></trkpt><trkpt lat="46.39828497540864" lon="13.324937720642273"><ele>422.0</ele><time>2026-04-06T08:46:39Z</time></trkpt><trkpt lat="46.398243207690406" lon="13.325181048025648"><ele>422.0</ele><time>2026-04-06T08:46:40Z</time></trkpt><trkpt lat="46.39821105942482" lon="13.325425165539023"><ele>418.0</ele><time>2026-04-06T08:46:41Z</time></trkpt><trkpt lat="46.39817686080559" lon="13.325713879101801"><ele>414.0</ele><time>2026-04-06T08:46:42Z</time></trkpt><trkpt lat="46.3981443879321" lon="13.325997378692449"><ele>410.0</ele><time>2026-04-06T08:46:43Z</time></trkpt><trkpt lat="46.398082883744436" lon="13.326223755821635"><ele>410.3333333333333</ele><time>2026-04-06T08:46:44Z</time></trkpt><trkpt lat="46.398029983597276" lon="13.326440700510265"><ele>410.66666666666663</ele><time>2026-04-06T08:46:45Z</time></trkpt><trkpt lat="46.397983968514275" lon="13.32664842006595"><ele>411.0</ele><time>2026-04-06T08:46:46Z</time></trkpt><trkpt lat="46.39793442680516" lon="13.326849264284549"><ele>411.0</ele><time>2026-04-06T08:46:47Z</time></trkpt><trkpt lat="46.39785001878888" lon="13.32701845208255"><ele>411.0</ele><time>2026-04-06T08:46:48Z</time></trkpt><trkpt lat="46.397742095714456" lon="13.327181252379413"><ele>411.0</ele><time>2026-04-06T08:46:49Z</time></trkpt><trkpt lat="46.39762115141699" lon="13.32735975808568"><ele>411.0</ele><time>2026-04-06T08:46:50Z</time></trkpt><trkpt lat="46.39750165405285" lon="13.32753265906465"><ele>411.0</ele><time>2026-04-06T08:46:51Z</time></trkpt><trkpt lat="46.39738897693665" lon="13.327707063360327"><ele>411.0</ele><time>2026-04-06T08:46:52Z</time></trkpt><trkpt lat="46.397273489892434" lon="13.327889686302688"><ele>416.33333333333337</ele><time>2026-04-06T08:46:53Z</time></trkpt><trkpt lat="46.397157348406424" lon="13.328069955541869"><ele>421.6666666666667</ele><time>2026-04-06T08:46:54Z</time></trkpt><trkpt lat="46.39704394499021" lon="13.328238293077751"><ele>427.0</ele><time>2026-04-06T08:46:55Z</time></trkpt><trkpt lat="46.396933916654696" lon="13.328385152381282"><ele>427.0</ele><time>2026-04-06T08:46:56Z</time></trkpt><trkpt lat="46.396815117754926" lon="13.328523113745195"><ele>427.0</ele><time>2026-04-06T08:46:57Z</time></trkpt><trkpt lat="46.396689668748884" lon="13.328660758553228"><ele>427.0</ele><time>2026-04-06T08:46:58Z</time></trkpt><trkpt lat="46.39656549384182" lon="13.32880242211171"><ele>423.0</ele><time>2026-04-06T08:46:59Z</time></trkpt><trkpt lat="46.396451499150245" lon="13.328933159928017"><ele>419.0</ele><time>2026-04-06T08:47:00Z</time></trkpt><trkpt lat="46.39635375511762" lon="13.329046719912387"><ele>415.0</ele><time>2026-04-06T08:47:01Z</time></trkpt><trkpt lat="46.39626253202344" lon="13.329159628700003"><ele>411.0</ele><time>2026-04-06T08:47:02Z</time></trkpt><trkpt lat="46.396183263908135" lon="13.329275354163855"><ele>419.5</ele><time>2026-04-06T08:47:03Z</time></trkpt><trkpt lat="46.39612090402289" lon="13.32940799187327"><ele>428.0</ele><time>2026-04-06T08:47:04Z</time></trkpt><trkpt lat="46.39607761465683" lon="13.329568054866801"><ele>436.5</ele><time>2026-04-06T08:47:05Z</time></trkpt><trkpt lat="46.39609438914341" lon="13.329736276368456"><ele>445.0</ele><time>2026-04-06T08:47:06Z</time></trkpt><trkpt lat="46.39609998997376" lon="13.329920471781344"><ele>445.0</ele><time>2026-04-06T08:47:07Z</time></trkpt><trkpt lat="46.39612529044822" lon="13.330109898292182"><ele>445.0</ele><time>2026-04-06T08:47:08Z</time></trkpt><trkpt lat="46.39614802920072" lon="13.3302691566551"><ele>445.0</ele><time>2026-04-06T08:47:09Z</time></trkpt><trkpt lat="46.396129332570084" lon="13.330423204021"><ele>445.0</ele><time>2026-04-06T08:47:10Z</time></trkpt><trkpt lat="46.39609452000759" lon="13.330583192806438"><ele>443.0</ele><time>2026-04-06T08:47:11Z</time></trkpt><trkpt lat="46.39605095686807" lon="13.33077484685016"><ele>441.0</ele><time>2026-04-06T08:47:12Z</time></trkpt><trkpt lat="46.3960210470713" lon="13.330994845787835"><ele>439.0</ele><time>2026-04-06T08:47:13Z</time></trkpt><trkpt lat="46.39597218131637" lon="13.331219342313137"><ele>439.75</ele><time>2026-04-06T08:47:14Z</time></trkpt><trkpt lat="46.395934683624596" lon="13.331446516102533"><ele>440.5</ele><time>2026-04-06T08:47:15Z</time></trkpt><trkpt lat="46.39589381264858" lon="13.331647698525577"><ele>441.25</ele><time>2026-04-06T08:47:16Z</time></trkpt><trkpt lat="46.39585702779831" lon="13.331811961197133"><ele>442.0</ele><time>2026-04-06T08:47:17Z</time></trkpt><trkpt lat="46.39583301548676" lon="13.331964046292942"><ele>442.00000000000006</ele><time>2026-04-06T08:47:18Z</time></trkpt><trkpt lat="46.39583264929167" lon="13.332097233632695"><ele>442.0</ele><time>2026-04-06T08:47:19Z</time></trkpt><trkpt lat="46.395861175122185" lon="13.332209696508782"><ele>442.0</ele><time>2026-04-06T08:47:20Z</time></trkpt><trkpt lat="46.39589968124097" lon="13.332305944215184"><ele>442.0</ele><time>2026-04-06T08:47:21Z</time></trkpt><trkpt lat="46.39595373201567" lon="13.332368260227941"><ele>442.00000000000006</ele><time>2026-04-06T08:47:22Z</time></trkpt><trkpt lat="46.39603864691061" lon="13.332423933211782"><ele>442.0</ele><time>2026-04-06T08:47:23Z</time></trkpt><trkpt lat="46.396135368462446" lon="13.332481585664828"><ele>443.33333333333337</ele><time>2026-04-06T08:47:24Z</time></trkpt><trkpt lat="46.39620835411996" lon="13.332571764137729"><ele>444.6666666666667</ele><time>2026-04-06T08:47:25Z</time></trkpt><trkpt lat="46.396257156428526" lon="13.332654103145751"><ele>446.0</ele><time>2026-04-06T08:47:26Z</time></trkpt><trkpt lat="46.39628449731676" lon="13.33276437730152"><ele>447.33333333333337</ele><time>2026-04-06T08:47:27Z</time></trkpt><trkpt lat="46.396335237961246" lon="13.33288280629306"><ele>448.6666666666667</ele><time>2026-04-06T08:47:28Z</time></trkpt><trkpt lat="46.39638105554283" lon="13.333012759167445"><ele>450.0</ele><time>2026-04-06T08:47:29Z</time></trkpt><trkpt lat="46.3964307109856" lon="13.33315899889945"><ele>455.5</ele><time>2026-04-06T08:47:30Z</time></trkpt><trkpt lat="46.396483320352324" lon="13.333328500152057"><ele>461.0</ele><time>2026-04-06T08:47:31Z</time></trkpt><trkpt lat="46.39653731912019" lon="13.333494196862782"><ele>466.5</ele><time>2026-04-06T08:47:32Z</time></trkpt><trkpt lat="46.39659148135089" lon="13.333661789461921"><ele>472.0</ele><time>2026-04-06T08:47:33Z</time></trkpt><trkpt lat="46.39664327814481" lon="13.333845092087913"><ele>471.25</ele><time>2026-04-06T08:47:34Z</time></trkpt><trkpt lat="46.3966871972642" lon="13.33404177587937"><ele>470.5</ele><time>2026-04-06T08:47:35Z</time></trkpt><trkpt lat="46.396719314846386" lon="13.33423328566767"><ele>469.75</ele><time>2026-04-06T08:47:36Z</time></trkpt><trkpt lat="46.39674234777809" lon="13.33440953926229"><ele>469.0</ele><time>2026-04-06T08:47:37Z</time></trkpt><trkpt lat="46.396760655771246" lon="13.334584907802803"><ele>466.25</ele><time>2026-04-06T08:47:38Z</time></trkpt><trkpt lat="46.39677719075211" lon="13.334768368321843"><ele>463.5</ele><time>2026-04-06T08:47:39Z</time></trkpt><trkpt lat="46.396873703291455" lon="13.334940316926563"><ele>460.75</ele><time>2026-04-06T08:47:40Z</time></trkpt><trkpt lat="46.39688830096168" lon="13.335126801895106"><ele>458.0</ele><time>2026-04-06T08:47:41Z</time></trkpt><trkpt lat="46.39694345068105" lon="13.335255991863875"><ele>458.0</ele><time>2026-04-06T08:47:42Z</time></trkpt><trkpt lat="46.39697250701776" lon="13.33541855803867"><ele>458.0</ele><time>2026-04-06T08:47:43Z</time></trkpt><trkpt lat="46.39670822041386" lon="13.33569769641683"><ele>458.0</ele><time>2026-04-06T08:47:44Z</time></trkpt><trkpt lat="46.396695034169376" lon="13.335870939906773"><ele>456.75</ele><time>2026-04-06T08:47:45Z</time></trkpt><trkpt lat="46.39672087263883" lon="13.336051145508547"><ele>455.5</ele><time>2026-04-06T08:47:46Z</time></trkpt><trkpt lat="46.39675254210437" lon="13.336214868573288"><ele>454.25</ele><time>2026-04-06T08:47:47Z</time></trkpt><trkpt lat="46.39675157728603" lon="13.336371524077354"><ele>453.0</ele><time>2026-04-06T08:47:48Z</time></trkpt><trkpt lat="46.396714799911585" lon="13.336537782073902"><ele>452.0</ele><time>2026-04-06T08:47:49Z</time></trkpt><trkpt lat="46.39664673674081" lon="13.336718662913967"><ele>451.0</ele><time>2026-04-06T08:47:50Z</time></trkpt><trkpt lat="46.39658551778926" lon="13.336883531916467"><ele>450.0</ele><time>2026-04-06T08:47:51Z</time></trkpt><trkpt lat="46.39654924873369" lon="13.33705940376616"><ele>449.0</ele><time>2026-04-06T08:47:52Z</time></trkpt><trkpt lat="46.39652707070387" lon="13.337240712895813"><ele>449.0</ele><time>2026-04-06T08:47:53Z</time></trkpt><trkpt lat="46.396515194341305" lon="13.337427623250765"><ele>449.0</ele><time>2026-04-06T08:47:54Z</time></trkpt><trkpt lat="46.39651481458908" lon="13.337636115148806"><ele>449.0</ele><time>2026-04-06T08:47:55Z</time></trkpt><trkpt lat="46.39652793262723" lon="13.337856587696347"><ele>449.0</ele><time>2026-04-06T08:47:56Z</time></trkpt><trkpt lat="46.39653773152283" lon="13.338063338502119"><ele>449.0</ele><time>2026-04-06T08:47:57Z</time></trkpt><trkpt lat="46.396535154952645" lon="13.338257010647034"><ele>449.0</ele><time>2026-04-06T08:47:58Z</time></trkpt><trkpt lat="46.39651047738216" lon="13.338453594832034"><ele>449.0</ele><time>2026-04-06T08:47:59Z</time></trkpt><trkpt lat="46.3964654368665" lon="13.338666167888244"><ele>449.0</ele><time>2026-04-06T08:48:00Z</time></trkpt><trkpt lat="46.39641336056933" lon="13.338881313400963"><ele>449.0</ele><time>2026-04-06T08:48:01Z</time></trkpt><trkpt lat="46.39636365349124" lon="13.339096670660028"><ele>449.0</ele><time>2026-04-06T08:48:02Z</time></trkpt><trkpt lat="46.39631938594829" lon="13.339299992139162"><ele>449.0</ele><time>2026-04-06T08:48:03Z</time></trkpt><trkpt lat="46.396279562415316" lon="13.339484375173441"><ele>449.0</ele><time>2026-04-06T08:48:04Z</time></trkpt><trkpt lat="46.39623687976507" lon="13.339660638228581"><ele>449.0</ele><time>2026-04-06T08:48:05Z</time></trkpt><trkpt lat="46.39619742086497" lon="13.339851656731033"><ele>449.0</ele><time>2026-04-06T08:48:06Z</time></trkpt><trkpt lat="46.39615848917321" lon="13.340032126492456"><ele>449.0</ele><time>2026-04-06T08:48:07Z</time></trkpt><trkpt lat="46.39612229936432" lon="13.34020085835898"><ele>449.0</ele><time>2026-04-06T08:48:08Z</time></trkpt><trkpt lat="46.396098790125215" lon="13.3403608169609"><ele>449.0</ele><time>2026-04-06T08:48:09Z</time></trkpt><trkpt lat="46.39609804247453" lon="13.340534887670612"><ele>449.0</ele><time>2026-04-06T08:48:10Z</time></trkpt><trkpt lat="46.39611372235288" lon="13.340700239991362"><ele>449.0</ele><time>2026-04-06T08:48:11Z</time></trkpt><trkpt lat="46.396131460277104" lon="13.340845818238876"><ele>449.0</ele><time>2026-04-06T08:48:12Z</time></trkpt><trkpt lat="46.39611900051037" lon="13.340982407228175"><ele>449.0</ele><time>2026-04-06T08:48:13Z</time></trkpt><trkpt lat="46.396083020893656" lon="13.34112403310455"><ele>449.0</ele><time>2026-04-06T08:48:14Z</time></trkpt><trkpt lat="46.3960194156663" lon="13.34127043997252"><ele>449.0</ele><time>2026-04-06T08:48:15Z</time></trkpt><trkpt lat="46.3959482945088" lon="13.34140797536298"><ele>449.0</ele><time>2026-04-06T08:48:16Z</time></trkpt><trkpt lat="46.395885445345236" lon="13.341531359319681"><ele>449.0</ele><time>2026-04-06T08:48:17Z</time></trkpt><trkpt lat="46.395839785248654" lon="13.341649925030495"><ele>449.0</ele><time>2026-04-06T08:48:18Z</time></trkpt><trkpt lat="46.395813530946164" lon="13.34176907130658"><ele>449.0</ele><time>2026-04-06T08:48:19Z</time></trkpt><trkpt lat="46.39581071033226" lon="13.341892719397341"><ele>449.0</ele><time>2026-04-06T08:48:20Z</time></trkpt><trkpt lat="46.395830352839624" lon="13.342011523123578"><ele>449.0</ele><time>2026-04-06T08:48:21Z</time></trkpt><trkpt lat="46.39587838368312" lon="13.34213367726371"><ele>449.0</ele><time>2026-04-06T08:48:22Z</time></trkpt><trkpt lat="46.395951876900625" lon="13.34228428015463"><ele>449.0</ele><time>2026-04-06T08:48:23Z</time></trkpt><trkpt lat="46.39602991630802" lon="13.342473600131449"><ele>449.0</ele><time>2026-04-06T08:48:24Z</time></trkpt><trkpt lat="46.39610781692617" lon="13.342679493132305"><ele>449.0</ele><time>2026-04-06T08:48:25Z</time></trkpt><trkpt lat="46.39618567141005" lon="13.342876974324811"><ele>449.0</ele><time>2026-04-06T08:48:26Z</time></trkpt><trkpt lat="46.39627575105044" lon="13.343055842053895"><ele>449.0</ele><time>2026-04-06T08:48:27Z</time></trkpt><trkpt lat="46.39636477031073" lon="13.34321805628674"><ele>449.0</ele><time>2026-04-06T08:48:28Z</time></trkpt><trkpt lat="46.39643871797977" lon="13.343377466058342"><ele>449.0</ele><time>2026-04-06T08:48:29Z</time></trkpt><trkpt lat="46.396499581528055" lon="13.343551916096796"><ele>449.0</ele><time>2026-04-06T08:48:30Z</time></trkpt><trkpt lat="46.39653483679736" lon="13.343742205383982"><ele>449.0</ele><time>2026-04-06T08:48:31Z</time></trkpt><trkpt lat="46.39654191111158" lon="13.343930877404404"><ele>449.0</ele><time>2026-04-06T08:48:32Z</time></trkpt><trkpt lat="46.39653214240703" lon="13.34411829792614"><ele>449.0</ele><time>2026-04-06T08:48:33Z</time></trkpt><trkpt lat="46.39650508507614" lon="13.344350251323027"><ele>449.0</ele><time>2026-04-06T08:48:34Z</time></trkpt><trkpt lat="46.39648272665386" lon="13.344575581349428"><ele>449.0</ele><time>2026-04-06T08:48:35Z</time></trkpt><trkpt lat="46.39647422957314" lon="13.344786598149097"><ele>449.0</ele><time>2026-04-06T08:48:36Z</time></trkpt><trkpt lat="46.396472034061055" lon="13.344984281676386"><ele>449.0</ele><time>2026-04-06T08:48:37Z</time></trkpt><trkpt lat="46.39648266726212" lon="13.345180081820907"><ele>449.0</ele><time>2026-04-06T08:48:38Z</time></trkpt><trkpt lat="46.39650774603607" lon="13.345351241169393"><ele>448.99999999999994</ele><time>2026-04-06T08:48:39Z</time></trkpt><trkpt lat="46.39654134907519" lon="13.345488648547374"><ele>449.0</ele><time>2026-04-06T08:48:40Z</time></trkpt><trkpt lat="46.39656188949376" lon="13.345599753975154"><ele>449.0</ele><time>2026-04-06T08:48:41Z</time></trkpt><trkpt lat="46.39654761460235" lon="13.34572027193567"><ele>449.0</ele><time>2026-04-06T08:48:42Z</time></trkpt><trkpt lat="46.39650334832104" lon="13.345838756082607"><ele>448.99999999999994</ele><time>2026-04-06T08:48:43Z</time></trkpt><trkpt lat="46.39647339886298" lon="13.345940298217208"><ele>449.0</ele><time>2026-04-06T08:48:44Z</time></trkpt><trkpt lat="46.39646154478599" lon="13.346044080515101"><ele>449.0</ele><time>2026-04-06T08:48:45Z</time></trkpt><trkpt lat="46.39647996198836" lon="13.346139496791883"><ele>449.0</ele><time>2026-04-06T08:48:46Z</time></trkpt><trkpt lat="46.39652943063046" lon="13.346236899023339"><ele>449.0</ele><time>2026-04-06T08:48:47Z</time></trkpt><trkpt lat="46.396603172656775" lon="13.346339197976208"><ele>449.0</ele><time>2026-04-06T08:48:48Z</time></trkpt><trkpt lat="46.39671407824209" lon="13.346440858401358"><ele>449.0</ele><time>2026-04-06T08:48:49Z</time></trkpt><trkpt lat="46.396838255172725" lon="13.346533598020086"><ele>449.0</ele><time>2026-04-06T08:48:50Z</time></trkpt><trkpt lat="46.39694592489837" lon="13.346605316742522"><ele>449.0</ele><time>2026-04-06T08:48:51Z</time></trkpt><trkpt lat="46.39703697103592" lon="13.346680604555118"><ele>449.0</ele><time>2026-04-06T08:48:52Z</time></trkpt><trkpt lat="46.39711731069725" lon="13.346777314963912"><ele>449.0</ele><time>2026-04-06T08:48:53Z</time></trkpt><trkpt lat="46.39719086234062" lon="13.346913031036664"><ele>449.0</ele><time>2026-04-06T08:48:54Z</time></trkpt><trkpt lat="46.397268287937194" lon="13.34708512631197"><ele>449.0</ele><time>2026-04-06T08:48:55Z</time></trkpt><trkpt lat="46.39734458706477" lon="13.347250012593872"><ele>449.0</ele><time>2026-04-06T08:48:56Z</time></trkpt><trkpt lat="46.39742886853892" lon="13.347425468662792"><ele>449.0</ele><time>2026-04-06T08:48:57Z</time></trkpt><trkpt lat="46.39751012979036" lon="13.34759192970375"><ele>449.0</ele><time>2026-04-06T08:48:58Z</time></trkpt><trkpt lat="46.39758692120074" lon="13.347757967131315"><ele>449.0</ele><time>2026-04-06T08:48:59Z</time></trkpt><trkpt lat="46.39766633449522" lon="13.347933396523644"><ele>449.0</ele><time>2026-04-06T08:49:00Z</time></trkpt><trkpt lat="46.39774118249305" lon="13.348133146930584"><ele>449.0</ele><time>2026-04-06T08:49:01Z</time></trkpt><trkpt lat="46.39781257463001" lon="13.348348134066521"><ele>449.0</ele><time>2026-04-06T08:49:02Z</time></trkpt><trkpt lat="46.397881381211896" lon="13.348534161945556"><ele>449.0</ele><time>2026-04-06T08:49:03Z</time></trkpt><trkpt lat="46.397947359462144" lon="13.348701091130252"><ele>449.0</ele><time>2026-04-06T08:49:04Z</time></trkpt><trkpt lat="46.3980224045762" lon="13.348932331277656"><ele>449.0</ele><time>2026-04-06T08:49:05Z</time></trkpt><trkpt lat="46.39809998235426" lon="13.349112770124488"><ele>449.0</ele><time>2026-04-06T08:49:06Z</time></trkpt><trkpt lat="46.39817342309495" lon="13.349314420249222"><ele>449.0</ele><time>2026-04-06T08:49:07Z</time></trkpt><trkpt lat="46.398252888982" lon="13.349526522163279"><ele>449.0</ele><time>2026-04-06T08:49:08Z</time></trkpt><trkpt lat="46.398331202037205" lon="13.349741804444728"><ele>449.0</ele><time>2026-04-06T08:49:09Z</time></trkpt><trkpt lat="46.398404680427795" lon="13.349940747285478"><ele>449.0</ele><time>2026-04-06T08:49:10Z</time></trkpt><trkpt lat="46.39847906725795" lon="13.35014310537519"><ele>449.0</ele><time>2026-04-06T08:49:11Z</time></trkpt><trkpt lat="46.398562436228445" lon="13.350379730138425"><ele>449.0</ele><time>2026-04-06T08:49:12Z</time></trkpt><trkpt lat="46.39866124305497" lon="13.350627730023806"><ele>449.0</ele><time>2026-04-06T08:49:13Z</time></trkpt><trkpt lat="46.39875216634114" lon="13.350864027761268"><ele>449.0</ele><time>2026-04-06T08:49:14Z</time></trkpt><trkpt lat="46.39883652533593" lon="13.35107413754828"><ele>449.0</ele><time>2026-04-06T08:49:15Z</time></trkpt><trkpt lat="46.39893000250784" lon="13.351294717069159"><ele>449.0</ele><time>2026-04-06T08:49:16Z</time></trkpt><trkpt lat="46.399028480652476" lon="13.351500682335933"><ele>449.0</ele><time>2026-04-06T08:49:17Z</time></trkpt><trkpt lat="46.39912502859564" lon="13.351679163785448"><ele>449.0</ele><time>2026-04-06T08:49:18Z</time></trkpt><trkpt lat="46.3992152642339" lon="13.351851226807444"><ele>449.0</ele><time>2026-04-06T08:49:19Z</time></trkpt><trkpt lat="46.39929493005653" lon="13.352006554558901"><ele>449.0</ele><time>2026-04-06T08:49:20Z</time></trkpt><trkpt lat="46.399381995673345" lon="13.352179552575848"><ele>449.0</ele><time>2026-04-06T08:49:21Z</time></trkpt><trkpt lat="46.39944698281646" lon="13.352359474408853"><ele>449.0</ele><time>2026-04-06T08:49:22Z</time></trkpt><trkpt lat="46.39949039176118" lon="13.352569354016023"><ele>449.0</ele><time>2026-04-06T08:49:23Z</time></trkpt><trkpt lat="46.399519766291235" lon="13.352807266672274"><ele>456.5</ele><time>2026-04-06T08:49:24Z</time></trkpt><trkpt lat="46.399540020942354" lon="13.353033712354396"><ele>464.0</ele><time>2026-04-06T08:49:25Z</time></trkpt><trkpt lat="46.39956426814453" lon="13.35323802902255"><ele>471.5</ele><time>2026-04-06T08:49:26Z</time></trkpt><trkpt lat="46.39959314568646" lon="13.353441936305467"><ele>479.0</ele><time>2026-04-06T08:49:27Z</time></trkpt><trkpt lat="46.39962289719031" lon="13.353660889098315"><ele>479.0</ele><time>2026-04-06T08:49:28Z</time></trkpt><trkpt lat="46.39966013532382" lon="13.35386273875603"><ele>479.0</ele><time>2026-04-06T08:49:29Z</time></trkpt><trkpt lat="46.399709267639274" lon="13.354064719450527"><ele>479.0</ele><time>2026-04-06T08:49:30Z</time></trkpt><trkpt lat="46.39976870419918" lon="13.35426261287919"><ele>479.0</ele><time>2026-04-06T08:49:31Z</time></trkpt><trkpt lat="46.39983804308821" lon="13.354443647205267"><ele>478.25</ele><time>2026-04-06T08:49:32Z</time></trkpt><trkpt lat="46.39992201888893" lon="13.354604010256411"><ele>477.5</ele><time>2026-04-06T08:49:33Z</time></trkpt><trkpt lat="46.400028640067795" lon="13.3547386414446"><ele>476.75</ele><time>2026-04-06T08:49:34Z</time></trkpt><trkpt lat="46.40015892709141" lon="13.35486342914077"><ele>476.0</ele><time>2026-04-06T08:49:35Z</time></trkpt><trkpt lat="46.400307618177585" lon="13.354972616865565"><ele>477.0</ele><time>2026-04-06T08:49:36Z</time></trkpt><trkpt lat="46.40044576242608" lon="13.355062991353176"><ele>478.0</ele><time>2026-04-06T08:49:37Z</time></trkpt><trkpt lat="46.40056409763138" lon="13.355144164589678"><ele>479.0</ele><time>2026-04-06T08:49:38Z</time></trkpt><trkpt lat="46.40066874365719" lon="13.355226684308647"><ele>480.0</ele><time>2026-04-06T08:49:39Z</time></trkpt><trkpt lat="46.400766300795766" lon="13.355306650244158"><ele>480.0</ele><time>2026-04-06T08:49:40Z</time></trkpt><trkpt lat="46.40086134124965" lon="13.355410932326025"><ele>480.0</ele><time>2026-04-06T08:49:41Z</time></trkpt><trkpt lat="46.40094606427431" lon="13.355550014828717"><ele>480.0</ele><time>2026-04-06T08:49:42Z</time></trkpt><trkpt lat="46.40102397544076" lon="13.355711243405214"><ele>480.0</ele><time>2026-04-06T08:49:43Z</time></trkpt><trkpt lat="46.401100448270725" lon="13.355887818388004"><ele>480.75</ele><time>2026-04-06T08:49:44Z</time></trkpt><trkpt lat="46.40117416939996" lon="13.356072360042708"><ele>481.5</ele><time>2026-04-06T08:49:45Z</time></trkpt><trkpt lat="46.40124040893901" lon="13.356262036619514"><ele>482.25</ele><time>2026-04-06T08:49:46Z</time></trkpt><trkpt lat="46.4012862657978" lon="13.356477711820961"><ele>483.0</ele><time>2026-04-06T08:49:47Z</time></trkpt><trkpt lat="46.40131577570688" lon="13.356716959503947"><ele>483.33333333333337</ele><time>2026-04-06T08:49:48Z</time></trkpt><trkpt lat="46.401352456759625" lon="13.356963376592939"><ele>483.6666666666667</ele><time>2026-04-06T08:49:49Z</time></trkpt><trkpt lat="46.40140247842924" lon="13.357231664588769"><ele>484.0</ele><time>2026-04-06T08:49:50Z</time></trkpt><trkpt lat="46.401464706519555" lon="13.35752416253347"><ele>484.0</ele><time>2026-04-06T08:49:51Z</time></trkpt><trkpt lat="46.40153037666274" lon="13.357827093003669"><ele>484.0</ele><time>2026-04-06T08:49:52Z</time></trkpt><trkpt lat="46.40159289446804" lon="13.358100059823492"><ele>484.0</ele><time>2026-04-06T08:49:53Z</time></trkpt><trkpt lat="46.401642424491364" lon="13.358348450325602"><ele>485.6666666666667</ele><time>2026-04-06T08:49:54Z</time></trkpt><trkpt lat="46.40169580336609" lon="13.358584444839511"><ele>487.33333333333337</ele><time>2026-04-06T08:49:55Z</time></trkpt><trkpt lat="46.401756120056945" lon="13.35880585484996"><ele>489.0</ele><time>2026-04-06T08:49:56Z</time></trkpt><trkpt lat="46.401819473408956" lon="13.359011788528203"><ele>490.25</ele><time>2026-04-06T08:49:57Z</time></trkpt><trkpt lat="46.401883954055656" lon="13.359203959681572"><ele>491.5</ele><time>2026-04-06T08:49:58Z</time></trkpt><trkpt lat="46.40194448551326" lon="13.3593856337673"><ele>492.75</ele><time>2026-04-06T08:49:59Z</time></trkpt><trkpt lat="46.40199095415293" lon="13.359562347558011"><ele>494.0</ele><time>2026-04-06T08:50:00Z</time></trkpt><trkpt lat="46.40202421939527" lon="13.359738545150208"><ele>495.25</ele><time>2026-04-06T08:50:01Z</time></trkpt><trkpt lat="46.40202953977474" lon="13.359929922133453"><ele>496.5</ele><time>2026-04-06T08:50:02Z</time></trkpt><trkpt lat="46.40199292960718" lon="13.360135409373216"><ele>497.75</ele><time>2026-04-06T08:50:03Z</time></trkpt><trkpt lat="46.40193867695901" lon="13.360340651459904"><ele>499.0</ele><time>2026-04-06T08:50:04Z</time></trkpt><trkpt lat="46.4018900243312" lon="13.360521893096443"><ele>497.6666666666667</ele><time>2026-04-06T08:50:05Z</time></trkpt><trkpt lat="46.40184554218836" lon="13.360731283907144"><ele>496.33333333333337</ele><time>2026-04-06T08:50:06Z</time></trkpt><trkpt lat="46.40179555208751" lon="13.36096974842852"><ele>495.0</ele><time>2026-04-06T08:50:07Z</time></trkpt><trkpt lat="46.40174118643431" lon="13.361206935620325"><ele>495.25</ele><time>2026-04-06T08:50:08Z</time></trkpt><trkpt lat="46.401692997107105" lon="13.361415508165157"><ele>495.5</ele><time>2026-04-06T08:50:09Z</time></trkpt><trkpt lat="46.40164803483814" lon="13.361610143743782"><ele>495.75</ele><time>2026-04-06T08:50:10Z</time></trkpt><trkpt lat="46.40160478965973" lon="13.361793275615563"><ele>496.0</ele><time>2026-04-06T08:50:11Z</time></trkpt><trkpt lat="46.40157251791348" lon="13.361979994493234"><ele>496.0</ele><time>2026-04-06T08:50:12Z</time></trkpt><trkpt lat="46.40155547512955" lon="13.362182851256811"><ele>496.0</ele><time>2026-04-06T08:50:13Z</time></trkpt><trkpt lat="46.40156892777086" lon="13.36239684464745"><ele>496.0</ele><time>2026-04-06T08:50:14Z</time></trkpt><trkpt lat="46.401607319072525" lon="13.362616020710881"><ele>496.0</ele><time>2026-04-06T08:50:15Z</time></trkpt><trkpt lat="46.4016524160818" lon="13.362850431650157"><ele>495.0</ele><time>2026-04-06T08:50:16Z</time></trkpt><trkpt lat="46.401695694707264" lon="13.363082713042484"><ele>494.0</ele><time>2026-04-06T08:50:17Z</time></trkpt><trkpt lat="46.40173603852094" lon="13.363315032644374"><ele>493.0</ele><time>2026-04-06T08:50:18Z</time></trkpt><trkpt lat="46.40177143839885" lon="13.363527143381045"><ele>493.0</ele><time>2026-04-06T08:50:19Z</time></trkpt><trkpt lat="46.401803704540555" lon="13.36372435024575"><ele>493.0</ele><time>2026-04-06T08:50:20Z</time></trkpt><trkpt lat="46.40183757250138" lon="13.363923278202147"><ele>493.0</ele><time>2026-04-06T08:50:21Z</time></trkpt><trkpt lat="46.40188000065803" lon="13.364120394680164"><ele>493.0</ele><time>2026-04-06T08:50:22Z</time></trkpt><trkpt lat="46.40191403129719" lon="13.36431272617196"><ele>494.79999999999995</ele><time>2026-04-06T08:50:23Z</time></trkpt><trkpt lat="46.40194595163086" lon="13.364486811960898"><ele>496.59999999999997</ele><time>2026-04-06T08:50:24Z</time></trkpt><trkpt lat="46.40197586088592" lon="13.364644282424837"><ele>498.40000000000003</ele><time>2026-04-06T08:50:25Z</time></trkpt><trkpt lat="46.40200049044355" lon="13.364795396909344"><ele>500.20000000000005</ele><time>2026-04-06T08:50:26Z</time></trkpt><trkpt lat="46.40201924878202" lon="13.364944694296838"><ele>502.0</ele><time>2026-04-06T08:50:27Z</time></trkpt><trkpt lat="46.40203003741397" lon="13.365111646794945"><ele>503.5</ele><time>2026-04-06T08:50:28Z</time></trkpt><trkpt lat="46.40203357206981" lon="13.365287963329303"><ele>505.0</ele><time>2026-04-06T08:50:29Z</time></trkpt><trkpt lat="46.40202231844569" lon="13.365472795986335"><ele>506.5</ele><time>2026-04-06T08:50:30Z</time></trkpt><trkpt lat="46.40198457735997" lon="13.365679862667806"><ele>508.0</ele><time>2026-04-06T08:50:31Z</time></trkpt><trkpt lat="46.40193025759409" lon="13.365908467900338"><ele>508.0</ele><time>2026-04-06T08:50:32Z</time></trkpt><trkpt lat="46.40187035589979" lon="13.366145309715364"><ele>508.0</ele><time>2026-04-06T08:50:33Z</time></trkpt><trkpt lat="46.401815310061195" lon="13.366386974272512"><ele>508.0</ele><time>2026-04-06T08:50:34Z</time></trkpt><trkpt lat="46.40175229770675" lon="13.366639885871232"><ele>508.0</ele><time>2026-04-06T08:50:35Z</time></trkpt><trkpt lat="46.40170592412209" lon="13.366884095378456"><ele>508.0</ele><time>2026-04-06T08:50:36Z</time></trkpt><trkpt lat="46.40167861840145" lon="13.367135946440003"><ele>508.0</ele><time>2026-04-06T08:50:37Z</time></trkpt><trkpt lat="46.40166995764729" lon="13.367414560987319"><ele>508.0</ele><time>2026-04-06T08:50:38Z</time></trkpt><trkpt lat="46.40166871854954" lon="13.367729200315267"><ele>508.0</ele><time>2026-04-06T08:50:39Z</time></trkpt><trkpt lat="46.401665858448695" lon="13.368027787080665"><ele>508.0</ele><time>2026-04-06T08:50:40Z</time></trkpt><trkpt lat="46.40166262627224" lon="13.368303810823772"><ele>508.33333333333337</ele><time>2026-04-06T08:50:41Z</time></trkpt><trkpt lat="46.40166542717403" lon="13.368576810310577"><ele>508.66666666666663</ele><time>2026-04-06T08:50:42Z</time></trkpt><trkpt lat="46.40168597590129" lon="13.368858342753034"><ele>509.0</ele><time>2026-04-06T08:50:43Z</time></trkpt><trkpt lat="46.401733057594654" lon="13.369174032573582"><ele>509.0</ele><time>2026-04-06T08:50:44Z</time></trkpt><trkpt lat="46.40176568875342" lon="13.369470390383196"><ele>509.0</ele><time>2026-04-06T08:50:45Z</time></trkpt><trkpt lat="46.40178369092644" lon="13.369738595199989"><ele>509.0</ele><time>2026-04-06T08:50:46Z</time></trkpt><trkpt lat="46.401791292014885" lon="13.369987888172625"><ele>506.3333333333333</ele><time>2026-04-06T08:50:47Z</time></trkpt><trkpt lat="46.401799987369486" lon="13.370218013705024"><ele>503.66666666666663</ele><time>2026-04-06T08:50:48Z</time></trkpt><trkpt lat="46.401811329478775" lon="13.370431870682689"><ele>501.0</ele><time>2026-04-06T08:50:49Z</time></trkpt><trkpt lat="46.401825538935775" lon="13.370642634075686"><ele>500.5</ele><time>2026-04-06T08:50:50Z</time></trkpt><trkpt lat="46.401849192146415" lon="13.370843810773508"><ele>500.0</ele><time>2026-04-06T08:50:51Z</time></trkpt><trkpt lat="46.40188657636394" lon="13.371037163278361"><ele>499.5</ele><time>2026-04-06T08:50:52Z</time></trkpt><trkpt lat="46.401955837348424" lon="13.371220700365908"><ele>499.0</ele><time>2026-04-06T08:50:53Z</time></trkpt><trkpt lat="46.402063009018725" lon="13.371396771375585"><ele>497.6666666666667</ele><time>2026-04-06T08:50:54Z</time></trkpt><trkpt lat="46.402188264942346" lon="13.371574408141619"><ele>496.33333333333337</ele><time>2026-04-06T08:50:55Z</time></trkpt><trkpt lat="46.402316276813295" lon="13.371759014407129"><ele>495.0</ele><time>2026-04-06T08:50:56Z</time></trkpt><trkpt lat="46.40242931563108" lon="13.371938944551955"><ele>495.0</ele><time>2026-04-06T08:50:57Z</time></trkpt><trkpt lat="46.40253126721061" lon="13.372110834567948"><ele>495.0</ele><time>2026-04-06T08:50:58Z</time></trkpt><trkpt lat="46.40264105226285" lon="13.372292729371006"><ele>495.0</ele><time>2026-04-06T08:50:59Z</time></trkpt><trkpt lat="46.40274202448984" lon="13.372464841979156"><ele>496.75</ele><time>2026-04-06T08:51:00Z</time></trkpt><trkpt lat="46.40282626770011" lon="13.372617625919919"><ele>498.5</ele><time>2026-04-06T08:51:01Z</time></trkpt><trkpt lat="46.4028944931729" lon="13.372762495552443"><ele>500.25</ele><time>2026-04-06T08:51:02Z</time></trkpt><trkpt lat="46.402936765106276" lon="13.372926966006862"><ele>502.0</ele><time>2026-04-06T08:51:03Z</time></trkpt><trkpt lat="46.402945559201356" lon="13.373108877412058"><ele>504.75</ele><time>2026-04-06T08:51:04Z</time></trkpt><trkpt lat="46.402910118813665" lon="13.373280569589237"><ele>507.5</ele><time>2026-04-06T08:51:05Z</time></trkpt><trkpt lat="46.402835916003866" lon="13.373439869740894"><ele>510.25</ele><time>2026-04-06T08:51:06Z</time></trkpt><trkpt lat="46.40275880193804" lon="13.373606736583838"><ele>513.0</ele><time>2026-04-06T08:51:07Z</time></trkpt><trkpt lat="46.402719549447596" lon="13.373803491351609"><ele>512.5</ele><time>2026-04-06T08:51:08Z</time></trkpt><trkpt lat="46.402720063219256" lon="13.374019992522163"><ele>512.0</ele><time>2026-04-06T08:51:09Z</time></trkpt><trkpt lat="46.40273169761782" lon="13.374232359939752"><ele>511.5</ele><time>2026-04-06T08:51:10Z</time></trkpt><trkpt lat="46.40275222514612" lon="13.374420973702746"><ele>511.0</ele><time>2026-04-06T08:51:11Z</time></trkpt><trkpt lat="46.402781614330834" lon="13.374576973529555"><ele>510.4</ele><time>2026-04-06T08:51:12Z</time></trkpt><trkpt lat="46.40281202243915" lon="13.374709306988738"><ele>509.8</ele><time>2026-04-06T08:51:13Z</time></trkpt><trkpt lat="46.40286714082608" lon="13.374830930941629"><ele>509.19999999999993</ele><time>2026-04-06T08:51:14Z</time></trkpt><trkpt lat="46.40293620441736" lon="13.374955503405447"><ele>508.59999999999997</ele><time>2026-04-06T08:51:15Z</time></trkpt><trkpt lat="46.40301135815994" lon="13.375094837464648"><ele>508.0</ele><time>2026-04-06T08:51:16Z</time></trkpt><trkpt lat="46.40308945308531" lon="13.375254837978988"><ele>508.25</ele><time>2026-04-06T08:51:17Z</time></trkpt><trkpt lat="46.40316840162549" lon="13.375418667441766"><ele>508.5</ele><time>2026-04-06T08:51:18Z</time></trkpt><trkpt lat="46.403241647865585" lon="13.37557157183675"><ele>508.75</ele><time>2026-04-06T08:51:19Z</time></trkpt><trkpt lat="46.40330696441273" lon="13.375708821546269"><ele>509.0</ele><time>2026-04-06T08:51:20Z</time></trkpt><trkpt lat="46.40337360671254" lon="13.3758449862042"><ele>509.0</ele><time>2026-04-06T08:51:21Z</time></trkpt><trkpt lat="46.403443933100014" lon="13.375982091735835"><ele>509.0</ele><time>2026-04-06T08:51:22Z</time></trkpt><trkpt lat="46.403516710568375" lon="13.376127837979501"><ele>509.0</ele><time>2026-04-06T08:51:23Z</time></trkpt><trkpt lat="46.40358498935736" lon="13.376289072253135"><ele>509.0</ele><time>2026-04-06T08:51:24Z</time></trkpt><trkpt lat="46.40364410917074" lon="13.376472497570752"><ele>509.3333333333333</ele><time>2026-04-06T08:51:25Z</time></trkpt><trkpt lat="46.403687017176374" lon="13.376678911814913"><ele>509.66666666666663</ele><time>2026-04-06T08:51:26Z</time></trkpt><trkpt lat="46.40371768394721" lon="13.376902029634916"><ele>510.0</ele><time>2026-04-06T08:51:27Z</time></trkpt><trkpt lat="46.40374422887504" lon="13.377139034812004"><ele>511.25</ele><time>2026-04-06T08:51:28Z</time></trkpt><trkpt lat="46.403766666226105" lon="13.377365664075167"><ele>512.5</ele><time>2026-04-06T08:51:29Z</time></trkpt><trkpt lat="46.40378960443147" lon="13.3775702440027"><ele>513.75</ele><time>2026-04-06T08:51:30Z</time></trkpt><trkpt lat="46.40380624736522" lon="13.377756395496032"><ele>515.0</ele><time>2026-04-06T08:51:31Z</time></trkpt><trkpt lat="46.403811953420984" lon="13.3779333428004"><ele>516.25</ele><time>2026-04-06T08:51:32Z</time></trkpt><trkpt lat="46.40378548744538" lon="13.378107232867194"><ele>517.5</ele><time>2026-04-06T08:51:33Z</time></trkpt><trkpt lat="46.40372497679722" lon="13.37828750137023"><ele>518.75</ele><time>2026-04-06T08:51:34Z</time></trkpt><trkpt lat="46.40362828039623" lon="13.378455503391486"><ele>520.0</ele><time>2026-04-06T08:51:35Z</time></trkpt><trkpt lat="46.403541139567054" lon="13.378607485459696"><ele>520.0</ele><time>2026-04-06T08:51:36Z</time></trkpt><trkpt lat="46.40348885714312" lon="13.378770590804775"><ele>520.0</ele><time>2026-04-06T08:51:37Z</time></trkpt><trkpt lat="46.40345967713272" lon="13.3789581797407"><ele>520.0</ele><time>2026-04-06T08:51:38Z</time></trkpt><trkpt lat="46.40345047468051" lon="13.379183315663692"><ele>520.0</ele><time>2026-04-06T08:51:39Z</time></trkpt><trkpt lat="46.403455275105365" lon="13.379436418475184"><ele>520.25</ele><time>2026-04-06T08:51:40Z</time></trkpt><trkpt lat="46.403446569259295" lon="13.37965041215966"><ele>520.5</ele><time>2026-04-06T08:51:41Z</time></trkpt><trkpt lat="46.403446159626576" lon="13.379858371656718"><ele>520.75</ele><time>2026-04-06T08:51:42Z</time></trkpt><trkpt lat="46.403438493697756" lon="13.380070197302036"><ele>521.0</ele><time>2026-04-06T08:51:43Z</time></trkpt><trkpt lat="46.403425539571444" lon="13.380300266164648"><ele>519.6666666666666</ele><time>2026-04-06T08:51:44Z</time></trkpt><trkpt lat="46.40340453997091" lon="13.380536134285721"><ele>518.3333333333334</ele><time>2026-04-06T08:51:45Z</time></trkpt><trkpt lat="46.40337939248765" lon="13.380786310606526"><ele>517.0</ele><time>2026-04-06T08:51:46Z</time></trkpt><trkpt lat="46.40335532606292" lon="13.381051584698193"><ele>517.0</ele><time>2026-04-06T08:51:47Z</time></trkpt><trkpt lat="46.4033360032691" lon="13.381324964216827"><ele>517.0</ele><time>2026-04-06T08:51:48Z</time></trkpt><trkpt lat="46.40331159839855" lon="13.38163022114939"><ele>517.0</ele><time>2026-04-06T08:51:49Z</time></trkpt><trkpt lat="46.403279086433685" lon="13.38192712854275"><ele>518.3333333333334</ele><time>2026-04-06T08:51:50Z</time></trkpt><trkpt lat="46.4032548989637" lon="13.382198660794518"><ele>519.6666666666666</ele><time>2026-04-06T08:51:51Z</time></trkpt><trkpt lat="46.40323450284195" lon="13.382451298747274"><ele>521.0</ele><time>2026-04-06T08:51:52Z</time></trkpt><trkpt lat="46.40321271791637" lon="13.382688122930174"><ele>521.0</ele><time>2026-04-06T08:51:53Z</time></trkpt><trkpt lat="46.4031900917679" lon="13.382945430270397"><ele>521.0</ele><time>2026-04-06T08:51:54Z</time></trkpt><trkpt lat="46.40316621123711" lon="13.383210817811003"><ele>521.0</ele><time>2026-04-06T08:51:55Z</time></trkpt><trkpt lat="46.40314170546994" lon="13.383497057791544"><ele>521.0</ele><time>2026-04-06T08:51:56Z</time></trkpt><trkpt lat="46.40311995211917" lon="13.383796247149958"><ele>521.0</ele><time>2026-04-06T08:51:57Z</time></trkpt><trkpt lat="46.403099662518215" lon="13.384076951936335"><ele>521.0</ele><time>2026-04-06T08:51:58Z</time></trkpt><trkpt lat="46.40308429487183" lon="13.384332991907495"><ele>520.6666666666666</ele><time>2026-04-06T08:51:59Z</time></trkpt><trkpt lat="46.40307048051282" lon="13.38458204240392"><ele>520.3333333333334</ele><time>2026-04-06T08:52:00Z</time></trkpt><trkpt lat="46.4030610494612" lon="13.384829991170122"><ele>520.0</ele><time>2026-04-06T08:52:01Z</time></trkpt><trkpt lat="46.403052452175416" lon="13.38508872925346"><ele>522.0</ele><time>2026-04-06T08:52:02Z</time></trkpt><trkpt lat="46.40305163391441" lon="13.38534195276086"><ele>524.0</ele><time>2026-04-06T08:52:03Z</time></trkpt><trkpt lat="46.40305292151936" lon="13.385566202386524"><ele>526.0</ele><time>2026-04-06T08:52:04Z</time></trkpt><trkpt lat="46.403046811097155" lon="13.385782972056909"><ele>526.5</ele><time>2026-04-06T08:52:05Z</time></trkpt><trkpt lat="46.40302068122554" lon="13.385983873314485"><ele>527.0</ele><time>2026-04-06T08:52:06Z</time></trkpt><trkpt lat="46.40295678752422" lon="13.38617161154823"><ele>527.5</ele><time>2026-04-06T08:52:07Z</time></trkpt><trkpt lat="46.40286402300929" lon="13.38635385488785"><ele>528.0</ele><time>2026-04-06T08:52:08Z</time></trkpt><trkpt lat="46.40276870856713" lon="13.386552378437873"><ele>528.6666666666666</ele><time>2026-04-06T08:52:09Z</time></trkpt><trkpt lat="46.402674517851025" lon="13.386765391787192"><ele>529.3333333333333</ele><time>2026-04-06T08:52:10Z</time></trkpt><trkpt lat="46.40258548482237" lon="13.386983299972863"><ele>530.0</ele><time>2026-04-06T08:52:11Z</time></trkpt><trkpt lat="46.40250176105456" lon="13.387183155797619"><ele>530.0</ele><time>2026-04-06T08:52:12Z</time></trkpt><trkpt lat="46.40241917979038" lon="13.38737398269358"><ele>530.0</ele><time>2026-04-06T08:52:13Z</time></trkpt><trkpt lat="46.40233424087427" lon="13.38756973510521"><ele>530.0</ele><time>2026-04-06T08:52:14Z</time></trkpt><trkpt lat="46.402251377321164" lon="13.387760838246843"><ele>530.0</ele><time>2026-04-06T08:52:15Z</time></trkpt><trkpt lat="46.40217556613472" lon="13.387964727344206"><ele>530.0</ele><time>2026-04-06T08:52:16Z</time></trkpt><trkpt lat="46.402117981686956" lon="13.388183041732155"><ele>530.0</ele><time>2026-04-06T08:52:17Z</time></trkpt><trkpt lat="46.40207104192649" lon="13.388409146879347"><ele>535.5</ele><time>2026-04-06T08:52:18Z</time></trkpt><trkpt lat="46.40202986381011" lon="13.388615389412552"><ele>541.0</ele><time>2026-04-06T08:52:19Z</time></trkpt><trkpt lat="46.401993210502994" lon="13.388800371039517"><ele>546.5</ele><time>2026-04-06T08:52:20Z</time></trkpt><trkpt lat="46.40197774099555" lon="13.38899081570886"><ele>552.0</ele><time>2026-04-06T08:52:21Z</time></trkpt><trkpt lat="46.40197788263828" lon="13.38919724674595"><ele>552.0</ele><time>2026-04-06T08:52:22Z</time></trkpt><trkpt lat="46.40199632748664" lon="13.389412258229429"><ele>552.0</ele><time>2026-04-06T08:52:23Z</time></trkpt><trkpt lat="46.40203090225435" lon="13.389634904332064"><ele>552.0</ele><time>2026-04-06T08:52:24Z</time></trkpt><trkpt lat="46.402072377088984" lon="13.389868155810776"><ele>551.3333333333334</ele><time>2026-04-06T08:52:25Z</time></trkpt><trkpt lat="46.402115712965234" lon="13.390111641511933"><ele>550.6666666666667</ele><time>2026-04-06T08:52:26Z</time></trkpt><trkpt lat="46.402159250120064" lon="13.39034922849262"><ele>550.0</ele><time>2026-04-06T08:52:27Z</time></trkpt><trkpt lat="46.4021959850954" lon="13.390561559832312"><ele>546.75</ele><time>2026-04-06T08:52:28Z</time></trkpt><trkpt lat="46.40223135798537" lon="13.390755539906571"><ele>543.5</ele><time>2026-04-06T08:52:29Z</time></trkpt><trkpt lat="46.402271621940436" lon="13.390952462835173"><ele>540.25</ele><time>2026-04-06T08:52:30Z</time></trkpt><trkpt lat="46.40230743262549" lon="13.391155425046414"><ele>537.0</ele><time>2026-04-06T08:52:31Z</time></trkpt><trkpt lat="46.40233993957922" lon="13.39136418195429"><ele>537.0</ele><time>2026-04-06T08:52:32Z</time></trkpt><trkpt lat="46.40235036733541" lon="13.391575087157408"><ele>537.0</ele><time>2026-04-06T08:52:33Z</time></trkpt><trkpt lat="46.40235265512417" lon="13.39179762231127"><ele>537.0</ele><time>2026-04-06T08:52:34Z</time></trkpt><trkpt lat="46.40234899951127" lon="13.392000004940558"><ele>537.0</ele><time>2026-04-06T08:52:35Z</time></trkpt><trkpt lat="46.402340561756304" lon="13.392180821114993"><ele>537.75</ele><time>2026-04-06T08:52:36Z</time></trkpt><trkpt lat="46.40232074024098" lon="13.392377351739531"><ele>538.5</ele><time>2026-04-06T08:52:37Z</time></trkpt><trkpt lat="46.402278756937775" lon="13.39258210312085"><ele>539.25</ele><time>2026-04-06T08:52:38Z</time></trkpt><trkpt lat="46.402219177314436" lon="13.392789053599707"><ele>540.0</ele><time>2026-04-06T08:52:39Z</time></trkpt><trkpt lat="46.40214226381337" lon="13.392998067938244"><ele>542.6666666666666</ele><time>2026-04-06T08:52:40Z</time></trkpt><trkpt lat="46.40206293982852" lon="13.393220481177016"><ele>545.3333333333333</ele><time>2026-04-06T08:52:41Z</time></trkpt><trkpt lat="46.40198487066942" lon="13.393446088475928"><ele>548.0</ele><time>2026-04-06T08:52:42Z</time></trkpt><trkpt lat="46.40191688937554" lon="13.393648570123212"><ele>548.0</ele><time>2026-04-06T08:52:43Z</time></trkpt><trkpt lat="46.40185373320103" lon="13.393836445511603"><ele>548.0</ele><time>2026-04-06T08:52:44Z</time></trkpt><trkpt lat="46.4017896218391" lon="13.394014203670523"><ele>548.0</ele><time>2026-04-06T08:52:45Z</time></trkpt><trkpt lat="46.401729996450285" lon="13.394193610149529"><ele>548.0</ele><time>2026-04-06T08:52:46Z</time></trkpt><trkpt lat="46.40168384321744" lon="13.394387846829527"><ele>548.0</ele><time>2026-04-06T08:52:47Z</time></trkpt><trkpt lat="46.401658194561755" lon="13.39461010393714"><ele>548.0</ele><time>2026-04-06T08:52:48Z</time></trkpt><trkpt lat="46.40164119430284" lon="13.394838655582872"><ele>548.0</ele><time>2026-04-06T08:52:49Z</time></trkpt><trkpt lat="46.40162112252856" lon="13.395052918631455"><ele>549.0</ele><time>2026-04-06T08:52:50Z</time></trkpt><trkpt lat="46.401609750495766" lon="13.395246471176671"><ele>550.0</ele><time>2026-04-06T08:52:51Z</time></trkpt><trkpt lat="46.401617808701914" lon="13.395444646001648"><ele>551.0</ele><time>2026-04-06T08:52:52Z</time></trkpt><trkpt lat="46.40165027866099" lon="13.39566475084518"><ele>552.0</ele><time>2026-04-06T08:52:53Z</time></trkpt><trkpt lat="46.40169131431168" lon="13.395876796687311"><ele>552.75</ele><time>2026-04-06T08:52:54Z</time></trkpt><trkpt lat="46.401721267762774" lon="13.396064579216475"><ele>553.5</ele><time>2026-04-06T08:52:55Z</time></trkpt><trkpt lat="46.40173807825726" lon="13.3962609457515"><ele>554.25</ele><time>2026-04-06T08:52:56Z</time></trkpt><trkpt lat="46.40175785862159" lon="13.396478244660134"><ele>555.0</ele><time>2026-04-06T08:52:57Z</time></trkpt><trkpt lat="46.40177034960321" lon="13.396715738400879"><ele>555.0</ele><time>2026-04-06T08:52:58Z</time></trkpt><trkpt lat="46.40177166190832" lon="13.396962982128672"><ele>555.0</ele><time>2026-04-06T08:52:59Z</time></trkpt><trkpt lat="46.401768178297026" lon="13.397203681008877"><ele>555.0</ele><time>2026-04-06T08:53:00Z</time></trkpt><trkpt lat="46.40176265612005" lon="13.397418620553564"><ele>555.0</ele><time>2026-04-06T08:53:01Z</time></trkpt><trkpt lat="46.40176076433191" lon="13.397615685793541"><ele>555.0</ele><time>2026-04-06T08:53:02Z</time></trkpt><trkpt lat="46.40175534593146" lon="13.397800083608622"><ele>555.0</ele><time>2026-04-06T08:53:03Z</time></trkpt><trkpt lat="46.40174672737502" lon="13.397965424594936"><ele>555.0</ele><time>2026-04-06T08:53:04Z</time></trkpt><trkpt lat="46.401726801203516" lon="13.398123837590916"><ele>554.0</ele><time>2026-04-06T08:53:05Z</time></trkpt><trkpt lat="46.40170673531286" lon="13.398273605331077"><ele>553.0</ele><time>2026-04-06T08:53:06Z</time></trkpt><trkpt lat="46.40169930291859" lon="13.398427837025519"><ele>552.0</ele><time>2026-04-06T08:53:07Z</time></trkpt><trkpt lat="46.40171361069192" lon="13.398593012850194"><ele>551.0</ele><time>2026-04-06T08:53:08Z</time></trkpt><trkpt lat="46.40173967471431" lon="13.398763491851026"><ele>550.0</ele><time>2026-04-06T08:53:09Z</time></trkpt><trkpt lat="46.40176336782489" lon="13.398950047953113"><ele>550.0</ele><time>2026-04-06T08:53:10Z</time></trkpt><trkpt lat="46.40178413883499" lon="13.399138864226096"><ele>550.0</ele><time>2026-04-06T08:53:11Z</time></trkpt><trkpt lat="46.40180484738068" lon="13.399337760333383"><ele>550.0</ele><time>2026-04-06T08:53:12Z</time></trkpt><trkpt lat="46.40182600337744" lon="13.399546228826463"><ele>550.0</ele><time>2026-04-06T08:53:13Z</time></trkpt><trkpt lat="46.40185933481606" lon="13.399768037030562"><ele>554.3333333333334</ele><time>2026-04-06T08:53:14Z</time></trkpt><trkpt lat="46.40189179349794" lon="13.399994425545067"><ele>558.6666666666666</ele><time>2026-04-06T08:53:15Z</time></trkpt><trkpt lat="46.401917147963864" lon="13.400212303323153"><ele>563.0</ele><time>2026-04-06T08:53:16Z</time></trkpt><trkpt lat="46.401941504534" lon="13.40040960803718"><ele>564.75</ele><time>2026-04-06T08:53:17Z</time></trkpt><trkpt lat="46.40196078732811" lon="13.400600732720982"><ele>566.5</ele><time>2026-04-06T08:53:18Z</time></trkpt><trkpt lat="46.40197942913435" lon="13.400779436398242"><ele>568.25</ele><time>2026-04-06T08:53:19Z</time></trkpt><trkpt lat="46.40198077475765" lon="13.400967441190147"><ele>570.0</ele><time>2026-04-06T08:53:20Z</time></trkpt><trkpt lat="46.401965731185804" lon="13.4011546790239"><ele>570.0</ele><time>2026-04-06T08:53:21Z</time></trkpt><trkpt lat="46.40194141883657" lon="13.401325017129444"><ele>570.0</ele><time>2026-04-06T08:53:22Z</time></trkpt><trkpt lat="46.40191976597939" lon="13.401471851735973"><ele>570.0</ele><time>2026-04-06T08:53:23Z</time></trkpt><trkpt lat="46.40190625978506" lon="13.401602244701081"><ele>570.0</ele><time>2026-04-06T08:53:24Z</time></trkpt><trkpt lat="46.40191825398603" lon="13.401716994988274"><ele>570.0</ele><time>2026-04-06T08:53:25Z</time></trkpt><trkpt lat="46.401967568639726" lon="13.401820466963125"><ele>569.8</ele><time>2026-04-06T08:53:26Z</time></trkpt><trkpt lat="46.402047968533076" lon="13.401897464020292"><ele>569.6</ele><time>2026-04-06T08:53:27Z</time></trkpt><trkpt lat="46.40214893849928" lon="13.401950611402837"><ele>569.4</ele><time>2026-04-06T08:53:28Z</time></trkpt><trkpt lat="46.40226415036654" lon="13.401978217121687"><ele>569.2</ele><time>2026-04-06T08:53:29Z</time></trkpt><trkpt lat="46.402369921488514" lon="13.401998123773422"><ele>569.0</ele><time>2026-04-06T08:53:30Z</time></trkpt><trkpt lat="46.40245960934757" lon="13.402027852818518"><ele>567.8</ele><time>2026-04-06T08:53:31Z</time></trkpt><trkpt lat="46.40253312658239" lon="13.402082131496657"><ele>566.5999999999999</ele><time>2026-04-06T08:53:32Z</time></trkpt><trkpt lat="46.40257711548884" lon="13.402187940319502"><ele>565.4</ele><time>2026-04-06T08:53:33Z</time></trkpt><trkpt lat="46.402584568252166" lon="13.40233856969104"><ele>564.1999999999999</ele><time>2026-04-06T08:53:34Z</time></trkpt><trkpt lat="46.402557832311714" lon="13.402510287874339"><ele>563.0</ele><time>2026-04-06T08:53:35Z</time></trkpt><trkpt lat="46.40251384377646" lon="13.402696212542363"><ele>563.0</ele><time>2026-04-06T08:53:36Z</time></trkpt><trkpt lat="46.40248267210023" lon="13.402890481400291"><ele>563.0</ele><time>2026-04-06T08:53:37Z</time></trkpt><trkpt lat="46.40246628968342" lon="13.40309903928377"><ele>563.0</ele><time>2026-04-06T08:53:38Z</time></trkpt><trkpt lat="46.40246796455547" lon="13.403338297247942"><ele>563.0</ele><time>2026-04-06T08:53:39Z</time></trkpt><trkpt lat="46.40246550883097" lon="13.403621909565485"><ele>568.5</ele><time>2026-04-06T08:53:40Z</time></trkpt><trkpt lat="46.402453919332125" lon="13.403928007852164"><ele>574.0</ele><time>2026-04-06T08:53:41Z</time></trkpt><trkpt lat="46.40242481231591" lon="13.404281120506964"><ele>577.0</ele><time>2026-04-06T08:53:42Z</time></trkpt><trkpt lat="46.40238865660712" lon="13.404681769873465"><ele>580.0</ele><time>2026-04-06T08:53:43Z</time></trkpt><trkpt lat="46.402361924380976" lon="13.405093316737979"><ele>580.0</ele><time>2026-04-06T08:53:44Z</time></trkpt><trkpt lat="46.402337403833414" lon="13.405460315479113"><ele>580.0</ele><time>2026-04-06T08:53:45Z</time></trkpt><trkpt lat="46.40231409007609" lon="13.405780455923601"><ele>581.0</ele><time>2026-04-06T08:53:46Z</time></trkpt><trkpt lat="46.40229057911734" lon="13.406077002960332"><ele>582.0</ele><time>2026-04-06T08:53:47Z</time></trkpt><trkpt lat="46.40226706493263" lon="13.40637200236555"><ele>583.0</ele><time>2026-04-06T08:53:48Z</time></trkpt><trkpt lat="46.402247119223695" lon="13.406671264457705"><ele>583.3333333333334</ele><time>2026-04-06T08:53:49Z</time></trkpt><trkpt lat="46.40222763807913" lon="13.40696973899008"><ele>583.6666666666666</ele><time>2026-04-06T08:53:50Z</time></trkpt><trkpt lat="46.402211842539224" lon="13.407260695081655"><ele>584.0</ele><time>2026-04-06T08:53:51Z</time></trkpt><trkpt lat="46.4021938368689" lon="13.407516019871016"><ele>586.3333333333333</ele><time>2026-04-06T08:53:52Z</time></trkpt><trkpt lat="46.40218730871903" lon="13.407772316449522"><ele>588.6666666666666</ele><time>2026-04-06T08:53:53Z</time></trkpt><trkpt lat="46.40219728193965" lon="13.408061743164131"><ele>591.0</ele><time>2026-04-06T08:53:54Z</time></trkpt><trkpt lat="46.402216346627995" lon="13.408375684306423"><ele>591.6666666666666</ele><time>2026-04-06T08:53:55Z</time></trkpt><trkpt lat="46.4022325568374" lon="13.40868432276912"><ele>592.3333333333333</ele><time>2026-04-06T08:53:56Z</time></trkpt><trkpt lat="46.40224623797781" lon="13.4089551029217"><ele>593.0</ele><time>2026-04-06T08:53:57Z</time></trkpt><trkpt lat="46.402258183442996" lon="13.409205511253552"><ele>593.0</ele><time>2026-04-06T08:53:58Z</time></trkpt><trkpt lat="46.40227159222294" lon="13.409453254034526"><ele>593.0</ele><time>2026-04-06T08:53:59Z</time></trkpt><trkpt lat="46.40228149856876" lon="13.40968615535204"><ele>593.0</ele><time>2026-04-06T08:54:00Z</time></trkpt><trkpt lat="46.4022789942041" lon="13.409920653844821"><ele>593.0</ele><time>2026-04-06T08:54:01Z</time></trkpt><trkpt lat="46.40226703667686" lon="13.410156806315133"><ele>593.0</ele><time>2026-04-06T08:54:02Z</time></trkpt><trkpt lat="46.402250835352596" lon="13.410382995627865"><ele>593.0</ele><time>2026-04-06T08:54:03Z</time></trkpt><trkpt lat="46.40223916397942" lon="13.410588661589554"><ele>593.0</ele><time>2026-04-06T08:54:04Z</time></trkpt><trkpt lat="46.402219603173315" lon="13.410778665220866"><ele>593.0</ele><time>2026-04-06T08:54:05Z</time></trkpt><trkpt lat="46.40218145680434" lon="13.410968757016581"><ele>593.0</ele><time>2026-04-06T08:54:06Z</time></trkpt><trkpt lat="46.402108886398885" lon="13.411151782915157"><ele>593.0</ele><time>2026-04-06T08:54:07Z</time></trkpt><trkpt lat="46.40203356659562" lon="13.411336005817951"><ele>590.5</ele><time>2026-04-06T08:54:08Z</time></trkpt><trkpt lat="46.401980698531894" lon="13.411501425044891"><ele>588.0</ele><time>2026-04-06T08:54:09Z</time></trkpt><trkpt lat="46.40193500491338" lon="13.411666811980174"><ele>585.5</ele><time>2026-04-06T08:54:10Z</time></trkpt><trkpt lat="46.40190089423788" lon="13.411845845569918"><ele>583.0</ele><time>2026-04-06T08:54:11Z</time></trkpt><trkpt lat="46.40189327611884" lon="13.41204560610518"><ele>584.6666666666667</ele><time>2026-04-06T08:54:12Z</time></trkpt><trkpt lat="46.401903223966805" lon="13.412269629580067"><ele>586.3333333333334</ele><time>2026-04-06T08:54:13Z</time></trkpt><trkpt lat="46.40192793828732" lon="13.412501878807882"><ele>588.0</ele><time>2026-04-06T08:54:14Z</time></trkpt><trkpt lat="46.40194502194706" lon="13.412750523583787"><ele>590.6666666666666</ele><time>2026-04-06T08:54:15Z</time></trkpt><trkpt lat="46.40195348565779" lon="13.413001797847977"><ele>593.3333333333333</ele><time>2026-04-06T08:54:16Z</time></trkpt><trkpt lat="46.40196011920399" lon="13.413234822393807"><ele>596.0</ele><time>2026-04-06T08:54:17Z</time></trkpt><trkpt lat="46.40197081056471" lon="13.413430762054666"><ele>596.0</ele><time>2026-04-06T08:54:18Z</time></trkpt><trkpt lat="46.40198354931991" lon="13.41360105809053"><ele>596.0</ele><time>2026-04-06T08:54:19Z</time></trkpt><trkpt lat="46.40200367594884" lon="13.41378593054665"><ele>596.0</ele><time>2026-04-06T08:54:20Z</time></trkpt><trkpt lat="46.40203164365789" lon="13.413986507872547"><ele>596.0</ele><time>2026-04-06T08:54:21Z</time></trkpt><trkpt lat="46.4020560035509" lon="13.414187869808293"><ele>596.25</ele><time>2026-04-06T08:54:22Z</time></trkpt><trkpt lat="46.4020815044246" lon="13.414379532970813"><ele>596.5</ele><time>2026-04-06T08:54:23Z</time></trkpt><trkpt lat="46.40209549316053" lon="13.41456009268225"><ele>596.75</ele><time>2026-04-06T08:54:24Z</time></trkpt><trkpt lat="46.402086764331585" lon="13.414754626390927"><ele>597.0</ele><time>2026-04-06T08:54:25Z</time></trkpt><trkpt lat="46.40203625347886" lon="13.414950513530766"><ele>597.0</ele><time>2026-04-06T08:54:26Z</time></trkpt><trkpt lat="46.40199381030891" lon="13.415130612600153"><ele>597.0</ele><time>2026-04-06T08:54:27Z</time></trkpt><trkpt lat="46.401913597144464" lon="13.415323809804741"><ele>597.0</ele><time>2026-04-06T08:54:28Z</time></trkpt><trkpt lat="46.40183078117079" lon="13.415533383662485"><ele>597.25</ele><time>2026-04-06T08:54:29Z</time></trkpt><trkpt lat="46.401744324228545" lon="13.415726237828089"><ele>597.5</ele><time>2026-04-06T08:54:30Z</time></trkpt><trkpt lat="46.40164866774708" lon="13.415878361896887"><ele>597.75</ele><time>2026-04-06T08:54:31Z</time></trkpt><trkpt lat="46.40154737540577" lon="13.415997716775706"><ele>598.0</ele><time>2026-04-06T08:54:32Z</time></trkpt><trkpt lat="46.40145193027326" lon="13.416104731628106"><ele>598.0</ele><time>2026-04-06T08:54:33Z</time></trkpt><trkpt lat="46.40138617548012" lon="13.416227234111545"><ele>598.0</ele><time>2026-04-06T08:54:34Z</time></trkpt><trkpt lat="46.401338965980116" lon="13.416368850625108"><ele>598.0</ele><time>2026-04-06T08:54:35Z</time></trkpt><trkpt lat="46.40131362617552" lon="13.416543451477898"><ele>598.0</ele><time>2026-04-06T08:54:36Z</time></trkpt><trkpt lat="46.401308239980445" lon="13.416725685186298"><ele>598.75</ele><time>2026-04-06T08:54:37Z</time></trkpt><trkpt lat="46.401318698415395" lon="13.416919156840393"><ele>599.5</ele><time>2026-04-06T08:54:38Z</time></trkpt><trkpt lat="46.40132958411169" lon="13.417125168604544"><ele>600.25</ele><time>2026-04-06T08:54:39Z</time></trkpt><trkpt lat="46.40134209255404" lon="13.417333199999238"><ele>601.0</ele><time>2026-04-06T08:54:40Z</time></trkpt><trkpt lat="46.401343875560705" lon="13.417517478491998"><ele>602.0</ele><time>2026-04-06T08:54:41Z</time></trkpt><trkpt lat="46.401348496395656" lon="13.417674289822981"><ele>603.0</ele><time>2026-04-06T08:54:42Z</time></trkpt><trkpt lat="46.401354990450734" lon="13.417816898772168"><ele>604.0</ele><time>2026-04-06T08:54:43Z</time></trkpt><trkpt lat="46.40135912276892" lon="13.417958387449387"><ele>605.0</ele><time>2026-04-06T08:54:44Z</time></trkpt><trkpt lat="46.401342057322374" lon="13.418110379286997"><ele>606.0</ele><time>2026-04-06T08:54:45Z</time></trkpt><trkpt lat="46.40130499278481" lon="13.418272432631522"><ele>606.25</ele><time>2026-04-06T08:54:46Z</time></trkpt><trkpt lat="46.40125825887732" lon="13.41843675515332"><ele>606.5</ele><time>2026-04-06T08:54:47Z</time></trkpt><trkpt lat="46.401213054992226" lon="13.418605276722152"><ele>606.75</ele><time>2026-04-06T08:54:48Z</time></trkpt><trkpt lat="46.401163211513804" lon="13.418759307695197"><ele>607.0</ele><time>2026-04-06T08:54:49Z</time></trkpt><trkpt lat="46.4011220989609" lon="13.418898901946585"><ele>607.0</ele><time>2026-04-06T08:54:50Z</time></trkpt><trkpt lat="46.40108373929038" lon="13.419028981995075"><ele>607.0</ele><time>2026-04-06T08:54:51Z</time></trkpt><trkpt lat="46.401039191422655" lon="13.419183775436307"><ele>607.0</ele><time>2026-04-06T08:54:52Z</time></trkpt><trkpt lat="46.40099303754321" lon="13.419349780241719"><ele>607.0</ele><time>2026-04-06T08:54:53Z</time></trkpt><trkpt lat="46.40094250924434" lon="13.419522342414318"><ele>607.25</ele><time>2026-04-06T08:54:54Z</time></trkpt><trkpt lat="46.400884149411695" lon="13.4196526498423"><ele>607.5</ele><time>2026-04-06T08:54:55Z</time></trkpt><trkpt lat="46.4008073303308" lon="13.419788289839934"><ele>607.75</ele><time>2026-04-06T08:54:56Z</time></trkpt><trkpt lat="46.40072126428884" lon="13.419910535752884"><ele>608.0</ele><time>2026-04-06T08:54:57Z</time></trkpt><trkpt lat="46.40062107708453" lon="13.420020726515245"><ele>608.0</ele><time>2026-04-06T08:54:58Z</time></trkpt><trkpt lat="46.40051903951326" lon="13.42014234344421"><ele>608.0</ele><time>2026-04-06T08:54:59Z</time></trkpt><trkpt lat="46.40040662815608" lon="13.420263004853402"><ele>608.0</ele><time>2026-04-06T08:55:00Z</time></trkpt><trkpt lat="46.40030843229833" lon="13.420384856105882"><ele>608.0</ele><time>2026-04-06T08:55:01Z</time></trkpt><trkpt lat="46.40021819618334" lon="13.420501254043153"><ele>608.75</ele><time>2026-04-06T08:55:02Z</time></trkpt><trkpt lat="46.40012461466479" lon="13.42061086808304"><ele>609.5</ele><time>2026-04-06T08:55:03Z</time></trkpt><trkpt lat="46.40002628969845" lon="13.42072117952983"><ele>610.25</ele><time>2026-04-06T08:55:04Z</time></trkpt><trkpt lat="46.399929962339094" lon="13.420843891517393"><ele>611.0</ele><time>2026-04-06T08:55:05Z</time></trkpt><trkpt lat="46.39984014162242" lon="13.420968231832676"><ele>611.0</ele><time>2026-04-06T08:55:06Z</time></trkpt><trkpt lat="46.39975170978493" lon="13.421102978696585"><ele>611.0</ele><time>2026-04-06T08:55:07Z</time></trkpt><trkpt lat="46.39967453496855" lon="13.42126288214084"><ele>611.0</ele><time>2026-04-06T08:55:08Z</time></trkpt><trkpt lat="46.399604728627814" lon="13.421445388596867"><ele>611.0</ele><time>2026-04-06T08:55:09Z</time></trkpt><trkpt lat="46.39954254301111" lon="13.421634995157294"><ele>613.75</ele><time>2026-04-06T08:55:10Z</time></trkpt><trkpt lat="46.39948600989991" lon="13.42179063742742"><ele>616.5</ele><time>2026-04-06T08:55:11Z</time></trkpt><trkpt lat="46.39943450573754" lon="13.42194494092896"><ele>619.25</ele><time>2026-04-06T08:55:12Z</time></trkpt><trkpt lat="46.399378760299996" lon="13.422101872236967"><ele>622.0</ele><time>2026-04-06T08:55:13Z</time></trkpt><trkpt lat="46.39932756440921" lon="13.422232197212962"><ele>622.25</ele><time>2026-04-06T08:55:14Z</time></trkpt><trkpt lat="46.3992762815132" lon="13.42236434538445"><ele>622.5</ele><time>2026-04-06T08:55:15Z</time></trkpt><trkpt lat="46.399226060612634" lon="13.422515207857279"><ele>622.75</ele><time>2026-04-06T08:55:16Z</time></trkpt><trkpt lat="46.39920037926106" lon="13.422685853532819"><ele>623.0</ele><time>2026-04-06T08:55:17Z</time></trkpt><trkpt lat="46.39919445013338" lon="13.422863828808618"><ele>624.5</ele><time>2026-04-06T08:55:18Z</time></trkpt><trkpt lat="46.39920699920146" lon="13.423055763244212"><ele>626.0</ele><time>2026-04-06T08:55:19Z</time></trkpt><trkpt lat="46.39922222291449" lon="13.423255975202535"><ele>627.5</ele><time>2026-04-06T08:55:20Z</time></trkpt><trkpt lat="46.39923281956922" lon="13.423428510479132"><ele>629.0</ele><time>2026-04-06T08:55:21Z</time></trkpt><trkpt lat="46.39924792961118" lon="13.423599326563822"><ele>629.0</ele><time>2026-04-06T08:55:22Z</time></trkpt><trkpt lat="46.39927502865484" lon="13.423760812476447"><ele>629.0</ele><time>2026-04-06T08:55:23Z</time></trkpt><trkpt lat="46.39932623932613" lon="13.423917697756302"><ele>629.0</ele><time>2026-04-06T08:55:24Z</time></trkpt><trkpt lat="46.399396467806646" lon="13.424078378215928"><ele>629.0</ele><time>2026-04-06T08:55:25Z</time></trkpt><trkpt lat="46.399474854134816" lon="13.424226440339538"><ele>630.5</ele><time>2026-04-06T08:55:26Z</time></trkpt><trkpt lat="46.39953090966381" lon="13.424378176589322"><ele>632.0</ele><time>2026-04-06T08:55:27Z</time></trkpt><trkpt lat="46.39954343920405" lon="13.424547771923649"><ele>633.5</ele><time>2026-04-06T08:55:28Z</time></trkpt><trkpt lat="46.399541305914944" lon="13.42474609096822"><ele>635.0</ele><time>2026-04-06T08:55:29Z</time></trkpt><trkpt lat="46.399527113709425" lon="13.424959686487941"><ele>636.0</ele><time>2026-04-06T08:55:30Z</time></trkpt><trkpt lat="46.39951794066158" lon="13.425174718461719"><ele>637.0</ele><time>2026-04-06T08:55:31Z</time></trkpt><trkpt lat="46.39951069316489" lon="13.425387326669615"><ele>638.0</ele><time>2026-04-06T08:55:32Z</time></trkpt><trkpt lat="46.3994900963714" lon="13.425599576923528"><ele>639.0</ele><time>2026-04-06T08:55:33Z</time></trkpt><trkpt lat="46.399452643884274" lon="13.425791984009685"><ele>639.0</ele><time>2026-04-06T08:55:34Z</time></trkpt><trkpt lat="46.39940492194242" lon="13.425976531029622"><ele>639.0</ele><time>2026-04-06T08:55:35Z</time></trkpt><trkpt lat="46.39936059130207" lon="13.426157348612566"><ele>639.0</ele><time>2026-04-06T08:55:36Z</time></trkpt><trkpt lat="46.399314420182485" lon="13.426329667806577"><ele>639.0</ele><time>2026-04-06T08:55:37Z</time></trkpt><trkpt lat="46.39924479291146" lon="13.42649167939232"><ele>637.6666666666666</ele><time>2026-04-06T08:55:38Z</time></trkpt><trkpt lat="46.3991585742334" lon="13.426661423633682"><ele>636.3333333333333</ele><time>2026-04-06T08:55:39Z</time></trkpt><trkpt lat="46.39906659840905" lon="13.426852958976792"><ele>635.0</ele><time>2026-04-06T08:55:40Z</time></trkpt><trkpt lat="46.39898263733329" lon="13.427062928012747"><ele>633.6666666666666</ele><time>2026-04-06T08:55:41Z</time></trkpt><trkpt lat="46.39888861396098" lon="13.427263098529025"><ele>632.3333333333334</ele><time>2026-04-06T08:55:42Z</time></trkpt><trkpt lat="46.39880375599549" lon="13.427441786332691"><ele>631.0</ele><time>2026-04-06T08:55:43Z</time></trkpt><trkpt lat="46.39872707826527" lon="13.427605712121311"><ele>631.0</ele><time>2026-04-06T08:55:44Z</time></trkpt><trkpt lat="46.39865085678454" lon="13.427762804290364"><ele>631.0</ele><time>2026-04-06T08:55:45Z</time></trkpt><trkpt lat="46.398567673697094" lon="13.427910676027995"><ele>631.0</ele><time>2026-04-06T08:55:46Z</time></trkpt><trkpt lat="46.39847351110148" lon="13.42807688683629"><ele>631.0</ele><time>2026-04-06T08:55:47Z</time></trkpt><trkpt lat="46.39838119755257" lon="13.42823375901401"><ele>633.75</ele><time>2026-04-06T08:55:48Z</time></trkpt><trkpt lat="46.39829864515558" lon="13.428374928684502"><ele>636.5</ele><time>2026-04-06T08:55:49Z</time></trkpt><trkpt lat="46.39822431830309" lon="13.428501438550313"><ele>639.25</ele><time>2026-04-06T08:55:50Z</time></trkpt><trkpt lat="46.39815133275544" lon="13.428626398590145"><ele>642.0</ele><time>2026-04-06T08:55:51Z</time></trkpt><trkpt lat="46.398070567441756" lon="13.428754630221416"><ele>643.2</ele><time>2026-04-06T08:55:52Z</time></trkpt><trkpt lat="46.398000019181815" lon="13.428892627779843"><ele>644.4000000000001</ele><time>2026-04-06T08:55:53Z</time></trkpt><trkpt lat="46.39794123575976" lon="13.429018982220684"><ele>645.5999999999999</ele><time>2026-04-06T08:55:54Z</time></trkpt><trkpt lat="46.397910149283945" lon="13.429137414493551"><ele>646.8</ele><time>2026-04-06T08:55:55Z</time></trkpt><trkpt lat="46.39790589184586" lon="13.429265360554995"><ele>648.0</ele><time>2026-04-06T08:55:56Z</time></trkpt><trkpt lat="46.39794711239134" lon="13.429389090051181"><ele>648.25</ele><time>2026-04-06T08:55:57Z</time></trkpt><trkpt lat="46.39800819189837" lon="13.429513511883597"><ele>648.5</ele><time>2026-04-06T08:55:58Z</time></trkpt><trkpt lat="46.39808526914999" lon="13.429636035245341"><ele>648.75</ele><time>2026-04-06T08:55:59Z</time></trkpt><trkpt lat="46.39815179892435" lon="13.42977878037313"><ele>649.0</ele><time>2026-04-06T08:56:00Z</time></trkpt><trkpt lat="46.39819391119256" lon="13.429948373728596"><ele>649.0</ele><time>2026-04-06T08:56:01Z</time></trkpt><trkpt lat="46.39822897007061" lon="13.430132041095339"><ele>649.0</ele><time>2026-04-06T08:56:02Z</time></trkpt><trkpt lat="46.398250462836224" lon="13.430305633463018"><ele>649.0</ele><time>2026-04-06T08:56:03Z</time></trkpt><trkpt lat="46.39824377998976" lon="13.430477438098183"><ele>649.0</ele><time>2026-04-06T08:56:04Z</time></trkpt><trkpt lat="46.39819489037839" lon="13.430649089802024"><ele>649.75</ele><time>2026-04-06T08:56:05Z</time></trkpt><trkpt lat="46.398124060389044" lon="13.430809515065263"><ele>650.5</ele><time>2026-04-06T08:56:06Z</time></trkpt><trkpt lat="46.39804357825175" lon="13.430956585458134"><ele>651.25</ele><time>2026-04-06T08:56:07Z</time></trkpt><trkpt lat="46.3979911606247" lon="13.431120830603685"><ele>652.0</ele><time>2026-04-06T08:56:08Z</time></trkpt><trkpt lat="46.39795533929739" lon="13.431309547733193"><ele>652.0</ele><time>2026-04-06T08:56:09Z</time></trkpt><trkpt lat="46.39792472096338" lon="13.431495794077822"><ele>652.0</ele><time>2026-04-06T08:56:10Z</time></trkpt><trkpt lat="46.39790034960269" lon="13.431657654096163"><ele>652.0</ele><time>2026-04-06T08:56:11Z</time></trkpt><trkpt lat="46.39787530889488" lon="13.431807281410562"><ele>652.0</ele><time>2026-04-06T08:56:12Z</time></trkpt><trkpt lat="46.39784484074589" lon="13.43193838299872"><ele>652.0</ele><time>2026-04-06T08:56:13Z</time></trkpt><trkpt lat="46.39779151987136" lon="13.432040290925691"><ele>657.0</ele><time>2026-04-06T08:56:14Z</time></trkpt><trkpt lat="46.39771760919607" lon="13.432140643061574"><ele>662.0</ele><time>2026-04-06T08:56:15Z</time></trkpt><trkpt lat="46.39763033498843" lon="13.432219657711057"><ele>667.0</ele><time>2026-04-06T08:56:16Z</time></trkpt><trkpt lat="46.397530840671884" lon="13.432285373295553"><ele>672.0</ele><time>2026-04-06T08:56:17Z</time></trkpt><trkpt lat="46.39742307210401" lon="13.432328466322984"><ele>677.0</ele><time>2026-04-06T08:56:18Z</time></trkpt><trkpt lat="46.3973057630151" lon="13.432340720940147"><ele>677.0</ele><time>2026-04-06T08:56:19Z</time></trkpt><trkpt lat="46.39718356007871" lon="13.432347284316002"><ele>677.0</ele><time>2026-04-06T08:56:20Z</time></trkpt><trkpt lat="46.39706565529542" lon="13.432359048152394"><ele>677.0</ele><time>2026-04-06T08:56:21Z</time></trkpt><trkpt lat="46.396962160403696" lon="13.432381146726373"><ele>677.0</ele><time>2026-04-06T08:56:22Z</time></trkpt><trkpt lat="46.39686099740766" lon="13.43240793927095"><ele>677.0</ele><time>2026-04-06T08:56:23Z</time></trkpt><trkpt lat="46.39676791012948" lon="13.432462887667171"><ele>676.6</ele><time>2026-04-06T08:56:24Z</time></trkpt><trkpt lat="46.39668953990509" lon="13.432551145534473"><ele>676.2</ele><time>2026-04-06T08:56:25Z</time></trkpt><trkpt lat="46.39663738166354" lon="13.432688697995387"><ele>675.8</ele><time>2026-04-06T08:56:26Z</time></trkpt><trkpt lat="46.39659200436673" lon="13.432843742986575"><ele>675.4</ele><time>2026-04-06T08:56:27Z</time></trkpt><trkpt lat="46.39653508941637" lon="13.432992785721604"><ele>675.0</ele><time>2026-04-06T08:56:28Z</time></trkpt><trkpt lat="46.396455119423564" lon="13.433127701240275"><ele>675.0</ele><time>2026-04-06T08:56:29Z</time></trkpt><trkpt lat="46.396370181321835" lon="13.433257251301525"><ele>675.0</ele><time>2026-04-06T08:56:30Z</time></trkpt><trkpt lat="46.39628306617315" lon="13.433386890129631"><ele>675.0</ele><time>2026-04-06T08:56:31Z</time></trkpt><trkpt lat="46.396190595128324" lon="13.433509356063356"><ele>675.0</ele><time>2026-04-06T08:56:32Z</time></trkpt><trkpt lat="46.39609299475303" lon="13.433621222346094"><ele>673.75</ele><time>2026-04-06T08:56:33Z</time></trkpt><trkpt lat="46.39599654849074" lon="13.43374324112731"><ele>672.5</ele><time>2026-04-06T08:56:34Z</time></trkpt><trkpt lat="46.395900902336365" lon="13.433869410151345"><ele>671.25</ele><time>2026-04-06T08:56:35Z</time></trkpt><trkpt lat="46.395809014500706" lon="13.433999152123343"><ele>670.0</ele><time>2026-04-06T08:56:36Z</time></trkpt><trkpt lat="46.39572757515336" lon="13.434115031419406"><ele>670.2</ele><time>2026-04-06T08:56:37Z</time></trkpt><trkpt lat="46.39565163941193" lon="13.434215377590895"><ele>670.4</ele><time>2026-04-06T08:56:38Z</time></trkpt><trkpt lat="46.395578299974964" lon="13.434301373796151"><ele>670.5999999999999</ele><time>2026-04-06T08:56:39Z</time></trkpt><trkpt lat="46.39550806826053" lon="13.434369561127136"><ele>670.8</ele><time>2026-04-06T08:56:40Z</time></trkpt><trkpt lat="46.39543603019978" lon="13.434432092755355"><ele>671.0</ele><time>2026-04-06T08:56:41Z</time></trkpt><trkpt lat="46.39535719283813" lon="13.43450400619176"><ele>671.0</ele><time>2026-04-06T08:56:42Z</time></trkpt><trkpt lat="46.39527943023568" lon="13.434579367382968"><ele>671.0</ele><time>2026-04-06T08:56:43Z</time></trkpt><trkpt lat="46.39521098687685" lon="13.434656421271844"><ele>671.0</ele><time>2026-04-06T08:56:44Z</time></trkpt><trkpt lat="46.395147224651225" lon="13.434719227392673"><ele>671.0</ele><time>2026-04-06T08:56:45Z</time></trkpt><trkpt lat="46.39507767960461" lon="13.434785618343746"><ele>671.0</ele><time>2026-04-06T08:56:46Z</time></trkpt><trkpt lat="46.39500875820248" lon="13.434859295307016"><ele>671.0</ele><time>2026-04-06T08:56:47Z</time></trkpt><trkpt lat="46.39495430895613" lon="13.434955867847615"><ele>671.0</ele><time>2026-04-06T08:56:48Z</time></trkpt><trkpt lat="46.39491433120462" lon="13.435071559048652"><ele>671.0</ele><time>2026-04-06T08:56:49Z</time></trkpt><trkpt lat="46.39489208740567" lon="13.435192738102797"><ele>671.0</ele><time>2026-04-06T08:56:50Z</time></trkpt><trkpt lat="46.394886787688215" lon="13.43532354285377"><ele>671.0</ele><time>2026-04-06T08:56:51Z</time></trkpt><trkpt lat="46.39490018569526" lon="13.43546158273321"><ele>671.0</ele><time>2026-04-06T08:56:52Z</time></trkpt><trkpt lat="46.39493621535431" lon="13.435594813249235"><ele>671.0</ele><time>2026-04-06T08:56:53Z</time></trkpt><trkpt lat="46.39499268762989" lon="13.435720329534146"><ele>671.0</ele><time>2026-04-06T08:56:54Z</time></trkpt><trkpt lat="46.395069819439975" lon="13.4358469197582"><ele>671.0</ele><time>2026-04-06T08:56:55Z</time></trkpt><trkpt lat="46.39516689325842" lon="13.435983342260302"><ele>671.0</ele><time>2026-04-06T08:56:56Z</time></trkpt><trkpt lat="46.39527709982142" lon="13.436139216199654"><ele>675.25</ele><time>2026-04-06T08:56:57Z</time></trkpt><trkpt lat="46.39538340747195" lon="13.436298465993328"><ele>679.5</ele><time>2026-04-06T08:56:58Z</time></trkpt><trkpt lat="46.39547219079939" lon="13.436431819856638"><ele>683.75</ele><time>2026-04-06T08:56:59Z</time></trkpt><trkpt lat="46.395557392155325" lon="13.436553331321145"><ele>688.0</ele><time>2026-04-06T08:57:00Z</time></trkpt><trkpt lat="46.39564217188374" lon="13.436678674695393"><ele>688.0</ele><time>2026-04-06T08:57:01Z</time></trkpt><trkpt lat="46.39571066078968" lon="13.436817231583454"><ele>688.0</ele><time>2026-04-06T08:57:02Z</time></trkpt><trkpt lat="46.395751436922005" lon="13.436974517645304"><ele>688.0</ele><time>2026-04-06T08:57:03Z</time></trkpt><trkpt lat="46.39576055349374" lon="13.437157971597644"><ele>688.0</ele><time>2026-04-06T08:57:04Z</time></trkpt><trkpt lat="46.39574150085982" lon="13.437344216922003"><ele>692.5</ele><time>2026-04-06T08:57:05Z</time></trkpt><trkpt lat="46.395705282750484" lon="13.437517397014597"><ele>697.0</ele><time>2026-04-06T08:57:06Z</time></trkpt><trkpt lat="46.3956451109421" lon="13.437663092876926"><ele>701.5</ele><time>2026-04-06T08:57:07Z</time></trkpt><trkpt lat="46.395559901246784" lon="13.43778291828804"><ele>706.0</ele><time>2026-04-06T08:57:08Z</time></trkpt><trkpt lat="46.39546191725604" lon="13.43788840053107"><ele>706.0</ele><time>2026-04-06T08:57:09Z</time></trkpt><trkpt lat="46.39535299012936" lon="13.438007188353456"><ele>706.0</ele><time>2026-04-06T08:57:10Z</time></trkpt><trkpt lat="46.39524562577089" lon="13.438134734533104"><ele>706.0</ele><time>2026-04-06T08:57:11Z</time></trkpt><trkpt lat="46.395149097592984" lon="13.438247960565057"><ele>706.0</ele><time>2026-04-06T08:57:12Z</time></trkpt><trkpt lat="46.395072102783956" lon="13.438342668461598"><ele>706.0</ele><time>2026-04-06T08:57:13Z</time></trkpt><trkpt lat="46.39499817550899" lon="13.438426234935692"><ele>706.0</ele><time>2026-04-06T08:57:14Z</time></trkpt><trkpt lat="46.39490902642916" lon="13.43851125244345"><ele>706.0</ele><time>2026-04-06T08:57:15Z</time></trkpt><trkpt lat="46.39481851071801" lon="13.438564593383148"><ele>706.0</ele><time>2026-04-06T08:57:16Z</time></trkpt><trkpt lat="46.39471941401338" lon="13.438583091214515"><ele>706.0</ele><time>2026-04-06T08:57:17Z</time></trkpt><trkpt lat="46.39461475793544" lon="13.438565461784892"><ele>706.0</ele><time>2026-04-06T08:57:18Z</time></trkpt><trkpt lat="46.39451521605068" lon="13.438498120689523"><ele>706.0</ele><time>2026-04-06T08:57:19Z</time></trkpt><trkpt lat="46.39442000151225" lon="13.438400288392927"><ele>706.0</ele><time>2026-04-06T08:57:20Z</time></trkpt><trkpt lat="46.394324406196866" lon="13.438297851598568"><ele>706.0</ele><time>2026-04-06T08:57:21Z</time></trkpt><trkpt lat="46.39422846539326" lon="13.438198230807973"><ele>706.0</ele><time>2026-04-06T08:57:22Z</time></trkpt><trkpt lat="46.39413813212907" lon="13.438106862800957"><ele>706.0</ele><time>2026-04-06T08:57:23Z</time></trkpt><trkpt lat="46.39405409427536" lon="13.438007871348592"><ele>706.0</ele><time>2026-04-06T08:57:24Z</time></trkpt><trkpt lat="46.3939898545385" lon="13.43787968155601"><ele>706.0</ele><time>2026-04-06T08:57:25Z</time></trkpt><trkpt lat="46.393951836705945" lon="13.437726245496142"><ele>706.0</ele><time>2026-04-06T08:57:26Z</time></trkpt><trkpt lat="46.39393368348002" lon="13.437579147683799"><ele>706.0</ele><time>2026-04-06T08:57:27Z</time></trkpt><trkpt lat="46.39391737813052" lon="13.437456510153375"><ele>706.0</ele><time>2026-04-06T08:57:28Z</time></trkpt><trkpt lat="46.393906107537816" lon="13.4373306685508"><ele>706.0</ele><time>2026-04-06T08:57:29Z</time></trkpt><trkpt lat="46.393890406298276" lon="13.43722173910906"><ele>706.0</ele><time>2026-04-06T08:57:30Z</time></trkpt><trkpt lat="46.39382802247294" lon="13.437080965504666"><ele>706.0</ele><time>2026-04-06T08:57:32Z</time></trkpt><trkpt lat="46.3937632455274" lon="13.437065788983718"><ele>706.0</ele><time>2026-04-06T08:57:33Z</time></trkpt><trkpt lat="46.39367837954552" lon="13.43719394704186"><ele>706.0</ele><time>2026-04-06T08:57:35Z</time></trkpt><trkpt lat="46.39368574129095" lon="13.437312584202768"><ele>706.0</ele><time>2026-04-06T08:57:36Z</time></trkpt><trkpt lat="46.39371730833669" lon="13.437453150576035"><ele>706.0</ele><time>2026-04-06T08:57:37Z</time></trkpt><trkpt lat="46.39374657583969" lon="13.437629059236622"><ele>706.0</ele><time>2026-04-06T08:57:38Z</time></trkpt><trkpt lat="46.393781585333755" lon="13.4378321678939"><ele>706.0</ele><time>2026-04-06T08:57:39Z</time></trkpt><trkpt lat="46.39381236739095" lon="13.438073362559225"><ele>706.0</ele><time>2026-04-06T08:57:40Z</time></trkpt><trkpt lat="46.39384210352382" lon="13.438324844661377"><ele>706.0</ele><time>2026-04-06T08:57:41Z</time></trkpt><trkpt lat="46.39387152833318" lon="13.43859103396138"><ele>706.0</ele><time>2026-04-06T08:57:42Z</time></trkpt><trkpt lat="46.39388712210402" lon="13.438833995536044"><ele>706.0</ele><time>2026-04-06T08:57:43Z</time></trkpt><trkpt lat="46.3938932383808" lon="13.439076362049025"><ele>706.0</ele><time>2026-04-06T08:57:44Z</time></trkpt><trkpt lat="46.39388644204448" lon="13.43929918070338"><ele>706.0</ele><time>2026-04-06T08:57:45Z</time></trkpt><trkpt lat="46.393866655549935" lon="13.439498182536498"><ele>706.0</ele><time>2026-04-06T08:57:46Z</time></trkpt><trkpt lat="46.39383185929075" lon="13.43969465653375"><ele>706.0</ele><time>2026-04-06T08:57:47Z</time></trkpt><trkpt lat="46.39377949596588" lon="13.43987812295257"><ele>706.0</ele><time>2026-04-06T08:57:48Z</time></trkpt><trkpt lat="46.39372064810021" lon="13.440036935393115"><ele>706.0</ele><time>2026-04-06T08:57:49Z</time></trkpt><trkpt lat="46.3936785479458" lon="13.440186785958963"><ele>706.0</ele><time>2026-04-06T08:57:50Z</time></trkpt><trkpt lat="46.39366415661732" lon="13.440342029522075"><ele>706.0</ele><time>2026-04-06T08:57:51Z</time></trkpt><trkpt lat="46.39367521368204" lon="13.440498788318248"><ele>706.0</ele><time>2026-04-06T08:57:52Z</time></trkpt><trkpt lat="46.39371829462145" lon="13.440648845401567"><ele>706.0</ele><time>2026-04-06T08:57:53Z</time></trkpt><trkpt lat="46.393793458091075" lon="13.440799540591842"><ele>706.0</ele><time>2026-04-06T08:57:54Z</time></trkpt><trkpt lat="46.39388995747179" lon="13.440962490081835"><ele>706.0</ele><time>2026-04-06T08:57:55Z</time></trkpt><trkpt lat="46.39399208749303" lon="13.441131496241894"><ele>706.0</ele><time>2026-04-06T08:57:56Z</time></trkpt><trkpt lat="46.394084196454074" lon="13.44128513182064"><ele>706.0</ele><time>2026-04-06T08:57:57Z</time></trkpt><trkpt lat="46.394165510158786" lon="13.44143009579505"><ele>706.0</ele><time>2026-04-06T08:57:58Z</time></trkpt><trkpt lat="46.394237498420146" lon="13.44155469868807"><ele>706.0</ele><time>2026-04-06T08:57:59Z</time></trkpt><trkpt lat="46.39431727502364" lon="13.44167970336121"><ele>706.0</ele><time>2026-04-06T08:58:00Z</time></trkpt><trkpt lat="46.39440060171472" lon="13.441808168620604"><ele>706.0</ele><time>2026-04-06T08:58:01Z</time></trkpt><trkpt lat="46.394464923838235" lon="13.441942726707953"><ele>706.0</ele><time>2026-04-06T08:58:02Z</time></trkpt><trkpt lat="46.39450797133448" lon="13.442101916436545"><ele>706.0</ele><time>2026-04-06T08:58:03Z</time></trkpt><trkpt lat="46.39453397475546" lon="13.442278794274431"><ele>706.0</ele><time>2026-04-06T08:58:04Z</time></trkpt><trkpt lat="46.39453165111583" lon="13.442462276672115"><ele>706.0</ele><time>2026-04-06T08:58:05Z</time></trkpt><trkpt lat="46.39449833437312" lon="13.442652516224971"><ele>706.0</ele><time>2026-04-06T08:58:06Z</time></trkpt><trkpt lat="46.394441572702284" lon="13.442833742258882"><ele>706.0</ele><time>2026-04-06T08:58:07Z</time></trkpt><trkpt lat="46.394415283532766" lon="13.443004327114092"><ele>706.0</ele><time>2026-04-06T08:58:08Z</time></trkpt><trkpt lat="46.394418847522665" lon="13.44321500793981"><ele>706.0</ele><time>2026-04-06T08:58:09Z</time></trkpt><trkpt lat="46.39445000456233" lon="13.44344322783023"><ele>706.0</ele><time>2026-04-06T08:58:10Z</time></trkpt><trkpt lat="46.394487881231086" lon="13.443678442391212"><ele>706.0</ele><time>2026-04-06T08:58:11Z</time></trkpt><trkpt lat="46.39451824796424" lon="13.443906324041476"><ele>706.0</ele><time>2026-04-06T08:58:12Z</time></trkpt><trkpt lat="46.394547310563944" lon="13.444115647403002"><ele>706.0</ele><time>2026-04-06T08:58:13Z</time></trkpt><trkpt lat="46.39459279433165" lon="13.444321190910701"><ele>706.0</ele><time>2026-04-06T08:58:14Z</time></trkpt><trkpt lat="46.394646833527105" lon="13.444524901407117"><ele>706.0</ele><time>2026-04-06T08:58:15Z</time></trkpt><trkpt lat="46.39469963323809" lon="13.444700477364565"><ele>706.0</ele><time>2026-04-06T08:58:16Z</time></trkpt><trkpt lat="46.394750916679705" lon="13.444866406536068"><ele>728.5</ele><time>2026-04-06T08:58:17Z</time></trkpt><trkpt lat="46.39479534766343" lon="13.445023965957272"><ele>751.0</ele><time>2026-04-06T08:58:18Z</time></trkpt><trkpt lat="46.39484111876493" lon="13.445183838481308"><ele>773.5</ele><time>2026-04-06T08:58:19Z</time></trkpt><trkpt lat="46.39487832925908" lon="13.445365637648283"><ele>796.0</ele><time>2026-04-06T08:58:20Z</time></trkpt><trkpt lat="46.394915467510465" lon="13.4455700119531"><ele>796.0</ele><time>2026-04-06T08:58:21Z</time></trkpt><trkpt lat="46.39494260059971" lon="13.445789591286946"><ele>796.0</ele><time>2026-04-06T08:58:22Z</time></trkpt><trkpt lat="46.394969187216425" lon="13.445980729821692"><ele>796.0</ele><time>2026-04-06T08:58:23Z</time></trkpt><trkpt lat="46.39498415598245" lon="13.446171466178841"><ele>796.0</ele><time>2026-04-06T08:58:24Z</time></trkpt><trkpt lat="46.395002939656756" lon="13.446337890832956"><ele>796.75</ele><time>2026-04-06T08:58:25Z</time></trkpt><trkpt lat="46.395020620810065" lon="13.446488179988721"><ele>797.5</ele><time>2026-04-06T08:58:26Z</time></trkpt><trkpt lat="46.39502976001748" lon="13.446652512085024"><ele>798.25</ele><time>2026-04-06T08:58:27Z</time></trkpt><trkpt lat="46.39503113380739" lon="13.446846148503703"><ele>799.0</ele><time>2026-04-06T08:58:28Z</time></trkpt><trkpt lat="46.39501403575541" lon="13.447055320798396"><ele>800.6666666666666</ele><time>2026-04-06T08:58:29Z</time></trkpt><trkpt lat="46.39498529102062" lon="13.447276444620211"><ele>802.3333333333333</ele><time>2026-04-06T08:58:30Z</time></trkpt><trkpt lat="46.39494473048457" lon="13.447513333446826"><ele>804.0</ele><time>2026-04-06T08:58:31Z</time></trkpt><trkpt lat="46.39490101546903" lon="13.447764076726873"><ele>804.0</ele><time>2026-04-06T08:58:32Z</time></trkpt><trkpt lat="46.39486287474996" lon="13.44801938716"><ele>804.0</ele><time>2026-04-06T08:58:33Z</time></trkpt><trkpt lat="46.394829121729224" lon="13.448240502182582"><ele>804.0</ele><time>2026-04-06T08:58:34Z</time></trkpt><trkpt lat="46.39480433598292" lon="13.448458264434155"><ele>804.0</ele><time>2026-04-06T08:58:35Z</time></trkpt><trkpt lat="46.39479453014967" lon="13.44868218419765"><ele>804.0</ele><time>2026-04-06T08:58:36Z</time></trkpt><trkpt lat="46.39480478290535" lon="13.44892999295274"><ele>804.0</ele><time>2026-04-06T08:58:37Z</time></trkpt><trkpt lat="46.39481888637816" lon="13.449189273459815"><ele>808.0</ele><time>2026-04-06T08:58:38Z</time></trkpt><trkpt lat="46.394829490453596" lon="13.449427531669535"><ele>812.0</ele><time>2026-04-06T08:58:39Z</time></trkpt><trkpt lat="46.39484075149886" lon="13.449647293045908"><ele>816.0</ele><time>2026-04-06T08:58:40Z</time></trkpt><trkpt lat="46.39485488094171" lon="13.449857288953847"><ele>816.25</ele><time>2026-04-06T08:58:41Z</time></trkpt><trkpt lat="46.39486369394614" lon="13.450043539979196"><ele>816.5</ele><time>2026-04-06T08:58:42Z</time></trkpt><trkpt lat="46.39488203678466" lon="13.450243062631834"><ele>816.75</ele><time>2026-04-06T08:58:43Z</time></trkpt><trkpt lat="46.39492516494237" lon="13.450450907123358"><ele>817.0</ele><time>2026-04-06T08:58:44Z</time></trkpt><trkpt lat="46.394988543975465" lon="13.4506721950747"><ele>819.5</ele><time>2026-04-06T08:58:45Z</time></trkpt><trkpt lat="46.39505530207706" lon="13.450865647927252"><ele>822.0</ele><time>2026-04-06T08:58:46Z</time></trkpt><trkpt lat="46.39511632356061" lon="13.451031511615637"><ele>824.5</ele><time>2026-04-06T08:58:47Z</time></trkpt><trkpt lat="46.39517161370765" lon="13.451179532471393"><ele>827.0</ele><time>2026-04-06T08:58:48Z</time></trkpt><trkpt lat="46.395207062605806" lon="13.451310494814997"><ele>827.8</ele><time>2026-04-06T08:58:49Z</time></trkpt><trkpt lat="46.39522465430103" lon="13.451422227425773"><ele>828.6</ele><time>2026-04-06T08:58:50Z</time></trkpt><trkpt lat="46.395232131243795" lon="13.451617192445536"><ele>829.4</ele><time>2026-04-06T08:58:52Z</time></trkpt><trkpt lat="46.395225189474246" lon="13.451769661499531"><ele>830.1999999999999</ele><time>2026-04-06T08:58:53Z</time></trkpt><trkpt lat="46.39520009560191" lon="13.451948555177271"><ele>831.0</ele><time>2026-04-06T08:58:54Z</time></trkpt><trkpt lat="46.39516961334721" lon="13.452163623593647"><ele>831.0</ele><time>2026-04-06T08:58:55Z</time></trkpt><trkpt lat="46.39514170337844" lon="13.452378050949784"><ele>831.0</ele><time>2026-04-06T08:58:56Z</time></trkpt><trkpt lat="46.395076792040136" lon="13.452595810730118"><ele>831.0</ele><time>2026-04-06T08:58:57Z</time></trkpt><trkpt lat="46.39501069497504" lon="13.45280992107504"><ele>830.0</ele><time>2026-04-06T08:58:58Z</time></trkpt><trkpt lat="46.39494204075644" lon="13.45303295228724"><ele>829.0</ele><time>2026-04-06T08:58:59Z</time></trkpt><trkpt lat="46.394878456879184" lon="13.453237794387785"><ele>828.0</ele><time>2026-04-06T08:59:00Z</time></trkpt><trkpt lat="46.394812867993686" lon="13.453412901201565"><ele>828.0</ele><time>2026-04-06T08:59:01Z</time></trkpt><trkpt lat="46.3947459984009" lon="13.45357890810885"><ele>828.0</ele><time>2026-04-06T08:59:02Z</time></trkpt><trkpt lat="46.39467721524317" lon="13.453743882757372"><ele>828.0</ele><time>2026-04-06T08:59:03Z</time></trkpt><trkpt lat="46.39461053215868" lon="13.45389847948467"><ele>828.0</ele><time>2026-04-06T08:59:04Z</time></trkpt><trkpt lat="46.39454426681875" lon="13.454065422657278"><ele>832.75</ele><time>2026-04-06T08:59:05Z</time></trkpt><trkpt lat="46.394471196281174" lon="13.454233791261968"><ele>837.5</ele><time>2026-04-06T08:59:06Z</time></trkpt><trkpt lat="46.39439406253831" lon="13.454388058697413"><ele>842.25</ele><time>2026-04-06T08:59:07Z</time></trkpt><trkpt lat="46.39432403691381" lon="13.454517970801886"><ele>847.0</ele><time>2026-04-06T08:59:08Z</time></trkpt><trkpt lat="46.394247197280954" lon="13.454626411989386"><ele>847.0</ele><time>2026-04-06T08:59:09Z</time></trkpt><trkpt lat="46.39417191602354" lon="13.454726645055416"><ele>847.0</ele><time>2026-04-06T08:59:10Z</time></trkpt><trkpt lat="46.39409898115013" lon="13.454846546073714"><ele>847.0</ele><time>2026-04-06T08:59:11Z</time></trkpt><trkpt lat="46.394048140136896" lon="13.45500570553844"><ele>847.0</ele><time>2026-04-06T08:59:12Z</time></trkpt><trkpt lat="46.394015431176214" lon="13.455199252692902"><ele>847.0</ele><time>2026-04-06T08:59:13Z</time></trkpt><trkpt lat="46.3939887958702" lon="13.455402757450761"><ele>847.0</ele><time>2026-04-06T08:59:14Z</time></trkpt><trkpt lat="46.393959084255556" lon="13.455592048955252"><ele>847.0</ele><time>2026-04-06T08:59:15Z</time></trkpt><trkpt lat="46.39393532662135" lon="13.455758535346908"><ele>847.0</ele><time>2026-04-06T08:59:16Z</time></trkpt><trkpt lat="46.3939093960046" lon="13.455921074297391"><ele>846.75</ele><time>2026-04-06T08:59:17Z</time></trkpt><trkpt lat="46.393857496057386" lon="13.456062461788932"><ele>846.5</ele><time>2026-04-06T08:59:18Z</time></trkpt><trkpt lat="46.39380870310658" lon="13.456232430062325"><ele>846.25</ele><time>2026-04-06T08:59:19Z</time></trkpt><trkpt lat="46.39374912981912" lon="13.456394920877266"><ele>846.0</ele><time>2026-04-06T08:59:20Z</time></trkpt><trkpt lat="46.393701077566014" lon="13.456554406389078"><ele>847.8</ele><time>2026-04-06T08:59:21Z</time></trkpt><trkpt lat="46.3936606952039" lon="13.456692644248655"><ele>849.5999999999999</ele><time>2026-04-06T08:59:22Z</time></trkpt><trkpt lat="46.393640079109126" lon="13.45682839096654"><ele>851.4</ele><time>2026-04-06T08:59:23Z</time></trkpt><trkpt lat="46.39364761522863" lon="13.45697554254847"><ele>853.2</ele><time>2026-04-06T08:59:24Z</time></trkpt><trkpt lat="46.39366624309869" lon="13.457139382399568"><ele>855.0</ele><time>2026-04-06T08:59:25Z</time></trkpt><trkpt lat="46.393687181689415" lon="13.457307684357005"><ele>855.0</ele><time>2026-04-06T08:59:26Z</time></trkpt><trkpt lat="46.39370393206014" lon="13.457478864937345"><ele>855.0</ele><time>2026-04-06T08:59:27Z</time></trkpt><trkpt lat="46.39371936443022" lon="13.457651745663659"><ele>855.0</ele><time>2026-04-06T08:59:28Z</time></trkpt><trkpt lat="46.39373593987218" lon="13.45781543357575"><ele>855.0</ele><time>2026-04-06T08:59:29Z</time></trkpt><trkpt lat="46.393749554184524" lon="13.457964261152103"><ele>854.4</ele><time>2026-04-06T08:59:30Z</time></trkpt><trkpt lat="46.39375640832462" lon="13.458118269187578"><ele>853.8</ele><time>2026-04-06T08:59:31Z</time></trkpt><trkpt lat="46.39374894481686" lon="13.458270868770883"><ele>853.2</ele><time>2026-04-06T08:59:32Z</time></trkpt><trkpt lat="46.39373104032646" lon="13.45841379334765"><ele>852.6</ele><time>2026-04-06T08:59:33Z</time></trkpt><trkpt lat="46.393705475950455" lon="13.458547373298025"><ele>852.0</ele><time>2026-04-06T08:59:34Z</time></trkpt><trkpt lat="46.39367845989187" lon="13.458675502978913"><ele>854.0</ele><time>2026-04-06T08:59:35Z</time></trkpt><trkpt lat="46.393653483851146" lon="13.458806108304529"><ele>856.0</ele><time>2026-04-06T08:59:36Z</time></trkpt><trkpt lat="46.39362399572388" lon="13.458936242925608"><ele>858.0</ele><time>2026-04-06T08:59:37Z</time></trkpt><trkpt lat="46.39358709904024" lon="13.45906934993301"><ele>860.0</ele><time>2026-04-06T08:59:38.077Z</time></trkpt><trkpt lat="46.39355118063609" lon="13.459180963114758"><ele>862.0</ele><time>2026-04-06T08:59:39.055Z</time></trkpt><trkpt lat="46.39350549214585" lon="13.45929097736312"><ele>860.0</ele><time>2026-04-06T08:59:40.061Z</time></trkpt><trkpt lat="46.39286389613744" lon="13.460423152477288"><ele>863.25</ele><time>2026-04-06T08:59:47Z</time></trkpt><trkpt lat="46.392756535842814" lon="13.460565638880185"><ele>866.5</ele><time>2026-04-06T08:59:48Z</time></trkpt><trkpt lat="46.392646560728906" lon="13.460750554817409"><ele>869.75</ele><time>2026-04-06T08:59:49Z</time></trkpt><trkpt lat="46.39256155161667" lon="13.460902619540791"><ele>873.0</ele><time>2026-04-06T08:59:50Z</time></trkpt><trkpt lat="46.39249243179696" lon="13.461070080256036"><ele>873.0</ele><time>2026-04-06T08:59:51Z</time></trkpt><trkpt lat="46.392422261821594" lon="13.461238835483611"><ele>873.0</ele><time>2026-04-06T08:59:52Z</time></trkpt><trkpt lat="46.392329104668796" lon="13.461341979400249"><ele>873.0</ele><time>2026-04-06T08:59:53Z</time></trkpt><trkpt lat="46.392263793144046" lon="13.46143972068333"><ele>873.0</ele><time>2026-04-06T08:59:54Z</time></trkpt><trkpt lat="46.39219593677468" lon="13.46153968376138"><ele>873.0</ele><time>2026-04-06T08:59:55Z</time></trkpt><trkpt lat="46.39212340294501" lon="13.46161746956065"><ele>874.4</ele><time>2026-04-06T08:59:56Z</time></trkpt><trkpt lat="46.39204503135291" lon="13.461682423611864"><ele>875.8</ele><time>2026-04-06T08:59:57Z</time></trkpt><trkpt lat="46.391960759296985" lon="13.461745613093749"><ele>877.2</ele><time>2026-04-06T08:59:58Z</time></trkpt><trkpt lat="46.391866738865076" lon="13.461809643277086"><ele>878.6</ele><time>2026-04-06T08:59:59Z</time></trkpt><trkpt lat="46.391769330336516" lon="13.461868796406707"><ele>880.0</ele><time>2026-04-06T09:00:00Z</time></trkpt><trkpt lat="46.39167269170647" lon="13.46193283419283"><ele>880.0</ele><time>2026-04-06T09:00:01Z</time></trkpt><trkpt lat="46.39157573403438" lon="13.462036733261822"><ele>880.0</ele><time>2026-04-06T09:00:02Z</time></trkpt><trkpt lat="46.391491139028446" lon="13.46217936947689"><ele>880.0</ele><time>2026-04-06T09:00:03Z</time></trkpt><trkpt lat="46.39140454154967" lon="13.46235546464797"><ele>880.0</ele><time>2026-04-06T09:00:04Z</time></trkpt><trkpt lat="46.39131874144354" lon="13.462560275750834"><ele>880.3333333333333</ele><time>2026-04-06T09:00:05Z</time></trkpt><trkpt lat="46.39123414206141" lon="13.462779702533998"><ele>880.6666666666667</ele><time>2026-04-06T09:00:06Z</time></trkpt><trkpt lat="46.391134700768575" lon="13.463005244581934"><ele>881.0</ele><time>2026-04-06T09:00:07Z</time></trkpt><trkpt lat="46.39103147017819" lon="13.463230262997367"><ele>886.0</ele><time>2026-04-06T09:00:08Z</time></trkpt><trkpt lat="46.39094488799987" lon="13.463434032227514"><ele>891.0</ele><time>2026-04-06T09:00:09Z</time></trkpt><trkpt lat="46.39086715066381" lon="13.463616528806416"><ele>896.0</ele><time>2026-04-06T09:00:10Z</time></trkpt><trkpt lat="46.39079247676431" lon="13.46379997446309"><ele>900.5</ele><time>2026-04-06T09:00:11Z</time></trkpt><trkpt lat="46.39071465850232" lon="13.463992673107404"><ele>905.0</ele><time>2026-04-06T09:00:12Z</time></trkpt><trkpt lat="46.39063654656907" lon="13.464177299089863"><ele>909.5</ele><time>2026-04-06T09:00:13Z</time></trkpt><trkpt lat="46.39056935549724" lon="13.464337455111494"><ele>914.0</ele><time>2026-04-06T09:00:14Z</time></trkpt><trkpt lat="46.390509306957526" lon="13.464481541264012"><ele>915.6</ele><time>2026-04-06T09:00:15Z</time></trkpt><trkpt lat="46.390444994995974" lon="13.464621058227172"><ele>917.2</ele><time>2026-04-06T09:00:16Z</time></trkpt><trkpt lat="46.39037916784549" lon="13.464746703268597"><ele>918.8000000000001</ele><time>2026-04-06T09:00:17Z</time></trkpt><trkpt lat="46.390302526908464" lon="13.464832815847176"><ele>920.4000000000001</ele><time>2026-04-06T09:00:18Z</time></trkpt><trkpt lat="46.390214930665906" lon="13.464872298887348"><ele>922.0</ele><time>2026-04-06T09:00:19Z</time></trkpt><trkpt lat="46.39013841456535" lon="13.464885011330713"><ele>922.0</ele><time>2026-04-06T09:00:20Z</time></trkpt><trkpt lat="46.39007539592733" lon="13.464912371048923"><ele>922.0000000000001</ele><time>2026-04-06T09:00:21Z</time></trkpt><trkpt lat="46.39002776424346" lon="13.464975927084472"><ele>922.0</ele><time>2026-04-06T09:00:22Z</time></trkpt><trkpt lat="46.39000841827753" lon="13.465075955297438"><ele>922.0</ele><time>2026-04-06T09:00:23Z</time></trkpt><trkpt lat="46.39002217284933" lon="13.465183933781121"><ele>922.0000000000001</ele><time>2026-04-06T09:00:24Z</time></trkpt><trkpt lat="46.390052362161946" lon="13.46527826695143"><ele>922.0</ele><time>2026-04-06T09:00:25Z</time></trkpt><trkpt lat="46.390129036586615" lon="13.465338707911293"><ele>922.0</ele><time>2026-04-06T09:00:26Z</time></trkpt><trkpt lat="46.390215528194744" lon="13.465323049142297"><ele>922.0</ele><time>2026-04-06T09:00:27Z</time></trkpt><trkpt lat="46.39029855990281" lon="13.465205303133704"><ele>922.0</ele><time>2026-04-06T09:00:28Z</time></trkpt><trkpt lat="46.390404164132605" lon="13.465106730530117"><ele>922.0</ele><time>2026-04-06T09:00:29Z</time></trkpt><trkpt lat="46.39050004460096" lon="13.46495025943863"><ele>922.0</ele><time>2026-04-06T09:00:30Z</time></trkpt><trkpt lat="46.39058841420383" lon="13.46478226612989"><ele>920.0</ele><time>2026-04-06T09:00:31Z</time></trkpt><trkpt lat="46.390669972641895" lon="13.464645977289816"><ele>918.0</ele><time>2026-04-06T09:00:32Z</time></trkpt><trkpt lat="46.39076208466167" lon="13.4645186235595"><ele>916.0</ele><time>2026-04-06T09:00:33Z</time></trkpt><trkpt lat="46.39087590777232" lon="13.46438802783692"><ele>914.0</ele><time>2026-04-06T09:00:34Z</time></trkpt><trkpt lat="46.39101860387137" lon="13.46425849569624"><ele>914.0</ele><time>2026-04-06T09:00:35.001Z</time></trkpt><trkpt lat="46.3911542463477" lon="13.464130802971896"><ele>914.0</ele><time>2026-04-06T09:00:36.001Z</time></trkpt><trkpt lat="46.39129590639305" lon="13.464002395974378"><ele>914.0</ele><time>2026-04-06T09:00:37.001Z</time></trkpt><trkpt lat="46.391433214200056" lon="13.463878288750074"><ele>915.5</ele><time>2026-04-06T09:00:38.001Z</time></trkpt><trkpt lat="46.3915599678105" lon="13.463768051486376"><ele>917.0</ele><time>2026-04-06T09:00:39.001Z</time></trkpt><trkpt lat="46.39169220315766" lon="13.463656269645584"><ele>918.5</ele><time>2026-04-06T09:00:40.001Z</time></trkpt><trkpt lat="46.39181782857983" lon="13.463558153243342"><ele>920.0</ele><time>2026-04-06T09:00:41.001Z</time></trkpt><trkpt lat="46.39194149707357" lon="13.463477439756502"><ele>920.0</ele><time>2026-04-06T09:00:42.001Z</time></trkpt><trkpt lat="46.39206904658984" lon="13.463420737047375"><ele>920.0</ele><time>2026-04-06T09:00:43.001Z</time></trkpt><trkpt lat="46.392194296541554" lon="13.463350742735805"><ele>920.0</ele><time>2026-04-06T09:00:44.001Z</time></trkpt><trkpt lat="46.392301349286036" lon="13.463243735481917"><ele>920.0</ele><time>2026-04-06T09:00:45.001Z</time></trkpt><trkpt lat="46.39241129010178" lon="13.46317779797392"><ele>921.5</ele><time>2026-04-06T09:00:46.001Z</time></trkpt><trkpt lat="46.39253094288461" lon="13.463077694564424"><ele>923.0</ele><time>2026-04-06T09:00:47.001Z</time></trkpt><trkpt lat="46.392661043410754" lon="13.46297313197389"><ele>924.5</ele><time>2026-04-06T09:00:48.001Z</time></trkpt><trkpt lat="46.39279338157598" lon="13.462868962530681"><ele>926.0</ele><time>2026-04-06T09:00:49.001Z</time></trkpt><trkpt lat="46.39291100614201" lon="13.462776372949758"><ele>937.25</ele><time>2026-04-06T09:00:50.001Z</time></trkpt><trkpt lat="46.393024631078355" lon="13.462680324385898"><ele>948.5</ele><time>2026-04-06T09:00:51.001Z</time></trkpt><trkpt lat="46.3931224744254" lon="13.462547956297191"><ele>959.75</ele><time>2026-04-06T09:00:52.001Z</time></trkpt><trkpt lat="46.39321001623559" lon="13.462382633668135"><ele>971.0</ele><time>2026-04-06T09:00:53.001Z</time></trkpt><trkpt lat="46.39329387030426" lon="13.462181033468333"><ele>962.25</ele><time>2026-04-06T09:00:54.001Z</time></trkpt><trkpt lat="46.39339166544213" lon="13.4620160155346"><ele>953.5</ele><time>2026-04-06T09:00:55.001Z</time></trkpt><trkpt lat="46.393477762750145" lon="13.461879756490132"><ele>944.75</ele><time>2026-04-06T09:00:56.001Z</time></trkpt><trkpt lat="46.39355361232678" lon="13.461766727675892"><ele>936.0</ele><time>2026-04-06T09:00:57.001Z</time></trkpt><trkpt lat="46.393601151387024" lon="13.461653482973194"><ele>936.0</ele><time>2026-04-06T09:00:58.001Z</time></trkpt><trkpt lat="46.3936577428346" lon="13.46158297480985"><ele>935.9999999999999</ele><time>2026-04-06T09:00:59.001Z</time></trkpt><trkpt lat="46.39374021350249" lon="13.461474724002466"><ele>935.9999999999999</ele><time>2026-04-06T09:01:01.001Z</time></trkpt><trkpt lat="46.39384788561526" lon="13.461508109199036"><ele>936.0</ele><time>2026-04-06T09:01:03.001Z</time></trkpt><trkpt lat="46.393854632342" lon="13.461621302122177"><ele>936.0</ele><time>2026-04-06T09:01:05.001Z</time></trkpt><trkpt lat="46.39355935504914" lon="13.461812628626737"><ele>936.0</ele><time>2026-04-06T09:01:10.001Z</time></trkpt><trkpt lat="46.393494661383166" lon="13.461988928886342"><ele>936.0</ele><time>2026-04-06T09:01:11.001Z</time></trkpt><trkpt lat="46.393467184523494" lon="13.462160799839543"><ele>936.0</ele><time>2026-04-06T09:01:12.001Z</time></trkpt><trkpt lat="46.39339780293227" lon="13.462338289536405"><ele>936.0</ele><time>2026-04-06T09:01:13.001Z</time></trkpt><trkpt lat="46.39332646346351" lon="13.462525959671828"><ele>944.75</ele><time>2026-04-06T09:01:14.001Z</time></trkpt><trkpt lat="46.39327478575476" lon="13.462690866822095"><ele>953.5</ele><time>2026-04-06T09:01:15.001Z</time></trkpt><trkpt lat="46.393217664050894" lon="13.462843009490486"><ele>962.25</ele><time>2026-04-06T09:01:16.001Z</time></trkpt><trkpt lat="46.39313387149349" lon="13.462994400059811"><ele>971.0</ele><time>2026-04-06T09:01:17.001Z</time></trkpt><trkpt lat="46.393035547633644" lon="13.463147610861215"><ele>966.0</ele><time>2026-04-06T09:01:18Z</time></trkpt><trkpt lat="46.39292682006842" lon="13.463315802471364"><ele>961.0</ele><time>2026-04-06T09:01:19Z</time></trkpt><trkpt lat="46.39283133046681" lon="13.463478028354153"><ele>956.0</ele><time>2026-04-06T09:01:20Z</time></trkpt><trkpt lat="46.39274293331857" lon="13.463616043871031"><ele>951.0</ele><time>2026-04-06T09:01:21Z</time></trkpt><trkpt lat="46.3926470843096" lon="13.463755942523228"><ele>962.0</ele><time>2026-04-06T09:01:22Z</time></trkpt><trkpt lat="46.39255284189073" lon="13.463902105642639"><ele>973.0</ele><time>2026-04-06T09:01:23Z</time></trkpt><trkpt lat="46.39244077235454" lon="13.464048032972949"><ele>984.0</ele><time>2026-04-06T09:01:24Z</time></trkpt><trkpt lat="46.39231453543967" lon="13.464195450211795"><ele>984.0</ele><time>2026-04-06T09:01:25Z</time></trkpt><trkpt lat="46.39219358906734" lon="13.464329001631894"><ele>984.0</ele><time>2026-04-06T09:01:26Z</time></trkpt><trkpt lat="46.39208199901608" lon="13.464444578407727"><ele>984.0</ele><time>2026-04-06T09:01:27Z</time></trkpt><trkpt lat="46.39196860801183" lon="13.46457142357502"><ele>984.0</ele><time>2026-04-06T09:01:28Z</time></trkpt><trkpt lat="46.391852836400204" lon="13.464703788208986"><ele>984.5</ele><time>2026-04-06T09:01:29Z</time></trkpt><trkpt lat="46.391745429726235" lon="13.464826634122172"><ele>985.0</ele><time>2026-04-06T09:01:30Z</time></trkpt><trkpt lat="46.39165255414537" lon="13.464938231682952"><ele>985.5</ele><time>2026-04-06T09:01:31Z</time></trkpt><trkpt lat="46.391559798104" lon="13.46506086470923"><ele>986.0</ele><time>2026-04-06T09:01:32Z</time></trkpt><trkpt lat="46.39146452329271" lon="13.465202639669243"><ele>986.0</ele><time>2026-04-06T09:01:33.001Z</time></trkpt><trkpt lat="46.391366545382624" lon="13.465362234436144"><ele>986.0</ele><time>2026-04-06T09:01:34.001Z</time></trkpt><trkpt lat="46.39127710487629" lon="13.465527030265152"><ele>986.0</ele><time>2026-04-06T09:01:35.001Z</time></trkpt><trkpt lat="46.39118494409707" lon="13.465702338509717"><ele>986.0</ele><time>2026-04-06T09:01:36.001Z</time></trkpt><trkpt lat="46.39109170103456" lon="13.465893141864433"><ele>984.25</ele><time>2026-04-06T09:01:37.001Z</time></trkpt><trkpt lat="46.391005723375294" lon="13.466054183138729"><ele>982.5</ele><time>2026-04-06T09:01:38.001Z</time></trkpt><trkpt lat="46.39092649309819" lon="13.466202990933677"><ele>980.75</ele><time>2026-04-06T09:01:39.001Z</time></trkpt><trkpt lat="46.39084308332025" lon="13.46636663811129"><ele>979.0</ele><time>2026-04-06T09:01:40.001Z</time></trkpt><trkpt lat="46.3907577906842" lon="13.46654007029661"><ele>985.5</ele><time>2026-04-06T09:01:41.001Z</time></trkpt><trkpt lat="46.390704484262194" lon="13.466674034215169"><ele>992.0</ele><time>2026-04-06T09:01:42.001Z</time></trkpt><trkpt lat="46.39065102187359" lon="13.466872706537146"><ele>998.5</ele><time>2026-04-06T09:01:43.001Z</time></trkpt><trkpt lat="46.3906057692206" lon="13.467080139976646"><ele>1005.0</ele><time>2026-04-06T09:01:44.001Z</time></trkpt><trkpt lat="46.39055327486259" lon="13.467244155640627"><ele>1001.75</ele><time>2026-04-06T09:01:45.001Z</time></trkpt><trkpt lat="46.39047811818782" lon="13.467382719246784"><ele>998.5</ele><time>2026-04-06T09:01:46.001Z</time></trkpt><trkpt lat="46.39041434602717" lon="13.467533707733882"><ele>995.25</ele><time>2026-04-06T09:01:47.001Z</time></trkpt><trkpt lat="46.39038634636652" lon="13.467703978092382"><ele>992.0</ele><time>2026-04-06T09:01:48.001Z</time></trkpt><trkpt lat="46.39037503186543" lon="13.467882470991128"><ele>999.5</ele><time>2026-04-06T09:01:49.001Z</time></trkpt><trkpt lat="46.390363464297856" lon="13.468027302238141"><ele>1007.0</ele><time>2026-04-06T09:01:50.001Z</time></trkpt><trkpt lat="46.39032596585612" lon="13.468164981140475"><ele>1014.5</ele><time>2026-04-06T09:01:51.001Z</time></trkpt><trkpt lat="46.39025759973651" lon="13.468302789641553"><ele>1022.0</ele><time>2026-04-06T09:01:52.001Z</time></trkpt><trkpt lat="46.39014877490182" lon="13.4684368912844"><ele>1022.0</ele><time>2026-04-06T09:01:53.001Z</time></trkpt><trkpt lat="46.39007236845228" lon="13.468582031934458"><ele>1022.0</ele><time>2026-04-06T09:01:54.001Z</time></trkpt><trkpt lat="46.38999040805371" lon="13.46868164838017"><ele>1022.0</ele><time>2026-04-06T09:01:55.001Z</time></trkpt><trkpt lat="46.38992816894076" lon="13.468761063529387"><ele>1022.0</ele><time>2026-04-06T09:01:56.001Z</time></trkpt><trkpt lat="46.38987962611497" lon="13.468829196787151"><ele>1022.0</ele><time>2026-04-06T09:01:57Z</time></trkpt><trkpt lat="46.38981563421935" lon="13.468935458067694"><ele>1027.4</ele><time>2026-04-06T09:01:59Z</time></trkpt><trkpt lat="46.38984830298361" lon="13.469080857269825"><ele>1032.8000000000002</ele><time>2026-04-06T09:02:01Z</time></trkpt><trkpt lat="46.389952338387204" lon="13.469095142177952"><ele>1038.2</ele><time>2026-04-06T09:02:03Z</time></trkpt><trkpt lat="46.39001362890446" lon="13.469051303777555"><ele>1043.6000000000001</ele><time>2026-04-06T09:02:04Z</time></trkpt><trkpt lat="46.39003671383935" lon="13.468927920769126"><ele>1049.0</ele><time>2026-04-06T09:02:05Z</time></trkpt><trkpt lat="46.390067218860636" lon="13.468800882209434"><ele>1042.25</ele><time>2026-04-06T09:02:06Z</time></trkpt><trkpt lat="46.3901405110428" lon="13.468704833514176"><ele>1035.5</ele><time>2026-04-06T09:02:07Z</time></trkpt><trkpt lat="46.390233474263326" lon="13.468625179833634"><ele>1028.75</ele><time>2026-04-06T09:02:08Z</time></trkpt><trkpt lat="46.39033612836783" lon="13.468520831574498"><ele>1022.0</ele><time>2026-04-06T09:02:09Z</time></trkpt><trkpt lat="46.39042304190839" lon="13.468399566714965"><ele>1022.0</ele><time>2026-04-06T09:02:10Z</time></trkpt><trkpt lat="46.39048508915956" lon="13.468278568923498"><ele>1022.0</ele><time>2026-04-06T09:02:11Z</time></trkpt><trkpt lat="46.39052873453812" lon="13.468125570285896"><ele>1022.0</ele><time>2026-04-06T09:02:12Z</time></trkpt><trkpt lat="46.39055959721651" lon="13.467976465192079"><ele>1022.0</ele><time>2026-04-06T09:02:13Z</time></trkpt><trkpt lat="46.390587684418236" lon="13.46786127892851"><ele>1022.0</ele><time>2026-04-06T09:02:14Z</time></trkpt><trkpt lat="46.39064785399856" lon="13.467699492931283"><ele>1023.2</ele><time>2026-04-06T09:02:16Z</time></trkpt><trkpt lat="46.39071291153893" lon="13.467635772759737"><ele>1024.4</ele><time>2026-04-06T09:02:17Z</time></trkpt><trkpt lat="46.39080234206291" lon="13.467578871776164"><ele>1025.6</ele><time>2026-04-06T09:02:18Z</time></trkpt><trkpt lat="46.39088185083814" lon="13.467537284193599"><ele>1026.8</ele><time>2026-04-06T09:02:19Z</time></trkpt><trkpt lat="46.39097997045969" lon="13.46743021615245"><ele>1028.0</ele><time>2026-04-06T09:02:20Z</time></trkpt><trkpt lat="46.39103973486597" lon="13.467277442967445"><ele>1028.0</ele><time>2026-04-06T09:02:21Z</time></trkpt><trkpt lat="46.3910817109261" lon="13.467116486735636"><ele>1028.0</ele><time>2026-04-06T09:02:22Z</time></trkpt><trkpt lat="46.39114211660491" lon="13.46698431633882"><ele>1028.0</ele><time>2026-04-06T09:02:23Z</time></trkpt><trkpt lat="46.391215146145" lon="13.466861441405602"><ele>1028.0</ele><time>2026-04-06T09:02:24Z</time></trkpt><trkpt lat="46.391309387019504" lon="13.466728107035358"><ele>1025.25</ele><time>2026-04-06T09:02:25Z</time></trkpt><trkpt lat="46.39141071625569" lon="13.466572991044837"><ele>1022.5</ele><time>2026-04-06T09:02:26Z</time></trkpt><trkpt lat="46.39152964252582" lon="13.466416029888626"><ele>1019.75</ele><time>2026-04-06T09:02:27Z</time></trkpt><trkpt lat="46.39163276857494" lon="13.466284783131854"><ele>1017.0</ele><time>2026-04-06T09:02:28Z</time></trkpt><trkpt lat="46.39172658240903" lon="13.466180306704624"><ele>1017.0</ele><time>2026-04-06T09:02:29Z</time></trkpt><trkpt lat="46.391826876261675" lon="13.466098893010535"><ele>1017.0</ele><time>2026-04-06T09:02:30Z</time></trkpt><trkpt lat="46.39192391404129" lon="13.466003521938463"><ele>1017.0</ele><time>2026-04-06T09:02:31Z</time></trkpt><trkpt lat="46.392010757193916" lon="13.465921714351078"><ele>1017.0</ele><time>2026-04-06T09:02:32Z</time></trkpt><trkpt lat="46.392075772774646" lon="13.465839352764108"><ele>1017.0</ele><time>2026-04-06T09:02:33Z</time></trkpt><trkpt lat="46.3921334368657" lon="13.465755478329209"><ele>1028.0</ele><time>2026-04-06T09:02:34Z</time></trkpt><trkpt lat="46.39219933024403" lon="13.465697046931188"><ele>1039.0</ele><time>2026-04-06T09:02:35Z</time></trkpt><trkpt lat="46.39224111781765" lon="13.465625376866214"><ele>1050.0</ele><time>2026-04-06T09:02:36Z</time></trkpt><trkpt lat="46.39230853038385" lon="13.465624492768349"><ele>1061.0</ele><time>2026-04-06T09:02:37Z</time></trkpt><trkpt lat="46.39236509590615" lon="13.46568371934208"><ele>1072.0</ele><time>2026-04-06T09:02:38Z</time></trkpt><trkpt lat="46.39239208362007" lon="13.465771894657147"><ele>1083.0</ele><time>2026-04-06T09:02:39Z</time></trkpt><trkpt lat="46.39233251193765" lon="13.46586054787818"><ele>1094.0</ele><time>2026-04-06T09:02:41Z</time></trkpt><trkpt lat="46.39225200621355" lon="13.465901506818394"><ele>1077.3333333333335</ele><time>2026-04-06T09:02:43Z</time></trkpt><trkpt lat="46.392026209470515" lon="13.466010522098728"><ele>1060.6666666666667</ele><time>2026-04-06T09:02:45Z</time></trkpt><trkpt lat="46.391913480233114" lon="13.466151468211722"><ele>1044.0</ele><time>2026-04-06T09:02:46Z</time></trkpt><trkpt lat="46.39183416813158" lon="13.466282489245948"><ele>1044.0</ele><time>2026-04-06T09:02:47Z</time></trkpt><trkpt lat="46.39175163836455" lon="13.46641886315754"><ele>1044.0</ele><time>2026-04-06T09:02:48Z</time></trkpt><trkpt lat="46.39167762540134" lon="13.466551100900773"><ele>1044.0</ele><time>2026-04-06T09:02:49Z</time></trkpt><trkpt lat="46.391608060341404" lon="13.466693210966016"><ele>1044.0</ele><time>2026-04-06T09:02:50Z</time></trkpt><trkpt lat="46.39153522294802" lon="13.466844789370551"><ele>1044.0</ele><time>2026-04-06T09:02:51Z</time></trkpt><trkpt lat="46.39147000647124" lon="13.466963971147424"><ele>1044.0</ele><time>2026-04-06T09:02:52Z</time></trkpt><trkpt lat="46.39141970673917" lon="13.467063562210484"><ele>1044.0</ele><time>2026-04-06T09:02:53Z</time></trkpt><trkpt lat="46.39137692315402" lon="13.467142069195924"><ele>1044.0</ele><time>2026-04-06T09:02:54Z</time></trkpt><trkpt lat="46.391306765850246" lon="13.467274043718785"><ele>1044.0</ele><time>2026-04-06T09:02:56Z</time></trkpt><trkpt lat="46.39127711404503" lon="13.467436398382734"><ele>1044.0</ele><time>2026-04-06T09:02:58Z</time></trkpt><trkpt lat="46.3913718216527" lon="13.467537211494303"><ele>1044.0</ele><time>2026-04-06T09:03:00Z</time></trkpt><trkpt lat="46.39143393920496" lon="13.467500308846398"><ele>1044.0</ele><time>2026-04-06T09:03:01Z</time></trkpt><trkpt lat="46.391466208971465" lon="13.4674089075216"><ele>1044.0</ele><time>2026-04-06T09:03:02Z</time></trkpt><trkpt lat="46.39148821421748" lon="13.46729879803356"><ele>1044.0</ele><time>2026-04-06T09:03:03Z</time></trkpt><trkpt lat="46.39150980953365" lon="13.467173242310745"><ele>1044.0</ele><time>2026-04-06T09:03:04Z</time></trkpt><trkpt lat="46.39155196066966" lon="13.467051358039988"><ele>1044.0</ele><time>2026-04-06T09:03:05Z</time></trkpt><trkpt lat="46.391631917380614" lon="13.466948920343826"><ele>1044.0</ele><time>2026-04-06T09:03:06Z</time></trkpt><trkpt lat="46.39171555016919" lon="13.46683974224469"><ele>1044.0</ele><time>2026-04-06T09:03:07Z</time></trkpt><trkpt lat="46.39181857258895" lon="13.466714945610926"><ele>1044.0</ele><time>2026-04-06T09:03:08Z</time></trkpt><trkpt lat="46.39191289256128" lon="13.466600268607307"><ele>1044.0</ele><time>2026-04-06T09:03:09Z</time></trkpt><trkpt lat="46.3920116078225" lon="13.466503452259515"><ele>1044.0</ele><time>2026-04-06T09:03:10Z</time></trkpt><trkpt lat="46.39209906775746" lon="13.466399619713915"><ele>1044.0</ele><time>2026-04-06T09:03:11Z</time></trkpt><trkpt lat="46.39219445346122" lon="13.466320053933527"><ele>1044.0</ele><time>2026-04-06T09:03:12Z</time></trkpt><trkpt lat="46.3922690274143" lon="13.466254270039851"><ele>1044.0</ele><time>2026-04-06T09:03:13Z</time></trkpt><trkpt lat="46.39233259125599" lon="13.4661757509433"><ele>1052.3333333333333</ele><time>2026-04-06T09:03:14Z</time></trkpt><trkpt lat="46.392383076865485" lon="13.466081381693224"><ele>1060.6666666666667</ele><time>2026-04-06T09:03:15Z</time></trkpt><trkpt lat="46.39243336677244" lon="13.466023016653395"><ele>1069.0</ele><time>2026-04-06T09:03:16Z</time></trkpt><trkpt lat="46.39250884612028" lon="13.465961713874938"><ele>1077.3333333333335</ele><time>2026-04-06T09:03:18Z</time></trkpt><trkpt lat="46.39257635854914" lon="13.46605544948813"><ele>1085.6666666666667</ele><time>2026-04-06T09:03:20Z</time></trkpt><trkpt lat="46.392572992758375" lon="13.466229880120032"><ele>1094.0</ele><time>2026-04-06T09:03:26Z</time></trkpt><trkpt lat="46.39243873068017" lon="13.466359091215361"><ele>1077.3333333333335</ele><time>2026-04-06T09:03:27Z</time></trkpt><trkpt lat="46.39223799997162" lon="13.466368678874066"><ele>1060.6666666666667</ele><time>2026-04-06T09:03:28Z</time></trkpt><trkpt lat="46.39207232051169" lon="13.466551375853001"><ele>1044.0</ele><time>2026-04-06T09:03:29Z</time></trkpt><trkpt lat="46.39198489700046" lon="13.466676773301913"><ele>1044.0</ele><time>2026-04-06T09:03:30Z</time></trkpt><trkpt lat="46.391906991994794" lon="13.466790338835004"><ele>1044.0</ele><time>2026-04-06T09:03:31Z</time></trkpt><trkpt lat="46.39182754753404" lon="13.466905692963673"><ele>1044.0</ele><time>2026-04-06T09:03:32Z</time></trkpt><trkpt lat="46.391753353694554" lon="13.467059873386283"><ele>1044.0</ele><time>2026-04-06T09:03:33Z</time></trkpt><trkpt lat="46.39171018881351" lon="13.467191196339012"><ele>1057.4</ele><time>2026-04-06T09:03:34Z</time></trkpt><trkpt lat="46.39167401886341" lon="13.467345652340457"><ele>1070.8000000000002</ele><time>2026-04-06T09:03:35Z</time></trkpt><trkpt lat="46.39166947883375" lon="13.467512027772761"><ele>1084.1999999999998</ele><time>2026-04-06T09:03:36Z</time></trkpt><trkpt lat="46.391671396705206" lon="13.467655155874557"><ele>1097.6</ele><time>2026-04-06T09:03:37Z</time></trkpt><trkpt lat="46.39167332408179" lon="13.467758557087045"><ele>1111.0</ele><time>2026-04-06T09:03:38Z</time></trkpt><trkpt lat="46.391663419158235" lon="13.467886395993883"><ele>1116.6666666666665</ele><time>2026-04-06T09:03:39Z</time></trkpt><trkpt lat="46.391635533171865" lon="13.467977152157852"><ele>1122.3333333333333</ele><time>2026-04-06T09:03:40Z</time></trkpt><trkpt lat="46.39160109306913" lon="13.468082031767233"><ele>1128.0</ele><time>2026-04-06T09:03:41Z</time></trkpt><trkpt lat="46.3915628167866" lon="13.468201684421183"><ele>1133.6666666666667</ele><time>2026-04-06T09:03:42Z</time></trkpt><trkpt lat="46.39152519730663" lon="13.468312973994342"><ele>1139.3333333333335</ele><time>2026-04-06T09:03:43Z</time></trkpt><trkpt lat="46.39148965964544" lon="13.468403914517557"><ele>1145.0</ele><time>2026-04-06T09:03:44Z</time></trkpt><trkpt lat="46.39144830237116" lon="13.468482522238016"><ele>1145.0</ele><time>2026-04-06T09:03:45Z</time></trkpt><trkpt lat="46.39140058099624" lon="13.468552222789786"><ele>1145.0</ele><time>2026-04-06T09:03:46Z</time></trkpt><trkpt lat="46.39130739230657" lon="13.468627505279589"><ele>1145.0</ele><time>2026-04-06T09:03:48Z</time></trkpt><trkpt lat="46.391050809034084" lon="13.468775603412961"><ele>1130.0</ele><time>2026-04-06T09:03:50Z</time></trkpt><trkpt lat="46.39085744655718" lon="13.46903927508138"><ele>1115.0</ele><time>2026-04-06T09:03:51Z</time></trkpt><trkpt lat="46.39079899324644" lon="13.469186846920117"><ele>1100.0</ele><time>2026-04-06T09:03:53Z</time></trkpt><trkpt lat="46.39077662465403" lon="13.469366948929563"><ele>1100.0</ele><time>2026-04-06T09:03:54Z</time></trkpt><trkpt lat="46.39074981315306" lon="13.469517082038678"><ele>1100.0</ele><time>2026-04-06T09:03:55Z</time></trkpt><trkpt lat="46.39070288147656" lon="13.469657143716653"><ele>1100.0</ele><time>2026-04-06T09:03:56Z</time></trkpt><trkpt lat="46.390633132641135" lon="13.469821081351414"><ele>1100.0</ele><time>2026-04-06T09:03:57Z</time></trkpt><trkpt lat="46.39056015539662" lon="13.469982972122633"><ele>1102.4</ele><time>2026-04-06T09:03:58Z</time></trkpt><trkpt lat="46.39049531335608" lon="13.47012040001296"><ele>1104.8</ele><time>2026-04-06T09:03:59Z</time></trkpt><trkpt lat="46.39043699985957" lon="13.470241033184955"><ele>1107.2</ele><time>2026-04-06T09:04:00Z</time></trkpt><trkpt lat="46.390380230066356" lon="13.470346715947707"><ele>1109.6</ele><time>2026-04-06T09:04:01Z</time></trkpt><trkpt lat="46.39032120400245" lon="13.470450032672554"><ele>1112.0</ele><time>2026-04-06T09:04:02Z</time></trkpt><trkpt lat="46.39025245365646" lon="13.470547361154404"><ele>1112.0</ele><time>2026-04-06T09:04:03Z</time></trkpt><trkpt lat="46.39017719730939" lon="13.470641801352087"><ele>1112.0</ele><time>2026-04-06T09:04:04Z</time></trkpt><trkpt lat="46.390083437834704" lon="13.470708921384333"><ele>1112.0</ele><time>2026-04-06T09:04:05Z</time></trkpt><trkpt lat="46.3899953533452" lon="13.470769299464864"><ele>1112.0</ele><time>2026-04-06T09:04:06Z</time></trkpt><trkpt lat="46.38991062974363" lon="13.470856601156646"><ele>1112.0</ele><time>2026-04-06T09:04:07Z</time></trkpt><trkpt lat="46.38982671822284" lon="13.470977182491117"><ele>1112.0</ele><time>2026-04-06T09:04:08Z</time></trkpt><trkpt lat="46.38974680633815" lon="13.471112441764344"><ele>1112.0</ele><time>2026-04-06T09:04:09Z</time></trkpt><trkpt lat="46.38965973430435" lon="13.471238768149647"><ele>1112.0</ele><time>2026-04-06T09:04:10Z</time></trkpt><trkpt lat="46.38955883117213" lon="13.471319380673874"><ele>1112.0</ele><time>2026-04-06T09:04:11Z</time></trkpt><trkpt lat="46.389462521594076" lon="13.471398898420926"><ele>1115.75</ele><time>2026-04-06T09:04:12Z</time></trkpt><trkpt lat="46.389366473368405" lon="13.471480349645063"><ele>1119.5</ele><time>2026-04-06T09:04:13Z</time></trkpt><trkpt lat="46.38925176037186" lon="13.471510011390812"><ele>1123.25</ele><time>2026-04-06T09:04:14Z</time></trkpt><trkpt lat="46.38912881778276" lon="13.47152137048605"><ele>1127.0</ele><time>2026-04-06T09:04:15Z</time></trkpt><trkpt lat="46.38900789424333" lon="13.471524968412593"><ele>1127.0</ele><time>2026-04-06T09:04:16Z</time></trkpt><trkpt lat="46.388889559112854" lon="13.4715237078669"><ele>1127.0</ele><time>2026-04-06T09:04:17Z</time></trkpt><trkpt lat="46.38877625877178" lon="13.471523242101078"><ele>1127.0</ele><time>2026-04-06T09:04:18Z</time></trkpt><trkpt lat="46.388679397231826" lon="13.471530524511419"><ele>1127.0</ele><time>2026-04-06T09:04:19Z</time></trkpt><trkpt lat="46.3885718138019" lon="13.471532366456984"><ele>1127.0</ele><time>2026-04-06T09:04:20Z</time></trkpt><trkpt lat="46.388463155651785" lon="13.471543526648933"><ele>1127.3333333333335</ele><time>2026-04-06T09:04:21Z</time></trkpt><trkpt lat="46.38836164139903" lon="13.471544335247536"><ele>1127.6666666666667</ele><time>2026-04-06T09:04:22Z</time></trkpt><trkpt lat="46.38826488612382" lon="13.471545020130447"><ele>1128.0</ele><time>2026-04-06T09:04:23Z</time></trkpt><trkpt lat="46.38817984932788" lon="13.471527056027544"><ele>1128.3333333333333</ele><time>2026-04-06T09:04:24Z</time></trkpt><trkpt lat="46.38809769283265" lon="13.471486294990108"><ele>1128.6666666666665</ele><time>2026-04-06T09:04:25Z</time></trkpt><trkpt lat="46.38802756745853" lon="13.471442030167236"><ele>1129.0</ele><time>2026-04-06T09:04:26Z</time></trkpt><trkpt lat="46.38795884716762" lon="13.471380323388065"><ele>1130.6000000000001</ele><time>2026-04-06T09:04:27Z</time></trkpt><trkpt lat="46.38784928630893" lon="13.471325504815432"><ele>1132.2</ele><time>2026-04-06T09:04:29Z</time></trkpt><trkpt lat="46.38778420764369" lon="13.471360597156453"><ele>1133.8000000000002</ele><time>2026-04-06T09:04:30Z</time></trkpt><trkpt lat="46.38773064362123" lon="13.47150824900368"><ele>1135.4</ele><time>2026-04-06T09:04:32Z</time></trkpt><trkpt lat="46.387794298744694" lon="13.471660295626727"><ele>1137.0</ele><time>2026-04-06T09:04:34Z</time></trkpt><trkpt lat="46.3878595385922" lon="13.471715942960632"><ele>1137.0</ele><time>2026-04-06T09:04:35Z</time></trkpt><trkpt lat="46.38792319221777" lon="13.471780174026678"><ele>1137.0</ele><time>2026-04-06T09:04:36Z</time></trkpt><trkpt lat="46.388002418880966" lon="13.471842052235344"><ele>1137.0</ele><time>2026-04-06T09:04:37Z</time></trkpt><trkpt lat="46.38808218940509" lon="13.47191033494728"><ele>1137.0</ele><time>2026-04-06T09:04:38Z</time></trkpt><trkpt lat="46.388160883492546" lon="13.471990710624722"><ele>1137.0</ele><time>2026-04-06T09:04:39Z</time></trkpt><trkpt lat="46.388222199514004" lon="13.472070924294556"><ele>1137.0</ele><time>2026-04-06T09:04:40Z</time></trkpt><trkpt lat="46.38827691835397" lon="13.472176026563112"><ele>1138.0</ele><time>2026-04-06T09:04:41Z</time></trkpt><trkpt lat="46.388314336497515" lon="13.472290434271764"><ele>1139.0</ele><time>2026-04-06T09:04:42Z</time></trkpt><trkpt lat="46.38835556087611" lon="13.472377955653124"><ele>1140.0</ele><time>2026-04-06T09:04:43Z</time></trkpt><trkpt lat="46.38843220435716" lon="13.47247449241528"><ele>1141.0</ele><time>2026-04-06T09:04:44Z</time></trkpt><trkpt lat="46.38849766942271" lon="13.472523830699137"><ele>1142.0</ele><time>2026-04-06T09:04:45Z</time></trkpt><trkpt lat="46.388565875814884" lon="13.472576300880178"><ele>1143.0</ele><time>2026-04-06T09:04:46Z</time></trkpt><trkpt lat="46.388625886267015" lon="13.472618347688421"><ele>1143.0</ele><time>2026-04-06T09:04:47Z</time></trkpt><trkpt lat="46.38868742901522" lon="13.472705452458776"><ele>1143.0</ele><time>2026-04-06T09:04:49Z</time></trkpt><trkpt lat="46.388680951868686" lon="13.472831618163276"><ele>1143.0</ele><time>2026-04-06T09:04:51Z</time></trkpt><trkpt lat="46.38862137728298" lon="13.472968972851039"><ele>1143.0</ele><time>2026-04-06T09:04:53Z</time></trkpt><trkpt lat="46.38855726354306" lon="13.473059718082279"><ele>1143.0</ele><time>2026-04-06T09:04:54Z</time></trkpt><trkpt lat="46.38851034604408" lon="13.473129388651179"><ele>1143.0</ele><time>2026-04-06T09:04:55Z</time></trkpt><trkpt lat="46.388415551803206" lon="13.473246323009276"><ele>1143.5</ele><time>2026-04-06T09:04:57Z</time></trkpt><trkpt lat="46.38835098026741" lon="13.473289990770951"><ele>1144.0</ele><time>2026-04-06T09:04:58Z</time></trkpt><trkpt lat="46.38826933409076" lon="13.473324965301208"><ele>1144.5</ele><time>2026-04-06T09:04:59Z</time></trkpt><trkpt lat="46.38819234587135" lon="13.473330799974365"><ele>1145.0</ele><time>2026-04-06T09:05:00Z</time></trkpt><trkpt lat="46.38811920680732" lon="13.473304283514892"><ele>1145.5</ele><time>2026-04-06T09:05:01Z</time></trkpt><trkpt lat="46.38804993336555" lon="13.473257404303919"><ele>1146.0</ele><time>2026-04-06T09:05:02Z</time></trkpt><trkpt lat="46.38798895445706" lon="13.47320026702339"><ele>1146.0</ele><time>2026-04-06T09:05:03Z</time></trkpt><trkpt lat="46.38793439063075" lon="13.473153323256934"><ele>1146.0</ele><time>2026-04-06T09:05:04Z</time></trkpt><trkpt lat="46.38786999425915" lon="13.473106920286824"><ele>1146.0</ele><time>2026-04-06T09:05:05Z</time></trkpt><trkpt lat="46.38776630804594" lon="13.473018863653902"><ele>1146.0</ele><time>2026-04-06T09:05:07Z</time></trkpt><trkpt lat="46.387681849756156" lon="13.473034906036403"><ele>1146.0</ele><time>2026-04-06T09:05:08Z</time></trkpt><trkpt lat="46.38756812539187" lon="13.473000375907425"><ele>1146.0</ele><time>2026-04-06T09:05:10Z</time></trkpt><trkpt lat="46.387493347461444" lon="13.47298919831351"><ele>1146.0</ele><time>2026-04-06T09:05:12Z</time></trkpt><trkpt lat="46.38741489399513" lon="13.472962782943641"><ele>1146.0</ele><time>2026-04-06T09:05:14Z</time></trkpt><trkpt lat="46.38733749803259" lon="13.472946345714199"><ele>1146.0</ele><time>2026-04-06T09:05:16Z</time></trkpt><trkpt lat="46.387270475934365" lon="13.472944451854636"><ele>1146.0</ele><time>2026-04-06T09:05:19Z</time></trkpt><trkpt lat="46.387226877923865" lon="13.473064435515752"><ele>1146.0</ele><time>2026-04-06T09:05:24Z</time></trkpt><trkpt lat="46.38732952262264" lon="13.473187822692047"><ele>1146.0</ele><time>2026-04-06T09:05:29Z</time></trkpt><trkpt lat="46.38740144525562" lon="13.473205148050086"><ele>1146.0</ele><time>2026-04-06T09:05:31Z</time></trkpt><trkpt lat="46.38751976537236" lon="13.473233650049549"><ele>1146.0</ele><time>2026-04-06T09:05:33Z</time></trkpt><trkpt lat="46.38762232786565" lon="13.473258356211456"><ele>1146.0</ele><time>2026-04-06T09:05:35Z</time></trkpt><trkpt lat="46.38769810325556" lon="13.473276609674235"><ele>1146.0</ele><time>2026-04-06T09:05:37Z</time></trkpt><trkpt lat="46.38777171349935" lon="13.473294341555745"><ele>1146.0</ele><time>2026-04-06T09:05:40Z</time></trkpt><trkpt lat="46.387820963010455" lon="13.47319436287347"><ele>1146.0</ele><time>2026-04-06T09:05:42Z</time></trkpt><trkpt lat="46.38789717953522" lon="13.473159721452042"><ele>1146.0</ele><time>2026-04-06T09:05:46Z</time></trkpt><trkpt lat="46.38795159429613" lon="13.47323147693615"><ele>1146.0</ele><time>2026-04-06T09:05:48Z</time></trkpt><trkpt lat="46.38801332808263" lon="13.473278406407758"><ele>1146.0</ele><time>2026-04-06T09:05:50Z</time></trkpt><trkpt lat="46.38809223281609" lon="13.47331415582382"><ele>1146.0</ele><time>2026-04-06T09:05:52Z</time></trkpt><trkpt lat="46.38815664447968" lon="13.473334017471656"><ele>1146.0</ele><time>2026-04-06T09:05:53Z</time></trkpt><trkpt lat="46.3882193936582" lon="13.473346649956412"><ele>1146.0</ele><time>2026-04-06T09:05:54Z</time></trkpt><trkpt lat="46.38833623403956" lon="13.473329780426578"><ele>1146.3999999999999</ele><time>2026-04-06T09:05:56Z</time></trkpt><trkpt lat="46.38844217176852" lon="13.473246583485304"><ele>1146.8</ele><time>2026-04-06T09:05:58Z</time></trkpt><trkpt lat="46.388549724104635" lon="13.473132577551505"><ele>1147.1999999999998</ele><time>2026-04-06T09:06:00Z</time></trkpt><trkpt lat="46.38860305854012" lon="13.473051063631448"><ele>1147.6</ele><time>2026-04-06T09:06:01Z</time></trkpt><trkpt lat="46.388651779145775" lon="13.472964440978005"><ele>1148.0</ele><time>2026-04-06T09:06:02Z</time></trkpt><trkpt lat="46.38868931231232" lon="13.472868182417207"><ele>1147.0</ele><time>2026-04-06T09:06:03Z</time></trkpt><trkpt lat="46.38872872828383" lon="13.472795511761605"><ele>1146.0</ele><time>2026-04-06T09:06:04Z</time></trkpt><trkpt lat="46.388788981364534" lon="13.472680838132392"><ele>1145.0</ele><time>2026-04-06T09:06:06Z</time></trkpt><trkpt lat="46.38889533425207" lon="13.472683248412995"><ele>1144.0</ele><time>2026-04-06T09:06:07Z</time></trkpt><trkpt lat="46.38898107090448" lon="13.47269948526398"><ele>1143.0</ele><time>2026-04-06T09:06:08Z</time></trkpt><trkpt lat="46.389082926906724" lon="13.472720952691063"><ele>1143.0</ele><time>2026-04-06T09:06:09Z</time></trkpt><trkpt lat="46.389194857171326" lon="13.472763995426378"><ele>1143.0</ele><time>2026-04-06T09:06:10Z</time></trkpt><trkpt lat="46.38931481298985" lon="13.472810822883783"><ele>1143.0</ele><time>2026-04-06T09:06:11Z</time></trkpt><trkpt lat="46.38940802549682" lon="13.472874949666455"><ele>1143.0</ele><time>2026-04-06T09:06:12Z</time></trkpt><trkpt lat="46.38948835627776" lon="13.47291595216778"><ele>1143.0</ele><time>2026-04-06T09:06:13Z</time></trkpt><trkpt lat="46.389560949165094" lon="13.472969645619237"><ele>1143.0</ele><time>2026-04-06T09:06:14Z</time></trkpt><trkpt lat="46.389651410021735" lon="13.473027456174584"><ele>1143.0</ele><time>2026-04-06T09:06:15Z</time></trkpt><trkpt lat="46.389745296079795" lon="13.473066166423395"><ele>1143.0</ele><time>2026-04-06T09:06:16Z</time></trkpt><trkpt lat="46.38983195152161" lon="13.473076023098749"><ele>1143.0</ele><time>2026-04-06T09:06:17Z</time></trkpt><trkpt lat="46.389915590936596" lon="13.473081824945389"><ele>1143.0</ele><time>2026-04-06T09:06:18Z</time></trkpt><trkpt lat="46.390009300283175" lon="13.47307188232075"><ele>1144.25</ele><time>2026-04-06T09:06:19Z</time></trkpt><trkpt lat="46.39012366130588" lon="13.47302998530961"><ele>1145.5</ele><time>2026-04-06T09:06:20Z</time></trkpt><trkpt lat="46.39024692546351" lon="13.472976792322912"><ele>1146.75</ele><time>2026-04-06T09:06:21Z</time></trkpt><trkpt lat="46.39037624585632" lon="13.472911257493658"><ele>1148.0</ele><time>2026-04-06T09:06:22Z</time></trkpt><trkpt lat="46.39051305096986" lon="13.472844914716825"><ele>1149.5</ele><time>2026-04-06T09:06:23Z</time></trkpt><trkpt lat="46.390643679012825" lon="13.472777673431548"><ele>1151.0</ele><time>2026-04-06T09:06:24Z</time></trkpt><trkpt lat="46.39075487895025" lon="13.47272101602185"><ele>1152.5</ele><time>2026-04-06T09:06:25Z</time></trkpt><trkpt lat="46.39085379054513" lon="13.47267061052141"><ele>1154.0</ele><time>2026-04-06T09:06:26Z</time></trkpt><trkpt lat="46.390943683749704" lon="13.472617283760142"><ele>1154.0</ele><time>2026-04-06T09:06:27Z</time></trkpt><trkpt lat="46.39102288006641" lon="13.472538679206071"><ele>1154.0</ele><time>2026-04-06T09:06:28Z</time></trkpt><trkpt lat="46.39109024176292" lon="13.472447090182252"><ele>1154.0</ele><time>2026-04-06T09:06:29Z</time></trkpt><trkpt lat="46.3911492675147" lon="13.472350886114423"><ele>1154.0</ele><time>2026-04-06T09:06:30Z</time></trkpt><trkpt lat="46.39119697375003" lon="13.472247973715247"><ele>1154.0</ele><time>2026-04-06T09:06:31Z</time></trkpt><trkpt lat="46.39125054113381" lon="13.472173665033154"><ele>1154.0</ele><time>2026-04-06T09:06:32Z</time></trkpt><trkpt lat="46.391297384178834" lon="13.472109060648732"><ele>1154.0</ele><time>2026-04-06T09:06:33Z</time></trkpt><trkpt lat="46.39141273259406" lon="13.472090251353194"><ele>1154.0</ele><time>2026-04-06T09:06:35Z</time></trkpt><trkpt lat="46.39145257828138" lon="13.47217722394993"><ele>1154.0</ele><time>2026-04-06T09:06:36Z</time></trkpt><trkpt lat="46.39146314986174" lon="13.472295831418805"><ele>1154.0</ele><time>2026-04-06T09:06:37Z</time></trkpt><trkpt lat="46.391431885299305" lon="13.47240954700846"><ele>1154.0</ele><time>2026-04-06T09:06:38Z</time></trkpt><trkpt lat="46.391376918827625" lon="13.472509438768592"><ele>1154.0</ele><time>2026-04-06T09:06:39Z</time></trkpt><trkpt lat="46.39132888389458" lon="13.472633120246178"><ele>1154.0</ele><time>2026-04-06T09:06:40Z</time></trkpt><trkpt lat="46.391296055965654" lon="13.47280035375276"><ele>1154.0</ele><time>2026-04-06T09:06:41Z</time></trkpt><trkpt lat="46.39127810341556" lon="13.472992736654923"><ele>1154.0</ele><time>2026-04-06T09:06:42Z</time></trkpt><trkpt lat="46.39125749048109" lon="13.473169702811589"><ele>1154.0</ele><time>2026-04-06T09:06:43Z</time></trkpt><trkpt lat="46.391201302720226" lon="13.473323836160338"><ele>1155.25</ele><time>2026-04-06T09:06:44Z</time></trkpt><trkpt lat="46.39111283639887" lon="13.473471137505316"><ele>1156.5</ele><time>2026-04-06T09:06:45Z</time></trkpt><trkpt lat="46.3910279270507" lon="13.473612399915195"><ele>1157.75</ele><time>2026-04-06T09:06:46Z</time></trkpt><trkpt lat="46.39097827427538" lon="13.473757370531331"><ele>1159.0</ele><time>2026-04-06T09:06:47Z</time></trkpt><trkpt lat="46.39094561177645" lon="13.473943457531941"><ele>1161.25</ele><time>2026-04-06T09:06:48Z</time></trkpt><trkpt lat="46.390910993022" lon="13.47414073545032"><ele>1163.5</ele><time>2026-04-06T09:06:49Z</time></trkpt><trkpt lat="46.39087663321214" lon="13.474336187394426"><ele>1165.75</ele><time>2026-04-06T09:06:50Z</time></trkpt><trkpt lat="46.39083782400657" lon="13.474546820586708"><ele>1168.0</ele><time>2026-04-06T09:06:51Z</time></trkpt><trkpt lat="46.39079700988638" lon="13.474762704985432"><ele>1168.5</ele><time>2026-04-06T09:06:52Z</time></trkpt><trkpt lat="46.390759173802856" lon="13.474966727800918"><ele>1169.0</ele><time>2026-04-06T09:06:53Z</time></trkpt><trkpt lat="46.390727803807266" lon="13.475151939663736"><ele>1169.5</ele><time>2026-04-06T09:06:54Z</time></trkpt><trkpt lat="46.390698044270756" lon="13.475317372405568"><ele>1170.0</ele><time>2026-04-06T09:06:55Z</time></trkpt><trkpt lat="46.39066638633512" lon="13.475485188052446"><ele>1170.0</ele><time>2026-04-06T09:06:56Z</time></trkpt><trkpt lat="46.39063585284061" lon="13.475635966977837"><ele>1170.0</ele><time>2026-04-06T09:06:57Z</time></trkpt><trkpt lat="46.390603446655795" lon="13.475767139382612"><ele>1170.0</ele><time>2026-04-06T09:06:58Z</time></trkpt><trkpt lat="46.39057111133292" lon="13.475897001751175"><ele>1170.0</ele><time>2026-04-06T09:06:59Z</time></trkpt><trkpt lat="46.39052894511806" lon="13.476023879549722"><ele>1170.0</ele><time>2026-04-06T09:07:00Z</time></trkpt><trkpt lat="46.39047348901093" lon="13.47613543482272"><ele>1170.0</ele><time>2026-04-06T09:07:01Z</time></trkpt><trkpt lat="46.390419309644145" lon="13.476248772520218"><ele>1170.0</ele><time>2026-04-06T09:07:02Z</time></trkpt><trkpt lat="46.39037348448468" lon="13.476356985146893"><ele>1170.0</ele><time>2026-04-06T09:07:03Z</time></trkpt><trkpt lat="46.39034001688489" lon="13.476465816349423"><ele>1170.0</ele><time>2026-04-06T09:07:04Z</time></trkpt><trkpt lat="46.39031635957161" lon="13.476596136217392"><ele>1170.0</ele><time>2026-04-06T09:07:05Z</time></trkpt><trkpt lat="46.390293890554986" lon="13.476757994919486"><ele>1172.5</ele><time>2026-04-06T09:07:06Z</time></trkpt><trkpt lat="46.39027718049746" lon="13.4769379679065"><ele>1175.0</ele><time>2026-04-06T09:07:07Z</time></trkpt><trkpt lat="46.39026574895129" lon="13.477120364512142"><ele>1177.5</ele><time>2026-04-06T09:07:08Z</time></trkpt><trkpt lat="46.3902551398163" lon="13.477281094901404"><ele>1180.0</ele><time>2026-04-06T09:07:09Z</time></trkpt><trkpt lat="46.39024391551675" lon="13.477419254843179"><ele>1180.1666666666665</ele><time>2026-04-06T09:07:10Z</time></trkpt><trkpt lat="46.39023256908918" lon="13.477549205711465"><ele>1180.3333333333333</ele><time>2026-04-06T09:07:11Z</time></trkpt><trkpt lat="46.39022214417135" lon="13.477671027692786"><ele>1180.5</ele><time>2026-04-06T09:07:12Z</time></trkpt><trkpt lat="46.39020697897335" lon="13.477788876740012"><ele>1180.6666666666667</ele><time>2026-04-06T09:07:13Z</time></trkpt><trkpt lat="46.39019503894088" lon="13.477903248455046"><ele>1180.8333333333335</ele><time>2026-04-06T09:07:14Z</time></trkpt><trkpt lat="46.39018228217704" lon="13.478017163983846"><ele>1181.0</ele><time>2026-04-06T09:07:15Z</time></trkpt><trkpt lat="46.39016208791249" lon="13.478125080696733"><ele>1181.0</ele><time>2026-04-06T09:07:16Z</time></trkpt><trkpt lat="46.39012668675046" lon="13.478252946576356"><ele>1181.0</ele><time>2026-04-06T09:07:17Z</time></trkpt><trkpt lat="46.390077706192784" lon="13.4783999261424"><ele>1181.0</ele><time>2026-04-06T09:07:18Z</time></trkpt><trkpt lat="46.390031837005026" lon="13.4785362243953"><ele>1181.0</ele><time>2026-04-06T09:07:19Z</time></trkpt><trkpt lat="46.389986411603495" lon="13.478658241483311"><ele>1181.0</ele><time>2026-04-06T09:07:20Z</time></trkpt><trkpt lat="46.38993749332164" lon="13.478773583931742"><ele>1181.0</ele><time>2026-04-06T09:07:21Z</time></trkpt><trkpt lat="46.38988943488005" lon="13.478894232774163"><ele>1181.0</ele><time>2026-04-06T09:07:22Z</time></trkpt><trkpt lat="46.38984643752788" lon="13.479028462787454"><ele>1181.0</ele><time>2026-04-06T09:07:23Z</time></trkpt><trkpt lat="46.38981386025345" lon="13.479178274046463"><ele>1181.0</ele><time>2026-04-06T09:07:24Z</time></trkpt><trkpt lat="46.3897990989012" lon="13.479349234094713"><ele>1181.0</ele><time>2026-04-06T09:07:25Z</time></trkpt><trkpt lat="46.3897910187098" lon="13.479520798705218"><ele>1181.5</ele><time>2026-04-06T09:07:26Z</time></trkpt><trkpt lat="46.38978272685889" lon="13.479711944190761"><ele>1182.0</ele><time>2026-04-06T09:07:27Z</time></trkpt><trkpt lat="46.389774628464636" lon="13.479910404854193"><ele>1182.5</ele><time>2026-04-06T09:07:28Z</time></trkpt><trkpt lat="46.38976491571838" lon="13.480113533077054"><ele>1183.0</ele><time>2026-04-06T09:07:29Z</time></trkpt><trkpt lat="46.38975021772436" lon="13.480285302267275"><ele>1184.2</ele><time>2026-04-06T09:07:30Z</time></trkpt><trkpt lat="46.389744857265946" lon="13.480437202546844"><ele>1185.4</ele><time>2026-04-06T09:07:31Z</time></trkpt><trkpt lat="46.38973457141011" lon="13.480595967326643"><ele>1186.6000000000001</ele><time>2026-04-06T09:07:32Z</time></trkpt><trkpt lat="46.38973416881082" lon="13.48075659933048"><ele>1187.8</ele><time>2026-04-06T09:07:33Z</time></trkpt><trkpt lat="46.38973876530219" lon="13.480916646013018"><ele>1189.0</ele><time>2026-04-06T09:07:34Z</time></trkpt><trkpt lat="46.389746384338586" lon="13.481070476159582"><ele>1189.0</ele><time>2026-04-06T09:07:35Z</time></trkpt><trkpt lat="46.38975855329861" lon="13.481213757529405"><ele>1189.0</ele><time>2026-04-06T09:07:36Z</time></trkpt><trkpt lat="46.389769345471066" lon="13.481352223449678"><ele>1189.0</ele><time>2026-04-06T09:07:37Z</time></trkpt><trkpt lat="46.38978147547089" lon="13.48148632390561"><ele>1189.0</ele><time>2026-04-06T09:07:38Z</time></trkpt><trkpt lat="46.38980541809535" lon="13.481616901612293"><ele>1189.0</ele><time>2026-04-06T09:07:39Z</time></trkpt><trkpt lat="46.38984707741606" lon="13.481744562654525"><ele>1190.0</ele><time>2026-04-06T09:07:40Z</time></trkpt><trkpt lat="46.38990958633917" lon="13.48186464185496"><ele>1191.0</ele><time>2026-04-06T09:07:41Z</time></trkpt><trkpt lat="46.389982464436535" lon="13.481986812509613"><ele>1192.0</ele><time>2026-04-06T09:07:42Z</time></trkpt><trkpt lat="46.39006855556513" lon="13.482117135551412"><ele>1193.0</ele><time>2026-04-06T09:07:43Z</time></trkpt><trkpt lat="46.39016096036013" lon="13.48225204781466"><ele>1195.0</ele><time>2026-04-06T09:07:44Z</time></trkpt><trkpt lat="46.390250827934445" lon="13.482382772898356"><ele>1197.0</ele><time>2026-04-06T09:07:45Z</time></trkpt><trkpt lat="46.3903292455096" lon="13.482499248367759"><ele>1199.0</ele><time>2026-04-06T09:07:46Z</time></trkpt><trkpt lat="46.390405933932236" lon="13.482621159317873"><ele>1201.0</ele><time>2026-04-06T09:07:47Z</time></trkpt><trkpt lat="46.39047979269953" lon="13.482755799391962"><ele>1198.75</ele><time>2026-04-06T09:07:48Z</time></trkpt><trkpt lat="46.390539351145605" lon="13.482909049875136"><ele>1196.5</ele><time>2026-04-06T09:07:49Z</time></trkpt><trkpt lat="46.39058338090948" lon="13.483078311359339"><ele>1194.25</ele><time>2026-04-06T09:07:50Z</time></trkpt><trkpt lat="46.39062125509277" lon="13.48324479397912"><ele>1192.0</ele><time>2026-04-06T09:07:51Z</time></trkpt><trkpt lat="46.3906592426909" lon="13.483407334871023"><ele>1192.0</ele><time>2026-04-06T09:07:52Z</time></trkpt><trkpt lat="46.390692022059504" lon="13.483565820976304"><ele>1192.0</ele><time>2026-04-06T09:07:53Z</time></trkpt><trkpt lat="46.39072807999257" lon="13.48371790295303"><ele>1192.0</ele><time>2026-04-06T09:07:54Z</time></trkpt><trkpt lat="46.39076504917032" lon="13.483866254465546"><ele>1192.0</ele><time>2026-04-06T09:07:55Z</time></trkpt><trkpt lat="46.39080250253868" lon="13.484017009215936"><ele>1192.0</ele><time>2026-04-06T09:07:56Z</time></trkpt><trkpt lat="46.39083988032207" lon="13.484164530853205"><ele>1192.8</ele><time>2026-04-06T09:07:57Z</time></trkpt><trkpt lat="46.390877319441195" lon="13.484308110933954"><ele>1193.6</ele><time>2026-04-06T09:07:58Z</time></trkpt><trkpt lat="46.3909159841718" lon="13.484437883267022"><ele>1194.3999999999999</ele><time>2026-04-06T09:07:59Z</time></trkpt><trkpt lat="46.390967747990594" lon="13.484553832569475"><ele>1195.2</ele><time>2026-04-06T09:08:00Z</time></trkpt><trkpt lat="46.39103563930934" lon="13.484651630573715"><ele>1196.0</ele><time>2026-04-06T09:08:01Z</time></trkpt><trkpt lat="46.39111970504896" lon="13.484721513517686"><ele>1196.2</ele><time>2026-04-06T09:08:02Z</time></trkpt><trkpt lat="46.391214955511884" lon="13.484771732347962"><ele>1196.3999999999999</ele><time>2026-04-06T09:08:03Z</time></trkpt><trkpt lat="46.391315018333025" lon="13.484785523440497"><ele>1196.6</ele><time>2026-04-06T09:08:04Z</time></trkpt><trkpt lat="46.3914131971582" lon="13.484788424320072"><ele>1196.8</ele><time>2026-04-06T09:08:05Z</time></trkpt><trkpt lat="46.391508542304926" lon="13.484791649544604"><ele>1197.0</ele><time>2026-04-06T09:08:06Z</time></trkpt><trkpt lat="46.39159899177953" lon="13.48479748952875"><ele>1195.8333333333333</ele><time>2026-04-06T09:08:07Z</time></trkpt><trkpt lat="46.39168815331991" lon="13.484809151560071"><ele>1194.6666666666667</ele><time>2026-04-06T09:08:08Z</time></trkpt><trkpt lat="46.391777072517435" lon="13.484826436446994"><ele>1193.5</ele><time>2026-04-06T09:08:09Z</time></trkpt><trkpt lat="46.39186198447867" lon="13.48485268190783"><ele>1192.3333333333335</ele><time>2026-04-06T09:08:10Z</time></trkpt><trkpt lat="46.391944803375715" lon="13.484887603207241"><ele>1191.1666666666667</ele><time>2026-04-06T09:08:11Z</time></trkpt><trkpt lat="46.39202839807355" lon="13.484932380321352"><ele>1190.0</ele><time>2026-04-06T09:08:12Z</time></trkpt><trkpt lat="46.3921103906744" lon="13.484986924756527"><ele>1189.2</ele><time>2026-04-06T09:08:13Z</time></trkpt><trkpt lat="46.39218966086719" lon="13.485048053853717"><ele>1188.4</ele><time>2026-04-06T09:08:14Z</time></trkpt><trkpt lat="46.392266369703215" lon="13.485119648808684"><ele>1187.6</ele><time>2026-04-06T09:08:15Z</time></trkpt><trkpt lat="46.3923315577269" lon="13.485208922005432"><ele>1186.8</ele><time>2026-04-06T09:08:16Z</time></trkpt><trkpt lat="46.39238635882339" lon="13.485311548817311"><ele>1186.0</ele><time>2026-04-06T09:08:17Z</time></trkpt><trkpt lat="46.392441807113094" lon="13.485440622425367"><ele>1186.0</ele><time>2026-04-06T09:08:18Z</time></trkpt><trkpt lat="46.392490869234365" lon="13.485584431726004"><ele>1186.0</ele><time>2026-04-06T09:08:19Z</time></trkpt><trkpt lat="46.392540895174804" lon="13.485728491550443"><ele>1186.0</ele><time>2026-04-06T09:08:20Z</time></trkpt><trkpt lat="46.392587846437216" lon="13.485874030925265"><ele>1186.0</ele><time>2026-04-06T09:08:21Z</time></trkpt><trkpt lat="46.39263196227133" lon="13.486023454934038"><ele>1186.0</ele><time>2026-04-06T09:08:22Z</time></trkpt><trkpt lat="46.392681214678035" lon="13.486177361452809"><ele>1186.6</ele><time>2026-04-06T09:08:23Z</time></trkpt><trkpt lat="46.39273236122055" lon="13.486334019460422"><ele>1187.1999999999998</ele><time>2026-04-06T09:08:24Z</time></trkpt><trkpt lat="46.392773573916735" lon="13.48641963373609"><ele>1187.8000000000002</ele><time>2026-04-06T09:08:25Z</time></trkpt><trkpt lat="46.3928139542958" lon="13.486548237107286"><ele>1188.4</ele><time>2026-04-06T09:08:26Z</time></trkpt><trkpt lat="46.39285756470854" lon="13.486665858170706"><ele>1189.0</ele><time>2026-04-06T09:08:27Z</time></trkpt><trkpt lat="46.39289666329748" lon="13.486766503640503"><ele>1189.0</ele><time>2026-04-06T09:08:28Z</time></trkpt><trkpt lat="46.392959649608244" lon="13.486883277374629"><ele>1189.0</ele><time>2026-04-06T09:08:29Z</time></trkpt><trkpt lat="46.393035744361235" lon="13.48696206546118"><ele>1189.0</ele><time>2026-04-06T09:08:30Z</time></trkpt><trkpt lat="46.39312643496529" lon="13.487026026860613"><ele>1189.0</ele><time>2026-04-06T09:08:31Z</time></trkpt><trkpt lat="46.3932292015774" lon="13.487070273878953"><ele>1189.0</ele><time>2026-04-06T09:08:32Z</time></trkpt><trkpt lat="46.393350475951145" lon="13.487092291809539"><ele>1187.6000000000001</ele><time>2026-04-06T09:08:33Z</time></trkpt><trkpt lat="46.393461361093664" lon="13.487107957449334"><ele>1186.2</ele><time>2026-04-06T09:08:34Z</time></trkpt><trkpt lat="46.39356117869071" lon="13.487136784793233"><ele>1184.8000000000002</ele><time>2026-04-06T09:08:35Z</time></trkpt><trkpt lat="46.39366197119417" lon="13.487164211055237"><ele>1183.4</ele><time>2026-04-06T09:08:36Z</time></trkpt><trkpt lat="46.39375614731738" lon="13.48721458290592"><ele>1182.0</ele><time>2026-04-06T09:08:37Z</time></trkpt><trkpt lat="46.393838937738764" lon="13.487291706222285"><ele>1181.0</ele><time>2026-04-06T09:08:38Z</time></trkpt><trkpt lat="46.3939109116624" lon="13.487391684089484"><ele>1180.0</ele><time>2026-04-06T09:08:39Z</time></trkpt><trkpt lat="46.39396439117769" lon="13.487524390775269"><ele>1179.0</ele><time>2026-04-06T09:08:40Z</time></trkpt><trkpt lat="46.39400288835132" lon="13.487661630471816"><ele>1178.0</ele><time>2026-04-06T09:08:41Z</time></trkpt><trkpt lat="46.3940412208487" lon="13.487824664936802"><ele>1177.0</ele><time>2026-04-06T09:08:42Z</time></trkpt><trkpt lat="46.39408386908135" lon="13.487988271200535"><ele>1176.5</ele><time>2026-04-06T09:08:43Z</time></trkpt><trkpt lat="46.394130892258545" lon="13.488146906935766"><ele>1176.0</ele><time>2026-04-06T09:08:44Z</time></trkpt><trkpt lat="46.39417234186522" lon="13.48828793518016"><ele>1175.5</ele><time>2026-04-06T09:08:45Z</time></trkpt><trkpt lat="46.3942153840881" lon="13.488436361137211"><ele>1175.0</ele><time>2026-04-06T09:08:46Z</time></trkpt><trkpt lat="46.39426161169416" lon="13.488605256377998"><ele>1173.6</ele><time>2026-04-06T09:08:47Z</time></trkpt><trkpt lat="46.39430445946749" lon="13.488763709614897"><ele>1172.2</ele><time>2026-04-06T09:08:48Z</time></trkpt><trkpt lat="46.39434585589077" lon="13.488908223950164"><ele>1170.8</ele><time>2026-04-06T09:08:49Z</time></trkpt><trkpt lat="46.39440154041444" lon="13.489035974272667"><ele>1169.4</ele><time>2026-04-06T09:08:50Z</time></trkpt><trkpt lat="46.39447642743394" lon="13.489156395359839"><ele>1168.0</ele><time>2026-04-06T09:08:51Z</time></trkpt><trkpt lat="46.39457170034273" lon="13.489263376795595"><ele>1167.6</ele><time>2026-04-06T09:08:52Z</time></trkpt><trkpt lat="46.394678109385815" lon="13.489352920121773"><ele>1167.1999999999998</ele><time>2026-04-06T09:08:53Z</time></trkpt><trkpt lat="46.39477568963556" lon="13.489433247364854"><ele>1166.8</ele><time>2026-04-06T09:08:54Z</time></trkpt><trkpt lat="46.39485726798723" lon="13.4895316675089"><ele>1166.3999999999999</ele><time>2026-04-06T09:08:55Z</time></trkpt><trkpt lat="46.39492458088568" lon="13.4896477694392"><ele>1166.0</ele><time>2026-04-06T09:08:56Z</time></trkpt><trkpt lat="46.39498307343691" lon="13.489779656275507"><ele>1166.0</ele><time>2026-04-06T09:08:57Z</time></trkpt><trkpt lat="46.39504017526095" lon="13.489934499340311"><ele>1166.0</ele><time>2026-04-06T09:08:58Z</time></trkpt><trkpt lat="46.39510372715799" lon="13.490091565045876"><ele>1166.0</ele><time>2026-04-06T09:08:59Z</time></trkpt><trkpt lat="46.395167532329005" lon="13.490237475648225"><ele>1166.0</ele><time>2026-04-06T09:09:00Z</time></trkpt><trkpt lat="46.39523298745908" lon="13.490400467944378"><ele>1162.5</ele><time>2026-04-06T09:09:01Z</time></trkpt><trkpt lat="46.39529848904223" lon="13.490559938432089"><ele>1159.0</ele><time>2026-04-06T09:09:02Z</time></trkpt><trkpt lat="46.39536525975473" lon="13.490714613735724"><ele>1155.5</ele><time>2026-04-06T09:09:03Z</time></trkpt><trkpt lat="46.395426303374165" lon="13.49087142554566"><ele>1152.0</ele><time>2026-04-06T09:09:04Z</time></trkpt><trkpt lat="46.395493651702985" lon="13.491024181769216"><ele>1153.5</ele><time>2026-04-06T09:09:05Z</time></trkpt><trkpt lat="46.39555697243022" lon="13.491174824881599"><ele>1155.0</ele><time>2026-04-06T09:09:06Z</time></trkpt><trkpt lat="46.39561388707392" lon="13.491329744355959"><ele>1156.5</ele><time>2026-04-06T09:09:07Z</time></trkpt><trkpt lat="46.395670182895884" lon="13.491484054680786"><ele>1158.0</ele><time>2026-04-06T09:09:08Z</time></trkpt><trkpt lat="46.39571739300676" lon="13.491643765986623"><ele>1158.0</ele><time>2026-04-06T09:09:09Z</time></trkpt><trkpt lat="46.39574831925646" lon="13.49181004058586"><ele>1158.0</ele><time>2026-04-06T09:09:10Z</time></trkpt><trkpt lat="46.39577427871736" lon="13.491969149434679"><ele>1158.0</ele><time>2026-04-06T09:09:11Z</time></trkpt><trkpt lat="46.395808488968036" lon="13.492120623479284"><ele>1158.0</ele><time>2026-04-06T09:09:12Z</time></trkpt><trkpt lat="46.395855233248646" lon="13.49226597780874"><ele>1154.6</ele><time>2026-04-06T09:09:13Z</time></trkpt><trkpt lat="46.39591032794715" lon="13.492402349380711"><ele>1151.1999999999998</ele><time>2026-04-06T09:09:14Z</time></trkpt><trkpt lat="46.39596221887033" lon="13.49250764141163"><ele>1147.8</ele><time>2026-04-06T09:09:15Z</time></trkpt><trkpt lat="46.396004466491235" lon="13.49258768185877"><ele>1144.3999999999999</ele><time>2026-04-06T09:09:16Z</time></trkpt><trkpt lat="46.396065225740614" lon="13.492705345688847"><ele>1141.0</ele><time>2026-04-06T09:09:18Z</time></trkpt><trkpt lat="46.39612204278261" lon="13.492818205101319"><ele>1141.0</ele><time>2026-04-06T09:09:20Z</time></trkpt><trkpt lat="46.39616559047143" lon="13.492907437860802"><ele>1141.0</ele><time>2026-04-06T09:09:22Z</time></trkpt><trkpt lat="46.396225776041526" lon="13.493037182083507"><ele>1141.0</ele><time>2026-04-06T09:09:25Z</time></trkpt><trkpt lat="46.39628359129747" lon="13.49319192447114"><ele>1141.0</ele><time>2026-04-06T09:09:27Z</time></trkpt><trkpt lat="46.39627499886008" lon="13.493287640138428"><ele>1141.0</ele><time>2026-04-06T09:09:28Z</time></trkpt><trkpt lat="46.396222558737016" lon="13.493356406279116"><ele>1141.0</ele><time>2026-04-06T09:09:29Z</time></trkpt><trkpt lat="46.39615133361946" lon="13.493369069983363"><ele>1141.0</ele><time>2026-04-06T09:09:30Z</time></trkpt><trkpt lat="46.39608996717338" lon="13.493334322453466"><ele>1141.0</ele><time>2026-04-06T09:09:31Z</time></trkpt><trkpt lat="46.39604284439355" lon="13.493252076791654"><ele>1141.0</ele><time>2026-04-06T09:09:32Z</time></trkpt><trkpt lat="46.39603884099948" lon="13.493115153725467"><ele>1141.0</ele><time>2026-04-06T09:09:33Z</time></trkpt><trkpt lat="46.396004000309446" lon="13.492973885952532"><ele>1141.0</ele><time>2026-04-06T09:09:34Z</time></trkpt><trkpt lat="46.39592952622478" lon="13.492867099503485"><ele>1141.0</ele><time>2026-04-06T09:09:35Z</time></trkpt><trkpt lat="46.39584987609323" lon="13.492754069362617"><ele>1141.0</ele><time>2026-04-06T09:09:36Z</time></trkpt><trkpt lat="46.39576244391646" lon="13.4926536756832"><ele>1141.0</ele><time>2026-04-06T09:09:37Z</time></trkpt><trkpt lat="46.39567859571851" lon="13.492560909358096"><ele>1141.0</ele><time>2026-04-06T09:09:38Z</time></trkpt><trkpt lat="46.39559526853167" lon="13.492470872615712"><ele>1141.0</ele><time>2026-04-06T09:09:39Z</time></trkpt><trkpt lat="46.395516824877" lon="13.492379823399256"><ele>1141.0</ele><time>2026-04-06T09:09:40Z</time></trkpt><trkpt lat="46.39544322866641" lon="13.49228632686286"><ele>1141.3333333333333</ele><time>2026-04-06T09:09:41Z</time></trkpt><trkpt lat="46.39536759947539" lon="13.49220057850194"><ele>1141.6666666666665</ele><time>2026-04-06T09:09:42Z</time></trkpt><trkpt lat="46.39529626618082" lon="13.492108771580334"><ele>1142.0</ele><time>2026-04-06T09:09:43Z</time></trkpt><trkpt lat="46.39522451103508" lon="13.49202325516298"><ele>1142.3333333333333</ele><time>2026-04-06T09:09:44Z</time></trkpt><trkpt lat="46.39515808285086" lon="13.491955094179046"><ele>1142.6666666666667</ele><time>2026-04-06T09:09:45Z</time></trkpt><trkpt lat="46.39509767145809" lon="13.49190650370293"><ele>1143.0</ele><time>2026-04-06T09:09:46Z</time></trkpt><trkpt lat="46.39503221328573" lon="13.491896396068256"><ele>1143.0</ele><time>2026-04-06T09:09:47Z</time></trkpt><trkpt lat="46.394968142735856" lon="13.49191341556693"><ele>1143.0</ele><time>2026-04-06T09:09:48Z</time></trkpt><trkpt lat="46.3949102300056" lon="13.491983875583317"><ele>1143.0</ele><time>2026-04-06T09:09:49Z</time></trkpt><trkpt lat="46.39487003837063" lon="13.492072334643158"><ele>1143.0</ele><time>2026-04-06T09:09:50Z</time></trkpt><trkpt lat="46.39484885124989" lon="13.492173589582501"><ele>1143.0</ele><time>2026-04-06T09:09:51Z</time></trkpt><trkpt lat="46.39486189527003" lon="13.492281427523542"><ele>1143.0</ele><time>2026-04-06T09:09:52Z</time></trkpt><trkpt lat="46.39490635121718" lon="13.49237371694103"><ele>1143.0</ele><time>2026-04-06T09:09:53Z</time></trkpt><trkpt lat="46.39497188267009" lon="13.49244960919107"><ele>1140.6</ele><time>2026-04-06T09:09:54Z</time></trkpt><trkpt lat="46.39505850318046" lon="13.492514538445004"><ele>1138.1999999999998</ele><time>2026-04-06T09:09:55Z</time></trkpt><trkpt lat="46.39515253356094" lon="13.492591533290076"><ele>1135.8</ele><time>2026-04-06T09:09:56Z</time></trkpt><trkpt lat="46.39523156826097" lon="13.492703804480472"><ele>1133.3999999999999</ele><time>2026-04-06T09:09:57Z</time></trkpt><trkpt lat="46.39529798614839" lon="13.492826331279883"><ele>1131.0</ele><time>2026-04-06T09:09:58Z</time></trkpt><trkpt lat="46.39534415171201" lon="13.492954781250225"><ele>1128.6</ele><time>2026-04-06T09:09:59Z</time></trkpt><trkpt lat="46.395373779017895" lon="13.493092878835743"><ele>1126.1999999999998</ele><time>2026-04-06T09:10:00Z</time></trkpt><trkpt lat="46.395384005335046" lon="13.493248539372654"><ele>1123.8000000000002</ele><time>2026-04-06T09:10:01Z</time></trkpt><trkpt lat="46.39537585856118" lon="13.493400030783855"><ele>1121.4</ele><time>2026-04-06T09:10:02Z</time></trkpt><trkpt lat="46.39537035548079" lon="13.493544379216896"><ele>1119.0</ele><time>2026-04-06T09:10:03Z</time></trkpt><trkpt lat="46.39538113525081" lon="13.493682885036892"><ele>1119.75</ele><time>2026-04-06T09:10:04Z</time></trkpt><trkpt lat="46.39541855534873" lon="13.493819328622537"><ele>1120.5</ele><time>2026-04-06T09:10:05Z</time></trkpt><trkpt lat="46.39548722199149" lon="13.493969945081023"><ele>1121.25</ele><time>2026-04-06T09:10:06Z</time></trkpt><trkpt lat="46.39556382541114" lon="13.494124385884948"><ele>1122.0</ele><time>2026-04-06T09:10:07Z</time></trkpt><trkpt lat="46.39564537053828" lon="13.494272566337898"><ele>1122.0</ele><time>2026-04-06T09:10:08Z</time></trkpt><trkpt lat="46.3957212749826" lon="13.494400226053234"><ele>1122.0</ele><time>2026-04-06T09:10:09Z</time></trkpt><trkpt lat="46.395795707028036" lon="13.494528918615982"><ele>1122.0</ele><time>2026-04-06T09:10:10Z</time></trkpt><trkpt lat="46.39586795913455" lon="13.494653090335746"><ele>1122.0</ele><time>2026-04-06T09:10:11Z</time></trkpt><trkpt lat="46.39593947394186" lon="13.494773692805902"><ele>1120.4</ele><time>2026-04-06T09:10:12Z</time></trkpt><trkpt lat="46.39600899439729" lon="13.494886655426624"><ele>1118.8000000000002</ele><time>2026-04-06T09:10:13Z</time></trkpt><trkpt lat="46.39606957895005" lon="13.494999025635387"><ele>1117.2</ele><time>2026-04-06T09:10:14Z</time></trkpt><trkpt lat="46.39611382722049" lon="13.49512011769252"><ele>1115.6000000000001</ele><time>2026-04-06T09:10:15Z</time></trkpt><trkpt lat="46.3961410681768" lon="13.495253980508531"><ele>1114.0</ele><time>2026-04-06T09:10:16Z</time></trkpt><trkpt lat="46.39614233738624" lon="13.495392256325726"><ele>1112.0</ele><time>2026-04-06T09:10:17Z</time></trkpt><trkpt lat="46.39611110934037" lon="13.495522366693631"><ele>1110.0</ele><time>2026-04-06T09:10:18Z</time></trkpt><trkpt lat="46.39606408074747" lon="13.495642080680023"><ele>1108.0</ele><time>2026-04-06T09:10:19Z</time></trkpt><trkpt lat="46.39598834338423" lon="13.495742982702822"><ele>1106.0</ele><time>2026-04-06T09:10:20Z</time></trkpt><trkpt lat="46.39589373035638" lon="13.495808580310074"><ele>1104.0</ele><time>2026-04-06T09:10:21Z</time></trkpt><trkpt lat="46.39578796213599" lon="13.495837357745478"><ele>1104.0</ele><time>2026-04-06T09:10:22Z</time></trkpt><trkpt lat="46.39568791200619" lon="13.495790921689787"><ele>1104.0</ele><time>2026-04-06T09:10:23Z</time></trkpt><trkpt lat="46.39560097086166" lon="13.495726297013029"><ele>1104.0</ele><time>2026-04-06T09:10:24Z</time></trkpt><trkpt lat="46.395533374463994" lon="13.495633748945949"><ele>1104.0</ele><time>2026-04-06T09:10:25Z</time></trkpt><trkpt lat="46.395479182791654" lon="13.495524907951053"><ele>1104.0</ele><time>2026-04-06T09:10:26Z</time></trkpt><trkpt lat="46.395445259768266" lon="13.495396670069798"><ele>1101.75</ele><time>2026-04-06T09:10:27Z</time></trkpt><trkpt lat="46.39540464665594" lon="13.495250568180904"><ele>1099.5</ele><time>2026-04-06T09:10:28Z</time></trkpt><trkpt lat="46.39536104202683" lon="13.495088018465024"><ele>1097.25</ele><time>2026-04-06T09:10:29Z</time></trkpt><trkpt lat="46.395316429306625" lon="13.494924087033047"><ele>1095.0</ele><time>2026-04-06T09:10:30Z</time></trkpt><trkpt lat="46.39527283923188" lon="13.494769473976485"><ele>1095.0</ele><time>2026-04-06T09:10:31Z</time></trkpt><trkpt lat="46.39521622652996" lon="13.494633372076338"><ele>1095.0</ele><time>2026-04-06T09:10:32Z</time></trkpt><trkpt lat="46.39517829028053" lon="13.494487741903457"><ele>1095.0</ele><time>2026-04-06T09:10:33Z</time></trkpt><trkpt lat="46.39514283877873" lon="13.4943409298272"><ele>1095.0</ele><time>2026-04-06T09:10:34Z</time></trkpt><trkpt lat="46.39510616819829" lon="13.494202651258199"><ele>1095.0</ele><time>2026-04-06T09:10:35Z</time></trkpt><trkpt lat="46.3950771895272" lon="13.494077507692577"><ele>1097.0</ele><time>2026-04-06T09:10:36Z</time></trkpt><trkpt lat="46.39505406119806" lon="13.493973168285233"><ele>1099.0</ele><time>2026-04-06T09:10:37Z</time></trkpt><trkpt lat="46.395018298292634" lon="13.493895808212931"><ele>1101.0</ele><time>2026-04-06T09:10:38Z</time></trkpt><trkpt lat="46.39491138831275" lon="13.493836843001496"><ele>1103.0</ele><time>2026-04-06T09:10:40Z</time></trkpt><trkpt lat="46.39484701816071" lon="13.49386417356426"><ele>1105.0</ele><time>2026-04-06T09:10:41Z</time></trkpt><trkpt lat="46.394791393575446" lon="13.493935888814624"><ele>1107.0</ele><time>2026-04-06T09:10:42Z</time></trkpt><trkpt lat="46.39476045483964" lon="13.494041612662084"><ele>1107.0</ele><time>2026-04-06T09:10:43Z</time></trkpt><trkpt lat="46.394750249711244" lon="13.494157380608158"><ele>1107.0</ele><time>2026-04-06T09:10:44Z</time></trkpt><trkpt lat="46.394762658294304" lon="13.494283899836821"><ele>1107.0</ele><time>2026-04-06T09:10:45Z</time></trkpt><trkpt lat="46.39480403176329" lon="13.494425785435597"><ele>1107.0</ele><time>2026-04-06T09:10:46Z</time></trkpt><trkpt lat="46.39487118528909" lon="13.494569306629735"><ele>1107.0</ele><time>2026-04-06T09:10:47Z</time></trkpt><trkpt lat="46.3949505030796" lon="13.494717629462993"><ele>1104.0</ele><time>2026-04-06T09:10:48Z</time></trkpt><trkpt lat="46.39501088013278" lon="13.494877738832725"><ele>1101.0</ele><time>2026-04-06T09:10:49Z</time></trkpt><trkpt lat="46.395042216752906" lon="13.495072144249695"><ele>1098.0</ele><time>2026-04-06T09:10:50Z</time></trkpt><trkpt lat="46.39509161067986" lon="13.4952710350519"><ele>1095.0</ele><time>2026-04-06T09:10:51Z</time></trkpt><trkpt lat="46.395131027134816" lon="13.49546281024075"><ele>1092.25</ele><time>2026-04-06T09:10:52Z</time></trkpt><trkpt lat="46.39518257685873" lon="13.495644356901526"><ele>1089.5</ele><time>2026-04-06T09:10:53Z</time></trkpt><trkpt lat="46.395237445639296" lon="13.49582260156457"><ele>1086.75</ele><time>2026-04-06T09:10:54Z</time></trkpt><trkpt lat="46.39529223836705" lon="13.496004214058292"><ele>1084.0</ele><time>2026-04-06T09:10:55Z</time></trkpt><trkpt lat="46.395345433208526" lon="13.496183031683818"><ele>1082.0</ele><time>2026-04-06T09:10:56Z</time></trkpt><trkpt lat="46.39539139625873" lon="13.496354953215912"><ele>1080.0</ele><time>2026-04-06T09:10:57Z</time></trkpt><trkpt lat="46.39542267717205" lon="13.496509660854448"><ele>1078.0</ele><time>2026-04-06T09:10:58Z</time></trkpt><trkpt lat="46.395429688620816" lon="13.496680357595878"><ele>1076.0</ele><time>2026-04-06T09:10:59Z</time></trkpt><trkpt lat="46.39541494852607" lon="13.496852275747548"><ele>1076.0</ele><time>2026-04-06T09:11:00Z</time></trkpt><trkpt lat="46.39539809011401" lon="13.49702440739521"><ele>1076.0</ele><time>2026-04-06T09:11:01Z</time></trkpt><trkpt lat="46.39538540183039" lon="13.497194272749471"><ele>1076.0</ele><time>2026-04-06T09:11:02Z</time></trkpt><trkpt lat="46.39537563289622" lon="13.497363901511621"><ele>1076.0</ele><time>2026-04-06T09:11:03Z</time></trkpt><trkpt lat="46.39536590448076" lon="13.49753568566048"><ele>1074.0</ele><time>2026-04-06T09:11:04Z</time></trkpt><trkpt lat="46.39536785964568" lon="13.497706189853591"><ele>1072.0</ele><time>2026-04-06T09:11:05Z</time></trkpt><trkpt lat="46.395387046345334" lon="13.497875402863375"><ele>1070.0</ele><time>2026-04-06T09:11:06Z</time></trkpt><trkpt lat="46.395415058305616" lon="13.498041171041635"><ele>1068.0</ele><time>2026-04-06T09:11:07Z</time></trkpt><trkpt lat="46.39545984062315" lon="13.498199049024166"><ele>1068.0</ele><time>2026-04-06T09:11:08Z</time></trkpt><trkpt lat="46.395513548035936" lon="13.498351699835679"><ele>1068.0</ele><time>2026-04-06T09:11:09Z</time></trkpt><trkpt lat="46.395579433142856" lon="13.498524297880907"><ele>1068.0</ele><time>2026-04-06T09:11:10Z</time></trkpt><trkpt lat="46.39565006214411" lon="13.498707396613161"><ele>1068.0</ele><time>2026-04-06T09:11:11Z</time></trkpt><trkpt lat="46.395718043477956" lon="13.498892933641672"><ele>1064.5</ele><time>2026-04-06T09:11:12Z</time></trkpt><trkpt lat="46.395784352619614" lon="13.49907532837824"><ele>1061.0</ele><time>2026-04-06T09:11:13Z</time></trkpt><trkpt lat="46.39585201560319" lon="13.499256290608256"><ele>1057.5</ele><time>2026-04-06T09:11:14Z</time></trkpt><trkpt lat="46.39591928896385" lon="13.499433920370272"><ele>1054.0</ele><time>2026-04-06T09:11:15Z</time></trkpt><trkpt lat="46.395989052709176" lon="13.499612302660356"><ele>1052.0</ele><time>2026-04-06T09:11:16Z</time></trkpt><trkpt lat="46.39605774145501" lon="13.499790229754378"><ele>1050.0</ele><time>2026-04-06T09:11:17Z</time></trkpt><trkpt lat="46.3961244875274" lon="13.499969990202066"><ele>1048.0</ele><time>2026-04-06T09:11:18Z</time></trkpt><trkpt lat="46.396190495950215" lon="13.500148775317268"><ele>1046.0</ele><time>2026-04-06T09:11:19Z</time></trkpt><trkpt lat="46.396257084459286" lon="13.500326106684037"><ele>1044.75</ele><time>2026-04-06T09:11:20Z</time></trkpt><trkpt lat="46.39632461754297" lon="13.500503473795202"><ele>1043.5</ele><time>2026-04-06T09:11:21Z</time></trkpt><trkpt lat="46.39639127607389" lon="13.500683901497114"><ele>1042.25</ele><time>2026-04-06T09:11:22Z</time></trkpt><trkpt lat="46.39645621515735" lon="13.500861342619386"><ele>1041.0</ele><time>2026-04-06T09:11:23Z</time></trkpt><trkpt lat="46.39652186259923" lon="13.50104068535866"><ele>1040.75</ele><time>2026-04-06T09:11:24Z</time></trkpt><trkpt lat="46.39658773947816" lon="13.501219880299773"><ele>1040.5</ele><time>2026-04-06T09:11:25Z</time></trkpt><trkpt lat="46.39665144632715" lon="13.501395145643379"><ele>1040.25</ele><time>2026-04-06T09:11:26Z</time></trkpt><trkpt lat="46.39671493960018" lon="13.50156579134959"><ele>1040.0</ele><time>2026-04-06T09:11:27Z</time></trkpt><trkpt lat="46.396779841669115" lon="13.501726871081393"><ele>1038.0</ele><time>2026-04-06T09:11:28Z</time></trkpt><trkpt lat="46.39684760797473" lon="13.501869067469723"><ele>1036.0</ele><time>2026-04-06T09:11:29Z</time></trkpt><trkpt lat="46.396937986087714" lon="13.502000281605149"><ele>1034.0</ele><time>2026-04-06T09:11:30Z</time></trkpt><trkpt lat="46.39705634315514" lon="13.50213173999919"><ele>1032.0</ele><time>2026-04-06T09:11:31Z</time></trkpt><trkpt lat="46.39717010621979" lon="13.502232048231917"><ele>1032.0</ele><time>2026-04-06T09:11:32Z</time></trkpt><trkpt lat="46.39728004952461" lon="13.502322221122991"><ele>1032.0</ele><time>2026-04-06T09:11:33Z</time></trkpt><trkpt lat="46.39737734460961" lon="13.502426238528159"><ele>1032.0</ele><time>2026-04-06T09:11:34Z</time></trkpt><trkpt lat="46.397482658736244" lon="13.502519581931342"><ele>1032.0</ele><time>2026-04-06T09:11:35Z</time></trkpt><trkpt lat="46.39756482618549" lon="13.502646555897043"><ele>1032.0</ele><time>2026-04-06T09:11:36Z</time></trkpt><trkpt lat="46.3976347925123" lon="13.502801894494167"><ele>1032.0</ele><time>2026-04-06T09:11:37Z</time></trkpt><trkpt lat="46.39769534549919" lon="13.502986938015194"><ele>1032.0</ele><time>2026-04-06T09:11:38Z</time></trkpt><trkpt lat="46.39775556900156" lon="13.503198755151207"><ele>1032.0</ele><time>2026-04-06T09:11:39Z</time></trkpt><trkpt lat="46.397824330530554" lon="13.50342663795434"><ele>1031.3333333333333</ele><time>2026-04-06T09:11:40Z</time></trkpt><trkpt lat="46.39790454399936" lon="13.503667888000827"><ele>1030.6666666666665</ele><time>2026-04-06T09:11:41Z</time></trkpt><trkpt lat="46.39799063653422" lon="13.503938132105091"><ele>1030.0</ele><time>2026-04-06T09:11:42Z</time></trkpt><trkpt lat="46.39807900410805" lon="13.50419404415851"><ele>1032.0</ele><time>2026-04-06T09:11:43Z</time></trkpt><trkpt lat="46.39815899452681" lon="13.504426993417132"><ele>1034.0</ele><time>2026-04-06T09:11:44Z</time></trkpt><trkpt lat="46.39822914265538" lon="13.504652114423605"><ele>1036.0</ele><time>2026-04-06T09:11:45Z</time></trkpt><trkpt lat="46.398303784187085" lon="13.50487536414996"><ele>1036.0</ele><time>2026-04-06T09:11:46Z</time></trkpt><trkpt lat="46.39837794822175" lon="13.505104622423882"><ele>1036.0</ele><time>2026-04-06T09:11:47Z</time></trkpt><trkpt lat="46.398449746999326" lon="13.505341727082953"><ele>1036.0</ele><time>2026-04-06T09:11:48Z</time></trkpt><trkpt lat="46.39852308161629" lon="13.505577695313825"><ele>1033.6666666666665</ele><time>2026-04-06T09:11:49Z</time></trkpt><trkpt lat="46.39859165287511" lon="13.50581021067514"><ele>1031.3333333333333</ele><time>2026-04-06T09:11:50Z</time></trkpt><trkpt lat="46.39867185179902" lon="13.506042138329864"><ele>1029.0</ele><time>2026-04-06T09:11:51Z</time></trkpt><trkpt lat="46.39874661857628" lon="13.50626458437034"><ele>1027.6666666666667</ele><time>2026-04-06T09:11:52Z</time></trkpt><trkpt lat="46.39882236494577" lon="13.5064700004908"><ele>1026.3333333333335</ele><time>2026-04-06T09:11:53Z</time></trkpt><trkpt lat="46.39888996797926" lon="13.50667371047427"><ele>1025.0</ele><time>2026-04-06T09:11:54Z</time></trkpt><trkpt lat="46.39894561938795" lon="13.50686651041265"><ele>1027.0</ele><time>2026-04-06T09:11:55Z</time></trkpt><trkpt lat="46.39900038396222" lon="13.50704434894934"><ele>1029.0</ele><time>2026-04-06T09:11:56Z</time></trkpt><trkpt lat="46.39905793711086" lon="13.507216556619198"><ele>1031.0</ele><time>2026-04-06T09:11:57Z</time></trkpt><trkpt lat="46.399110251896055" lon="13.507392154369665"><ele>1033.0</ele><time>2026-04-06T09:11:58Z</time></trkpt><trkpt lat="46.39917102806067" lon="13.507559427161722"><ele>1033.0</ele><time>2026-04-06T09:11:59Z</time></trkpt><trkpt lat="46.39922965988171" lon="13.507724675783743"><ele>1033.0</ele><time>2026-04-06T09:12:00Z</time></trkpt><trkpt lat="46.39928389510787" lon="13.507882079598872"><ele>1033.0</ele><time>2026-04-06T09:12:01Z</time></trkpt><trkpt lat="46.39933563688005" lon="13.50803670762017"><ele>1033.0</ele><time>2026-04-06T09:12:02Z</time></trkpt><trkpt lat="46.399386197101606" lon="13.508186906658027"><ele>1031.5</ele><time>2026-04-06T09:12:03Z</time></trkpt><trkpt lat="46.39943765657544" lon="13.508345588267979"><ele>1030.0</ele><time>2026-04-06T09:12:04Z</time></trkpt><trkpt lat="46.39949642995453" lon="13.508519048567894"><ele>1028.5</ele><time>2026-04-06T09:12:05Z</time></trkpt><trkpt lat="46.399554223119175" lon="13.508682645630117"><ele>1027.0</ele><time>2026-04-06T09:12:06Z</time></trkpt><trkpt lat="46.399622962323626" lon="13.508823090506189"><ele>1027.75</ele><time>2026-04-06T09:12:07Z</time></trkpt><trkpt lat="46.39970358489138" lon="13.50895692634906"><ele>1028.5</ele><time>2026-04-06T09:12:08Z</time></trkpt><trkpt lat="46.39980349641964" lon="13.509094759184487"><ele>1029.25</ele><time>2026-04-06T09:12:09Z</time></trkpt><trkpt lat="46.39989960648135" lon="13.509241808413163"><ele>1030.0</ele><time>2026-04-06T09:12:10Z</time></trkpt><trkpt lat="46.39999289539175" lon="13.509373732494105"><ele>1030.0</ele><time>2026-04-06T09:12:11Z</time></trkpt><trkpt lat="46.40007981594191" lon="13.509511973778626"><ele>1030.0</ele><time>2026-04-06T09:12:12Z</time></trkpt><trkpt lat="46.40019279360954" lon="13.509692678457634"><ele>1030.0</ele><time>2026-04-06T09:12:13Z</time></trkpt><trkpt lat="46.400308143644516" lon="13.509874633359615"><ele>1030.0</ele><time>2026-04-06T09:12:14Z</time></trkpt><trkpt lat="46.40042453577886" lon="13.510073015137866"><ele>1030.0</ele><time>2026-04-06T09:12:15Z</time></trkpt><trkpt lat="46.400514453723986" lon="13.510319223961929"><ele>1030.0</ele><time>2026-04-06T09:12:16Z</time></trkpt><trkpt lat="46.40056054184147" lon="13.510421310439797"><ele>1029.0</ele><time>2026-04-06T09:12:17Z</time></trkpt><trkpt lat="46.40063634467545" lon="13.510595941657215"><ele>1028.0</ele><time>2026-04-06T09:12:18Z</time></trkpt><trkpt lat="46.40071398901443" lon="13.51079423018502"><ele>1027.0</ele><time>2026-04-06T09:12:19Z</time></trkpt><trkpt lat="46.4008034398514" lon="13.511000514764058"><ele>1027.0</ele><time>2026-04-06T09:12:20Z</time></trkpt><trkpt lat="46.400889535266344" lon="13.511209595854734"><ele>1027.0</ele><time>2026-04-06T09:12:21Z</time></trkpt><trkpt lat="46.40096826624244" lon="13.511393329871558"><ele>1027.0</ele><time>2026-04-06T09:12:22Z</time></trkpt><trkpt lat="46.4010327756107" lon="13.511573716656203"><ele>1025.5</ele><time>2026-04-06T09:12:23Z</time></trkpt><trkpt lat="46.401095508149496" lon="13.511755879669996"><ele>1024.0</ele><time>2026-04-06T09:12:24Z</time></trkpt><trkpt lat="46.40115777265839" lon="13.511926576408365"><ele>1022.5</ele><time>2026-04-06T09:12:25Z</time></trkpt><trkpt lat="46.40121849775866" lon="13.512091486243914"><ele>1021.0</ele><time>2026-04-06T09:12:26Z</time></trkpt><trkpt lat="46.40128576113018" lon="13.512258139937158"><ele>1022.25</ele><time>2026-04-06T09:12:27Z</time></trkpt><trkpt lat="46.401351645582196" lon="13.512421079332489"><ele>1023.5</ele><time>2026-04-06T09:12:28Z</time></trkpt><trkpt lat="46.40141563380791" lon="13.512575863478386"><ele>1024.75</ele><time>2026-04-06T09:12:29Z</time></trkpt><trkpt lat="46.40148182045461" lon="13.512724827604636"><ele>1026.0</ele><time>2026-04-06T09:12:30Z</time></trkpt><trkpt lat="46.40155234904863" lon="13.512891649217247"><ele>1023.5</ele><time>2026-04-06T09:12:31Z</time></trkpt><trkpt lat="46.401605426105334" lon="13.513081331839569"><ele>1021.0</ele><time>2026-04-06T09:12:32Z</time></trkpt><trkpt lat="46.4016276133856" lon="13.513273287506987"><ele>1018.5</ele><time>2026-04-06T09:12:33Z</time></trkpt><trkpt lat="46.401627669649855" lon="13.513468829228012"><ele>1016.0</ele><time>2026-04-06T09:12:34Z</time></trkpt><trkpt lat="46.4015755654274" lon="13.513642861246264"><ele>1014.5</ele><time>2026-04-06T09:12:35Z</time></trkpt><trkpt lat="46.401520449776946" lon="13.513814495255323"><ele>1013.0</ele><time>2026-04-06T09:12:36Z</time></trkpt><trkpt lat="46.401436538716695" lon="13.513999608419992"><ele>1011.5</ele><time>2026-04-06T09:12:37Z</time></trkpt><trkpt lat="46.40133734675583" lon="13.514164884993159"><ele>1010.0</ele><time>2026-04-06T09:12:38Z</time></trkpt><trkpt lat="46.40125832997401" lon="13.514320147828197"><ele>1008.0</ele><time>2026-04-06T09:12:39Z</time></trkpt><trkpt lat="46.401183133686196" lon="13.51445281348703"><ele>1006.0</ele><time>2026-04-06T09:12:40Z</time></trkpt><trkpt lat="46.40112215724798" lon="13.514589692017593"><ele>1004.0</ele><time>2026-04-06T09:12:41Z</time></trkpt><trkpt lat="46.40108930690748" lon="13.514742506411123"><ele>1002.0</ele><time>2026-04-06T09:12:42Z</time></trkpt><trkpt lat="46.401072407101545" lon="13.514921398321546"><ele>1000.5</ele><time>2026-04-06T09:12:43Z</time></trkpt><trkpt lat="46.4010767187599" lon="13.515127278332459"><ele>999.0</ele><time>2026-04-06T09:12:44Z</time></trkpt><trkpt lat="46.40110199763497" lon="13.51534102676012"><ele>997.5</ele><time>2026-04-06T09:12:45Z</time></trkpt><trkpt lat="46.4011250857773" lon="13.51555129416898"><ele>996.0</ele><time>2026-04-06T09:12:46Z</time></trkpt><trkpt lat="46.40113950243073" lon="13.515748842392462"><ele>995.75</ele><time>2026-04-06T09:12:47Z</time></trkpt><trkpt lat="46.401151805553454" lon="13.515943606261537"><ele>995.5</ele><time>2026-04-06T09:12:48Z</time></trkpt><trkpt lat="46.40116566388173" lon="13.516131887534277"><ele>995.25</ele><time>2026-04-06T09:12:49Z</time></trkpt><trkpt lat="46.401174240816815" lon="13.516323588001995"><ele>995.0</ele><time>2026-04-06T09:12:50Z</time></trkpt><trkpt lat="46.40118446946692" lon="13.516510282796718"><ele>994.75</ele><time>2026-04-06T09:12:51Z</time></trkpt><trkpt lat="46.401197736642075" lon="13.516700105314225"><ele>994.5</ele><time>2026-04-06T09:12:52Z</time></trkpt><trkpt lat="46.401212366812324" lon="13.516895579843514"><ele>994.25</ele><time>2026-04-06T09:12:53Z</time></trkpt><trkpt lat="46.40123426902249" lon="13.517079140764142"><ele>994.0</ele><time>2026-04-06T09:12:54Z</time></trkpt><trkpt lat="46.40126797606597" lon="13.51726743021048"><ele>993.75</ele><time>2026-04-06T09:12:55Z</time></trkpt><trkpt lat="46.40132584692063" lon="13.517453017238665"><ele>993.5</ele><time>2026-04-06T09:12:56Z</time></trkpt><trkpt lat="46.40138303063561" lon="13.517634109084145"><ele>993.25</ele><time>2026-04-06T09:12:57Z</time></trkpt><trkpt lat="46.401436642102404" lon="13.517803015553605"><ele>993.0</ele><time>2026-04-06T09:12:58Z</time></trkpt><trkpt lat="46.401486003267" lon="13.517965871732896"><ele>993.0</ele><time>2026-04-06T09:12:59Z</time></trkpt><trkpt lat="46.401543569140784" lon="13.51813469159159"><ele>993.0</ele><time>2026-04-06T09:13:00Z</time></trkpt><trkpt lat="46.40161634902001" lon="13.518314761016105"><ele>993.0</ele><time>2026-04-06T09:13:01Z</time></trkpt><trkpt lat="46.40170935705646" lon="13.518489306213821"><ele>993.0</ele><time>2026-04-06T09:13:02Z</time></trkpt><trkpt lat="46.40180192434058" lon="13.518640314685637"><ele>992.75</ele><time>2026-04-06T09:13:03Z</time></trkpt><trkpt lat="46.401886621695425" lon="13.51878478351742"><ele>992.5</ele><time>2026-04-06T09:13:04Z</time></trkpt><trkpt lat="46.40196972488337" lon="13.518933240184763"><ele>992.25</ele><time>2026-04-06T09:13:05Z</time></trkpt><trkpt lat="46.40205703796968" lon="13.519103393034728"><ele>992.0</ele><time>2026-04-06T09:13:06Z</time></trkpt><trkpt lat="46.40215213473433" lon="13.519278648385885"><ele>992.6666666666667</ele><time>2026-04-06T09:13:07Z</time></trkpt><trkpt lat="46.40225352309807" lon="13.519473917434992"><ele>993.3333333333333</ele><time>2026-04-06T09:13:08Z</time></trkpt><trkpt lat="46.402368549440304" lon="13.519685889204741"><ele>994.0</ele><time>2026-04-06T09:13:09Z</time></trkpt><trkpt lat="46.402486858393154" lon="13.519909728528788"><ele>994.0</ele><time>2026-04-06T09:13:10Z</time></trkpt><trkpt lat="46.4026168927669" lon="13.520149858350404"><ele>994.0</ele><time>2026-04-06T09:13:11Z</time></trkpt><trkpt lat="46.40275215649636" lon="13.52039243130414"><ele>994.0</ele><time>2026-04-06T09:13:12Z</time></trkpt><trkpt lat="46.40286762483822" lon="13.520616170172115"><ele>992.0</ele><time>2026-04-06T09:13:13Z</time></trkpt><trkpt lat="46.40297800949148" lon="13.520828979330124"><ele>990.0</ele><time>2026-04-06T09:13:14Z</time></trkpt><trkpt lat="46.40308221430233" lon="13.521030941510952"><ele>988.0</ele><time>2026-04-06T09:13:15Z</time></trkpt><trkpt lat="46.403180524107654" lon="13.521223839366828"><ele>990.5</ele><time>2026-04-06T09:13:16Z</time></trkpt><trkpt lat="46.403275446720706" lon="13.521403132028098"><ele>993.0</ele><time>2026-04-06T09:13:17Z</time></trkpt><trkpt lat="46.40337096717168" lon="13.521570284349608"><ele>995.5</ele><time>2026-04-06T09:13:18Z</time></trkpt><trkpt lat="46.40346068884124" lon="13.521729907860022"><ele>998.0</ele><time>2026-04-06T09:13:19Z</time></trkpt><trkpt lat="46.403544845098345" lon="13.52190353486829"><ele>997.3333333333334</ele><time>2026-04-06T09:13:20Z</time></trkpt><trkpt lat="46.403607575937784" lon="13.522100527709664"><ele>996.6666666666667</ele><time>2026-04-06T09:13:21Z</time></trkpt><trkpt lat="46.40363859743586" lon="13.522316366851436"><ele>996.0</ele><time>2026-04-06T09:13:22Z</time></trkpt><trkpt lat="46.40364019234697" lon="13.522543001078716"><ele>996.0</ele><time>2026-04-06T09:13:23Z</time></trkpt><trkpt lat="46.403630362207274" lon="13.522770721244138"><ele>996.0</ele><time>2026-04-06T09:13:24Z</time></trkpt><trkpt lat="46.40363936059509" lon="13.522996610930795"><ele>996.0</ele><time>2026-04-06T09:13:25Z</time></trkpt><trkpt lat="46.403662827464835" lon="13.52323339608709"><ele>996.0</ele><time>2026-04-06T09:13:26Z</time></trkpt><trkpt lat="46.40369376273973" lon="13.523471841662168"><ele>996.0</ele><time>2026-04-06T09:13:27Z</time></trkpt><trkpt lat="46.40372125829823" lon="13.52369074167163"><ele>996.0</ele><time>2026-04-06T09:13:28Z</time></trkpt><trkpt lat="46.40374254463988" lon="13.523894889303246"><ele>995.75</ele><time>2026-04-06T09:13:29Z</time></trkpt><trkpt lat="46.40376387194546" lon="13.52410887807752"><ele>995.5</ele><time>2026-04-06T09:13:30Z</time></trkpt><trkpt lat="46.40378917229243" lon="13.524326121251868"><ele>995.25</ele><time>2026-04-06T09:13:31Z</time></trkpt><trkpt lat="46.40381260803273" lon="13.524528013058314"><ele>995.0</ele><time>2026-04-06T09:13:32Z</time></trkpt><trkpt lat="46.40383194530523" lon="13.524713020403572"><ele>999.75</ele><time>2026-04-06T09:13:33Z</time></trkpt><trkpt lat="46.40385779178517" lon="13.524891291702716"><ele>1004.5</ele><time>2026-04-06T09:13:34Z</time></trkpt><trkpt lat="46.40390142057643" lon="13.52508215038972"><ele>1009.25</ele><time>2026-04-06T09:13:35Z</time></trkpt><trkpt lat="46.4039673020667" lon="13.525297143305158"><ele>1014.0</ele><time>2026-04-06T09:13:36Z</time></trkpt><trkpt lat="46.40402950634456" lon="13.525506112606132"><ele>1014.0</ele><time>2026-04-06T09:13:37Z</time></trkpt><trkpt lat="46.40407298340676" lon="13.525703601873996"><ele>1014.0</ele><time>2026-04-06T09:13:38Z</time></trkpt><trkpt lat="46.404105495072734" lon="13.525895327068381"><ele>1014.0</ele><time>2026-04-06T09:13:39Z</time></trkpt><trkpt lat="46.40414165584572" lon="13.526107253590686"><ele>1014.0</ele><time>2026-04-06T09:13:40Z</time></trkpt><trkpt lat="46.40418967066837" lon="13.526326747917771"><ele>1009.6666666666667</ele><time>2026-04-06T09:13:41Z</time></trkpt><trkpt lat="46.40425128271908" lon="13.526542932540329"><ele>1005.3333333333334</ele><time>2026-04-06T09:13:42Z</time></trkpt><trkpt lat="46.404339062180114" lon="13.526763969429084"><ele>1001.0</ele><time>2026-04-06T09:13:43Z</time></trkpt><trkpt lat="46.40442790489702" lon="13.526988730117038"><ele>997.6666666666667</ele><time>2026-04-06T09:13:44Z</time></trkpt><trkpt lat="46.4044925705774" lon="13.527215184677708"><ele>994.3333333333333</ele><time>2026-04-06T09:13:45Z</time></trkpt><trkpt lat="46.404547263274175" lon="13.527454718518095"><ele>991.0</ele><time>2026-04-06T09:13:46Z</time></trkpt><trkpt lat="46.40459945714605" lon="13.527684874638775"><ele>989.3333333333333</ele><time>2026-04-06T09:13:47Z</time></trkpt><trkpt lat="46.404650291363296" lon="13.52790196990307"><ele>987.6666666666667</ele><time>2026-04-06T09:13:48Z</time></trkpt><trkpt lat="46.40470628698456" lon="13.528111798761707"><ele>986.0</ele><time>2026-04-06T09:13:49Z</time></trkpt><trkpt lat="46.40477174252541" lon="13.528330048644882"><ele>990.0</ele><time>2026-04-06T09:13:50Z</time></trkpt><trkpt lat="46.40485843916927" lon="13.528548789196563"><ele>994.0</ele><time>2026-04-06T09:13:51Z</time></trkpt><trkpt lat="46.40495263304387" lon="13.528763487259043"><ele>998.0</ele><time>2026-04-06T09:13:52Z</time></trkpt><trkpt lat="46.40503401073992" lon="13.528963932200037"><ele>998.0</ele><time>2026-04-06T09:13:53Z</time></trkpt><trkpt lat="46.40511539312652" lon="13.529147690714618"><ele>998.0</ele><time>2026-04-06T09:13:54Z</time></trkpt><trkpt lat="46.40518825626693" lon="13.529320895248762"><ele>998.0</ele><time>2026-04-06T09:13:55Z</time></trkpt><trkpt lat="46.405266711376264" lon="13.529496384612349"><ele>998.0</ele><time>2026-04-06T09:13:56Z</time></trkpt><trkpt lat="46.40534421328243" lon="13.529688224143642"><ele>994.0</ele><time>2026-04-06T09:13:57Z</time></trkpt><trkpt lat="46.405451154612024" lon="13.529909536435934"><ele>990.0</ele><time>2026-04-06T09:13:58Z</time></trkpt><trkpt lat="46.405553792530704" lon="13.530071404701001"><ele>986.0</ele><time>2026-04-06T09:13:59Z</time></trkpt><trkpt lat="46.40566785993718" lon="13.530241913075992"><ele>989.3333333333334</ele><time>2026-04-06T09:14:00Z</time></trkpt><trkpt lat="46.405773244240216" lon="13.530397781692072"><ele>992.6666666666667</ele><time>2026-04-06T09:14:01Z</time></trkpt><trkpt lat="46.40588077539269" lon="13.530556269642023"><ele>996.0</ele><time>2026-04-06T09:14:02Z</time></trkpt><trkpt lat="46.40599273618549" lon="13.530721757377492"><ele>996.0</ele><time>2026-04-06T09:14:03Z</time></trkpt><trkpt lat="46.406113770436164" lon="13.530884372604032"><ele>996.0</ele><time>2026-04-06T09:14:04Z</time></trkpt><trkpt lat="46.40625445718835" lon="13.531043044982951"><ele>996.0</ele><time>2026-04-06T09:14:05Z</time></trkpt><trkpt lat="46.40639436199285" lon="13.531193938785142"><ele>997.0</ele><time>2026-04-06T09:14:06Z</time></trkpt><trkpt lat="46.40652297155129" lon="13.531328849503302"><ele>998.0</ele><time>2026-04-06T09:14:07Z</time></trkpt><trkpt lat="46.40664258921867" lon="13.531453618546758"><ele>999.0</ele><time>2026-04-06T09:14:08Z</time></trkpt><trkpt lat="46.40675579910939" lon="13.531575281152357"><ele>1000.0</ele><time>2026-04-06T09:14:09Z</time></trkpt><trkpt lat="46.406866752244454" lon="13.53169156162706"><ele>1000.0</ele><time>2026-04-06T09:14:10Z</time></trkpt><trkpt lat="46.40698056227096" lon="13.531815810683376"><ele>1000.0</ele><time>2026-04-06T09:14:11Z</time></trkpt><trkpt lat="46.407094228851314" lon="13.53194817311103"><ele>1000.0</ele><time>2026-04-06T09:14:12Z</time></trkpt><trkpt lat="46.407190999976976" lon="13.532085992624234"><ele>1000.0</ele><time>2026-04-06T09:14:13Z</time></trkpt><trkpt lat="46.40725530366293" lon="13.532253862876095"><ele>1000.25</ele><time>2026-04-06T09:14:14Z</time></trkpt><trkpt lat="46.407299226619806" lon="13.532452662838734"><ele>1000.5</ele><time>2026-04-06T09:14:15Z</time></trkpt><trkpt lat="46.40733637482307" lon="13.532656745381246"><ele>1000.75</ele><time>2026-04-06T09:14:16Z</time></trkpt><trkpt lat="46.407376999584564" lon="13.532841857246625"><ele>1001.0</ele><time>2026-04-06T09:14:17Z</time></trkpt><trkpt lat="46.40741804326092" lon="13.533007548801498"><ele>1001.0</ele><time>2026-04-06T09:14:18Z</time></trkpt><trkpt lat="46.40745674793858" lon="13.533168053072528"><ele>1000.9999999999999</ele><time>2026-04-06T09:14:19Z</time></trkpt><trkpt lat="46.40748823700102" lon="13.533308869706344"><ele>1000.9999999999999</ele><time>2026-04-06T09:14:20Z</time></trkpt><trkpt lat="46.40752093658932" lon="13.533425051371413"><ele>1001.0</ele><time>2026-04-06T09:14:21Z</time></trkpt><trkpt lat="46.40757439519131" lon="13.533516362171552"><ele>1001.0</ele><time>2026-04-06T09:14:22Z</time></trkpt><trkpt lat="46.407656642801896" lon="13.53358618218375"><ele>1001.0</ele><time>2026-04-06T09:14:23Z</time></trkpt><trkpt lat="46.407758388919625" lon="13.533633282645221"><ele>1001.0</ele><time>2026-04-06T09:14:24Z</time></trkpt><trkpt lat="46.4078846129241" lon="13.533640590267147"><ele>1001.0</ele><time>2026-04-06T09:14:25Z</time></trkpt><trkpt lat="46.40801946661275" lon="13.533635886655405"><ele>1001.0</ele><time>2026-04-06T09:14:26Z</time></trkpt><trkpt lat="46.40815858217633" lon="13.533639105666698"><ele>1000.75</ele><time>2026-04-06T09:14:27Z</time></trkpt><trkpt lat="46.40828500821893" lon="13.533646295041555"><ele>1000.5</ele><time>2026-04-06T09:14:28Z</time></trkpt><trkpt lat="46.4083999273259" lon="13.533651772849579"><ele>1000.25</ele><time>2026-04-06T09:14:29Z</time></trkpt><trkpt lat="46.408509074958396" lon="13.533653134401604"><ele>1000.0</ele><time>2026-04-06T09:14:30Z</time></trkpt><trkpt lat="46.408609164723764" lon="13.533692598126981"><ele>1000.0</ele><time>2026-04-06T09:14:31Z</time></trkpt><trkpt lat="46.40871323585771" lon="13.533715535972405"><ele>1000.0</ele><time>2026-04-06T09:14:32Z</time></trkpt><trkpt lat="46.4088001274394" lon="13.533813894182076"><ele>1000.0</ele><time>2026-04-06T09:14:33Z</time></trkpt><trkpt lat="46.40887767233217" lon="13.533958635154951"><ele>1000.0</ele><time>2026-04-06T09:14:34Z</time></trkpt><trkpt lat="46.40894806233181" lon="13.534121017772797"><ele>1001.6666666666666</ele><time>2026-04-06T09:14:35Z</time></trkpt><trkpt lat="46.4090192251048" lon="13.534293851065309"><ele>1003.3333333333333</ele><time>2026-04-06T09:14:36Z</time></trkpt><trkpt lat="46.40909448563894" lon="13.534482014206432"><ele>1005.0</ele><time>2026-04-06T09:14:37Z</time></trkpt><trkpt lat="46.40918022637965" lon="13.53468965223343"><ele>1001.0</ele><time>2026-04-06T09:14:38Z</time></trkpt><trkpt lat="46.40927201693547" lon="13.53490521530349"><ele>997.0</ele><time>2026-04-06T09:14:39Z</time></trkpt><trkpt lat="46.409359953704254" lon="13.535096746226436"><ele>993.0</ele><time>2026-04-06T09:14:40Z</time></trkpt><trkpt lat="46.40944477530412" lon="13.535281114889335"><ele>991.8</ele><time>2026-04-06T09:14:41Z</time></trkpt><trkpt lat="46.409522952349654" lon="13.53545670244669"><ele>990.5999999999999</ele><time>2026-04-06T09:14:42Z</time></trkpt><trkpt lat="46.40958866869796" lon="13.53559857055405"><ele>989.4000000000001</ele><time>2026-04-06T09:14:43Z</time></trkpt><trkpt lat="46.40964148353856" lon="13.535709338448926"><ele>988.2</ele><time>2026-04-06T09:14:44Z</time></trkpt><trkpt lat="46.40968851979992" lon="13.535800756870078"><ele>987.0</ele><time>2026-04-06T09:14:45Z</time></trkpt><trkpt lat="46.409707298581544" lon="13.53590185705198"><ele>987.0</ele><time>2026-04-06T09:14:46Z</time></trkpt><trkpt lat="46.40968614061604" lon="13.536004226596887"><ele>987.0</ele><time>2026-04-06T09:14:47Z</time></trkpt><trkpt lat="46.409623861652534" lon="13.536105508705269"><ele>987.0</ele><time>2026-04-06T09:14:48Z</time></trkpt><trkpt lat="46.40953000370936" lon="13.53618578457428"><ele>987.0</ele><time>2026-04-06T09:14:49Z</time></trkpt><trkpt lat="46.409435038093214" lon="13.536274664283996"><ele>987.0</ele><time>2026-04-06T09:14:50Z</time></trkpt><trkpt lat="46.409351859224664" lon="13.536394716439249"><ele>989.4000000000001</ele><time>2026-04-06T09:14:51Z</time></trkpt><trkpt lat="46.40929481107744" lon="13.536538568081692"><ele>991.8000000000001</ele><time>2026-04-06T09:14:52Z</time></trkpt><trkpt lat="46.40924701650832" lon="13.536670707590817"><ele>994.2</ele><time>2026-04-06T09:14:53Z</time></trkpt><trkpt lat="46.40920389443701" lon="13.536815603787671"><ele>996.6</ele><time>2026-04-06T09:14:54Z</time></trkpt><trkpt lat="46.40917955057333" lon="13.536974717289263"><ele>999.0</ele><time>2026-04-06T09:14:55Z</time></trkpt><trkpt lat="46.40917240452283" lon="13.53714789013523"><ele>998.0</ele><time>2026-04-06T09:14:56Z</time></trkpt><trkpt lat="46.40918469289126" lon="13.537323731358494"><ele>997.0</ele><time>2026-04-06T09:14:57Z</time></trkpt><trkpt lat="46.409218328569345" lon="13.53751442361329"><ele>996.0</ele><time>2026-04-06T09:14:58Z</time></trkpt><trkpt lat="46.409265780860906" lon="13.53770784277281"><ele>995.0</ele><time>2026-04-06T09:14:59Z</time></trkpt><trkpt lat="46.40931246764871" lon="13.537904708775601"><ele>995.0</ele><time>2026-04-06T09:15:00Z</time></trkpt><trkpt lat="46.40936021446562" lon="13.538120712999696"><ele>995.0</ele><time>2026-04-06T09:15:01Z</time></trkpt><trkpt lat="46.409412633458324" lon="13.53835670066431"><ele>995.0</ele><time>2026-04-06T09:15:02Z</time></trkpt><trkpt lat="46.40946479478766" lon="13.53860128868664"><ele>992.6666666666667</ele><time>2026-04-06T09:15:03Z</time></trkpt><trkpt lat="46.409517137082666" lon="13.538830720167308"><ele>990.3333333333333</ele><time>2026-04-06T09:15:04Z</time></trkpt><trkpt lat="46.40956712029146" lon="13.539044743527635"><ele>988.0</ele><time>2026-04-06T09:15:05Z</time></trkpt><trkpt lat="46.40961398345153" lon="13.539255102145967"><ele>992.5</ele><time>2026-04-06T09:15:06Z</time></trkpt><trkpt lat="46.40966050489625" lon="13.539459005974287"><ele>997.0</ele><time>2026-04-06T09:15:07Z</time></trkpt><trkpt lat="46.409706040998174" lon="13.539654834165384"><ele>1001.5</ele><time>2026-04-06T09:15:08Z</time></trkpt><trkpt lat="46.40974834114417" lon="13.539842169748644"><ele>1006.0</ele><time>2026-04-06T09:15:09Z</time></trkpt><trkpt lat="46.40978703733899" lon="13.540038663956555"><ele>1006.0</ele><time>2026-04-06T09:15:10Z</time></trkpt><trkpt lat="46.409828380657274" lon="13.540240838468916"><ele>1006.0</ele><time>2026-04-06T09:15:11Z</time></trkpt><trkpt lat="46.40987538292309" lon="13.540455201569117"><ele>1006.0</ele><time>2026-04-06T09:15:12Z</time></trkpt><trkpt lat="46.409935135801675" lon="13.540674461649223"><ele>1002.3333333333333</ele><time>2026-04-06T09:15:13Z</time></trkpt><trkpt lat="46.410005972399254" lon="13.540889432661512"><ele>998.6666666666667</ele><time>2026-04-06T09:15:14Z</time></trkpt><trkpt lat="46.41008437933448" lon="13.541098891251792"><ele>995.0</ele><time>2026-04-06T09:15:15Z</time></trkpt><trkpt lat="46.41015553462724" lon="13.541284798430464"><ele>990.75</ele><time>2026-04-06T09:15:16Z</time></trkpt><trkpt lat="46.41022029207123" lon="13.541463838719475"><ele>986.5</ele><time>2026-04-06T09:15:17Z</time></trkpt><trkpt lat="46.41028776065542" lon="13.541657306513523"><ele>982.25</ele><time>2026-04-06T09:15:18Z</time></trkpt><trkpt lat="46.41034501572" lon="13.541842977583832"><ele>978.0</ele><time>2026-04-06T09:15:19Z</time></trkpt><trkpt lat="46.4103864750984" lon="13.542025176383078"><ele>975.75</ele><time>2026-04-06T09:15:20Z</time></trkpt><trkpt lat="46.41043862001246" lon="13.542210052983457"><ele>973.5</ele><time>2026-04-06T09:15:21Z</time></trkpt><trkpt lat="46.4105080355915" lon="13.542393008701525"><ele>971.25</ele><time>2026-04-06T09:15:22Z</time></trkpt><trkpt lat="46.41059178901527" lon="13.542580487624654"><ele>969.0</ele><time>2026-04-06T09:15:23Z</time></trkpt><trkpt lat="46.410685374766715" lon="13.54278082586327"><ele>973.0</ele><time>2026-04-06T09:15:24Z</time></trkpt><trkpt lat="46.41077720211264" lon="13.54298160897579"><ele>977.0</ele><time>2026-04-06T09:15:25Z</time></trkpt><trkpt lat="46.41085903136225" lon="13.543178089207014"><ele>981.0</ele><time>2026-04-06T09:15:26Z</time></trkpt><trkpt lat="46.410958775227094" lon="13.543353808593483"><ele>981.0</ele><time>2026-04-06T09:15:27Z</time></trkpt><trkpt lat="46.411056928292886" lon="13.54354692212294"><ele>981.0</ele><time>2026-04-06T09:15:28Z</time></trkpt><trkpt lat="46.41116816344794" lon="13.543735941641321"><ele>981.0</ele><time>2026-04-06T09:15:29Z</time></trkpt><trkpt lat="46.41129054795686" lon="13.543921226132516"><ele>984.3333333333333</ele><time>2026-04-06T09:15:30Z</time></trkpt><trkpt lat="46.41141007239188" lon="13.544095557588463"><ele>987.6666666666666</ele><time>2026-04-06T09:15:31Z</time></trkpt><trkpt lat="46.41151038263332" lon="13.544258301204241"><ele>991.0</ele><time>2026-04-06T09:15:32Z</time></trkpt><trkpt lat="46.41160400345708" lon="13.54441074398653"><ele>989.0</ele><time>2026-04-06T09:15:33Z</time></trkpt><trkpt lat="46.41170303093263" lon="13.544554753656312"><ele>987.0</ele><time>2026-04-06T09:15:34Z</time></trkpt><trkpt lat="46.411802468419175" lon="13.544703642492665"><ele>985.0</ele><time>2026-04-06T09:15:35Z</time></trkpt><trkpt lat="46.41188726134167" lon="13.544840756921172"><ele>983.0</ele><time>2026-04-06T09:15:36Z</time></trkpt><trkpt lat="46.41195644084167" lon="13.544984347295602"><ele>983.0</ele><time>2026-04-06T09:15:37Z</time></trkpt><trkpt lat="46.41200983626147" lon="13.545163993148865"><ele>983.0</ele><time>2026-04-06T09:15:38Z</time></trkpt><trkpt lat="46.41206620106285" lon="13.545356575022542"><ele>983.0</ele><time>2026-04-06T09:15:39Z</time></trkpt><trkpt lat="46.412114533300446" lon="13.545534411159666"><ele>983.0</ele><time>2026-04-06T09:15:40Z</time></trkpt><trkpt lat="46.41217510051072" lon="13.545678303100518"><ele>984.25</ele><time>2026-04-06T09:15:41Z</time></trkpt><trkpt lat="46.412237963297535" lon="13.54580843533679"><ele>985.5</ele><time>2026-04-06T09:15:42Z</time></trkpt><trkpt lat="46.41231144702942" lon="13.545952546534814"><ele>986.75</ele><time>2026-04-06T09:15:43Z</time></trkpt><trkpt lat="46.41239204746139" lon="13.546115149633692"><ele>988.0</ele><time>2026-04-06T09:15:44Z</time></trkpt><trkpt lat="46.41247658736963" lon="13.546304687034818"><ele>988.0</ele><time>2026-04-06T09:15:45Z</time></trkpt><trkpt lat="46.412574464895314" lon="13.546514418415729"><ele>988.0</ele><time>2026-04-06T09:15:46Z</time></trkpt><trkpt lat="46.41267185776463" lon="13.546725302866271"><ele>988.0</ele><time>2026-04-06T09:15:47Z</time></trkpt><trkpt lat="46.41277401914296" lon="13.546949987333134"><ele>991.0</ele><time>2026-04-06T09:15:48Z</time></trkpt><trkpt lat="46.41287143917606" lon="13.547156585124096"><ele>994.0</ele><time>2026-04-06T09:15:49Z</time></trkpt><trkpt lat="46.41296224613106" lon="13.547347553057348"><ele>997.0</ele><time>2026-04-06T09:15:50Z</time></trkpt><trkpt lat="46.41304975530793" lon="13.547533678035293"><ele>997.0</ele><time>2026-04-06T09:15:51Z</time></trkpt><trkpt lat="46.413136711067864" lon="13.547724146606864"><ele>997.0</ele><time>2026-04-06T09:15:52Z</time></trkpt><trkpt lat="46.41322572767253" lon="13.547921476147467"><ele>997.0</ele><time>2026-04-06T09:15:53Z</time></trkpt><trkpt lat="46.413312874207286" lon="13.548105158045662"><ele>993.5</ele><time>2026-04-06T09:15:54Z</time></trkpt><trkpt lat="46.413395562181755" lon="13.548279232114764"><ele>990.0</ele><time>2026-04-06T09:15:55Z</time></trkpt><trkpt lat="46.413478092784395" lon="13.548449975352476"><ele>986.5</ele><time>2026-04-06T09:15:56Z</time></trkpt><trkpt lat="46.41356256922442" lon="13.548627049607918"><ele>983.0</ele><time>2026-04-06T09:15:57Z</time></trkpt><trkpt lat="46.41364903988244" lon="13.548813995231624"><ele>980.0</ele><time>2026-04-06T09:15:58Z</time></trkpt><trkpt lat="46.413738140902964" lon="13.54900830458666"><ele>977.0</ele><time>2026-04-06T09:15:59Z</time></trkpt><trkpt lat="46.41383438279255" lon="13.549212308270063"><ele>974.0</ele><time>2026-04-06T09:16:00Z</time></trkpt><trkpt lat="46.41393186395022" lon="13.549425618333071"><ele>977.25</ele><time>2026-04-06T09:16:01Z</time></trkpt><trkpt lat="46.41402123820964" lon="13.549622569250106"><ele>980.5</ele><time>2026-04-06T09:16:02Z</time></trkpt><trkpt lat="46.414104115011945" lon="13.549802585215694"><ele>983.75</ele><time>2026-04-06T09:16:03Z</time></trkpt><trkpt lat="46.41418204951037" lon="13.5499657609938"><ele>987.0</ele><time>2026-04-06T09:16:04Z</time></trkpt><trkpt lat="46.414259485734675" lon="13.550125536415104"><ele>987.0</ele><time>2026-04-06T09:16:05Z</time></trkpt><trkpt lat="46.41433796942617" lon="13.550293405662254"><ele>987.0</ele><time>2026-04-06T09:16:06Z</time></trkpt><trkpt lat="46.414415894397344" lon="13.550461673446367"><ele>987.0</ele><time>2026-04-06T09:16:07Z</time></trkpt><trkpt lat="46.41448616247964" lon="13.550615565747744"><ele>987.0</ele><time>2026-04-06T09:16:08Z</time></trkpt><trkpt lat="46.4145498436302" lon="13.550757132573606"><ele>984.75</ele><time>2026-04-06T09:16:09Z</time></trkpt><trkpt lat="46.41460034653055" lon="13.55091689616597"><ele>982.5</ele><time>2026-04-06T09:16:10Z</time></trkpt><trkpt lat="46.41463567218582" lon="13.551105618536756"><ele>980.25</ele><time>2026-04-06T09:16:11Z</time></trkpt><trkpt lat="46.41465226646428" lon="13.551301960124004"><ele>978.0</ele><time>2026-04-06T09:16:12Z</time></trkpt><trkpt lat="46.414670515316885" lon="13.551481354829038"><ele>980.0</ele><time>2026-04-06T09:16:13Z</time></trkpt><trkpt lat="46.41468921064858" lon="13.551652862866584"><ele>982.0</ele><time>2026-04-06T09:16:14Z</time></trkpt><trkpt lat="46.414709204548686" lon="13.551817814100769"><ele>984.0</ele><time>2026-04-06T09:16:15Z</time></trkpt><trkpt lat="46.41473033348313" lon="13.551975941610051"><ele>986.0</ele><time>2026-04-06T09:16:16Z</time></trkpt><trkpt lat="46.41477008388315" lon="13.55212402723029"><ele>986.0</ele><time>2026-04-06T09:16:17Z</time></trkpt><trkpt lat="46.41484129554269" lon="13.552277709606715"><ele>986.0</ele><time>2026-04-06T09:16:18Z</time></trkpt><trkpt lat="46.41494219218001" lon="13.552423225524233"><ele>986.0</ele><time>2026-04-06T09:16:19Z</time></trkpt><trkpt lat="46.41504155218483" lon="13.552556180724617"><ele>986.0</ele><time>2026-04-06T09:16:20Z</time></trkpt><trkpt lat="46.415122605890176" lon="13.552692849479238"><ele>986.0</ele><time>2026-04-06T09:16:21Z</time></trkpt><trkpt lat="46.41519356757029" lon="13.552838647888887"><ele>986.0</ele><time>2026-04-06T09:16:22Z</time></trkpt><trkpt lat="46.41526128243611" lon="13.553011350285194"><ele>986.0</ele><time>2026-04-06T09:16:23Z</time></trkpt><trkpt lat="46.4153232779757" lon="13.5532105369437"><ele>986.0</ele><time>2026-04-06T09:16:24Z</time></trkpt><trkpt lat="46.41538078488026" lon="13.553420638166754"><ele>985.25</ele><time>2026-04-06T09:16:25Z</time></trkpt><trkpt lat="46.41543618180253" lon="13.55361525261443"><ele>984.5</ele><time>2026-04-06T09:16:26Z</time></trkpt><trkpt lat="46.415487863621756" lon="13.553797193252091"><ele>983.75</ele><time>2026-04-06T09:16:27Z</time></trkpt><trkpt lat="46.41553523840505" lon="13.55397499016679"><ele>983.0</ele><time>2026-04-06T09:16:28Z</time></trkpt><trkpt lat="46.41557853186526" lon="13.554141327211392"><ele>983.0</ele><time>2026-04-06T09:16:29Z</time></trkpt><trkpt lat="46.41562500723534" lon="13.55431251910054"><ele>983.0</ele><time>2026-04-06T09:16:30Z</time></trkpt><trkpt lat="46.41568403338928" lon="13.55448742042854"><ele>983.0</ele><time>2026-04-06T09:16:31Z</time></trkpt><trkpt lat="46.415756450858574" lon="13.554640296668438"><ele>983.0</ele><time>2026-04-06T09:16:32Z</time></trkpt><trkpt lat="46.415847972886965" lon="13.554785540951382"><ele>981.0</ele><time>2026-04-06T09:16:33Z</time></trkpt><trkpt lat="46.415949420075805" lon="13.554934577826225"><ele>979.0</ele><time>2026-04-06T09:16:34Z</time></trkpt><trkpt lat="46.416050064094804" lon="13.55508535605724"><ele>977.0</ele><time>2026-04-06T09:16:35Z</time></trkpt><trkpt lat="46.41613907012714" lon="13.555228920075034"><ele>975.0</ele><time>2026-04-06T09:16:36Z</time></trkpt><trkpt lat="46.4162223749123" lon="13.555362537261798"><ele>976.5</ele><time>2026-04-06T09:16:37Z</time></trkpt><trkpt lat="46.416310152706565" lon="13.555500702961744"><ele>978.0</ele><time>2026-04-06T09:16:38Z</time></trkpt><trkpt lat="46.41641043029543" lon="13.555651971082048"><ele>979.5</ele><time>2026-04-06T09:16:39Z</time></trkpt><trkpt lat="46.416513809802375" lon="13.555810517914908"><ele>981.0</ele><time>2026-04-06T09:16:40Z</time></trkpt><trkpt lat="46.4166163403991" lon="13.555967749296657"><ele>981.0</ele><time>2026-04-06T09:16:41Z</time></trkpt><trkpt lat="46.416715765004234" lon="13.556115744361"><ele>981.0</ele><time>2026-04-06T09:16:42Z</time></trkpt><trkpt lat="46.416814733431686" lon="13.556272186445629"><ele>981.0</ele><time>2026-04-06T09:16:43Z</time></trkpt><trkpt lat="46.41691859326986" lon="13.556433437471968"><ele>981.0</ele><time>2026-04-06T09:16:44Z</time></trkpt><trkpt lat="46.41702002761593" lon="13.556583834841094"><ele>978.75</ele><time>2026-04-06T09:16:45Z</time></trkpt><trkpt lat="46.41711533961416" lon="13.556719224468711"><ele>976.5</ele><time>2026-04-06T09:16:46Z</time></trkpt><trkpt lat="46.41720596362844" lon="13.556847371354545"><ele>974.25</ele><time>2026-04-06T09:16:47Z</time></trkpt><trkpt lat="46.41730115981301" lon="13.556983502047952"><ele>972.0</ele><time>2026-04-06T09:16:48Z</time></trkpt><trkpt lat="46.41739561828233" lon="13.557121580280324"><ele>972.0</ele><time>2026-04-06T09:16:49Z</time></trkpt><trkpt lat="46.41748909399967" lon="13.55726352343912"><ele>972.0</ele><time>2026-04-06T09:16:50Z</time></trkpt><trkpt lat="46.41757993627508" lon="13.557394783908524"><ele>972.0</ele><time>2026-04-06T09:16:51Z</time></trkpt><trkpt lat="46.41766476374838" lon="13.557523590850373"><ele>972.0</ele><time>2026-04-06T09:16:52Z</time></trkpt><trkpt lat="46.41775504550885" lon="13.557653212717259"><ele>972.0</ele><time>2026-04-06T09:16:53Z</time></trkpt><trkpt lat="46.41784739058278" lon="13.557787855228531"><ele>972.0</ele><time>2026-04-06T09:16:54Z</time></trkpt><trkpt lat="46.41793928624311" lon="13.557922876426153"><ele>972.0</ele><time>2026-04-06T09:16:55Z</time></trkpt><trkpt lat="46.41802130877867" lon="13.558054701115303"><ele>972.0</ele><time>2026-04-06T09:16:56Z</time></trkpt><trkpt lat="46.418091709400954" lon="13.558195766167497"><ele>973.5</ele><time>2026-04-06T09:16:57Z</time></trkpt><trkpt lat="46.418155105607035" lon="13.558353672216546"><ele>975.0</ele><time>2026-04-06T09:16:58Z</time></trkpt><trkpt lat="46.41821413742427" lon="13.558513867098318"><ele>976.5</ele><time>2026-04-06T09:16:59Z</time></trkpt><trkpt lat="46.41826832713329" lon="13.558666330419559"><ele>978.0</ele><time>2026-04-06T09:17:00Z</time></trkpt><trkpt lat="46.418323260230494" lon="13.558813773502969"><ele>973.0</ele><time>2026-04-06T09:17:01Z</time></trkpt><trkpt lat="46.41840091157565" lon="13.558956078049999"><ele>968.0</ele><time>2026-04-06T09:17:02Z</time></trkpt><trkpt lat="46.41850116386984" lon="13.55910715104802"><ele>963.0</ele><time>2026-04-06T09:17:03Z</time></trkpt><trkpt lat="46.418614078423644" lon="13.55926649632729"><ele>958.0</ele><time>2026-04-06T09:17:04Z</time></trkpt><trkpt lat="46.418722394354305" lon="13.559415305767681"><ele>960.25</ele><time>2026-04-06T09:17:05Z</time></trkpt><trkpt lat="46.418832136607314" lon="13.559554002804575"><ele>962.5</ele><time>2026-04-06T09:17:06Z</time></trkpt><trkpt lat="46.41893562694077" lon="13.559686339927335"><ele>964.75</ele><time>2026-04-06T09:17:07Z</time></trkpt><trkpt lat="46.419042693283785" lon="13.559822912041136"><ele>967.0</ele><time>2026-04-06T09:17:08Z</time></trkpt><trkpt lat="46.41914432999188" lon="13.559950739557593"><ele>967.0</ele><time>2026-04-06T09:17:09Z</time></trkpt><trkpt lat="46.419238426433296" lon="13.56007304029673"><ele>967.0</ele><time>2026-04-06T09:17:10Z</time></trkpt><trkpt lat="46.41933345082985" lon="13.560192637668367"><ele>967.0</ele><time>2026-04-06T09:17:11Z</time></trkpt><trkpt lat="46.41941800892821" lon="13.560303496068194"><ele>967.0</ele><time>2026-04-06T09:17:12Z</time></trkpt><trkpt lat="46.41950613648307" lon="13.560420578376906"><ele>964.75</ele><time>2026-04-06T09:17:13Z</time></trkpt><trkpt lat="46.41959738369136" lon="13.560535962065691"><ele>962.5</ele><time>2026-04-06T09:17:14Z</time></trkpt><trkpt lat="46.41969262963048" lon="13.560654878856752"><ele>960.25</ele><time>2026-04-06T09:17:15Z</time></trkpt><trkpt lat="46.419778811594824" lon="13.560763430846487"><ele>958.0</ele><time>2026-04-06T09:17:16Z</time></trkpt><trkpt lat="46.419857612412144" lon="13.560867916856669"><ele>957.9999999999999</ele><time>2026-04-06T09:17:17Z</time></trkpt><trkpt lat="46.41992448211752" lon="13.56095505365665"><ele>958.0</ele><time>2026-04-06T09:17:18Z</time></trkpt><trkpt lat="46.41997328922366" lon="13.561012872211037"><ele>958.0</ele><time>2026-04-06T09:17:19Z</time></trkpt><trkpt lat="46.42003678051152" lon="13.56108888500857"><ele>958.0</ele><time>2026-04-06T09:17:21Z</time></trkpt><trkpt lat="46.420097894090866" lon="13.561185599317886"><ele>957.9999999999999</ele><time>2026-04-06T09:17:24Z</time></trkpt><trkpt lat="46.420184469133886" lon="13.5612929078725"><ele>958.0</ele><time>2026-04-06T09:17:26Z</time></trkpt><trkpt lat="46.42025023595751" lon="13.561370822709044"><ele>957.9999999999999</ele><time>2026-04-06T09:17:27Z</time></trkpt><trkpt lat="46.42030846758424" lon="13.561442508219523"><ele>958.0</ele><time>2026-04-06T09:17:28Z</time></trkpt><trkpt lat="46.42036246389007" lon="13.561507002523596"><ele>958.0</ele><time>2026-04-06T09:17:29Z</time></trkpt><trkpt lat="46.420420451495964" lon="13.561576054586059"><ele>958.0</ele><time>2026-04-06T09:17:30Z</time></trkpt><trkpt lat="46.42049291851874" lon="13.561659787554248"><ele>957.9999999999999</ele><time>2026-04-06T09:17:31Z</time></trkpt><trkpt lat="46.42058785719786" lon="13.5617649145203"><ele>958.0</ele><time>2026-04-06T09:17:32Z</time></trkpt><trkpt lat="46.4206923210974" lon="13.561866004847207"><ele>957.25</ele><time>2026-04-06T09:17:33Z</time></trkpt><trkpt lat="46.42078793101909" lon="13.561953359177826"><ele>956.5</ele><time>2026-04-06T09:17:34Z</time></trkpt><trkpt lat="46.420879331140874" lon="13.562043178624252"><ele>955.75</ele><time>2026-04-06T09:17:35Z</time></trkpt><trkpt lat="46.420979879257914" lon="13.562137590808142"><ele>955.0</ele><time>2026-04-06T09:17:36Z</time></trkpt><trkpt lat="46.42108155900959" lon="13.562239228191759"><ele>955.0</ele><time>2026-04-06T09:17:37Z</time></trkpt><trkpt lat="46.42118080319623" lon="13.562334833109267"><ele>955.0</ele><time>2026-04-06T09:17:38Z</time></trkpt><trkpt lat="46.42128424859058" lon="13.562429509715987"><ele>955.0</ele><time>2026-04-06T09:17:39Z</time></trkpt><trkpt lat="46.42137850179205" lon="13.562512010250733"><ele>955.0</ele><time>2026-04-06T09:17:40Z</time></trkpt><trkpt lat="46.421470579291736" lon="13.562592745513259"><ele>954.75</ele><time>2026-04-06T09:17:41Z</time></trkpt><trkpt lat="46.42157322514189" lon="13.562677640200507"><ele>954.5</ele><time>2026-04-06T09:17:42Z</time></trkpt><trkpt lat="46.42168097539707" lon="13.562769577230927"><ele>954.25</ele><time>2026-04-06T09:17:43Z</time></trkpt><trkpt lat="46.42179570637852" lon="13.562865170893987"><ele>954.0</ele><time>2026-04-06T09:17:44Z</time></trkpt><trkpt lat="46.4219136514178" lon="13.56295021485746"><ele>954.0</ele><time>2026-04-06T09:17:45Z</time></trkpt><trkpt lat="46.422026036883594" lon="13.563016431288805"><ele>954.0</ele><time>2026-04-06T09:17:46Z</time></trkpt><trkpt lat="46.422144255048764" lon="13.563080928484302"><ele>954.0</ele><time>2026-04-06T09:17:47Z</time></trkpt><trkpt lat="46.42226376597037" lon="13.563148027528738"><ele>954.0</ele><time>2026-04-06T09:17:48Z</time></trkpt><trkpt lat="46.42237582246821" lon="13.563213573386639"><ele>956.5</ele><time>2026-04-06T09:17:49Z</time></trkpt><trkpt lat="46.42247720979537" lon="13.563272069090393"><ele>959.0</ele><time>2026-04-06T09:17:50Z</time></trkpt><trkpt lat="46.42257859300315" lon="13.563328362391584"><ele>961.5</ele><time>2026-04-06T09:17:51Z</time></trkpt><trkpt lat="46.42269034465293" lon="13.56339050338395"><ele>964.0</ele><time>2026-04-06T09:17:52Z</time></trkpt><trkpt lat="46.42281082000641" lon="13.563458695742813"><ele>964.0</ele><time>2026-04-06T09:17:53Z</time></trkpt><trkpt lat="46.42294107428842" lon="13.563522154337313"><ele>964.0</ele><time>2026-04-06T09:17:54Z</time></trkpt><trkpt lat="46.4230728963635" lon="13.563569553734895"><ele>964.0</ele><time>2026-04-06T09:17:55Z</time></trkpt><trkpt lat="46.42319748591141" lon="13.56359535854284"><ele>964.0</ele><time>2026-04-06T09:17:56Z</time></trkpt><trkpt lat="46.42331394998685" lon="13.563609240983745"><ele>962.5</ele><time>2026-04-06T09:17:57Z</time></trkpt><trkpt lat="46.42342355541085" lon="13.563623794332802"><ele>961.0</ele><time>2026-04-06T09:17:58Z</time></trkpt><trkpt lat="46.42352102609097" lon="13.56367966821326"><ele>959.5</ele><time>2026-04-06T09:17:59Z</time></trkpt><trkpt lat="46.4236117967599" lon="13.563784391729195"><ele>958.0</ele><time>2026-04-06T09:18:00Z</time></trkpt><trkpt lat="46.423690753563676" lon="13.563941966071019"><ele>958.0</ele><time>2026-04-06T09:18:01Z</time></trkpt><trkpt lat="46.42375201845971" lon="13.564133242207898"><ele>958.0</ele><time>2026-04-06T09:18:02Z</time></trkpt><trkpt lat="46.42379318026869" lon="13.56430803522667"><ele>958.0</ele><time>2026-04-06T09:18:03Z</time></trkpt><trkpt lat="46.423848721397036" lon="13.564473415795867"><ele>958.0</ele><time>2026-04-06T09:18:04Z</time></trkpt><trkpt lat="46.42389874476158" lon="13.564625337556842"><ele>961.5</ele><time>2026-04-06T09:18:05Z</time></trkpt><trkpt lat="46.42395995225589" lon="13.564786219976297"><ele>965.0</ele><time>2026-04-06T09:18:06Z</time></trkpt><trkpt lat="46.424005099980995" lon="13.564944104330609"><ele>968.5</ele><time>2026-04-06T09:18:07Z</time></trkpt><trkpt lat="46.42404592321955" lon="13.56508847554709"><ele>972.0</ele><time>2026-04-06T09:18:08Z</time></trkpt><trkpt lat="46.42408841769766" lon="13.565228852457556"><ele>972.0</ele><time>2026-04-06T09:18:09Z</time></trkpt><trkpt lat="46.42412830037598" lon="13.565342547783038"><ele>972.0</ele><time>2026-04-06T09:18:10Z</time></trkpt><trkpt lat="46.42417983379904" lon="13.565447031302922"><ele>972.0</ele><time>2026-04-06T09:18:11Z</time></trkpt><trkpt lat="46.42425812171065" lon="13.565536110080746"><ele>972.0</ele><time>2026-04-06T09:18:12Z</time></trkpt><trkpt lat="46.42435646364645" lon="13.565595788542584"><ele>972.0</ele><time>2026-04-06T09:18:13Z</time></trkpt><trkpt lat="46.424475879547245" lon="13.56564210514387"><ele>970.25</ele><time>2026-04-06T09:18:14Z</time></trkpt><trkpt lat="46.42460151515007" lon="13.565673622206015"><ele>968.5</ele><time>2026-04-06T09:18:15Z</time></trkpt><trkpt lat="46.42471691690894" lon="13.565699403293243"><ele>966.75</ele><time>2026-04-06T09:18:16Z</time></trkpt><trkpt lat="46.424820765118675" lon="13.565730313268494"><ele>965.0</ele><time>2026-04-06T09:18:17Z</time></trkpt><trkpt lat="46.42492287072758" lon="13.5657536401726"><ele>965.0</ele><time>2026-04-06T09:18:18Z</time></trkpt><trkpt lat="46.42502925189035" lon="13.56576529747278"><ele>965.0</ele><time>2026-04-06T09:18:19Z</time></trkpt><trkpt lat="46.42513143363606" lon="13.565743620896017"><ele>965.0</ele><time>2026-04-06T09:18:20Z</time></trkpt><trkpt lat="46.42523856358212" lon="13.565683600462975"><ele>965.0</ele><time>2026-04-06T09:18:21Z</time></trkpt><trkpt lat="46.42535404525676" lon="13.56558952561457"><ele>965.0</ele><time>2026-04-06T09:18:22Z</time></trkpt><trkpt lat="46.42546027207198" lon="13.565491506256192"><ele>965.0</ele><time>2026-04-06T09:18:23Z</time></trkpt><trkpt lat="46.425550127439806" lon="13.56539343792461"><ele>965.0</ele><time>2026-04-06T09:18:24Z</time></trkpt><trkpt lat="46.4256349402297" lon="13.565311362758619"><ele>965.0</ele><time>2026-04-06T09:18:25Z</time></trkpt><trkpt lat="46.425720264031824" lon="13.565256935476933"><ele>965.0</ele><time>2026-04-06T09:18:26Z</time></trkpt><trkpt lat="46.425801546978164" lon="13.565231691177852"><ele>965.6666666666667</ele><time>2026-04-06T09:18:27Z</time></trkpt><trkpt lat="46.42586959496678" lon="13.565234063832474"><ele>966.3333333333334</ele><time>2026-04-06T09:18:28Z</time></trkpt><trkpt lat="46.42594969466234" lon="13.565229248605585"><ele>967.0</ele><time>2026-04-06T09:18:29Z</time></trkpt><trkpt lat="46.42603446802484" lon="13.565252456280568"><ele>967.6666666666667</ele><time>2026-04-06T09:18:30Z</time></trkpt><trkpt lat="46.42612936645853" lon="13.565283407703127"><ele>968.3333333333334</ele><time>2026-04-06T09:18:31Z</time></trkpt><trkpt lat="46.42623379825243" lon="13.565320480282677"><ele>969.0</ele><time>2026-04-06T09:18:32Z</time></trkpt><trkpt lat="46.42634740249998" lon="13.56536630221017"><ele>969.0</ele><time>2026-04-06T09:18:33Z</time></trkpt><trkpt lat="46.42647402738633" lon="13.565424279793948"><ele>969.0</ele><time>2026-04-06T09:18:34Z</time></trkpt><trkpt lat="46.42660499491965" lon="13.565494615882596"><ele>969.0</ele><time>2026-04-06T09:18:35Z</time></trkpt><trkpt lat="46.42672048958171" lon="13.565555489067073"><ele>969.0</ele><time>2026-04-06T09:18:36Z</time></trkpt><trkpt lat="46.42682816177885" lon="13.565609456595308"><ele>969.0</ele><time>2026-04-06T09:18:37Z</time></trkpt><trkpt lat="46.42692630516524" lon="13.565660573062674"><ele>969.0000000000001</ele><time>2026-04-06T09:18:38Z</time></trkpt><trkpt lat="46.42700891792432" lon="13.565704115431796"><ele>969.0000000000001</ele><time>2026-04-06T09:18:39Z</time></trkpt><trkpt lat="46.4270737253805" lon="13.56573717185283"><ele>969.0</ele><time>2026-04-06T09:18:40Z</time></trkpt><trkpt lat="46.42718650780777" lon="13.565783203645106"><ele>969.0</ele><time>2026-04-06T09:18:42Z</time></trkpt><trkpt lat="46.42724009880306" lon="13.565853931834909"><ele>969.0</ele><time>2026-04-06T09:18:44Z</time></trkpt><trkpt lat="46.427199281169194" lon="13.565936527401822"><ele>969.0</ele><time>2026-04-06T09:18:46Z</time></trkpt><trkpt lat="46.427139490507074" lon="13.56602589388566"><ele>969.0</ele><time>2026-04-06T09:18:48Z</time></trkpt><trkpt lat="46.42709503294675" lon="13.56611037824541"><ele>969.0</ele><time>2026-04-06T09:18:50Z</time></trkpt><trkpt lat="46.42703933566008" lon="13.566205829580522"><ele>969.0</ele><time>2026-04-06T09:18:52Z</time></trkpt><trkpt lat="46.42698608337886" lon="13.566311554493323"><ele>969.0</ele><time>2026-04-06T09:18:54Z</time></trkpt><trkpt lat="46.42694580194684" lon="13.566404484026743"><ele>967.0</ele><time>2026-04-06T09:18:56Z</time></trkpt><trkpt lat="46.426918024419244" lon="13.566493631333499"><ele>967.0</ele><time>2026-04-06T09:18:58Z</time></trkpt><trkpt lat="46.42689632759978" lon="13.566590142886756"><ele>967.0</ele><time>2026-04-06T09:19:01Z</time></trkpt><trkpt lat="46.42693310330316" lon="13.566682285964278"><ele>967.0</ele><time>2026-04-06T09:19:05Z</time></trkpt><trkpt lat="46.426982148977864" lon="13.566758250549295"><ele>967.0</ele><time>2026-04-06T09:19:08Z</time></trkpt></trkseg></trk></gpx>